<?xml version='1.0' encoding='UTF-8'?><gpx version="1.1" creator="JPX - https://github.com/jenetics/jpx" xmlns="http://www.topografix.com/GPX/1/1"><trk><trkseg><trkpt lat="47.246999350174264" lon="-1.568742157360804"><ele>28.666666666666664</ele><time>2026-04-06T16:07:23.301Z</time></trkpt><trkpt lat="47.24711292714739" lon="-1.5683970813912018"><ele>28.333333333333336</ele><time>2026-04-06T16:07:29.411Z</time></trkpt><trkpt lat="47.24714963504545" lon="-1.5682562628343701"><ele>28.0</ele><time>2026-04-06T16:07:30.111Z</time></trkpt><trkpt lat="47.24708355036308" lon="-1.5677717886879738"><ele>28.0</ele><time>2026-04-06T16:07:34.011Z</time></trkpt><trkpt lat="47.24723035939713" lon="-1.5676358342185315"><ele>27.999999999999996</ele><time>2026-04-06T16:07:36.018Z</time></trkpt><trkpt lat="47.24724896722217" lon="-1.5677265264108475"><ele>27.999999999999996</ele><time>2026-04-06T16:07:37.017Z</time></trkpt><trkpt lat="47.24729938436975" lon="-1.567644216121703"><ele>28.0</ele><time>2026-04-06T16:07:39.052Z</time></trkpt><trkpt lat="47.24729427140881" lon="-1.5675367601230437"><ele>28.0</ele><time>2026-04-06T16:07:42.045Z</time></trkpt><trkpt lat="47.24734778986056" lon="-1.5674820262953335"><ele>28.0</ele><time>2026-04-06T16:07:44.06Z</time></trkpt><trkpt lat="47.24741803020914" lon="-1.5675258636489207"><ele>27.999999999999996</ele><time>2026-04-06T16:07:46.047Z</time></trkpt><trkpt lat="47.24749711346556" lon="-1.5676169749363955"><ele>27.999999999999996</ele><time>2026-04-06T16:07:48.064Z</time></trkpt><trkpt lat="47.24756773099978" lon="-1.567702554167777"><ele>28.0</ele><time>2026-04-06T16:07:50.059Z</time></trkpt><trkpt lat="47.24766315896739" lon="-1.567791234703332"><ele>28.0</ele><time>2026-04-06T16:07:52.059Z</time></trkpt><trkpt lat="47.24772568796505" lon="-1.567866336555749"><ele>28.4</ele><time>2026-04-06T16:07:54.059Z</time></trkpt><trkpt lat="47.247820864475564" lon="-1.567936995999485"><ele>28.799999999999997</ele><time>2026-04-06T16:07:56.055Z</time></trkpt><trkpt lat="47.247915244705275" lon="-1.5679781511440574"><ele>29.2</ele><time>2026-04-06T16:07:58.053Z</time></trkpt><trkpt lat="47.248037578582064" lon="-1.5680187195554076"><ele>29.6</ele><time>2026-04-06T16:08:00.048Z</time></trkpt><trkpt lat="47.2481029574268" lon="-1.5680530853584111"><ele>30.0</ele><time>2026-04-06T16:08:01.053Z</time></trkpt><trkpt lat="47.24818333987822" lon="-1.5680908877417148"><ele>30.4</ele><time>2026-04-06T16:08:03.05Z</time></trkpt><trkpt lat="47.24827428352763" lon="-1.568128522486955"><ele>30.8</ele><time>2026-04-06T16:08:05.041Z</time></trkpt><trkpt lat="47.248373986265854" lon="-1.5681469626739324"><ele>31.200000000000003</ele><time>2026-04-06T16:08:07.048Z</time></trkpt><trkpt lat="47.24845508117904" lon="-1.5681848488762677"><ele>31.6</ele><time>2026-04-06T16:08:09.064Z</time></trkpt><trkpt lat="47.248558220497564" lon="-1.5682068094625772"><ele>32.0</ele><time>2026-04-06T16:08:11.066Z</time></trkpt><trkpt lat="47.24864970897068" lon="-1.5682369843139947"><ele>32.0</ele><time>2026-04-06T16:08:13.048Z</time></trkpt><trkpt lat="47.24871559072961" lon="-1.5682476293310226"><ele>32.0</ele><time>2026-04-06T16:08:14.048Z</time></trkpt><trkpt lat="47.24882686049421" lon="-1.5682735294118229"><ele>32.0</ele><time>2026-04-06T16:08:16.044Z</time></trkpt><trkpt lat="47.24893423267384" lon="-1.5682923886939588"><ele>32.0</ele><time>2026-04-06T16:08:18.051Z</time></trkpt><trkpt lat="47.249050741127924" lon="-1.5683201327934566"><ele>32.0</ele><time>2026-04-06T16:08:20.041Z</time></trkpt><trkpt lat="47.24914436698635" lon="-1.5683925524368587"><ele>32.666666666666664</ele><time>2026-04-06T16:08:22.047Z</time></trkpt><trkpt lat="47.24920697980304" lon="-1.5684273373350206"><ele>33.33333333333333</ele><time>2026-04-06T16:08:24.047Z</time></trkpt><trkpt lat="47.249267664782" lon="-1.568461116404802"><ele>34.0</ele><time>2026-04-06T16:08:25.051Z</time></trkpt><trkpt lat="47.24937197756697" lon="-1.5684918779894415"><ele>34.666666666666664</ele><time>2026-04-06T16:08:27.076Z</time></trkpt><trkpt lat="47.24946740553458" lon="-1.5685025230064695"><ele>35.333333333333336</ele><time>2026-04-06T16:08:29.05Z</time></trkpt><trkpt lat="47.24955277521838" lon="-1.5685204602792566"><ele>36.0</ele><time>2026-04-06T16:08:31.062Z</time></trkpt><trkpt lat="47.249641581482486" lon="-1.5685501322164839"><ele>36.0</ele><time>2026-04-06T16:08:33.05Z</time></trkpt><trkpt lat="47.249746019996" lon="-1.5685631241663998"><ele>36.0</ele><time>2026-04-06T16:08:35.059Z</time></trkpt><trkpt lat="47.24983687982638" lon="-1.5685764513924425"><ele>36.0</ele><time>2026-04-06T16:08:37.046Z</time></trkpt><trkpt lat="47.249928326389984" lon="-1.5685832407340115"><ele>36.0</ele><time>2026-04-06T16:08:39.045Z</time></trkpt><trkpt lat="47.250019689134554" lon="-1.5685725957169836"><ele>36.0</ele><time>2026-04-06T16:08:41.051Z</time></trkpt><trkpt lat="47.250111638612346" lon="-1.568535044790775"><ele>36.333333333333336</ele><time>2026-04-06T16:08:44.049Z</time></trkpt><trkpt lat="47.25020023532887" lon="-1.5684935543700758"><ele>36.666666666666664</ele><time>2026-04-06T16:08:46.149Z</time></trkpt><trkpt lat="47.250309744893805" lon="-1.5684719290598932"><ele>37.0</ele><time>2026-04-06T16:08:48.044Z</time></trkpt><trkpt lat="47.25037151952018" lon="-1.5684358030572239"><ele>37.33333333333333</ele><time>2026-04-06T16:08:50.048Z</time></trkpt><trkpt lat="47.25043036048044" lon="-1.5683855116381946"><ele>37.666666666666664</ele><time>2026-04-06T16:08:52.051Z</time></trkpt><trkpt lat="47.25051275458862" lon="-1.5683425962939563"><ele>38.0</ele><time>2026-04-06T16:08:54.053Z</time></trkpt><trkpt lat="47.25058647342701" lon="-1.5682923886939588"><ele>37.8</ele><time>2026-04-06T16:08:56.055Z</time></trkpt><trkpt lat="47.250661323822335" lon="-1.5682284347727597"><ele>37.599999999999994</ele><time>2026-04-06T16:08:58.05Z</time></trkpt><trkpt lat="47.250751974105135" lon="-1.5681442804649175"><ele>37.400000000000006</ele><time>2026-04-06T16:09:00.049Z</time></trkpt><trkpt lat="47.25083893635054" lon="-1.5680379141136707"><ele>37.2</ele><time>2026-04-06T16:09:02.047Z</time></trkpt><trkpt lat="47.25092401266773" lon="-1.5679866168662606"><ele>37.0</ele><time>2026-04-06T16:09:04.049Z</time></trkpt><trkpt lat="47.25097686056723" lon="-1.567934397609502"><ele>37.0</ele><time>2026-04-06T16:09:05.047Z</time></trkpt><trkpt lat="47.25108289164235" lon="-1.5678664203747807"><ele>37.0</ele><time>2026-04-06T16:09:07.067Z</time></trkpt><trkpt lat="47.25114537873049" lon="-1.567806238310009"><ele>37.0</ele><time>2026-04-06T16:09:08.048Z</time></trkpt><trkpt lat="47.251234687908784" lon="-1.5676712058499154"><ele>37.0</ele><time>2026-04-06T16:09:10.051Z</time></trkpt><trkpt lat="47.251288499727146" lon="-1.5675340779140288"><ele>37.0</ele><time>2026-04-06T16:09:12.047Z</time></trkpt><trkpt lat="47.25135040008207" lon="-1.5674514323487574"><ele>36.714285714285715</ele><time>2026-04-06T16:09:13.054Z</time></trkpt><trkpt lat="47.2513917228647" lon="-1.5673747379347378"><ele>36.42857142857143</ele><time>2026-04-06T16:09:14.049Z</time></trkpt><trkpt lat="47.25142340645869" lon="-1.5672880690559439"><ele>36.14285714285714</ele><time>2026-04-06T16:09:15.053Z</time></trkpt><trkpt lat="47.25146531597455" lon="-1.5671987179681353"><ele>35.85714285714286</ele><time>2026-04-06T16:09:16.055Z</time></trkpt><trkpt lat="47.25148719274183" lon="-1.5671027451768211"><ele>35.57142857142857</ele><time>2026-04-06T16:09:17.048Z</time></trkpt><trkpt lat="47.2515283478864" lon="-1.5669812075808336"><ele>35.285714285714285</ele><time>2026-04-06T16:09:19.049Z</time></trkpt><trkpt lat="47.25154075310309" lon="-1.5668873302653124"><ele>35.0</ele><time>2026-04-06T16:09:20.047Z</time></trkpt><trkpt lat="47.25155144002964" lon="-1.5667687263354348"><ele>35.0</ele><time>2026-04-06T16:09:21.058Z</time></trkpt><trkpt lat="47.251585051461355" lon="-1.5666757710292625"><ele>35.0</ele><time>2026-04-06T16:09:22.053Z</time></trkpt><trkpt lat="47.25161271174182" lon="-1.5665647108122394"><ele>35.0</ele><time>2026-04-06T16:09:23.047Z</time></trkpt><trkpt lat="47.25164502397855" lon="-1.566380141304402"><ele>35.0</ele><time>2026-04-06T16:09:25.045Z</time></trkpt><trkpt lat="47.25166094959457" lon="-1.5662768762573285"><ele>35.0</ele><time>2026-04-06T16:09:26.049Z</time></trkpt><trkpt lat="47.25166413471778" lon="-1.5661607868984027"><ele>35.0</ele><time>2026-04-06T16:09:27.048Z</time></trkpt><trkpt lat="47.25169200454582" lon="-1.566057521851329"><ele>34.6</ele><time>2026-04-06T16:09:28.051Z</time></trkpt><trkpt lat="47.25170407448639" lon="-1.565951826052336"><ele>34.2</ele><time>2026-04-06T16:09:29.045Z</time></trkpt><trkpt lat="47.251730854667024" lon="-1.5658487286433258"><ele>33.8</ele><time>2026-04-06T16:09:30.052Z</time></trkpt><trkpt lat="47.2517432179742" lon="-1.5657480619862356"><ele>33.4</ele><time>2026-04-06T16:09:31.045Z</time></trkpt><trkpt lat="47.25177205172111" lon="-1.5655690245344913"><ele>33.0</ele><time>2026-04-06T16:09:33.048Z</time></trkpt><trkpt lat="47.25178642668505" lon="-1.5654070861652172"><ele>32.666666666666664</ele><time>2026-04-06T16:09:35.047Z</time></trkpt><trkpt lat="47.25180893209507" lon="-1.565283956007627"><ele>32.333333333333336</ele><time>2026-04-06T16:09:36.049Z</time></trkpt><trkpt lat="47.25182096012612" lon="-1.5651832893505369"><ele>32.0</ele><time>2026-04-06T16:09:37.044Z</time></trkpt><trkpt lat="47.25185683467169" lon="-1.5650345943882735"><ele>31.666666666666668</ele><time>2026-04-06T16:09:39.049Z</time></trkpt><trkpt lat="47.25186182190408" lon="-1.5649319998934539"><ele>31.333333333333336</ele><time>2026-04-06T16:09:40.044Z</time></trkpt><trkpt lat="47.251871167726115" lon="-1.564829992131856"><ele>31.0</ele><time>2026-04-06T16:09:41.042Z</time></trkpt><trkpt lat="47.251868443607584" lon="-1.5647103823735982"><ele>31.0</ele><time>2026-04-06T16:09:42.045Z</time></trkpt><trkpt lat="47.25189983383496" lon="-1.5645384695395497"><ele>31.0</ele><time>2026-04-06T16:09:44.045Z</time></trkpt><trkpt lat="47.25191546608438" lon="-1.5644416585579182"><ele>31.0</ele><time>2026-04-06T16:09:45.043Z</time></trkpt><trkpt lat="47.25192049522628" lon="-1.564339818434384"><ele>31.0</ele><time>2026-04-06T16:09:46.045Z</time></trkpt><trkpt lat="47.25189891182561" lon="-1.5641746949419044"><ele>31.0</ele><time>2026-04-06T16:09:48.047Z</time></trkpt><trkpt lat="47.25192221351643" lon="-1.5640032012030147"><ele>30.4</ele><time>2026-04-06T16:09:50.047Z</time></trkpt><trkpt lat="47.25195477721025" lon="-1.5638390835389158"><ele>29.8</ele><time>2026-04-06T16:09:52.047Z</time></trkpt><trkpt lat="47.25203935061325" lon="-1.5637181326761502"><ele>29.199999999999996</ele><time>2026-04-06T16:09:54.048Z</time></trkpt><trkpt lat="47.25211688321759" lon="-1.5636680088951844"><ele>28.599999999999998</ele><time>2026-04-06T16:09:55.047Z</time></trkpt><trkpt lat="47.25214441776951" lon="-1.5635719522848386"><ele>28.0</ele><time>2026-04-06T16:09:56.05Z</time></trkpt><trkpt lat="47.25217270669271" lon="-1.5634799189880149"><ele>28.000000000000004</ele><time>2026-04-06T16:09:57.049Z</time></trkpt><trkpt lat="47.252230038910405" lon="-1.5633512567743317"><ele>28.0</ele><time>2026-04-06T16:09:59.047Z</time></trkpt><trkpt lat="47.252286993942455" lon="-1.5631694532945408"><ele>28.0</ele><time>2026-04-06T16:10:01.046Z</time></trkpt><trkpt lat="47.25231662397017" lon="-1.5630811918541445"><ele>28.0</ele><time>2026-04-06T16:10:02.047Z</time></trkpt><trkpt lat="47.25237022624095" lon="-1.5630169864758505"><ele>28.000000000000004</ele><time>2026-04-06T16:10:03.046Z</time></trkpt><trkpt lat="47.25240329284896" lon="-1.5629317425205957"><ele>28.0</ele><time>2026-04-06T16:10:04.054Z</time></trkpt><trkpt lat="47.25244222678919" lon="-1.5628548804685127"><ele>27.500000000000004</ele><time>2026-04-06T16:10:05.048Z</time></trkpt><trkpt lat="47.252483968666986" lon="-1.5627695526942262"><ele>27.0</ele><time>2026-04-06T16:10:06.048Z</time></trkpt><trkpt lat="47.25248727951874" lon="-1.5626548044398079"><ele>26.5</ele><time>2026-04-06T16:10:07.046Z</time></trkpt><trkpt lat="47.2525143949755" lon="-1.5625615138575086"><ele>26.0</ele><time>2026-04-06T16:10:08.049Z</time></trkpt><trkpt lat="47.25253551737149" lon="-1.5624701511129386"><ele>25.500000000000004</ele><time>2026-04-06T16:10:09.049Z</time></trkpt><trkpt lat="47.25258270748635" lon="-1.5623054467156179"><ele>25.0</ele><time>2026-04-06T16:10:11.049Z</time></trkpt><trkpt lat="47.25259787873109" lon="-1.5621974878027682"><ele>25.000000000000004</ele><time>2026-04-06T16:10:12.053Z</time></trkpt><trkpt lat="47.252628263130084" lon="-1.562092127279902"><ele>25.0</ele><time>2026-04-06T16:10:13.051Z</time></trkpt><trkpt lat="47.252700724683" lon="-1.5619451925173047"><ele>25.0</ele><time>2026-04-06T16:10:15.048Z</time></trkpt><trkpt lat="47.25271308799018" lon="-1.5618440229460242"><ele>25.0</ele><time>2026-04-06T16:10:16.056Z</time></trkpt><trkpt lat="47.25276530724694" lon="-1.5617702621981144"><ele>25.000000000000004</ele><time>2026-04-06T16:10:17.052Z</time></trkpt><trkpt lat="47.25280558229168" lon="-1.5616659075036288"><ele>25.0</ele><time>2026-04-06T16:10:18.059Z</time></trkpt><trkpt lat="47.2528294288062" lon="-1.5615694317981241"><ele>25.2</ele><time>2026-04-06T16:10:19.055Z</time></trkpt><trkpt lat="47.25286006466229" lon="-1.5614868700518845"><ele>25.4</ele><time>2026-04-06T16:10:20.051Z</time></trkpt><trkpt lat="47.25288567137648" lon="-1.5613469760879513"><ele>25.6</ele><time>2026-04-06T16:10:22.051Z</time></trkpt><trkpt lat="47.252941704399184" lon="-1.5611736383303638"><ele>25.8</ele><time>2026-04-06T16:10:24.049Z</time></trkpt><trkpt lat="47.25299396556546" lon="-1.5610181540265315"><ele>26.0</ele><time>2026-04-06T16:10:26.046Z</time></trkpt><trkpt lat="47.2530757310309" lon="-1.5609092731043333"><ele>26.0</ele><time>2026-04-06T16:10:28.047Z</time></trkpt><trkpt lat="47.253120364665286" lon="-1.56078941188898"><ele>26.0</ele><time>2026-04-06T16:10:30.056Z</time></trkpt><trkpt lat="47.253192113756434" lon="-1.56062621623423"><ele>26.0</ele><time>2026-04-06T16:10:32.046Z</time></trkpt><trkpt lat="47.25323427472939" lon="-1.5604850649848212"><ele>26.0</ele><time>2026-04-06T16:10:34.05Z</time></trkpt><trkpt lat="47.25325045180251" lon="-1.5603483561440932"><ele>26.0</ele><time>2026-04-06T16:10:36.046Z</time></trkpt><trkpt lat="47.25323838186194" lon="-1.5601904410883414"><ele>25.5</ele><time>2026-04-06T16:10:38.046Z</time></trkpt><trkpt lat="47.25321403243323" lon="-1.560045015068315"><ele>25.0</ele><time>2026-04-06T16:10:40.052Z</time></trkpt><trkpt lat="47.25317384120752" lon="-1.5598618704840166"><ele>24.5</ele><time>2026-04-06T16:10:42.048Z</time></trkpt><trkpt lat="47.2531481506743" lon="-1.559692388401888"><ele>24.0</ele><time>2026-04-06T16:10:44.044Z</time></trkpt><trkpt lat="47.253141822337405" lon="-1.5595240797862033"><ele>24.0</ele><time>2026-04-06T16:10:46.042Z</time></trkpt><trkpt lat="47.25315028805961" lon="-1.559365661816261"><ele>24.0</ele><time>2026-04-06T16:10:48.047Z</time></trkpt><trkpt lat="47.25313457199116" lon="-1.5592731256052472"><ele>24.0</ele><time>2026-04-06T16:10:49.043Z</time></trkpt><trkpt lat="47.2531489469551" lon="-1.5591439604773736"><ele>24.0</ele><time>2026-04-06T16:10:51.044Z</time></trkpt><trkpt lat="47.25314064887096" lon="-1.5589963551625228"><ele>24.0</ele><time>2026-04-06T16:10:53.039Z</time></trkpt><trkpt lat="47.25312170576979" lon="-1.5588273759945843"><ele>24.25</ele><time>2026-04-06T16:10:55.047Z</time></trkpt><trkpt lat="47.2530955542319" lon="-1.5586451534196348"><ele>24.5</ele><time>2026-04-06T16:10:57.042Z</time></trkpt><trkpt lat="47.25308034107764" lon="-1.5584997273996086"><ele>24.75</ele><time>2026-04-06T16:10:59.049Z</time></trkpt><trkpt lat="47.25308876489033" lon="-1.558335525916478"><ele>25.0</ele><time>2026-04-06T16:11:01.05Z</time></trkpt><trkpt lat="47.25308725614776" lon="-1.5581638645395246"><ele>25.000000000000004</ele><time>2026-04-06T16:11:03.046Z</time></trkpt><trkpt lat="47.25306114651938" lon="-1.5580414049341884"><ele>25.0</ele><time>2026-04-06T16:11:05.044Z</time></trkpt><trkpt lat="47.25306265526195" lon="-1.5579361282303537"><ele>25.0</ele><time>2026-04-06T16:11:06.06Z</time></trkpt><trkpt lat="47.25304442462255" lon="-1.5577700827285252"><ele>25.0</ele><time>2026-04-06T16:11:08.045Z</time></trkpt><trkpt lat="47.25300955590536" lon="-1.5576891135438882"><ele>25.000000000000004</ele><time>2026-04-06T16:11:09.043Z</time></trkpt><trkpt lat="47.252971753522054" lon="-1.5575348865255318"><ele>25.0</ele><time>2026-04-06T16:11:11.046Z</time></trkpt><trkpt lat="47.25294430278917" lon="-1.5573703497662743"><ele>25.2</ele><time>2026-04-06T16:11:13.046Z</time></trkpt><trkpt lat="47.252926910340086" lon="-1.5572025440647799"><ele>25.4</ele><time>2026-04-06T16:11:15.044Z</time></trkpt><trkpt lat="47.252904865934745" lon="-1.5570228360607818"><ele>25.6</ele><time>2026-04-06T16:11:17.047Z</time></trkpt><trkpt lat="47.25288248625328" lon="-1.5568477381035284"><ele>25.8</ele><time>2026-04-06T16:11:19.049Z</time></trkpt><trkpt lat="47.25286316596647" lon="-1.556729972363968"><ele>26.0</ele><time>2026-04-06T16:11:21.049Z</time></trkpt><trkpt lat="47.25284589924593" lon="-1.5566373523339225"><ele>25.999999999999996</ele><time>2026-04-06T16:11:22.046Z</time></trkpt><trkpt lat="47.25281840660353" lon="-1.5564627572908591"><ele>26.0</ele><time>2026-04-06T16:11:24.046Z</time></trkpt><trkpt lat="47.25279900249769" lon="-1.5563629288240861"><ele>26.0</ele><time>2026-04-06T16:11:25.054Z</time></trkpt><trkpt lat="47.25278747738083" lon="-1.5562687162324378"><ele>26.0</ele><time>2026-04-06T16:11:26.043Z</time></trkpt><trkpt lat="47.25276769608934" lon="-1.5560968033983893"><ele>25.999999999999996</ele><time>2026-04-06T16:11:28.049Z</time></trkpt><trkpt lat="47.25278672300954" lon="-1.5559983998551554"><ele>26.0</ele><time>2026-04-06T16:11:29.043Z</time></trkpt><trkpt lat="47.25275202193041" lon="-1.555813495071191"><ele>25.666666666666664</ele><time>2026-04-06T16:11:31.044Z</time></trkpt><trkpt lat="47.25272985179652" lon="-1.5557205397650187"><ele>25.333333333333332</ele><time>2026-04-06T16:11:32.044Z</time></trkpt><trkpt lat="47.252692594236926" lon="-1.555552482606429"><ele>25.0</ele><time>2026-04-06T16:11:34.048Z</time></trkpt><trkpt lat="47.25268425424327" lon="-1.5554571803673687"><ele>24.666666666666664</ele><time>2026-04-06T16:11:35.046Z</time></trkpt><trkpt lat="47.2526560491391" lon="-1.5552863571807325"><ele>24.333333333333332</ele><time>2026-04-06T16:11:37.043Z</time></trkpt><trkpt lat="47.252642721913055" lon="-1.5551841817810714"><ele>24.0</ele><time>2026-04-06T16:11:38.045Z</time></trkpt><trkpt lat="47.25263111297716" lon="-1.5550815872862516"><ele>23.666666666666668</ele><time>2026-04-06T16:11:39.047Z</time></trkpt><trkpt lat="47.25261816293676" lon="-1.5549822617336688"><ele>23.333333333333332</ele><time>2026-04-06T16:11:40.045Z</time></trkpt><trkpt lat="47.252592640041605" lon="-1.5548907313510354"><ele>23.0</ele><time>2026-04-06T16:11:41.047Z</time></trkpt><trkpt lat="47.25258266557683" lon="-1.5547909028842624"><ele>22.666666666666664</ele><time>2026-04-06T16:11:42.047Z</time></trkpt><trkpt lat="47.252542767717735" lon="-1.5546204987927847"><ele>22.333333333333332</ele><time>2026-04-06T16:11:44.046Z</time></trkpt><trkpt lat="47.25253036250104" lon="-1.5545109473183327"><ele>22.0</ele><time>2026-04-06T16:11:45.047Z</time></trkpt><trkpt lat="47.25251158703794" lon="-1.5543814469143322"><ele>21.666666666666664</ele><time>2026-04-06T16:11:46.042Z</time></trkpt><trkpt lat="47.25249243438919" lon="-1.5542786847814491"><ele>21.333333333333332</ele><time>2026-04-06T16:11:47.042Z</time></trkpt><trkpt lat="47.25248526786198" lon="-1.5541735757156778"><ele>21.0</ele><time>2026-04-06T16:11:48.046Z</time></trkpt><trkpt lat="47.25247424565931" lon="-1.5540569834425617"><ele>20.666666666666668</ele><time>2026-04-06T16:11:49.049Z</time></trkpt><trkpt lat="47.252455134920076" lon="-1.5538753476008342"><ele>20.333333333333336</ele><time>2026-04-06T16:11:51.051Z</time></trkpt><trkpt lat="47.25242906720121" lon="-1.5537880919888185"><ele>20.0</ele><time>2026-04-06T16:11:52.068Z</time></trkpt><trkpt lat="47.252368130765156" lon="-1.5536649618312284"><ele>20.0</ele><time>2026-04-06T16:11:54.051Z</time></trkpt><trkpt lat="47.2523106309094" lon="-1.5535632055267259"><ele>20.0</ele><time>2026-04-06T16:11:56.04Z</time></trkpt><trkpt lat="47.2522614710473" lon="-1.5534469485297364"><ele>20.0</ele><time>2026-04-06T16:11:58.04Z</time></trkpt><trkpt lat="47.252270188226596" lon="-1.5533162746592921"><ele>20.0</ele><time>2026-04-06T16:12:00.059Z</time></trkpt><trkpt lat="47.25230920598586" lon="-1.5531799849137227"><ele>20.0</ele><time>2026-04-06T16:12:02.044Z</time></trkpt><trkpt lat="47.25232370667835" lon="-1.5530130174025456"><ele>19.75</ele><time>2026-04-06T16:12:04.061Z</time></trkpt><trkpt lat="47.25231272638519" lon="-1.5528551861658253"><ele>19.5</ele><time>2026-04-06T16:12:06.043Z</time></trkpt><trkpt lat="47.252286071933106" lon="-1.5526821836843645"><ele>19.25</ele><time>2026-04-06T16:12:08.044Z</time></trkpt><trkpt lat="47.25226025567134" lon="-1.5525417029872095"><ele>19.0</ele><time>2026-04-06T16:12:10.068Z</time></trkpt><trkpt lat="47.25221138917585" lon="-1.5523321554079208"><ele>19.0</ele><time>2026-04-06T16:12:12.052Z</time></trkpt><trkpt lat="47.2521853633665" lon="-1.5522341709598453"><ele>19.0</ele><time>2026-04-06T16:12:14.056Z</time></trkpt><trkpt lat="47.25216805473645" lon="-1.5521306544556768"><ele>19.0</ele><time>2026-04-06T16:12:16.048Z</time></trkpt><trkpt lat="47.252131090543465" lon="-1.5519838035121112"><ele>19.0</ele><time>2026-04-06T16:12:18.048Z</time></trkpt><trkpt lat="47.25211868532677" lon="-1.5518709830954223"><ele>19.0</ele><time>2026-04-06T16:12:19.047Z</time></trkpt><trkpt lat="47.25211026151408" lon="-1.551777357236996"><ele>19.0</ele><time>2026-04-06T16:12:20.048Z</time></trkpt><trkpt lat="47.252078368372516" lon="-1.5516302548363354"><ele>18.833333333333332</ele><time>2026-04-06T16:12:22.062Z</time></trkpt><trkpt lat="47.25206629843195" lon="-1.5515279117986107"><ele>18.666666666666664</ele><time>2026-04-06T16:12:23.049Z</time></trkpt><trkpt lat="47.252038302875356" lon="-1.5513957291855955"><ele>18.5</ele><time>2026-04-06T16:12:24.05Z</time></trkpt><trkpt lat="47.25203859624197" lon="-1.5512534044697426"><ele>18.333333333333332</ele><time>2026-04-06T16:12:26.063Z</time></trkpt><trkpt lat="47.252023844092385" lon="-1.5511596947922848"><ele>18.166666666666668</ele><time>2026-04-06T16:12:27.05Z</time></trkpt><trkpt lat="47.2520143725418" lon="-1.5510468743755956"><ele>18.0</ele><time>2026-04-06T16:12:28.045Z</time></trkpt><trkpt lat="47.25198168311943" lon="-1.5509484708323618"><ele>17.8</ele><time>2026-04-06T16:12:29.049Z</time></trkpt><trkpt lat="47.25197342694481" lon="-1.5508477203562396"><ele>17.6</ele><time>2026-04-06T16:12:30.062Z</time></trkpt><trkpt lat="47.25197317548771" lon="-1.5506679285332101"><ele>17.4</ele><time>2026-04-06T16:12:32.047Z</time></trkpt><trkpt lat="47.251966972879366" lon="-1.5504923276617661"><ele>17.2</ele><time>2026-04-06T16:12:34.048Z</time></trkpt><trkpt lat="47.25196965508838" lon="-1.550383698196663"><ele>17.0</ele><time>2026-04-06T16:12:35.052Z</time></trkpt><trkpt lat="47.251983778595225" lon="-1.5502141322955025"><ele>17.0</ele><time>2026-04-06T16:12:37.047Z</time></trkpt><trkpt lat="47.251992370045976" lon="-1.550039285795344"><ele>17.0</ele><time>2026-04-06T16:12:39.047Z</time></trkpt><trkpt lat="47.25201085214247" lon="-1.5499317459776532"><ele>17.0</ele><time>2026-04-06T16:12:40.047Z</time></trkpt><trkpt lat="47.25202237725933" lon="-1.5498400479569563"><ele>17.0</ele><time>2026-04-06T16:12:41.05Z</time></trkpt><trkpt lat="47.25206478968938" lon="-1.5496868267669806"><ele>17.0</ele><time>2026-04-06T16:12:43.054Z</time></trkpt><trkpt lat="47.252093246250645" lon="-1.5495138242855198"><ele>17.0</ele><time>2026-04-06T16:12:45.051Z</time></trkpt><trkpt lat="47.25210866895248" lon="-1.5494224615409498"><ele>17.0</ele><time>2026-04-06T16:12:46.064Z</time></trkpt><trkpt lat="47.25214064591308" lon="-1.549262786285532"><ele>17.0</ele><time>2026-04-06T16:12:48.049Z</time></trkpt><trkpt lat="47.252186033918754" lon="-1.5491878520711784"><ele>17.0</ele><time>2026-04-06T16:12:49.048Z</time></trkpt><trkpt lat="47.252283263995544" lon="-1.5490707568838717"><ele>17.0</ele><time>2026-04-06T16:12:51.047Z</time></trkpt><trkpt lat="47.252330998934106" lon="-1.5490015223636748"><ele>17.0</ele><time>2026-04-06T16:12:52.043Z</time></trkpt><trkpt lat="47.25236100614746" lon="-1.5489019453539967"><ele>16.5</ele><time>2026-04-06T16:12:53.049Z</time></trkpt><trkpt lat="47.25240228702058" lon="-1.5488016139730334"><ele>16.0</ele><time>2026-04-06T16:12:54.049Z</time></trkpt><trkpt lat="47.252431665591196" lon="-1.5487070661052582"><ele>15.5</ele><time>2026-04-06T16:12:55.048Z</time></trkpt><trkpt lat="47.252451824068324" lon="-1.548609081657183"><ele>15.0</ele><time>2026-04-06T16:12:56.046Z</time></trkpt><trkpt lat="47.25247127008368" lon="-1.5485155396177885"><ele>14.500000000000002</ele><time>2026-04-06T16:12:57.048Z</time></trkpt><trkpt lat="47.25251552653243" lon="-1.5483567863717194"><ele>14.0</ele><time>2026-04-06T16:12:59.048Z</time></trkpt><trkpt lat="47.25256368056615" lon="-1.548191579060208"><ele>14.000000000000002</ele><time>2026-04-06T16:13:01.046Z</time></trkpt><trkpt lat="47.25258430004795" lon="-1.5481024794294946"><ele>14.0</ele><time>2026-04-06T16:13:02.046Z</time></trkpt><trkpt lat="47.252603662244276" lon="-1.5479307342335096"><ele>14.0</ele><time>2026-04-06T16:13:04.047Z</time></trkpt><trkpt lat="47.25260525480588" lon="-1.5478368569179883"><ele>14.0</ele><time>2026-04-06T16:13:05.051Z</time></trkpt><trkpt lat="47.252599722749785" lon="-1.547744404526006"><ele>14.000000000000002</ele><time>2026-04-06T16:13:06.057Z</time></trkpt><trkpt lat="47.252614307261304" lon="-1.5476333443089831"><ele>14.0</ele><time>2026-04-06T16:13:08.049Z</time></trkpt><trkpt lat="47.252602153501705" lon="-1.5474846493467198"><ele>14.25</ele><time>2026-04-06T16:13:10.056Z</time></trkpt><trkpt lat="47.25256397393276" lon="-1.5473301708712683"><ele>14.5</ele><time>2026-04-06T16:13:12.045Z</time></trkpt><trkpt lat="47.25254595284094" lon="-1.5471569169327124"><ele>14.75</ele><time>2026-04-06T16:13:14.045Z</time></trkpt><trkpt lat="47.252527386925415" lon="-1.5469965711250406"><ele>15.0</ele><time>2026-04-06T16:13:16.046Z</time></trkpt><trkpt lat="47.2525083180957" lon="-1.5468290168806416"><ele>15.166666666666666</ele><time>2026-04-06T16:13:18.048Z</time></trkpt><trkpt lat="47.25249222484161" lon="-1.5467344690128664"><ele>15.333333333333332</ele><time>2026-04-06T16:13:19.051Z</time></trkpt><trkpt lat="47.252469509884016" lon="-1.5466402564212183"><ele>15.5</ele><time>2026-04-06T16:13:20.046Z</time></trkpt><trkpt lat="47.25245421291073" lon="-1.5465061459704734"><ele>15.666666666666666</ele><time>2026-04-06T16:13:22.059Z</time></trkpt><trkpt lat="47.25243371915747" lon="-1.5463545173421003"><ele>15.833333333333332</ele><time>2026-04-06T16:13:24.07Z</time></trkpt><trkpt lat="47.25242261313577" lon="-1.5462118573501205"><ele>16.0</ele><time>2026-04-06T16:13:26.058Z</time></trkpt><trkpt lat="47.25241431505163" lon="-1.5460862126215789"><ele>16.400000000000002</ele><time>2026-04-06T16:13:28.047Z</time></trkpt><trkpt lat="47.25239776079287" lon="-1.5459264535471293"><ele>16.8</ele><time>2026-04-06T16:13:30.044Z</time></trkpt><trkpt lat="47.25236896895547" lon="-1.5457694605007262"><ele>17.200000000000003</ele><time>2026-04-06T16:13:32.045Z</time></trkpt><trkpt lat="47.2523468407311" lon="-1.5456449892386288"><ele>17.6</ele><time>2026-04-06T16:13:34.053Z</time></trkpt><trkpt lat="47.25231134337117" lon="-1.5454986412092535"><ele>18.0</ele><time>2026-04-06T16:13:36.056Z</time></trkpt><trkpt lat="47.25229005333711" lon="-1.5453642793014135"><ele>19.0</ele><time>2026-04-06T16:13:38.051Z</time></trkpt><trkpt lat="47.25228682630439" lon="-1.5452526323511686"><ele>20.0</ele><time>2026-04-06T16:13:40.047Z</time></trkpt><trkpt lat="47.2522641113468" lon="-1.5451389737441625"><ele>21.0</ele><time>2026-04-06T16:13:42.041Z</time></trkpt><trkpt lat="47.252251370853976" lon="-1.5450422465815628"><ele>22.0</ele><time>2026-04-06T16:13:43.051Z</time></trkpt><trkpt lat="47.252200786068336" lon="-1.5449215471758926"><ele>23.0</ele><time>2026-04-06T16:13:45.048Z</time></trkpt><trkpt lat="47.25217748437752" lon="-1.5447783842697225"><ele>24.0</ele><time>2026-04-06T16:13:47.046Z</time></trkpt><trkpt lat="47.25213984963228" lon="-1.54463706538225"><ele>24.6</ele><time>2026-04-06T16:13:49.046Z</time></trkpt><trkpt lat="47.25211709276517" lon="-1.544535476715811"><ele>25.2</ele><time>2026-04-06T16:13:51.04Z</time></trkpt><trkpt lat="47.252099113582865" lon="-1.5444085747017937"><ele>25.800000000000004</ele><time>2026-04-06T16:13:53.045Z</time></trkpt><trkpt lat="47.252094754993216" lon="-1.5442702732994633"><ele>26.400000000000002</ele><time>2026-04-06T16:13:55.054Z</time></trkpt><trkpt lat="47.25212099035014" lon="-1.5441147051765993"><ele>27.0</ele><time>2026-04-06T16:13:58.047Z</time></trkpt><trkpt lat="47.25211617075582" lon="-1.5439691115185097"><ele>27.0</ele><time>2026-04-06T16:14:00.048Z</time></trkpt><trkpt lat="47.252070782750145" lon="-1.5437598992153478"><ele>27.000000000000004</ele><time>2026-04-06T16:14:02.049Z</time></trkpt><trkpt lat="47.252049325078026" lon="-1.5436686202898096"><ele>27.000000000000004</ele><time>2026-04-06T16:14:03.054Z</time></trkpt><trkpt lat="47.25201307334681" lon="-1.5434848889722894"><ele>27.0</ele><time>2026-04-06T16:14:05.047Z</time></trkpt><trkpt lat="47.25200477526267" lon="-1.5433541312828132"><ele>27.0</ele><time>2026-04-06T16:14:06.043Z</time></trkpt><trkpt lat="47.251989939294056" lon="-1.5432461723699638"><ele>26.333333333333332</ele><time>2026-04-06T16:14:07.041Z</time></trkpt><trkpt lat="47.251996016173855" lon="-1.5431477688267297"><ele>25.666666666666668</ele><time>2026-04-06T16:14:08.039Z</time></trkpt><trkpt lat="47.2519781627201" lon="-1.5429993253215617"><ele>25.0</ele><time>2026-04-06T16:14:09.033Z</time></trkpt><trkpt lat="47.251970116093055" lon="-1.5428772009923521"><ele>24.333333333333336</ele><time>2026-04-06T16:14:10.036Z</time></trkpt><trkpt lat="47.25194861651142" lon="-1.5427581779673163"><ele>23.666666666666668</ele><time>2026-04-06T16:14:11.045Z</time></trkpt><trkpt lat="47.251959596804575" lon="-1.5426068846150698"><ele>23.0</ele><time>2026-04-06T16:14:12.039Z</time></trkpt><trkpt lat="47.251958800523774" lon="-1.5424645598992168"><ele>22.28571428571429</ele><time>2026-04-06T16:14:13.047Z</time></trkpt><trkpt lat="47.251969403631286" lon="-1.5423561818912088"><ele>21.57142857142857</ele><time>2026-04-06T16:14:14.046Z</time></trkpt><trkpt lat="47.251964751675025" lon="-1.542234728114253"><ele>20.857142857142858</ele><time>2026-04-06T16:14:15.039Z</time></trkpt><trkpt lat="47.25192208778788" lon="-1.5421458799406347"><ele>20.142857142857146</ele><time>2026-04-06T16:14:16.041Z</time></trkpt><trkpt lat="47.25189476278354" lon="-1.542049488054162"><ele>19.42857142857143</ele><time>2026-04-06T16:14:17.041Z</time></trkpt><trkpt lat="47.25187020380725" lon="-1.5419580414905603"><ele>18.714285714285715</ele><time>2026-04-06T16:14:18.042Z</time></trkpt><trkpt lat="47.251848704225615" lon="-1.5418619848802144"><ele>18.0</ele><time>2026-04-06T16:14:19.043Z</time></trkpt><trkpt lat="47.25171342030843" lon="-1.5418704506024177"><ele>16.8</ele><time>2026-04-06T16:14:20.048Z</time></trkpt><trkpt lat="47.251631990119115" lon="-1.5418549440815503"><ele>15.600000000000001</ele><time>2026-04-06T16:14:21.048Z</time></trkpt><trkpt lat="47.25155818746169" lon="-1.5417277906104379"><ele>14.399999999999999</ele><time>2026-04-06T16:14:23.048Z</time></trkpt><trkpt lat="47.25153710697521" lon="-1.541604911909943"><ele>13.2</ele><time>2026-04-06T16:14:24.044Z</time></trkpt><trkpt lat="47.25152243864466" lon="-1.5414565522238066"><ele>12.0</ele><time>2026-04-06T16:14:25.049Z</time></trkpt><trkpt lat="47.251582830257014" lon="-1.5413429774358323"><ele>12.0</ele><time>2026-04-06T16:14:26.043Z</time></trkpt><trkpt lat="47.25163651634683" lon="-1.541231079028492"><ele>12.0</ele><time>2026-04-06T16:14:27.044Z</time></trkpt><trkpt lat="47.251681359528796" lon="-1.5411275625243235"><ele>12.0</ele><time>2026-04-06T16:14:28.044Z</time></trkpt><trkpt lat="47.25172247276385" lon="-1.5410132333650635"><ele>12.0</ele><time>2026-04-06T16:14:29.045Z</time></trkpt><trkpt lat="47.251762202984885" lon="-1.5409299172475384"><ele>12.0</ele><time>2026-04-06T16:14:30.044Z</time></trkpt><trkpt lat="47.251813206865684" lon="-1.540839560331349"><ele>12.0</ele><time>2026-04-06T16:14:31.044Z</time></trkpt><trkpt lat="47.25187418521126" lon="-1.5407769475146575"><ele>10.75</ele><time>2026-04-06T16:14:32.048Z</time></trkpt><trkpt lat="47.25194019269873" lon="-1.5407647937550588"><ele>9.5</ele><time>2026-04-06T16:14:33.045Z</time></trkpt><trkpt lat="47.2520661727034" lon="-1.5407404862358614"><ele>8.25</ele><time>2026-04-06T16:14:35.058Z</time></trkpt><trkpt lat="47.252201288982526" lon="-1.5407268237336917"><ele>7.0</ele><time>2026-04-06T16:14:37.054Z</time></trkpt><trkpt lat="47.25233380687167" lon="-1.5406738501056476"><ele>7.000000000000001</ele><time>2026-04-06T16:14:39.056Z</time></trkpt><trkpt lat="47.252418631731764" lon="-1.5406590979560657"><ele>7.0</ele><time>2026-04-06T16:14:40.046Z</time></trkpt><trkpt lat="47.25251087457617" lon="-1.5406300965710922"><ele>7.0</ele><time>2026-04-06T16:14:42.064Z</time></trkpt><trkpt lat="47.25258220457216" lon="-1.540612746031527"><ele>7.0</ele><time>2026-04-06T16:14:43.059Z</time></trkpt><trkpt lat="47.25267172329803" lon="-1.5406034421190065"><ele>7.000000000000001</ele><time>2026-04-06T16:14:44.059Z</time></trkpt><trkpt lat="47.25273848515679" lon="-1.5405993349864524"><ele>7.0</ele><time>2026-04-06T16:14:45.061Z</time></trkpt><trkpt lat="47.25282779433508" lon="-1.5405671484782737"><ele>7.000000000000001</ele><time>2026-04-06T16:14:47.058Z</time></trkpt><trkpt lat="47.25290323146363" lon="-1.5405379794552367"><ele>7.0</ele><time>2026-04-06T16:14:48.057Z</time></trkpt><trkpt lat="47.25297502246429" lon="-1.5405227243914645"><ele>7.0</ele><time>2026-04-06T16:14:49.065Z</time></trkpt><trkpt lat="47.2530567041107" lon="-1.5405091457083266"><ele>7.0</ele><time>2026-04-06T16:14:50.062Z</time></trkpt><trkpt lat="47.25312585481186" lon="-1.5404963213964742"><ele>7.000000000000001</ele><time>2026-04-06T16:14:51.063Z</time></trkpt><trkpt lat="47.253238046585814" lon="-1.5404818207039874"><ele>7.0</ele><time>2026-04-06T16:14:53.071Z</time></trkpt><trkpt lat="47.25330300633539" lon="-1.5404588542892974"><ele>6.666666666666667</ele><time>2026-04-06T16:14:54.066Z</time></trkpt><trkpt lat="47.25337882064958" lon="-1.5404485445483964"><ele>6.333333333333334</ele><time>2026-04-06T16:14:55.063Z</time></trkpt><trkpt lat="47.25344478622754" lon="-1.5404254943146747"><ele>6.0</ele><time>2026-04-06T16:14:56.06Z</time></trkpt><trkpt lat="47.2535152361237" lon="-1.5404034499093335"><ele>5.666666666666667</ele><time>2026-04-06T16:14:57.06Z</time></trkpt><trkpt lat="47.25360592831601" lon="-1.5403752867146772"><ele>5.333333333333334</ele><time>2026-04-06T16:14:59.054Z</time></trkpt><trkpt lat="47.25372625053604" lon="-1.5403012745096722"><ele>5.0</ele><time>2026-04-06T16:15:01.058Z</time></trkpt><trkpt lat="47.253800975202815" lon="-1.5402653161450663"><ele>5.0</ele><time>2026-04-06T16:15:03.057Z</time></trkpt><trkpt lat="47.253927039026514" lon="-1.5402640588595906"><ele>5.0</ele><time>2026-04-06T16:15:05.07Z</time></trkpt><trkpt lat="47.254008385396794" lon="-1.540252156557087"><ele>5.0</ele><time>2026-04-06T16:15:06.063Z</time></trkpt><trkpt lat="47.25410050251265" lon="-1.5402388293310443"><ele>5.0</ele><time>2026-04-06T16:15:07.053Z</time></trkpt><trkpt lat="47.254231469749705" lon="-1.540217706935052"><ele>5.0</ele><time>2026-04-06T16:15:09.069Z</time></trkpt><trkpt lat="47.25429316055705" lon="-1.5401958301677743"><ele>5.0</ele><time>2026-04-06T16:15:10.064Z</time></trkpt><trkpt lat="47.254370693161384" lon="-1.5401768870666066"><ele>5.0</ele><time>2026-04-06T16:15:11.058Z</time></trkpt><trkpt lat="47.25444172979076" lon="-1.5401709359153548"><ele>5.0</ele><time>2026-04-06T16:15:12.062Z</time></trkpt><trkpt lat="47.2545081563734" lon="-1.5401604585363904"><ele>5.0</ele><time>2026-04-06T16:15:13.067Z</time></trkpt><trkpt lat="47.254665484695934" lon="-1.5401716064676085"><ele>5.0</ele><time>2026-04-06T16:15:15.061Z</time></trkpt><trkpt lat="47.254793350628816" lon="-1.5401700977250377"><ele>6.0</ele><time>2026-04-06T16:15:17.066Z</time></trkpt><trkpt lat="47.25490730260243" lon="-1.5402079001083413"><ele>7.0</ele><time>2026-04-06T16:15:19.059Z</time></trkpt><trkpt lat="47.255013710863196" lon="-1.5401789825423995"><ele>8.0</ele><time>2026-04-06T16:15:21.067Z</time></trkpt><trkpt lat="47.25511102475902" lon="-1.5401539206519166"><ele>9.0</ele><time>2026-04-06T16:15:23.049Z</time></trkpt><trkpt lat="47.25523109552195" lon="-1.5401296131327191"><ele>10.0</ele><time>2026-04-06T16:15:25.07Z</time></trkpt><trkpt lat="47.25529199004849" lon="-1.5400949958726204"><ele>10.0</ele><time>2026-04-06T16:15:26.063Z</time></trkpt><trkpt lat="47.255370863757335" lon="-1.540047386662606"><ele>10.0</ele><time>2026-04-06T16:15:28.064Z</time></trkpt><trkpt lat="47.2554323450171" lon="-1.5400005318238772"><ele>10.0</ele><time>2026-04-06T16:15:30.055Z</time></trkpt><trkpt lat="47.25552094173362" lon="-1.5399465523674525"><ele>10.0</ele><time>2026-04-06T16:15:32.053Z</time></trkpt><trkpt lat="47.2555998992615" lon="-1.5398846101030146"><ele>10.0</ele><time>2026-04-06T16:15:34.054Z</time></trkpt><trkpt lat="47.2556974227049" lon="-1.539847981186155"><ele>10.0</ele><time>2026-04-06T16:15:37.064Z</time></trkpt><trkpt lat="47.25576669913461" lon="-1.5398072451367413"><ele>10.333333333333334</ele><time>2026-04-06T16:15:39.06Z</time></trkpt><trkpt lat="47.25584247153928" lon="-1.5397355798646246"><ele>10.666666666666668</ele><time>2026-04-06T16:15:40.057Z</time></trkpt><trkpt lat="47.25590399470856" lon="-1.5396843664362465"><ele>11.0</ele><time>2026-04-06T16:15:41.057Z</time></trkpt><trkpt lat="47.25596639797767" lon="-1.5396492462619575"><ele>11.333333333333334</ele><time>2026-04-06T16:15:42.058Z</time></trkpt><trkpt lat="47.256048121533595" lon="-1.5396263636662992"><ele>11.666666666666666</ele><time>2026-04-06T16:15:43.063Z</time></trkpt><trkpt lat="47.256112075454794" lon="-1.5396159701063665"><ele>12.0</ele><time>2026-04-06T16:15:44.065Z</time></trkpt><trkpt lat="47.25622435104778" lon="-1.539555452765468"><ele>11.166666666666666</ele><time>2026-04-06T16:15:46.062Z</time></trkpt><trkpt lat="47.256284784569644" lon="-1.5395285468562874"><ele>10.333333333333334</ele><time>2026-04-06T16:15:47.065Z</time></trkpt><trkpt lat="47.25634794221004" lon="-1.5394973661764892"><ele>9.5</ele><time>2026-04-06T16:15:48.062Z</time></trkpt><trkpt lat="47.25643993359735" lon="-1.53942704200888"><ele>8.666666666666668</ele><time>2026-04-06T16:15:50.063Z</time></trkpt><trkpt lat="47.256569475910865" lon="-1.5394069254412681"><ele>7.833333333333334</ele><time>2026-04-06T16:15:52.063Z</time></trkpt><trkpt lat="47.256639087616705" lon="-1.5393973700716526"><ele>7.0</ele><time>2026-04-06T16:15:53.053Z</time></trkpt><trkpt lat="47.256753123409354" lon="-1.5394023992135555"><ele>7.000000000000001</ele><time>2026-04-06T16:15:55.058Z</time></trkpt><trkpt lat="47.25681690969249" lon="-1.5394300594940218"><ele>7.0</ele><time>2026-04-06T16:15:56.063Z</time></trkpt><trkpt lat="47.25688031878998" lon="-1.5394368488355907"><ele>7.0</ele><time>2026-04-06T16:15:57.052Z</time></trkpt><trkpt lat="47.25697939288547" lon="-1.5394610725357565"><ele>7.0</ele><time>2026-04-06T16:15:59.052Z</time></trkpt><trkpt lat="47.25709095601668" lon="-1.5394733939334186"><ele>7.000000000000001</ele><time>2026-04-06T16:16:01.056Z</time></trkpt><trkpt lat="47.257170248820685" lon="-1.539538353682998"><ele>7.0</ele><time>2026-04-06T16:16:03.059Z</time></trkpt><trkpt lat="47.25724245891651" lon="-1.5396265313043627"><ele>8.0</ele><time>2026-04-06T16:16:05.051Z</time></trkpt><trkpt lat="47.25731588438829" lon="-1.5397506672903334"><ele>9.0</ele><time>2026-04-06T16:16:07.064Z</time></trkpt><trkpt lat="47.25735972174188" lon="-1.539862984792832"><ele>10.0</ele><time>2026-04-06T16:16:09.057Z</time></trkpt><trkpt lat="47.257386250465416" lon="-1.539996173234228"><ele>11.0</ele><time>2026-04-06T16:16:11.057Z</time></trkpt><trkpt lat="47.2574335243993" lon="-1.5401426889016667"><ele>12.0</ele><time>2026-04-06T16:16:13.062Z</time></trkpt><trkpt lat="47.2574845282801" lon="-1.5402544196709433"><ele>12.0</ele><time>2026-04-06T16:16:15.065Z</time></trkpt><trkpt lat="47.25750900343736" lon="-1.5403741132482331"><ele>12.0</ele><time>2026-04-06T16:16:17.059Z</time></trkpt><trkpt lat="47.25754110612651" lon="-1.5405045356615823"><ele>12.0</ele><time>2026-04-06T16:16:19.056Z</time></trkpt><trkpt lat="47.25759915080597" lon="-1.5406124107554002"><ele>12.0</ele><time>2026-04-06T16:16:21.056Z</time></trkpt><trkpt lat="47.257653255990945" lon="-1.5407378040268465"><ele>12.0</ele><time>2026-04-06T16:16:23.054Z</time></trkpt><trkpt lat="47.257692818573915" lon="-1.5408455953016327"><ele>12.333333333333334</ele><time>2026-04-06T16:16:25.056Z</time></trkpt><trkpt lat="47.25771574307909" lon="-1.5409619361176536"><ele>12.666666666666668</ele><time>2026-04-06T16:16:27.061Z</time></trkpt><trkpt lat="47.2577437805452" lon="-1.5410869102939415"><ele>13.0</ele><time>2026-04-06T16:16:29.059Z</time></trkpt><trkpt lat="47.25777278193017" lon="-1.5411990601583767"><ele>13.333333333333334</ele><time>2026-04-06T16:16:31.068Z</time></trkpt><trkpt lat="47.25780941084703" lon="-1.541314730422144"><ele>13.666666666666668</ele><time>2026-04-06T16:16:33.055Z</time></trkpt><trkpt lat="47.25788987711748" lon="-1.5414135530605366"><ele>14.0</ele><time>2026-04-06T16:16:35.054Z</time></trkpt><trkpt lat="47.25790370725771" lon="-1.5415544528528502"><ele>14.166666666666668</ele><time>2026-04-06T16:16:37.048Z</time></trkpt><trkpt lat="47.25793983326038" lon="-1.5416724700495057"><ele>14.333333333333334</ele><time>2026-04-06T16:16:39.055Z</time></trkpt><trkpt lat="47.257974785796605" lon="-1.5417736396207862"><ele>14.5</ele><time>2026-04-06T16:16:41.048Z</time></trkpt><trkpt lat="47.258025077215635" lon="-1.541888052599078"><ele>14.666666666666668</ele><time>2026-04-06T16:16:43.061Z</time></trkpt><trkpt lat="47.2580466606163" lon="-1.541996682064181"><ele>14.833333333333334</ele><time>2026-04-06T16:16:45.057Z</time></trkpt><trkpt lat="47.25808085878124" lon="-1.542091565208083"><ele>15.0</ele><time>2026-04-06T16:16:47.057Z</time></trkpt><trkpt lat="47.2581156436794" lon="-1.5421704389169273"><ele>16.666666666666668</ele><time>2026-04-06T16:16:49.058Z</time></trkpt><trkpt lat="47.25815361370077" lon="-1.5422570239766893"><ele>18.333333333333336</ele><time>2026-04-06T16:16:51.054Z</time></trkpt><trkpt lat="47.258199588439666" lon="-1.5423497278257667"><ele>20.0</ele><time>2026-04-06T16:16:53.057Z</time></trkpt><trkpt lat="47.25824661091646" lon="-1.5424396656467974"><ele>21.666666666666668</ele><time>2026-04-06T16:16:55.061Z</time></trkpt><trkpt lat="47.25830004554918" lon="-1.5425247419639887"><ele>23.333333333333336</ele><time>2026-04-06T16:16:57.057Z</time></trkpt><trkpt lat="47.258359054147505" lon="-1.542598837988025"><ele>25.0</ele><time>2026-04-06T16:16:59.06Z</time></trkpt><trkpt lat="47.25842719902029" lon="-1.5426617860808434"><ele>25.000000000000004</ele><time>2026-04-06T16:17:01.052Z</time></trkpt><trkpt lat="47.258489560379886" lon="-1.5427171904608072"><ele>25.0</ele><time>2026-04-06T16:17:03.054Z</time></trkpt><trkpt lat="47.25855833389541" lon="-1.5427661407753293"><ele>25.0</ele><time>2026-04-06T16:17:05.055Z</time></trkpt><trkpt lat="47.25862274882128" lon="-1.5428099781289164"><ele>25.0</ele><time>2026-04-06T16:17:07.058Z</time></trkpt><trkpt lat="47.25870518483897" lon="-1.5428547374918524"><ele>25.000000000000004</ele><time>2026-04-06T16:17:09.057Z</time></trkpt><trkpt lat="47.258786908394896" lon="-1.5428917855038706"><ele>25.0</ele><time>2026-04-06T16:17:11.063Z</time></trkpt><trkpt lat="47.25886213597586" lon="-1.5429093036814991"><ele>25.833333333333336</ele><time>2026-04-06T16:17:13.059Z</time></trkpt><trkpt lat="47.258961126252316" lon="-1.5429315157249037"><ele>26.666666666666668</ele><time>2026-04-06T16:17:15.058Z</time></trkpt><trkpt lat="47.259048968597554" lon="-1.5429456811412636"><ele>27.5</ele><time>2026-04-06T16:17:17.063Z</time></trkpt><trkpt lat="47.259113006337785" lon="-1.5429222118123833"><ele>28.333333333333336</ele><time>2026-04-06T16:17:19.053Z</time></trkpt><trkpt lat="47.25920491390606" lon="-1.5428985748454396"><ele>29.166666666666668</ele><time>2026-04-06T16:17:22.063Z</time></trkpt><trkpt lat="47.259276704906725" lon="-1.542879631744272"><ele>30.0</ele><time>2026-04-06T16:17:24.067Z</time></trkpt><trkpt lat="47.25934686143627" lon="-1.5428492054357592"><ele>30.25</ele><time>2026-04-06T16:17:26.065Z</time></trkpt><trkpt lat="47.25942871072074" lon="-1.5428169351085488"><ele>30.5</ele><time>2026-04-06T16:17:28.069Z</time></trkpt><trkpt lat="47.2595240129598" lon="-1.542791537941939"><ele>30.75</ele><time>2026-04-06T16:17:30.063Z</time></trkpt><trkpt lat="47.25977060855111" lon="-1.5427633747472826"><ele>31.0</ele><time>2026-04-06T16:17:33.055Z</time></trkpt><trkpt lat="47.25989352916112" lon="-1.54271635227049"><ele>30.200000000000003</ele><time>2026-04-06T16:17:35.064Z</time></trkpt><trkpt lat="47.26005295295944" lon="-1.5426865965142311"><ele>29.400000000000002</ele><time>2026-04-06T16:17:37.053Z</time></trkpt><trkpt lat="47.260170592970454" lon="-1.5426368080093922"><ele>28.6</ele><time>2026-04-06T16:17:39.063Z</time></trkpt><trkpt lat="47.260255878835224" lon="-1.5426463633790077"><ele>27.8</ele><time>2026-04-06T16:17:40.068Z</time></trkpt><trkpt lat="47.26032813084056" lon="-1.5426512248828472"><ele>27.0</ele><time>2026-04-06T16:17:41.056Z</time></trkpt><trkpt lat="47.26040809419682" lon="-1.5426350478097262"><ele>27.0</ele><time>2026-04-06T16:17:42.065Z</time></trkpt><trkpt lat="47.26048101675441" lon="-1.5426305215820135"><ele>27.000000000000004</ele><time>2026-04-06T16:17:43.057Z</time></trkpt><trkpt lat="47.26062250327995" lon="-1.5426459442838492"><ele>27.000000000000004</ele><time>2026-04-06T16:17:45.06Z</time></trkpt><trkpt lat="47.26069349799981" lon="-1.5426471177502932"><ele>27.0</ele><time>2026-04-06T16:17:46.06Z</time></trkpt><trkpt lat="47.26082077719947" lon="-1.5426416695132317"><ele>27.0</ele><time>2026-04-06T16:17:48.068Z</time></trkpt><trkpt lat="47.260890933729016" lon="-1.5426550805583061"><ele>26.166666666666668</ele><time>2026-04-06T16:17:49.06Z</time></trkpt><trkpt lat="47.26096071307292" lon="-1.542657762767321"><ele>25.333333333333332</ele><time>2026-04-06T16:17:50.061Z</time></trkpt><trkpt lat="47.261029235131346" lon="-1.5426665637656511"><ele>24.5</ele><time>2026-04-06T16:17:51.064Z</time></trkpt><trkpt lat="47.26116175302049" lon="-1.5427064616247477"><ele>23.666666666666664</ele><time>2026-04-06T16:17:53.063Z</time></trkpt><trkpt lat="47.26124167446723" lon="-1.5427181962891878"><ele>22.833333333333332</ele><time>2026-04-06T16:17:54.063Z</time></trkpt><trkpt lat="47.26131145381113" lon="-1.5427142567946972"><ele>22.0</ele><time>2026-04-06T16:17:55.06Z</time></trkpt><trkpt lat="47.261414509310626" lon="-1.5427388157709898"><ele>22.0</ele><time>2026-04-06T16:17:57.061Z</time></trkpt><trkpt lat="47.261486845134996" lon="-1.5427546575679842"><ele>22.0</ele><time>2026-04-06T16:17:58.054Z</time></trkpt><trkpt lat="47.26157238245686" lon="-1.5427516400828425"><ele>22.0</ele><time>2026-04-06T16:17:59.062Z</time></trkpt><trkpt lat="47.26164899305185" lon="-1.5427462756648125"><ele>22.0</ele><time>2026-04-06T16:18:00.068Z</time></trkpt><trkpt lat="47.26173335690727" lon="-1.5427513886257473"><ele>22.0</ele><time>2026-04-06T16:18:01.063Z</time></trkpt><trkpt lat="47.26186034274032" lon="-1.5427816472961966"><ele>22.0</ele><time>2026-04-06T16:18:03.063Z</time></trkpt><trkpt lat="47.26193615705451" lon="-1.5427784621729914"><ele>22.0</ele><time>2026-04-06T16:18:04.067Z</time></trkpt><trkpt lat="47.26203112401744" lon="-1.542790364475495"><ele>22.0</ele><time>2026-04-06T16:18:05.064Z</time></trkpt><trkpt lat="47.26209398829123" lon="-1.5427996683880154"><ele>22.0</ele><time>2026-04-06T16:18:06.065Z</time></trkpt><trkpt lat="47.262166533663176" lon="-1.5428046137108866"><ele>22.0</ele><time>2026-04-06T16:18:07.063Z</time></trkpt><trkpt lat="47.26223677401176" lon="-1.542805703358299"><ele>22.0</ele><time>2026-04-06T16:18:08.066Z</time></trkpt><trkpt lat="47.26231518671593" lon="-1.5428102295860116"><ele>22.0</ele><time>2026-04-06T16:18:09.062Z</time></trkpt><trkpt lat="47.26238945037803" lon="-1.5428461041315857"><ele>21.666666666666664</ele><time>2026-04-06T16:18:10.061Z</time></trkpt><trkpt lat="47.26247595161876" lon="-1.54285901226247"><ele>21.333333333333332</ele><time>2026-04-06T16:18:11.064Z</time></trkpt><trkpt lat="47.262550969652146" lon="-1.5428876783713166"><ele>21.0</ele><time>2026-04-06T16:18:12.067Z</time></trkpt><trkpt lat="47.262641033201724" lon="-1.5429118182524506"><ele>20.666666666666668</ele><time>2026-04-06T16:18:13.063Z</time></trkpt><trkpt lat="47.26271563213995" lon="-1.5429344493910138"><ele>20.333333333333336</ele><time>2026-04-06T16:18:14.058Z</time></trkpt><trkpt lat="47.26276743230155" lon="-1.5430043544634646"><ele>20.0</ele><time>2026-04-06T16:18:15.062Z</time></trkpt><trkpt lat="47.26289307703009" lon="-1.5431123971953458"><ele>19.833333333333336</ele><time>2026-04-06T16:18:17.066Z</time></trkpt><trkpt lat="47.26296080280772" lon="-1.543172411622054"><ele>19.666666666666668</ele><time>2026-04-06T16:18:18.055Z</time></trkpt><trkpt lat="47.26303795822641" lon="-1.5432333480581113"><ele>19.5</ele><time>2026-04-06T16:18:19.055Z</time></trkpt><trkpt lat="47.26310811475596" lon="-1.5432829689248868"><ele>19.333333333333332</ele><time>2026-04-06T16:18:20.055Z</time></trkpt><trkpt lat="47.2632017825239" lon="-1.5433942805990049"><ele>19.166666666666664</ele><time>2026-04-06T16:18:22.054Z</time></trkpt><trkpt lat="47.26326171313158" lon="-1.5434553846731254"><ele>19.0</ele><time>2026-04-06T16:18:23.063Z</time></trkpt><trkpt lat="47.263327888257116" lon="-1.543504418806679"><ele>19.0</ele><time>2026-04-06T16:18:24.068Z</time></trkpt><trkpt lat="47.26338371173224" lon="-1.5435741562410663"><ele>19.0</ele><time>2026-04-06T16:18:25.063Z</time></trkpt><trkpt lat="47.26344494153491" lon="-1.5436417981996606"><ele>19.0</ele><time>2026-04-06T16:18:26.056Z</time></trkpt><trkpt lat="47.26354661402038" lon="-1.5437529422357155"><ele>19.0</ele><time>2026-04-06T16:18:28.067Z</time></trkpt><trkpt lat="47.263610484122545" lon="-1.543804910035379"><ele>19.0</ele><time>2026-04-06T16:18:29.064Z</time></trkpt><trkpt lat="47.263689651198" lon="-1.5438774134978128"><ele>19.0</ele><time>2026-04-06T16:18:30.054Z</time></trkpt><trkpt lat="47.26377665535292" lon="-1.5439258608981443"><ele>19.0</ele><time>2026-04-06T16:18:31.063Z</time></trkpt><trkpt lat="47.263858672275454" lon="-1.5440372563912943"><ele>19.0</ele><time>2026-04-06T16:18:33.065Z</time></trkpt><trkpt lat="47.26398469418964" lon="-1.5441297087832764"><ele>19.0</ele><time>2026-04-06T16:18:35.062Z</time></trkpt><trkpt lat="47.26404680409214" lon="-1.544188214467414"><ele>19.0</ele><time>2026-04-06T16:18:36.069Z</time></trkpt><trkpt lat="47.26410174746743" lon="-1.5442484803512173"><ele>19.0</ele><time>2026-04-06T16:18:37.065Z</time></trkpt><trkpt lat="47.26420086347243" lon="-1.54431897215689"><ele>19.0</ele><time>2026-04-06T16:18:39.054Z</time></trkpt><trkpt lat="47.26431640800765" lon="-1.5443858597441988"><ele>19.0</ele><time>2026-04-06T16:18:41.062Z</time></trkpt><trkpt lat="47.26442206189713" lon="-1.5444313734784205"><ele>19.0</ele><time>2026-04-06T16:18:43.056Z</time></trkpt><trkpt lat="47.26453337357125" lon="-1.544414693491109"><ele>19.0</ele><time>2026-04-06T16:18:45.059Z</time></trkpt><trkpt lat="47.264636680527836" lon="-1.544393487276085"><ele>19.0</ele><time>2026-04-06T16:18:47.059Z</time></trkpt><trkpt lat="47.26470025726339" lon="-1.5443574450924473"><ele>19.0</ele><time>2026-04-06T16:18:48.067Z</time></trkpt><trkpt lat="47.264803731858045" lon="-1.5443115122630673"><ele>19.0</ele><time>2026-04-06T16:18:50.061Z</time></trkpt><trkpt lat="47.264889311089426" lon="-1.5442593768253403"><ele>19.0</ele><time>2026-04-06T16:18:52.064Z</time></trkpt><trkpt lat="47.264982392124146" lon="-1.5441872086390334"><ele>19.0</ele><time>2026-04-06T16:18:54.06Z</time></trkpt><trkpt lat="47.26503959861329" lon="-1.5441442932947949"><ele>19.0</ele><time>2026-04-06T16:18:55.06Z</time></trkpt><trkpt lat="47.26510719866237" lon="-1.544130714611657"><ele>19.6</ele><time>2026-04-06T16:18:56.067Z</time></trkpt><trkpt lat="47.26522538349709" lon="-1.5440672636046484"><ele>20.2</ele><time>2026-04-06T16:18:58.054Z</time></trkpt><trkpt lat="47.26531523749909" lon="-1.5440130326911286"><ele>20.8</ele><time>2026-04-06T16:19:00.057Z</time></trkpt><trkpt lat="47.26537550338289" lon="-1.5439634956433848"><ele>21.400000000000002</ele><time>2026-04-06T16:19:01.064Z</time></trkpt><trkpt lat="47.265456598296076" lon="-1.543865595014341"><ele>22.0</ele><time>2026-04-06T16:19:03.057Z</time></trkpt><trkpt lat="47.26554112978956" lon="-1.543874396012671"><ele>22.0</ele><time>2026-04-06T16:19:04.059Z</time></trkpt><trkpt lat="47.26561589636585" lon="-1.5438710432514025"><ele>22.0</ele><time>2026-04-06T16:19:05.065Z</time></trkpt><trkpt lat="47.26570952222428" lon="-1.5439086779966427"><ele>22.0</ele><time>2026-04-06T16:19:07.063Z</time></trkpt><trkpt lat="47.26579396989873" lon="-1.5440016333028153"><ele>22.0</ele><time>2026-04-06T16:19:09.066Z</time></trkpt><trkpt lat="47.26583093409172" lon="-1.5441317204400375"><ele>22.0</ele><time>2026-04-06T16:19:11.058Z</time></trkpt><trkpt lat="47.26585800763896" lon="-1.5442981012179928"><ele>22.0</ele><time>2026-04-06T16:19:13.061Z</time></trkpt><trkpt lat="47.265886799476355" lon="-1.544454507531174"><ele>22.0</ele><time>2026-04-06T16:19:15.054Z</time></trkpt><trkpt lat="47.26591739342293" lon="-1.5445405896767457"><ele>22.0</ele><time>2026-04-06T16:19:16.064Z</time></trkpt><trkpt lat="47.266016718975514" lon="-1.5446696709855876"><ele>22.0</ele><time>2026-04-06T16:19:18.061Z</time></trkpt><trkpt lat="47.26607182998887" lon="-1.544726667927154"><ele>22.0</ele><time>2026-04-06T16:19:19.064Z</time></trkpt><trkpt lat="47.2661374602907" lon="-1.544697247447022"><ele>22.0</ele><time>2026-04-06T16:19:20.06Z</time></trkpt><trkpt lat="47.26620807782492" lon="-1.5446855966016135"><ele>22.166666666666664</ele><time>2026-04-06T16:19:21.065Z</time></trkpt><trkpt lat="47.266269642903715" lon="-1.5446620434537015"><ele>22.333333333333332</ele><time>2026-04-06T16:19:22.06Z</time></trkpt><trkpt lat="47.26633669812909" lon="-1.5446436870857556"><ele>22.5</ele><time>2026-04-06T16:19:23.068Z</time></trkpt><trkpt lat="47.2664041305401" lon="-1.5446274261936028"><ele>22.666666666666668</ele><time>2026-04-06T16:19:24.061Z</time></trkpt><trkpt lat="47.26652244110337" lon="-1.5445849299445231"><ele>22.833333333333336</ele><time>2026-04-06T16:19:26.058Z</time></trkpt><trkpt lat="47.266589244871646" lon="-1.544565819205292"><ele>23.0</ele><time>2026-04-06T16:19:27.062Z</time></trkpt><trkpt lat="47.26665780883959" lon="-1.5445563476547082"><ele>23.4</ele><time>2026-04-06T16:19:28.06Z</time></trkpt><trkpt lat="47.266785632862955" lon="-1.5445639751865943"><ele>23.799999999999997</ele><time>2026-04-06T16:19:30.055Z</time></trkpt><trkpt lat="47.26690352433106" lon="-1.5445739496513684"><ele>24.2</ele><time>2026-04-06T16:19:32.05Z</time></trkpt><trkpt lat="47.267010645053595" lon="-1.544587612153538"><ele>24.6</ele><time>2026-04-06T16:19:34.059Z</time></trkpt><trkpt lat="47.26710427091202" lon="-1.5446087345495303"><ele>25.0</ele><time>2026-04-06T16:19:36.05Z</time></trkpt><trkpt lat="47.267167680009514" lon="-1.5446221455946048"><ele>25.000000000000004</ele><time>2026-04-06T16:19:37.062Z</time></trkpt><trkpt lat="47.26722945463589" lon="-1.544645950199612"><ele>25.0</ele><time>2026-04-06T16:19:38.055Z</time></trkpt><trkpt lat="47.26730023980817" lon="-1.5446588583304963"><ele>25.0</ele><time>2026-04-06T16:19:40.055Z</time></trkpt><trkpt lat="47.26736255925825" lon="-1.5446938108667216"><ele>25.0</ele><time>2026-04-06T16:19:41.069Z</time></trkpt><trkpt lat="47.26744088814339" lon="-1.5447576809688888"><ele>25.000000000000004</ele><time>2026-04-06T16:19:43.057Z</time></trkpt><trkpt lat="47.26751150567761" lon="-1.5448797214790664"><ele>25.0</ele><time>2026-04-06T16:19:45.063Z</time></trkpt><trkpt lat="47.267548386051566" lon="-1.5449683181955898"><ele>25.333333333333336</ele><time>2026-04-06T16:19:47.063Z</time></trkpt><trkpt lat="47.26761988368562" lon="-1.5450752712800586"><ele>25.666666666666668</ele><time>2026-04-06T16:19:49.067Z</time></trkpt><trkpt lat="47.26768287368795" lon="-1.5451974794282999"><ele>26.0</ele><time>2026-04-06T16:19:51.053Z</time></trkpt><trkpt lat="47.26771640130064" lon="-1.545319687576541"><ele>26.333333333333336</ele><time>2026-04-06T16:19:53.07Z</time></trkpt><trkpt lat="47.267753072127014" lon="-1.5454040933414785"><ele>26.666666666666668</ele><time>2026-04-06T16:19:54.06Z</time></trkpt><trkpt lat="47.26779032968661" lon="-1.5455164946630089"><ele>27.0</ele><time>2026-04-06T16:19:56.056Z</time></trkpt><trkpt lat="47.267845231152386" lon="-1.545618753881702"><ele>27.0</ele><time>2026-04-06T16:19:58.058Z</time></trkpt><trkpt lat="47.267889655239195" lon="-1.5457071829601616"><ele>27.0</ele><time>2026-04-06T16:20:00.057Z</time></trkpt><trkpt lat="47.26788190197876" lon="-1.5458373539164156"><ele>27.0</ele><time>2026-04-06T16:20:02.053Z</time></trkpt><trkpt lat="47.26786970630965" lon="-1.5459420438870284"><ele>27.0</ele><time>2026-04-06T16:20:04.061Z</time></trkpt><trkpt lat="47.267916854514986" lon="-1.546029634775171"><ele>27.0</ele><time>2026-04-06T16:20:06.055Z</time></trkpt><trkpt lat="47.26799090862951" lon="-1.5460717957481238"><ele>27.0</ele><time>2026-04-06T16:20:08.056Z</time></trkpt><trkpt lat="47.26808352865955" lon="-1.5460438840105626"><ele>27.400000000000002</ele><time>2026-04-06T16:20:10.071Z</time></trkpt><trkpt lat="47.26817199964753" lon="-1.5460506733521315"><ele>27.800000000000004</ele><time>2026-04-06T16:20:12.063Z</time></trkpt><trkpt lat="47.268270780376405" lon="-1.5460479911431166"><ele>28.2</ele><time>2026-04-06T16:20:14.066Z</time></trkpt><trkpt lat="47.268387121192426" lon="-1.5460477396860215"><ele>28.6</ele><time>2026-04-06T16:20:16.06Z</time></trkpt><trkpt lat="47.268488206944674" lon="-1.5460569597795102"><ele>29.0</ele><time>2026-04-06T16:20:18.064Z</time></trkpt><trkpt lat="47.26855287332764" lon="-1.5460748132332656"><ele>29.0</ele><time>2026-04-06T16:20:19.066Z</time></trkpt><trkpt lat="47.26864792410961" lon="-1.5461137052639817"><ele>29.0</ele><time>2026-04-06T16:20:21.056Z</time></trkpt><trkpt lat="47.26873744283548" lon="-1.5461712889387702"><ele>29.0</ele><time>2026-04-06T16:20:23.061Z</time></trkpt><trkpt lat="47.268847371495575" lon="-1.5462101809694861"><ele>29.0</ele><time>2026-04-06T16:20:25.056Z</time></trkpt><trkpt lat="47.2689489182525" lon="-1.546244714410553"><ele>29.0</ele><time>2026-04-06T16:20:27.068Z</time></trkpt><trkpt lat="47.269031102813095" lon="-1.546252341942439"><ele>29.799999999999997</ele><time>2026-04-06T16:20:29.057Z</time></trkpt><trkpt lat="47.26915289186618" lon="-1.5462458040579652"><ele>30.599999999999998</ele><time>2026-04-06T16:20:31.071Z</time></trkpt><trkpt lat="47.269269861324936" lon="-1.5462257713093852"><ele>31.4</ele><time>2026-04-06T16:20:33.066Z</time></trkpt><trkpt lat="47.26939378776333" lon="-1.54623675160254"><ele>32.199999999999996</ele><time>2026-04-06T16:20:35.065Z</time></trkpt><trkpt lat="47.26947044026783" lon="-1.5462492406382655"><ele>33.0</ele><time>2026-04-06T16:20:37.065Z</time></trkpt><trkpt lat="47.269547595686525" lon="-1.546237589792857"><ele>33.0</ele><time>2026-04-06T16:20:39.069Z</time></trkpt><trkpt lat="47.26965689570388" lon="-1.5462411940112208"><ele>33.0</ele><time>2026-04-06T16:20:41.069Z</time></trkpt><trkpt lat="47.26972571112892" lon="-1.54622258618618"><ele>33.0</ele><time>2026-04-06T16:20:42.069Z</time></trkpt><trkpt lat="47.26980835669419" lon="-1.5462074987604713"><ele>33.0</ele><time>2026-04-06T16:20:43.071Z</time></trkpt><trkpt lat="47.26986975413493" lon="-1.5462368354215716"><ele>33.0</ele><time>2026-04-06T16:20:44.056Z</time></trkpt><trkpt lat="47.26994364061139" lon="-1.5461992844953631"><ele>33.0</ele><time>2026-04-06T16:20:45.066Z</time></trkpt><trkpt lat="47.27004799530587" lon="-1.5461711213007068"><ele>33.0</ele><time>2026-04-06T16:20:47.064Z</time></trkpt><trkpt lat="47.27012146268717" lon="-1.5461791679277515"><ele>33.0</ele><time>2026-04-06T16:20:48.062Z</time></trkpt><trkpt lat="47.27023005024276" lon="-1.546195177362809"><ele>33.0</ele><time>2026-04-06T16:20:50.054Z</time></trkpt><trkpt lat="47.27029689592055" lon="-1.546206995846281"><ele>33.0</ele><time>2026-04-06T16:20:51.052Z</time></trkpt><trkpt lat="47.270381134047426" lon="-1.546209342779169"><ele>33.0</ele><time>2026-04-06T16:20:53.066Z</time></trkpt><trkpt lat="47.270504264205016" lon="-1.5462241787477826"><ele>33.0</ele><time>2026-04-06T16:20:55.059Z</time></trkpt><trkpt lat="47.270579952790655" lon="-1.5462395176305865"><ele>33.0</ele><time>2026-04-06T16:20:56.065Z</time></trkpt><trkpt lat="47.27069809571586" lon="-1.5462831035270785"><ele>33.0</ele><time>2026-04-06T16:20:58.063Z</time></trkpt><trkpt lat="47.270763474560596" lon="-1.5462951734676456"><ele>33.0</ele><time>2026-04-06T16:20:59.062Z</time></trkpt><trkpt lat="47.270861626646735" lon="-1.546326270328412"><ele>33.0</ele><time>2026-04-06T16:21:01.07Z</time></trkpt><trkpt lat="47.27092277263037" lon="-1.5463538467898466"><ele>33.0</ele><time>2026-04-06T16:21:02.064Z</time></trkpt><trkpt lat="47.27099154614589" lon="-1.5463567804559566"><ele>33.0</ele><time>2026-04-06T16:21:03.07Z</time></trkpt><trkpt lat="47.27105285976759" lon="-1.546379327775488"><ele>33.0</ele><time>2026-04-06T16:21:04.064Z</time></trkpt><trkpt lat="47.27115386170081" lon="-1.546426769347439"><ele>33.0</ele><time>2026-04-06T16:21:06.064Z</time></trkpt><trkpt lat="47.27125100795857" lon="-1.5464442875250675"><ele>33.0</ele><time>2026-04-06T16:21:08.064Z</time></trkpt><trkpt lat="47.271362319632686" lon="-1.5464730374529458"><ele>33.0</ele><time>2026-04-06T16:21:10.063Z</time></trkpt><trkpt lat="47.27142908149145" lon="-1.5464838501080371"><ele>33.0</ele><time>2026-04-06T16:21:11.068Z</time></trkpt><trkpt lat="47.271545464216985" lon="-1.5465220715864993"><ele>32.6</ele><time>2026-04-06T16:21:13.054Z</time></trkpt><trkpt lat="47.27161599793217" lon="-1.5465591195985176"><ele>32.199999999999996</ele><time>2026-04-06T16:21:14.062Z</time></trkpt><trkpt lat="47.2716794908487" lon="-1.546578817070971"><ele>31.8</ele><time>2026-04-06T16:21:15.064Z</time></trkpt><trkpt lat="47.271794155284084" lon="-1.5466072317227224"><ele>31.4</ele><time>2026-04-06T16:21:17.069Z</time></trkpt><trkpt lat="47.271919800012626" lon="-1.5466534998282293"><ele>31.0</ele><time>2026-04-06T16:21:19.058Z</time></trkpt><trkpt lat="47.272037775299765" lon="-1.5466842614128689"><ele>31.0</ele><time>2026-04-06T16:21:21.071Z</time></trkpt><trkpt lat="47.27210822519592" lon="-1.5467043779804805"><ele>31.0</ele><time>2026-04-06T16:21:22.071Z</time></trkpt><trkpt lat="47.272216058380224" lon="-1.5467358939364055"><ele>31.0</ele><time>2026-04-06T16:21:24.054Z</time></trkpt><trkpt lat="47.27234300230376" lon="-1.5467838384225467"><ele>31.0</ele><time>2026-04-06T16:21:26.063Z</time></trkpt><trkpt lat="47.2724625701525" lon="-1.5468187071397406"><ele>31.0</ele><time>2026-04-06T16:21:28.064Z</time></trkpt><trkpt lat="47.272525727792896" lon="-1.546825915576468"><ele>31.200000000000003</ele><time>2026-04-06T16:21:29.053Z</time></trkpt><trkpt lat="47.272641984789885" lon="-1.5468340460225445"><ele>31.400000000000002</ele><time>2026-04-06T16:21:31.055Z</time></trkpt><trkpt lat="47.272711889862336" lon="-1.5468538273140293"><ele>31.6</ele><time>2026-04-06T16:21:32.063Z</time></trkpt><trkpt lat="47.27281821430407" lon="-1.5468880254789692"><ele>31.8</ele><time>2026-04-06T16:21:34.063Z</time></trkpt><trkpt lat="47.272883299782194" lon="-1.5469002630575996"><ele>32.0</ele><time>2026-04-06T16:21:35.056Z</time></trkpt><trkpt lat="47.27299146824262" lon="-1.5469194576158625"><ele>32.0</ele><time>2026-04-06T16:21:37.068Z</time></trkpt><trkpt lat="47.27306451652876" lon="-1.5469520632191998"><ele>32.0</ele><time>2026-04-06T16:21:38.065Z</time></trkpt><trkpt lat="47.273166063285686" lon="-1.5469751134529215"><ele>32.0</ele><time>2026-04-06T16:21:40.063Z</time></trkpt><trkpt lat="47.27322964002124" lon="-1.546985590831886"><ele>32.0</ele><time>2026-04-06T16:21:41.066Z</time></trkpt><trkpt lat="47.273344136818565" lon="-1.5470342058702808"><ele>32.0</ele><time>2026-04-06T16:21:43.053Z</time></trkpt><trkpt lat="47.273444803475655" lon="-1.547074271367441"><ele>32.2</ele><time>2026-04-06T16:21:45.071Z</time></trkpt><trkpt lat="47.27354966108433" lon="-1.5471279155477389"><ele>32.400000000000006</ele><time>2026-04-06T16:21:47.056Z</time></trkpt><trkpt lat="47.273631678006865" lon="-1.5471777040525778"><ele>32.599999999999994</ele><time>2026-04-06T16:21:49.07Z</time></trkpt><trkpt lat="47.273715455129064" lon="-1.5472420770689352"><ele>32.8</ele><time>2026-04-06T16:21:51.058Z</time></trkpt><trkpt lat="47.27377094332806" lon="-1.5473353676512347"><ele>33.0</ele><time>2026-04-06T16:21:53.064Z</time></trkpt><trkpt lat="47.27383611262522" lon="-1.5474076196565734"><ele>33.0</ele><time>2026-04-06T16:21:55.061Z</time></trkpt><trkpt lat="47.27390065327964" lon="-1.547502838076602"><ele>33.0</ele><time>2026-04-06T16:21:57.066Z</time></trkpt><trkpt lat="47.27396867242388" lon="-1.5475969668492187"><ele>33.0</ele><time>2026-04-06T16:21:59.067Z</time></trkpt><trkpt lat="47.27404809095643" lon="-1.5476605854942906"><ele>33.0</ele><time>2026-04-06T16:22:01.069Z</time></trkpt><trkpt lat="47.274112673520364" lon="-1.5477287303670753"><ele>33.0</ele><time>2026-04-06T16:22:03.069Z</time></trkpt><trkpt lat="47.274181447035886" lon="-1.5477599110468736"><ele>33.0</ele><time>2026-04-06T16:22:05.069Z</time></trkpt><trkpt lat="47.27428056304089" lon="-1.5477572288378587"><ele>33.166666666666664</ele><time>2026-04-06T16:22:07.065Z</time></trkpt><trkpt lat="47.27436999794773" lon="-1.5477107930942882"><ele>33.333333333333336</ele><time>2026-04-06T16:22:09.06Z</time></trkpt><trkpt lat="47.27443776563487" lon="-1.5476315841093171"><ele>33.5</ele><time>2026-04-06T16:22:12.065Z</time></trkpt><trkpt lat="47.27450985000215" lon="-1.547587411479603"><ele>33.66666666666667</ele><time>2026-04-06T16:22:15.056Z</time></trkpt><trkpt lat="47.27455959659747" lon="-1.547512309627186"><ele>33.833333333333336</ele><time>2026-04-06T16:22:17.071Z</time></trkpt><trkpt lat="47.274642703167416" lon="-1.5474502835437165"><ele>34.0</ele><time>2026-04-06T16:22:19.063Z</time></trkpt><trkpt lat="47.27472970732234" lon="-1.5474359504892932"><ele>34.66666666666667</ele><time>2026-04-06T16:22:21.059Z</time></trkpt><trkpt lat="47.27482408755205" lon="-1.5474589169039832"><ele>35.333333333333336</ele><time>2026-04-06T16:22:23.053Z</time></trkpt><trkpt lat="47.27489520800046" lon="-1.547473082320343"><ele>36.0</ele><time>2026-04-06T16:22:25.069Z</time></trkpt><trkpt lat="47.27498401426456" lon="-1.5474932827069865"><ele>36.666666666666664</ele><time>2026-04-06T16:22:27.061Z</time></trkpt><trkpt lat="47.27506871339611" lon="-1.5475118067129956"><ele>37.33333333333333</ele><time>2026-04-06T16:22:29.071Z</time></trkpt><trkpt lat="47.27514570117674" lon="-1.5475351084038127"><ele>38.0</ele><time>2026-04-06T16:22:31.063Z</time></trkpt><trkpt lat="47.2752280533754" lon="-1.5475539676859487"><ele>38.0</ele><time>2026-04-06T16:22:33.06Z</time></trkpt><trkpt lat="47.27530634035102" lon="-1.547585064546715"><ele>38.0</ele><time>2026-04-06T16:22:35.055Z</time></trkpt><trkpt lat="47.27539845746688" lon="-1.5476199332639087"><ele>38.0</ele><time>2026-04-06T16:22:37.057Z</time></trkpt><trkpt lat="47.275485084436156" lon="-1.5476448275163281"><ele>38.0</ele><time>2026-04-06T16:22:39.062Z</time></trkpt><trkpt lat="47.275582230693914" lon="-1.5476814564331878"><ele>38.0</ele><time>2026-04-06T16:22:41.058Z</time></trkpt><trkpt lat="47.275666804096915" lon="-1.5476981364204991"><ele>38.0</ele><time>2026-04-06T16:22:43.053Z</time></trkpt><trkpt lat="47.27575343106619" lon="-1.5477217733874429"><ele>38.0</ele><time>2026-04-06T16:22:45.061Z</time></trkpt><trkpt lat="47.275819480463184" lon="-1.5477544628098119"><ele>38.0</ele><time>2026-04-06T16:22:47.052Z</time></trkpt><trkpt lat="47.27589093618772" lon="-1.547827217729341"><ele>38.0</ele><time>2026-04-06T16:22:49.06Z</time></trkpt><trkpt lat="47.27592861284248" lon="-1.5479230228825918"><ele>38.0</ele><time>2026-04-06T16:22:51.054Z</time></trkpt><trkpt lat="47.27595715322278" lon="-1.548006087543022"><ele>38.0</ele><time>2026-04-06T16:22:53.059Z</time></trkpt><trkpt lat="47.27597278547219" lon="-1.5481081791236513"><ele>38.0</ele><time>2026-04-06T16:22:56.066Z</time></trkpt><trkpt lat="47.27601247378371" lon="-1.548197194935333"><ele>38.0</ele><time>2026-04-06T16:22:58.061Z</time></trkpt><trkpt lat="47.276089713021435" lon="-1.548265004531991"><ele>38.0</ele><time>2026-04-06T16:23:00.065Z</time></trkpt><trkpt lat="47.27616330613128" lon="-1.5482646692558641"><ele>38.0</ele><time>2026-04-06T16:23:01.058Z</time></trkpt><trkpt lat="47.27625881791792" lon="-1.5482692793026085"><ele>38.0</ele><time>2026-04-06T16:23:03.059Z</time></trkpt><trkpt lat="47.27633852981708" lon="-1.5482459776117916"><ele>38.0</ele><time>2026-04-06T16:23:05.061Z</time></trkpt><trkpt lat="47.27641476322643" lon="-1.5482005476966016"><ele>38.199999999999996</ele><time>2026-04-06T16:23:07.058Z</time></trkpt><trkpt lat="47.27650591642342" lon="-1.5481480769827478"><ele>38.4</ele><time>2026-04-06T16:23:09.056Z</time></trkpt><trkpt lat="47.27661089976064" lon="-1.548124188558709"><ele>38.599999999999994</ele><time>2026-04-06T16:23:11.058Z</time></trkpt><trkpt lat="47.27671064440838" lon="-1.5481168963029497"><ele>38.8</ele><time>2026-04-06T16:23:13.06Z</time></trkpt><trkpt lat="47.276816843121566" lon="-1.548120919616472"><ele>39.0</ele><time>2026-04-06T16:23:15.065Z</time></trkpt><trkpt lat="47.276929956904866" lon="-1.5481429640218132"><ele>39.0</ele><time>2026-04-06T16:23:17.066Z</time></trkpt><trkpt lat="47.276998856148936" lon="-1.5481515135630481"><ele>39.0</ele><time>2026-04-06T16:23:18.055Z</time></trkpt><trkpt lat="47.27706528273157" lon="-1.5481698699309938"><ele>39.0</ele><time>2026-04-06T16:23:19.065Z</time></trkpt><trkpt lat="47.27712953001938" lon="-1.5481767430915945"><ele>39.0</ele><time>2026-04-06T16:23:20.063Z</time></trkpt><trkpt lat="47.27721033156595" lon="-1.5481997095062845"><ele>39.0</ele><time>2026-04-06T16:23:21.061Z</time></trkpt><trkpt lat="47.27727684196762" lon="-1.5482165571316593"><ele>39.0</ele><time>2026-04-06T16:23:22.067Z</time></trkpt><trkpt lat="47.27734087970785" lon="-1.548231057824146"><ele>39.0</ele><time>2026-04-06T16:23:23.06Z</time></trkpt><trkpt lat="47.27741401181302" lon="-1.5482510067536945"><ele>38.666666666666664</ele><time>2026-04-06T16:23:24.065Z</time></trkpt><trkpt lat="47.27753429212354" lon="-1.5482950955643768"><ele>38.333333333333336</ele><time>2026-04-06T16:23:26.068Z</time></trkpt><trkpt lat="47.27761542894624" lon="-1.5483152121319885"><ele>38.0</ele><time>2026-04-06T16:23:27.06Z</time></trkpt><trkpt lat="47.27768810004674" lon="-1.5483384300037737"><ele>37.66666666666667</ele><time>2026-04-06T16:23:28.069Z</time></trkpt><trkpt lat="47.27776844058864" lon="-1.5483608935042734"><ele>37.333333333333336</ele><time>2026-04-06T16:23:29.063Z</time></trkpt><trkpt lat="47.27784044113688" lon="-1.548388386146676"><ele>37.0</ele><time>2026-04-06T16:23:30.067Z</time></trkpt><trkpt lat="47.277917387007996" lon="-1.5484063234194632"><ele>37.0</ele><time>2026-04-06T16:23:31.061Z</time></trkpt><trkpt lat="47.278014826632365" lon="-1.5484376717373247"><ele>37.0</ele><time>2026-04-06T16:23:32.067Z</time></trkpt><trkpt lat="47.278091814412996" lon="-1.5484499931349869"><ele>37.0</ele><time>2026-04-06T16:23:33.06Z</time></trkpt><trkpt lat="47.27816276722334" lon="-1.5484790783389923"><ele>37.0</ele><time>2026-04-06T16:23:34.07Z</time></trkpt><trkpt lat="47.278239419727846" lon="-1.5485114324852345"><ele>37.0</ele><time>2026-04-06T16:23:35.056Z</time></trkpt><trkpt lat="47.27832424458794" lon="-1.5485362429186222"><ele>37.0</ele><time>2026-04-06T16:23:36.064Z</time></trkpt><trkpt lat="47.27841485296123" lon="-1.5485619753613589"><ele>35.800000000000004</ele><time>2026-04-06T16:23:37.063Z</time></trkpt><trkpt lat="47.278501689478084" lon="-1.5485891327276347"><ele>34.6</ele><time>2026-04-06T16:23:38.069Z</time></trkpt><trkpt lat="47.27858743634753" lon="-1.5486080758288023"><ele>33.400000000000006</ele><time>2026-04-06T16:23:39.062Z</time></trkpt><trkpt lat="47.27867473386906" lon="-1.5486338920905707"><ele>32.2</ele><time>2026-04-06T16:23:40.065Z</time></trkpt><trkpt lat="47.278768778822645" lon="-1.548644956202757"><ele>31.0</ele><time>2026-04-06T16:23:41.064Z</time></trkpt><trkpt lat="47.278892411894425" lon="-1.5486883744611857"><ele>30.6</ele><time>2026-04-06T16:23:42.069Z</time></trkpt><trkpt lat="47.27896340661429" lon="-1.5487182978555083"><ele>30.200000000000003</ele><time>2026-04-06T16:23:43.055Z</time></trkpt><trkpt lat="47.27906034332447" lon="-1.5487441979363084"><ele>29.799999999999997</ele><time>2026-04-06T16:23:44.062Z</time></trkpt><trkpt lat="47.279163356914445" lon="-1.548768170179379"><ele>29.4</ele><time>2026-04-06T16:23:45.054Z</time></trkpt><trkpt lat="47.27924080569975" lon="-1.5487892925753712"><ele>29.0</ele><time>2026-04-06T16:23:46.058Z</time></trkpt><trkpt lat="47.279335144019946" lon="-1.548817958684218"><ele>29.0</ele><time>2026-04-06T16:23:47.06Z</time></trkpt><trkpt lat="47.279436439319774" lon="-1.5488515701159358"><ele>29.0</ele><time>2026-04-06T16:23:48.066Z</time></trkpt><trkpt lat="47.2795258323171" lon="-1.548880655319941"><ele>29.0</ele><time>2026-04-06T16:23:49.063Z</time></trkpt><trkpt lat="47.2796381498196" lon="-1.548925414682877"><ele>29.0</ele><time>2026-04-06T16:23:50.071Z</time></trkpt><trkpt lat="47.27973131467335" lon="-1.548951398582709"><ele>29.0</ele><time>2026-04-06T16:23:51.056Z</time></trkpt><trkpt lat="47.279831604144796" lon="-1.5489704255029084"><ele>28.2</ele><time>2026-04-06T16:23:52.064Z</time></trkpt><trkpt lat="47.27993243843995" lon="-1.5490089822574975"><ele>27.4</ele><time>2026-04-06T16:23:53.064Z</time></trkpt><trkpt lat="47.280018688223585" lon="-1.5490301884725215"><ele>26.6</ele><time>2026-04-06T16:23:54.072Z</time></trkpt><trkpt lat="47.28011604402892" lon="-1.5490571782007339"><ele>25.8</ele><time>2026-04-06T16:23:55.063Z</time></trkpt><trkpt lat="47.280205353207215" lon="-1.5490824077292802"><ele>25.0</ele><time>2026-04-06T16:23:56.065Z</time></trkpt><trkpt lat="47.280296213037595" lon="-1.549105709420097"><ele>25.0</ele><time>2026-04-06T16:23:57.064Z</time></trkpt><trkpt lat="47.28038015779786" lon="-1.549129849301231"><ele>25.0</ele><time>2026-04-06T16:23:58.063Z</time></trkpt><trkpt lat="47.280483883849605" lon="-1.5491656400277736"><ele>25.0</ele><time>2026-04-06T16:23:59.058Z</time></trkpt><trkpt lat="47.28057629433207" lon="-1.5491936355843667"><ele>25.0</ele><time>2026-04-06T16:24:00.063Z</time></trkpt><trkpt lat="47.28066007145427" lon="-1.5492305997773532"><ele>25.0</ele><time>2026-04-06T16:24:01.062Z</time></trkpt><trkpt lat="47.280741292096" lon="-1.549255410210741"><ele>25.166666666666668</ele><time>2026-04-06T16:24:02.071Z</time></trkpt><trkpt lat="47.280843970409855" lon="-1.5492820646628265"><ele>25.333333333333336</ele><time>2026-04-06T16:24:03.058Z</time></trkpt><trkpt lat="47.28092112582855" lon="-1.5493027679636602"><ele>25.5</ele><time>2026-04-06T16:24:04.065Z</time></trkpt><trkpt lat="47.28101936173372" lon="-1.5493295062347774"><ele>25.666666666666664</ele><time>2026-04-06T16:24:05.065Z</time></trkpt><trkpt lat="47.28110909000717" lon="-1.5493601001813535"><ele>25.833333333333332</ele><time>2026-04-06T16:24:06.072Z</time></trkpt><trkpt lat="47.28117342111401" lon="-1.5493751037880306"><ele>26.0</ele><time>2026-04-06T16:24:07.062Z</time></trkpt><trkpt lat="47.281302083327695" lon="-1.5494099725052242"><ele>26.0</ele><time>2026-04-06T16:24:09.063Z</time></trkpt><trkpt lat="47.28137752045624" lon="-1.5494289994254238"><ele>26.0</ele><time>2026-04-06T16:24:10.06Z</time></trkpt><trkpt lat="47.28144784462385" lon="-1.5494548995062238"><ele>26.0</ele><time>2026-04-06T16:24:11.057Z</time></trkpt><trkpt lat="47.28152160537176" lon="-1.5494768600925333"><ele>26.0</ele><time>2026-04-06T16:24:12.067Z</time></trkpt><trkpt lat="47.28158413436942" lon="-1.5494888462140686"><ele>26.0</ele><time>2026-04-06T16:24:13.069Z</time></trkpt><trkpt lat="47.28165554818444" lon="-1.5495041012778408"><ele>26.0</ele><time>2026-04-06T16:24:14.056Z</time></trkpt><trkpt lat="47.28171908301048" lon="-1.5495300013586408"><ele>26.0</ele><time>2026-04-06T16:24:15.066Z</time></trkpt><trkpt lat="47.28178454567425" lon="-1.5495512913926965"><ele>26.285714285714285</ele><time>2026-04-06T16:24:16.071Z</time></trkpt><trkpt lat="47.281852774366065" lon="-1.5495683904751665"><ele>26.571428571428573</ele><time>2026-04-06T16:24:17.059Z</time></trkpt><trkpt lat="47.28192326617174" lon="-1.5495827235295898"><ele>26.857142857142858</ele><time>2026-04-06T16:24:18.06Z</time></trkpt><trkpt lat="47.281992081596776" lon="-1.549588255585683"><ele>27.142857142857142</ele><time>2026-04-06T16:24:19.064Z</time></trkpt><trkpt lat="47.28206814736806" lon="-1.5496082045152313"><ele>27.42857142857143</ele><time>2026-04-06T16:24:20.052Z</time></trkpt><trkpt lat="47.28213876490228" lon="-1.5496226213886863"><ele>27.714285714285715</ele><time>2026-04-06T16:24:21.06Z</time></trkpt><trkpt lat="47.282204059927984" lon="-1.5496340207769996"><ele>28.0</ele><time>2026-04-06T16:24:22.055Z</time></trkpt><trkpt lat="47.282283268912956" lon="-1.5496330987676508"><ele>28.166666666666668</ele><time>2026-04-06T16:24:23.057Z</time></trkpt><trkpt lat="47.282355520918294" lon="-1.5496410615756637"><ele>28.333333333333336</ele><time>2026-04-06T16:24:24.054Z</time></trkpt><trkpt lat="47.282459917522296" lon="-1.5496921073659786"><ele>28.5</ele><time>2026-04-06T16:24:26.062Z</time></trkpt><trkpt lat="47.28255731523715" lon="-1.5497057698681482"><ele>28.666666666666664</ele><time>2026-04-06T16:24:28.062Z</time></trkpt><trkpt lat="47.28262956724249" lon="-1.549715241418732"><ele>28.833333333333332</ele><time>2026-04-06T16:24:29.067Z</time></trkpt><trkpt lat="47.2826988436722" lon="-1.5497293230160603"><ele>29.0</ele><time>2026-04-06T16:24:30.053Z</time></trkpt><trkpt lat="47.28278245315634" lon="-1.549790678547276"><ele>29.0</ele><time>2026-04-06T16:24:32.055Z</time></trkpt><trkpt lat="47.2828724747964" lon="-1.5498481784030327"><ele>29.0</ele><time>2026-04-06T16:24:34.064Z</time></trkpt><trkpt lat="47.282974608286544" lon="-1.5498719830080399"><ele>29.0</ele><time>2026-04-06T16:24:36.054Z</time></trkpt><trkpt lat="47.28308818307452" lon="-1.5498388744905123"><ele>29.0</ele><time>2026-04-06T16:24:38.058Z</time></trkpt><trkpt lat="47.283211355141624" lon="-1.5497661195709833"><ele>28.999999999999996</ele><time>2026-04-06T16:24:40.069Z</time></trkpt><trkpt lat="47.28328046393327" lon="-1.5497532952591309"><ele>29.0</ele><time>2026-04-06T16:24:41.061Z</time></trkpt><trkpt lat="47.28340552192859" lon="-1.5497558098300823"><ele>29.0</ele><time>2026-04-06T16:24:43.067Z</time></trkpt><trkpt lat="47.28347069122575" lon="-1.5497595816865095"><ele>29.0</ele><time>2026-04-06T16:24:44.065Z</time></trkpt><trkpt lat="47.28358271536164" lon="-1.5497699752464422"><ele>28.999999999999996</ele><time>2026-04-06T16:24:46.058Z</time></trkpt><trkpt lat="47.283647926568314" lon="-1.5497789438828358"><ele>29.0</ele><time>2026-04-06T16:24:47.061Z</time></trkpt><trkpt lat="47.28371464651756" lon="-1.549772405998362"><ele>28.999999999999996</ele><time>2026-04-06T16:24:48.07Z</time></trkpt><trkpt lat="47.283834465823396" lon="-1.5497631859048733"><ele>29.0</ele><time>2026-04-06T16:24:50.059Z</time></trkpt><trkpt lat="47.28389904838733" lon="-1.5497796982541212"><ele>29.0</ele><time>2026-04-06T16:24:51.064Z</time></trkpt><trkpt lat="47.28397033647381" lon="-1.5497874934240707"><ele>29.0</ele><time>2026-04-06T16:24:52.071Z</time></trkpt><trkpt lat="47.28404413913123" lon="-1.5497942827656397"><ele>28.999999999999996</ele><time>2026-04-06T16:24:53.064Z</time></trkpt><trkpt lat="47.28410712913357" lon="-1.5497986413552889"><ele>29.0</ele><time>2026-04-06T16:24:54.06Z</time></trkpt><trkpt lat="47.28423000783406" lon="-1.5498055983349213"><ele>28.833333333333332</ele><time>2026-04-06T16:24:56.07Z</time></trkpt><trkpt lat="47.28429672778331" lon="-1.5498085320010313"><ele>28.666666666666664</ele><time>2026-04-06T16:24:57.064Z</time></trkpt><trkpt lat="47.28436219044708" lon="-1.5498059336110481"><ele>28.5</ele><time>2026-04-06T16:24:58.069Z</time></trkpt><trkpt lat="47.28448389568113" lon="-1.5498005691930183"><ele>28.333333333333336</ele><time>2026-04-06T16:25:00.07Z</time></trkpt><trkpt lat="47.28455530949615" lon="-1.5497993119075426"><ele>28.166666666666668</ele><time>2026-04-06T16:25:01.068Z</time></trkpt><trkpt lat="47.28463594340466" lon="-1.549809202553285"><ele>28.0</ele><time>2026-04-06T16:25:02.059Z</time></trkpt><trkpt lat="47.284759325019344" lon="-1.5497905109092125"><ele>27.799999999999997</ele><time>2026-04-06T16:25:04.067Z</time></trkpt><trkpt lat="47.28482470386408" lon="-1.5497987251743206"><ele>27.599999999999998</ele><time>2026-04-06T16:25:05.064Z</time></trkpt><trkpt lat="47.28495562919162" lon="-1.5497950371369251"><ele>27.400000000000002</ele><time>2026-04-06T16:25:07.067Z</time></trkpt><trkpt lat="47.28502679154955" lon="-1.5497952047749886"><ele>27.200000000000003</ele><time>2026-04-06T16:25:08.061Z</time></trkpt><trkpt lat="47.28509154175155" lon="-1.5498129744097122"><ele>27.0</ele><time>2026-04-06T16:25:09.063Z</time></trkpt><trkpt lat="47.28519409433686" lon="-1.5499054268016945"><ele>27.0</ele><time>2026-04-06T16:25:11.054Z</time></trkpt><trkpt lat="47.28523990143769" lon="-1.550027215854777"><ele>27.000000000000004</ele><time>2026-04-06T16:25:13.053Z</time></trkpt><trkpt lat="47.28527150121265" lon="-1.5501203387990128"><ele>27.000000000000004</ele><time>2026-04-06T16:25:15.057Z</time></trkpt><trkpt lat="47.285332647196284" lon="-1.5502068400397433"><ele>27.0</ele><time>2026-04-06T16:25:17.066Z</time></trkpt><trkpt lat="47.28541370019995" lon="-1.5502908267095221"><ele>27.0</ele><time>2026-04-06T16:25:19.065Z</time></trkpt><trkpt lat="47.28549701631748" lon="-1.5503956843181983"><ele>27.200000000000003</ele><time>2026-04-06T16:25:21.066Z</time></trkpt><trkpt lat="47.28555267215454" lon="-1.550480592997326"><ele>27.400000000000002</ele><time>2026-04-06T16:25:23.068Z</time></trkpt><trkpt lat="47.2856408497759" lon="-1.5504624042674438"><ele>27.599999999999998</ele><time>2026-04-06T16:25:25.065Z</time></trkpt><trkpt lat="47.285720855041674" lon="-1.5503973606988326"><ele>27.799999999999997</ele><time>2026-04-06T16:25:27.061Z</time></trkpt><trkpt lat="47.28578233630144" lon="-1.5502717997893227"><ele>28.0</ele><time>2026-04-06T16:25:29.054Z</time></trkpt><trkpt lat="47.28582944259726" lon="-1.5501564648016823"><ele>27.666666666666668</ele><time>2026-04-06T16:25:31.066Z</time></trkpt><trkpt lat="47.28586980146103" lon="-1.5500551275923382"><ele>27.333333333333336</ele><time>2026-04-06T16:25:33.065Z</time></trkpt><trkpt lat="47.285919548056356" lon="-1.5499734878554474"><ele>27.0</ele><time>2026-04-06T16:25:35.061Z</time></trkpt><trkpt lat="47.2859690851041" lon="-1.5498658642187246"><ele>26.666666666666664</ele><time>2026-04-06T16:25:37.061Z</time></trkpt><trkpt lat="47.28604200766169" lon="-1.5497874934240707"><ele>26.333333333333332</ele><time>2026-04-06T16:25:39.064Z</time></trkpt><trkpt lat="47.28614242286169" lon="-1.5497180074467787"><ele>26.0</ele><time>2026-04-06T16:25:41.059Z</time></trkpt><trkpt lat="47.28625092659824" lon="-1.5497154090567955"><ele>26.0</ele><time>2026-04-06T16:25:43.063Z</time></trkpt><trkpt lat="47.2863869229772" lon="-1.5496930293753275"><ele>26.0</ele><time>2026-04-06T16:25:45.061Z</time></trkpt><trkpt lat="47.28647405286067" lon="-1.5496954601272472"><ele>26.0</ele><time>2026-04-06T16:25:46.054Z</time></trkpt><trkpt lat="47.28656457741492" lon="-1.5496890060618052"><ele>26.0</ele><time>2026-04-06T16:25:47.063Z</time></trkpt><trkpt lat="47.28669365872376" lon="-1.549658076839102"><ele>26.0</ele><time>2026-04-06T16:25:49.064Z</time></trkpt><trkpt lat="47.28676532399588" lon="-1.5496543888017065"><ele>25.999999999999996</ele><time>2026-04-06T16:25:50.06Z</time></trkpt><trkpt lat="47.28683405560189" lon="-1.5496399719282514"><ele>26.0</ele><time>2026-04-06T16:25:51.063Z</time></trkpt><trkpt lat="47.28691209112041" lon="-1.549626560883177"><ele>26.0</ele><time>2026-04-06T16:25:52.058Z</time></trkpt><trkpt lat="47.28699100673877" lon="-1.5496301651015407"><ele>26.0</ele><time>2026-04-06T16:25:53.066Z</time></trkpt><trkpt lat="47.28709138002925" lon="-1.549621280284179"><ele>25.999999999999996</ele><time>2026-04-06T16:25:55.066Z</time></trkpt><trkpt lat="47.28715830952608" lon="-1.5496073663249141"><ele>26.0</ele><time>2026-04-06T16:25:56.053Z</time></trkpt><trkpt lat="47.28726262231105" lon="-1.5495856571956999"><ele>26.0</ele><time>2026-04-06T16:25:58.061Z</time></trkpt><trkpt lat="47.28732682768934" lon="-1.5495863277479536"><ele>26.0</ele><time>2026-04-06T16:25:59.06Z</time></trkpt><trkpt lat="47.28743487042122" lon="-1.549567049370659"><ele>26.0</ele><time>2026-04-06T16:26:01.063Z</time></trkpt><trkpt lat="47.28753029838883" lon="-1.5495457593366033"><ele>26.0</ele><time>2026-04-06T16:26:03.069Z</time></trkpt><trkpt lat="47.28763259951704" lon="-1.5495381318047172"><ele>26.0</ele><time>2026-04-06T16:26:05.059Z</time></trkpt><trkpt lat="47.28775246073239" lon="-1.5495271515115625"><ele>26.0</ele><time>2026-04-06T16:26:07.059Z</time></trkpt><trkpt lat="47.28782672439449" lon="-1.5495082922294265"><ele>26.0</ele><time>2026-04-06T16:26:08.064Z</time></trkpt><trkpt lat="47.287937742702" lon="-1.5495150815709955"><ele>26.0</ele><time>2026-04-06T16:26:10.055Z</time></trkpt><trkpt lat="47.28804436051034" lon="-1.5494870021953708"><ele>26.0</ele><time>2026-04-06T16:26:12.06Z</time></trkpt><trkpt lat="47.28816313207828" lon="-1.5494776144638187"><ele>26.0</ele><time>2026-04-06T16:26:14.065Z</time></trkpt><trkpt lat="47.28827067189597" lon="-1.5494140796377782"><ele>25.999999999999996</ele><time>2026-04-06T16:26:16.052Z</time></trkpt><trkpt lat="47.28834392972969" lon="-1.549393795432103"><ele>26.0</ele><time>2026-04-06T16:26:17.063Z</time></trkpt><trkpt lat="47.288410817317" lon="-1.5493804682060603"><ele>26.0</ele><time>2026-04-06T16:26:18.066Z</time></trkpt><trkpt lat="47.28852942124688" lon="-1.549391448499215"><ele>26.0</ele><time>2026-04-06T16:26:20.064Z</time></trkpt><trkpt lat="47.28861055806958" lon="-1.549402680249465"><ele>25.999999999999996</ele><time>2026-04-06T16:26:21.064Z</time></trkpt><trkpt lat="47.288710260807804" lon="-1.5493725053980474"><ele>26.0</ele><time>2026-04-06T16:26:23.067Z</time></trkpt><trkpt lat="47.28879303210162" lon="-1.549364961685193"><ele>25.999999999999996</ele><time>2026-04-06T16:26:25.056Z</time></trkpt><trkpt lat="47.28889667433434" lon="-1.5493410732611541"><ele>26.0</ele><time>2026-04-06T16:26:27.06Z</time></trkpt><trkpt lat="47.288967333778075" lon="-1.5493265725686673"><ele>26.0</ele><time>2026-04-06T16:26:28.065Z</time></trkpt><trkpt lat="47.2890281863951" lon="-1.549289273099554"><ele>26.0</ele><time>2026-04-06T16:26:29.06Z</time></trkpt><trkpt lat="47.289100689857534" lon="-1.54926513321842"><ele>25.999999999999996</ele><time>2026-04-06T16:26:30.055Z</time></trkpt><trkpt lat="47.28921304926955" lon="-1.549232108519924"><ele>26.0</ele><time>2026-04-06T16:26:32.059Z</time></trkpt><trkpt lat="47.289320840544335" lon="-1.5492323599770192"><ele>25.8</ele><time>2026-04-06T16:26:34.063Z</time></trkpt><trkpt lat="47.289436678446165" lon="-1.5492471121266012"><ele>25.6</ele><time>2026-04-06T16:26:36.06Z</time></trkpt><trkpt lat="47.289569824978045" lon="-1.5492734313025598"><ele>25.4</ele><time>2026-04-06T16:26:38.062Z</time></trkpt><trkpt lat="47.28965951134198" lon="-1.5493037737920408"><ele>25.2</ele><time>2026-04-06T16:26:39.075Z</time></trkpt><trkpt lat="47.28974873670124" lon="-1.5493093896671657"><ele>25.0</ele><time>2026-04-06T16:26:40.064Z</time></trkpt><trkpt lat="47.28986034174197" lon="-1.5493418276324395"><ele>25.0</ele><time>2026-04-06T16:26:42.06Z</time></trkpt><trkpt lat="47.28993481495165" lon="-1.5493133291616563"><ele>25.0</ele><time>2026-04-06T16:26:43.064Z</time></trkpt><trkpt lat="47.290073577358655" lon="-1.5492781251683359"><ele>25.0</ele><time>2026-04-06T16:26:45.063Z</time></trkpt><trkpt lat="47.29014121931725" lon="-1.5492787957205896"><ele>25.0</ele><time>2026-04-06T16:26:46.053Z</time></trkpt><trkpt lat="47.29026807942175" lon="-1.549277203158987"><ele>25.0</ele><time>2026-04-06T16:26:48.062Z</time></trkpt><trkpt lat="47.29036195673727" lon="-1.5492759458735113"><ele>25.0</ele><time>2026-04-06T16:26:50.061Z</time></trkpt><trkpt lat="47.29042834141039" lon="-1.5491839125766875"><ele>25.0</ele><time>2026-04-06T16:26:52.066Z</time></trkpt><trkpt lat="47.29052728977733" lon="-1.5491295140251042"><ele>25.0</ele><time>2026-04-06T16:26:54.064Z</time></trkpt><trkpt lat="47.29062066417866" lon="-1.5491377282902123"><ele>25.0</ele><time>2026-04-06T16:26:56.064Z</time></trkpt><trkpt lat="47.29070670441472" lon="-1.54913957230891"><ele>25.0</ele><time>2026-04-06T16:26:58.055Z</time></trkpt><trkpt lat="47.29079274465077" lon="-1.5491660591229321"><ele>25.500000000000004</ele><time>2026-04-06T16:27:00.065Z</time></trkpt><trkpt lat="47.290893201760284" lon="-1.5491390693947198"><ele>26.0</ele><time>2026-04-06T16:27:02.063Z</time></trkpt><trkpt lat="47.290960173166624" lon="-1.549138147385371"><ele>26.5</ele><time>2026-04-06T16:27:03.067Z</time></trkpt><trkpt lat="47.29103900496595" lon="-1.5491480380311133"><ele>27.0</ele><time>2026-04-06T16:27:04.055Z</time></trkpt><trkpt lat="47.29114386257463" lon="-1.549122808502567"><ele>27.500000000000004</ele><time>2026-04-06T16:27:06.064Z</time></trkpt><trkpt lat="47.29123300411486" lon="-1.549130184577358"><ele>28.0</ele><time>2026-04-06T16:27:08.06Z</time></trkpt><trkpt lat="47.29133559860968" lon="-1.5491347108050706"><ele>28.000000000000004</ele><time>2026-04-06T16:27:10.05Z</time></trkpt><trkpt lat="47.29140424639665" lon="-1.5491352137192609"><ele>28.0</ele><time>2026-04-06T16:27:11.051Z</time></trkpt><trkpt lat="47.29146748785608" lon="-1.549141081051481"><ele>28.0</ele><time>2026-04-06T16:27:12.057Z</time></trkpt><trkpt lat="47.29155570738696" lon="-1.5491190366461398"><ele>28.0</ele><time>2026-04-06T16:27:14.06Z</time></trkpt><trkpt lat="47.2916287556731" lon="-1.5491255745306136"><ele>28.000000000000004</ele><time>2026-04-06T16:27:15.05Z</time></trkpt><trkpt lat="47.29174220473253" lon="-1.5490989200785281"><ele>28.0</ele><time>2026-04-06T16:27:17.067Z</time></trkpt><trkpt lat="47.29187111840331" lon="-1.5490899514421346"><ele>27.799999999999997</ele><time>2026-04-06T16:27:19.067Z</time></trkpt><trkpt lat="47.29198620193385" lon="-1.5490451920791986"><ele>27.599999999999998</ele><time>2026-04-06T16:27:21.053Z</time></trkpt><trkpt lat="47.29208477311515" lon="-1.5490316972150924"><ele>27.400000000000002</ele><time>2026-04-06T16:27:23.058Z</time></trkpt><trkpt lat="47.292187912433675" lon="-1.549038570375693"><ele>27.200000000000003</ele><time>2026-04-06T16:27:25.051Z</time></trkpt><trkpt lat="47.29231028821998" lon="-1.5490814019008996"><ele>27.0</ele><time>2026-04-06T16:27:27.077Z</time></trkpt><trkpt lat="47.29241061960094" lon="-1.5491528995349528"><ele>27.400000000000002</ele><time>2026-04-06T16:27:29.054Z</time></trkpt><trkpt lat="47.29252528403633" lon="-1.5491944737746839"><ele>27.800000000000004</ele><time>2026-04-06T16:27:31.055Z</time></trkpt><trkpt lat="47.29261413220995" lon="-1.5491666458561542"><ele>28.2</ele><time>2026-04-06T16:27:33.063Z</time></trkpt><trkpt lat="47.29271400258624" lon="-1.5491552464678409"><ele>28.6</ele><time>2026-04-06T16:27:35.052Z</time></trkpt><trkpt lat="47.29279036172414" lon="-1.5491274185493114"><ele>29.0</ele><time>2026-04-06T16:27:37.061Z</time></trkpt><trkpt lat="47.29287317492747" lon="-1.5491187851890447"><ele>28.999999999999996</ele><time>2026-04-06T16:27:39.05Z</time></trkpt><trkpt lat="47.292954688935815" lon="-1.5491176955416324"><ele>29.0</ele><time>2026-04-06T16:27:41.052Z</time></trkpt><trkpt lat="47.29303909470075" lon="-1.5491456910982253"><ele>29.0</ele><time>2026-04-06T16:27:43.06Z</time></trkpt><trkpt lat="47.29310652711177" lon="-1.5491641312852027"><ele>29.0</ele><time>2026-04-06T16:27:45.057Z</time></trkpt><trkpt lat="47.293182928159176" lon="-1.5491724293693425"><ele>28.999999999999996</ele><time>2026-04-06T16:27:47.07Z</time></trkpt><trkpt lat="47.293267124376534" lon="-1.5491618681713464"><ele>29.0</ele><time>2026-04-06T16:27:49.06Z</time></trkpt><trkpt lat="47.293346836275695" lon="-1.5491420868798615"><ele>29.4</ele><time>2026-04-06T16:27:51.065Z</time></trkpt><trkpt lat="47.29343157731676" lon="-1.5491125825806977"><ele>29.799999999999997</ele><time>2026-04-06T16:27:53.052Z</time></trkpt><trkpt lat="47.29350898419255" lon="-1.5490526519730212"><ele>30.200000000000003</ele><time>2026-04-06T16:27:55.057Z</time></trkpt><trkpt lat="47.29358123619789" lon="-1.5489692520364644"><ele>30.6</ele><time>2026-04-06T16:27:57.069Z</time></trkpt><trkpt lat="47.29370122314179" lon="-1.5489218104645133"><ele>31.0</ele><time>2026-04-06T16:27:59.053Z</time></trkpt><trkpt lat="47.293787850111066" lon="-1.5489038731917262"><ele>31.0</ele><time>2026-04-06T16:28:01.054Z</time></trkpt><trkpt lat="47.293880218684016" lon="-1.5489112492665171"><ele>31.0</ele><time>2026-04-06T16:28:03.064Z</time></trkpt><trkpt lat="47.29398176544094" lon="-1.548907728867185"><ele>31.0</ele><time>2026-04-06T16:28:05.054Z</time></trkpt><trkpt lat="47.294088969982504" lon="-1.5489026159062504"><ele>31.0</ele><time>2026-04-06T16:28:07.054Z</time></trkpt><trkpt lat="47.294202880046605" lon="-1.5489072259529948"><ele>31.0</ele><time>2026-04-06T16:28:09.061Z</time></trkpt><trkpt lat="47.29432194498116" lon="-1.5488955751075864"><ele>31.166666666666668</ele><time>2026-04-06T16:28:11.056Z</time></trkpt><trkpt lat="47.2944327956506" lon="-1.5488793142154336"><ele>31.333333333333336</ele><time>2026-04-06T16:28:13.057Z</time></trkpt><trkpt lat="47.29449695911938" lon="-1.5488801524057507"><ele>31.5</ele><time>2026-04-06T16:28:14.063Z</time></trkpt><trkpt lat="47.29461782616311" lon="-1.5488736983403086"><ele>31.666666666666664</ele><time>2026-04-06T16:28:16.057Z</time></trkpt><trkpt lat="47.29468613867396" lon="-1.548872441054833"><ele>31.833333333333332</ele><time>2026-04-06T16:28:17.063Z</time></trkpt><trkpt lat="47.29476312645459" lon="-1.5489019453539967"><ele>32.0</ele><time>2026-04-06T16:28:18.063Z</time></trkpt><trkpt lat="47.29483336680317" lon="-1.5489155240371346"><ele>32.0</ele><time>2026-04-06T16:28:19.064Z</time></trkpt><trkpt lat="47.29490373288029" lon="-1.5489240735783696"><ele>31.999999999999996</ele><time>2026-04-06T16:28:20.065Z</time></trkpt><trkpt lat="47.294980804479955" lon="-1.5489150211229443"><ele>32.0</ele><time>2026-04-06T16:28:21.059Z</time></trkpt><trkpt lat="47.29505695407027" lon="-1.5489084832384705"><ele>32.0</ele><time>2026-04-06T16:28:22.064Z</time></trkpt><trkpt lat="47.2951201955297" lon="-1.5489237383022427"><ele>31.999999999999996</ele><time>2026-04-06T16:28:23.055Z</time></trkpt><trkpt lat="47.29521072008395" lon="-1.5489219781025767"><ele>32.0</ele><time>2026-04-06T16:28:24.055Z</time></trkpt><trkpt lat="47.2952806251564" lon="-1.5489138476565003"><ele>32.0</ele><time>2026-04-06T16:28:25.063Z</time></trkpt><trkpt lat="47.29535551746124" lon="-1.548905381934297"><ele>31.999999999999996</ele><time>2026-04-06T16:28:26.067Z</time></trkpt><trkpt lat="47.295438624031185" lon="-1.5489032864585042"><ele>32.0</ele><time>2026-04-06T16:28:27.061Z</time></trkpt><trkpt lat="47.29550098539078" lon="-1.548888618127954"><ele>32.0</ele><time>2026-04-06T16:28:28.063Z</time></trkpt><trkpt lat="47.29557747025722" lon="-1.5488848462715268"><ele>32.0</ele><time>2026-04-06T16:28:29.057Z</time></trkpt><trkpt lat="47.29566703089261" lon="-1.5488723572358012"><ele>31.999999999999996</ele><time>2026-04-06T16:28:30.066Z</time></trkpt><trkpt lat="47.29574573696339" lon="-1.5488693397506594"><ele>32.0</ele><time>2026-04-06T16:28:31.06Z</time></trkpt><trkpt lat="47.29583538141781" lon="-1.5488534141346335"><ele>31.833333333333332</ele><time>2026-04-06T16:28:32.063Z</time></trkpt><trkpt lat="47.29592075110161" lon="-1.5488592814668536"><ele>31.666666666666664</ele><time>2026-04-06T16:28:33.06Z</time></trkpt><trkpt lat="47.295991829640506" lon="-1.5488514024778723"><ele>31.5</ele><time>2026-04-06T16:28:34.064Z</time></trkpt><trkpt lat="47.29606399782681" lon="-1.5488324593767047"><ele>31.333333333333336</ele><time>2026-04-06T16:28:35.059Z</time></trkpt><trkpt lat="47.29613042440945" lon="-1.5487780608251214"><ele>31.166666666666668</ele><time>2026-04-06T16:28:36.063Z</time></trkpt><trkpt lat="47.296198946467875" lon="-1.5487349778428197"><ele>31.0</ele><time>2026-04-06T16:28:37.056Z</time></trkpt><trkpt lat="47.29630317543381" lon="-1.5486980974688647"><ele>30.0</ele><time>2026-04-06T16:28:39.06Z</time></trkpt><trkpt lat="47.296434771313606" lon="-1.5486709401025889"><ele>29.0</ele><time>2026-04-06T16:28:41.068Z</time></trkpt><trkpt lat="47.29654625062579" lon="-1.548664737494242"><ele>28.0</ele><time>2026-04-06T16:28:43.054Z</time></trkpt><trkpt lat="47.29660995308989" lon="-1.5486639831229565"><ele>27.0</ele><time>2026-04-06T16:28:44.067Z</time></trkpt><trkpt lat="47.296671434349655" lon="-1.54864118434633"><ele>26.0</ele><time>2026-04-06T16:28:45.068Z</time></trkpt><trkpt lat="47.296753996095894" lon="-1.5486107580378172"><ele>26.0</ele><time>2026-04-06T16:28:46.056Z</time></trkpt><trkpt lat="47.29682767302477" lon="-1.5485976822688696"><ele>26.0</ele><time>2026-04-06T16:28:47.067Z</time></trkpt><trkpt lat="47.29694962971592" lon="-1.5485613048091051"><ele>26.0</ele><time>2026-04-06T16:28:49.064Z</time></trkpt><trkpt lat="47.29701919951224" lon="-1.5485407691463349"><ele>26.0</ele><time>2026-04-06T16:28:50.067Z</time></trkpt><trkpt lat="47.297134618318914" lon="-1.5485456306501744"><ele>26.0</ele><time>2026-04-06T16:28:52.068Z</time></trkpt><trkpt lat="47.29722925000572" lon="-1.548556946219456"><ele>25.999999999999996</ele><time>2026-04-06T16:28:54.067Z</time></trkpt><trkpt lat="47.297315415970324" lon="-1.548525094987404"><ele>26.0</ele><time>2026-04-06T16:28:56.065Z</time></trkpt><trkpt lat="47.29743410371923" lon="-1.5484970994308112"><ele>26.0</ele><time>2026-04-06T16:28:58.066Z</time></trkpt><trkpt lat="47.29749604598367" lon="-1.5484752226635334"><ele>26.0</ele><time>2026-04-06T16:28:59.056Z</time></trkpt><trkpt lat="47.29756771125579" lon="-1.5484534297152872"><ele>25.999999999999996</ele><time>2026-04-06T16:29:00.062Z</time></trkpt><trkpt lat="47.29764419612223" lon="-1.5484395995750542"><ele>26.0</ele><time>2026-04-06T16:29:01.058Z</time></trkpt><trkpt lat="47.29776669763708" lon="-1.5483888890608664"><ele>26.0</ele><time>2026-04-06T16:29:03.053Z</time></trkpt><trkpt lat="47.29788186498666" lon="-1.5483528468772287"><ele>26.0</ele><time>2026-04-06T16:29:05.058Z</time></trkpt><trkpt lat="47.29799896017396" lon="-1.5484126098468418"><ele>26.0</ele><time>2026-04-06T16:29:07.051Z</time></trkpt><trkpt lat="47.29807267901236" lon="-1.5484178066268082"><ele>26.0</ele><time>2026-04-06T16:29:08.059Z</time></trkpt><trkpt lat="47.29813529182905" lon="-1.5484315529480095"><ele>26.0</ele><time>2026-04-06T16:29:09.063Z</time></trkpt><trkpt lat="47.298259050629376" lon="-1.548398444430482"><ele>25.6</ele><time>2026-04-06T16:29:11.059Z</time></trkpt><trkpt lat="47.2983949631893" lon="-1.5483888052418346"><ele>25.200000000000003</ele><time>2026-04-06T16:29:13.058Z</time></trkpt><trkpt lat="47.29845870756292" lon="-1.5483667608364935"><ele>24.799999999999997</ele><time>2026-04-06T16:29:14.056Z</time></trkpt><trkpt lat="47.2985556442731" lon="-1.5483354963376637"><ele>24.4</ele><time>2026-04-06T16:29:16.068Z</time></trkpt><trkpt lat="47.29862563316458" lon="-1.5483072493239756"><ele>24.0</ele><time>2026-04-06T16:29:17.06Z</time></trkpt><trkpt lat="47.29870379441166" lon="-1.5482798405006046"><ele>24.0</ele><time>2026-04-06T16:29:18.065Z</time></trkpt><trkpt lat="47.298776884607314" lon="-1.5482618194087858"><ele>24.0</ele><time>2026-04-06T16:29:19.055Z</time></trkpt><trkpt lat="47.29884683158928" lon="-1.5482442174121256"><ele>24.0</ele><time>2026-04-06T16:29:20.052Z</time></trkpt><trkpt lat="47.29890936058694" lon="-1.5482152998461836"><ele>24.0</ele><time>2026-04-06T16:29:21.056Z</time></trkpt><trkpt lat="47.29897302114153" lon="-1.5481985360398405"><ele>24.0</ele><time>2026-04-06T16:29:22.064Z</time></trkpt><trkpt lat="47.299034879586934" lon="-1.548167439179074"><ele>24.0</ele><time>2026-04-06T16:29:23.051Z</time></trkpt><trkpt lat="47.29914162312382" lon="-1.5481337439283245"><ele>24.4</ele><time>2026-04-06T16:29:25.06Z</time></trkpt><trkpt lat="47.29926249016756" lon="-1.548114717008125"><ele>24.799999999999997</ele><time>2026-04-06T16:29:27.056Z</time></trkpt><trkpt lat="47.29936768305236" lon="-1.5480581391617172"><ele>25.200000000000003</ele><time>2026-04-06T16:29:29.062Z</time></trkpt><trkpt lat="47.29943939023399" lon="-1.5480432193740719"><ele>25.6</ele><time>2026-04-06T16:29:30.063Z</time></trkpt><trkpt lat="47.29956692089075" lon="-1.5479781758054605"><ele>26.0</ele><time>2026-04-06T16:29:32.062Z</time></trkpt><trkpt lat="47.29966243267739" lon="-1.5479278843864313"><ele>26.0</ele><time>2026-04-06T16:29:34.057Z</time></trkpt><trkpt lat="47.29973242156887" lon="-1.5479181613787523"><ele>26.0</ele><time>2026-04-06T16:29:35.056Z</time></trkpt><trkpt lat="47.299800147346495" lon="-1.5478950273259988"><ele>26.0</ele><time>2026-04-06T16:29:36.065Z</time></trkpt><trkpt lat="47.299876338846325" lon="-1.547879101709973"><ele>26.0</ele><time>2026-04-06T16:29:37.056Z</time></trkpt><trkpt lat="47.29994833939457" lon="-1.5478626731797567"><ele>26.0</ele><time>2026-04-06T16:29:38.063Z</time></trkpt><trkpt lat="47.30001376014882" lon="-1.547849932686936"><ele>26.0</ele><time>2026-04-06T16:29:39.062Z</time></trkpt><trkpt lat="47.300081821202575" lon="-1.547820176930677"><ele>26.0</ele><time>2026-04-06T16:29:40.06Z</time></trkpt><trkpt lat="47.300157090693055" lon="-1.5477901697173229"><ele>26.0</ele><time>2026-04-06T16:29:41.055Z</time></trkpt><trkpt lat="47.300242586105405" lon="-1.5477629285320154"><ele>26.0</ele><time>2026-04-06T16:29:42.062Z</time></trkpt><trkpt lat="47.30030767158353" lon="-1.5477306582048047"><ele>26.0</ele><time>2026-04-06T16:29:43.058Z</time></trkpt><trkpt lat="47.30041462466801" lon="-1.5476994775250066"><ele>26.0</ele><time>2026-04-06T16:29:45.051Z</time></trkpt><trkpt lat="47.300484152554816" lon="-1.5476777683957923"><ele>26.0</ele><time>2026-04-06T16:29:46.06Z</time></trkpt><trkpt lat="47.30060774371708" lon="-1.5476440731450427"><ele>25.666666666666664</ele><time>2026-04-06T16:29:48.07Z</time></trkpt><trkpt lat="47.30067035653377" lon="-1.5476240403964627"><ele>25.333333333333332</ele><time>2026-04-06T16:29:49.063Z</time></trkpt><trkpt lat="47.30075543285096" lon="-1.5475916024311889"><ele>25.0</ele><time>2026-04-06T16:29:50.068Z</time></trkpt><trkpt lat="47.30082760103727" lon="-1.547559164465915"><ele>24.666666666666664</ele><time>2026-04-06T16:29:51.064Z</time></trkpt><trkpt lat="47.300898972942775" lon="-1.5475331805660832"><ele>24.333333333333332</ele><time>2026-04-06T16:29:52.058Z</time></trkpt><trkpt lat="47.30101049416447" lon="-1.5474747587009774"><ele>24.0</ele><time>2026-04-06T16:29:54.064Z</time></trkpt><trkpt lat="47.301107598512715" lon="-1.5474222041680918"><ele>24.0</ele><time>2026-04-06T16:29:56.059Z</time></trkpt><trkpt lat="47.30119950608099" lon="-1.5473814681186782"><ele>24.0</ele><time>2026-04-06T16:29:58.061Z</time></trkpt><trkpt lat="47.3012587242269" lon="-1.5473416540786133"><ele>24.0</ele><time>2026-04-06T16:29:59.058Z</time></trkpt><trkpt lat="47.30132649191404" lon="-1.5473007503911362"><ele>24.0</ele><time>2026-04-06T16:30:00.069Z</time></trkpt><trkpt lat="47.301386422521716" lon="-1.5472668036832913"><ele>24.0</ele><time>2026-04-06T16:30:01.056Z</time></trkpt><trkpt lat="47.30148541279817" lon="-1.5472249779864653"><ele>24.0</ele><time>2026-04-06T16:30:03.077Z</time></trkpt><trkpt lat="47.30159978386695" lon="-1.5471685677781208"><ele>23.833333333333332</ele><time>2026-04-06T16:30:05.058Z</time></trkpt><trkpt lat="47.301669311753756" lon="-1.5471151750549181"><ele>23.666666666666668</ele><time>2026-04-06T16:30:07.053Z</time></trkpt><trkpt lat="47.30176390153105" lon="-1.5470449347063406"><ele>23.5</ele><time>2026-04-06T16:30:09.061Z</time></trkpt><trkpt lat="47.301827855452245" lon="-1.547020878644238"><ele>23.333333333333336</ele><time>2026-04-06T16:30:10.055Z</time></trkpt><trkpt lat="47.301893611482626" lon="-1.5469816513373953"><ele>23.166666666666668</ele><time>2026-04-06T16:30:11.063Z</time></trkpt><trkpt lat="47.301960792436546" lon="-1.5469235647484165"><ele>23.0</ele><time>2026-04-06T16:30:12.053Z</time></trkpt><trkpt lat="47.30205270000482" lon="-1.5468672383591038"><ele>22.833333333333336</ele><time>2026-04-06T16:30:13.054Z</time></trkpt><trkpt lat="47.302142721644884" lon="-1.546825664119373"><ele>22.666666666666668</ele><time>2026-04-06T16:30:14.063Z</time></trkpt><trkpt lat="47.302202191247886" lon="-1.5467888675644497"><ele>22.5</ele><time>2026-04-06T16:30:15.059Z</time></trkpt><trkpt lat="47.302292338616496" lon="-1.5467638894929985"><ele>22.333333333333332</ele><time>2026-04-06T16:30:16.069Z</time></trkpt><trkpt lat="47.30236597363586" lon="-1.5467159450068573"><ele>22.166666666666664</ele><time>2026-04-06T16:30:17.066Z</time></trkpt><trkpt lat="47.30244162031198" lon="-1.5466707665487627"><ele>22.0</ele><time>2026-04-06T16:30:18.06Z</time></trkpt><trkpt lat="47.302521499849206" lon="-1.5466428548112015"><ele>21.833333333333332</ele><time>2026-04-06T16:30:19.073Z</time></trkpt><trkpt lat="47.302588890350705" lon="-1.546601196752439"><ele>21.666666666666664</ele><time>2026-04-06T16:30:20.067Z</time></trkpt><trkpt lat="47.30274181817407" lon="-1.54656850733007"><ele>21.5</ele><time>2026-04-06T16:30:22.054Z</time></trkpt><trkpt lat="47.3028153693744" lon="-1.5465476363911725"><ele>21.333333333333332</ele><time>2026-04-06T16:30:23.064Z</time></trkpt><trkpt lat="47.3028835561567" lon="-1.5465429425253965"><ele>21.166666666666668</ele><time>2026-04-06T16:30:24.069Z</time></trkpt><trkpt lat="47.302952120124644" lon="-1.5465647354736425"><ele>21.0</ele><time>2026-04-06T16:30:25.066Z</time></trkpt><trkpt lat="47.30302265383983" lon="-1.546624414624224"><ele>21.200000000000003</ele><time>2026-04-06T16:30:26.056Z</time></trkpt><trkpt lat="47.303115106231814" lon="-1.5466676652445892"><ele>21.400000000000002</ele><time>2026-04-06T16:30:28.069Z</time></trkpt><trkpt lat="47.30318974707956" lon="-1.5466820821180443"><ele>21.6</ele><time>2026-04-06T16:30:30.055Z</time></trkpt><trkpt lat="47.30319892526353" lon="-1.5468134265407425"><ele>21.8</ele><time>2026-04-06T16:30:32.054Z</time></trkpt><trkpt lat="47.30313295968557" lon="-1.54693546705092"><ele>22.0</ele><time>2026-04-06T16:30:34.069Z</time></trkpt><trkpt lat="47.3030632641607" lon="-1.5470772888525828"><ele>22.0</ele><time>2026-04-06T16:30:36.06Z</time></trkpt><trkpt lat="47.3030278506198" lon="-1.5471556596472367"><ele>22.0</ele><time>2026-04-06T16:30:37.065Z</time></trkpt><trkpt lat="47.30298677929426" lon="-1.5472323540612563"><ele>22.0</ele><time>2026-04-06T16:30:38.068Z</time></trkpt><trkpt lat="47.30293740988458" lon="-1.547307875008832"><ele>22.0</ele><time>2026-04-06T16:30:39.058Z</time></trkpt><trkpt lat="47.30290036187256" lon="-1.5473872516318665"><ele>22.0</ele><time>2026-04-06T16:30:40.063Z</time></trkpt><trkpt lat="47.302842065736" lon="-1.5474554803236829"><ele>22.0</ele><time>2026-04-06T16:30:41.065Z</time></trkpt><trkpt lat="47.302785487889594" lon="-1.5475056879236804"><ele>22.0</ele><time>2026-04-06T16:30:42.069Z</time></trkpt><trkpt lat="47.30269186203117" lon="-1.5476140659316886"><ele>22.0</ele><time>2026-04-06T16:30:44.056Z</time></trkpt><trkpt lat="47.30263578709895" lon="-1.5476600825801003"><ele>22.0</ele><time>2026-04-06T16:30:45.065Z</time></trkpt><trkpt lat="47.30258356784219" lon="-1.5477119665607322"><ele>22.0</ele><time>2026-04-06T16:30:46.07Z</time></trkpt><trkpt lat="47.3025029758432" lon="-1.5478237811490407"><ele>22.0</ele><time>2026-04-06T16:30:48.055Z</time></trkpt><trkpt lat="47.30240499139512" lon="-1.5479115396752468"><ele>22.0</ele><time>2026-04-06T16:30:50.067Z</time></trkpt><trkpt lat="47.30232599195773" lon="-1.5480235219016187"><ele>22.0</ele><time>2026-04-06T16:30:52.068Z</time></trkpt><trkpt lat="47.30224984236742" lon="-1.5480948518976085"><ele>22.0</ele><time>2026-04-06T16:30:54.07Z</time></trkpt><trkpt lat="47.302160533189124" lon="-1.5481624938562029"><ele>22.0</ele><time>2026-04-06T16:30:56.063Z</time></trkpt><trkpt lat="47.30206963144923" lon="-1.548255281524312"><ele>22.0</ele><time>2026-04-06T16:30:58.07Z</time></trkpt><trkpt lat="47.30197529312903" lon="-1.5483458898975964"><ele>22.0</ele><time>2026-04-06T16:31:00.064Z</time></trkpt><trkpt lat="47.301897048062926" lon="-1.5484353248044367"><ele>22.6</ele><time>2026-04-06T16:31:02.072Z</time></trkpt><trkpt lat="47.30180593677545" lon="-1.548510678113949"><ele>23.200000000000003</ele><time>2026-04-06T16:31:04.062Z</time></trkpt><trkpt lat="47.30170040861452" lon="-1.5485614724471686"><ele>23.8</ele><time>2026-04-06T16:31:06.072Z</time></trkpt><trkpt lat="47.301598610400504" lon="-1.548643196003091"><ele>24.4</ele><time>2026-04-06T16:31:08.055Z</time></trkpt><trkpt lat="47.30149199259216" lon="-1.5486923139556763"><ele>25.0</ele><time>2026-04-06T16:31:10.066Z</time></trkpt><trkpt lat="47.301399079195505" lon="-1.5487417671843886"><ele>25.4</ele><time>2026-04-06T16:31:12.057Z</time></trkpt><trkpt lat="47.30129216802055" lon="-1.548825586216104"><ele>25.8</ele><time>2026-04-06T16:31:14.062Z</time></trkpt><trkpt lat="47.30120566677982" lon="-1.548869758845818"><ele>26.200000000000003</ele><time>2026-04-06T16:31:16.057Z</time></trkpt><trkpt lat="47.301098294600195" lon="-1.5489361435189366"><ele>26.6</ele><time>2026-04-06T16:31:18.061Z</time></trkpt><trkpt lat="47.30106455743993" lon="-1.5490346308812024"><ele>27.0</ele><time>2026-04-06T16:31:19.066Z</time></trkpt><trkpt lat="47.30106564708734" lon="-1.5491767879589917"><ele>27.0</ele><time>2026-04-06T16:31:21.066Z</time></trkpt><trkpt lat="47.300984468355125" lon="-1.5492580924197559"><ele>27.000000000000004</ele><time>2026-04-06T16:31:23.064Z</time></trkpt><trkpt lat="47.300918921872324" lon="-1.5492286719396238"><ele>27.000000000000004</ele><time>2026-04-06T16:31:25.061Z</time></trkpt><trkpt lat="47.30079361241991" lon="-1.5492173563703422"><ele>27.0</ele><time>2026-04-06T16:31:27.058Z</time></trkpt><trkpt lat="47.30069189802492" lon="-1.5492590982481365"><ele>27.0</ele><time>2026-04-06T16:31:29.068Z</time></trkpt><trkpt lat="47.30060292412276" lon="-1.5493144188090686"><ele>27.400000000000002</ele><time>2026-04-06T16:31:31.066Z</time></trkpt><trkpt lat="47.30051910509104" lon="-1.5493829827770118"><ele>27.800000000000004</ele><time>2026-04-06T16:31:33.063Z</time></trkpt><trkpt lat="47.3004341545024" lon="-1.5494325198247558"><ele>28.2</ele><time>2026-04-06T16:31:35.06Z</time></trkpt><trkpt lat="47.30033843316817" lon="-1.5494967252030498"><ele>28.6</ele><time>2026-04-06T16:31:37.055Z</time></trkpt><trkpt lat="47.30025021363729" lon="-1.5495495311930305"><ele>29.0</ele><time>2026-04-06T16:31:39.063Z</time></trkpt><trkpt lat="47.30015256446534" lon="-1.5495933685466177"><ele>29.0</ele><time>2026-04-06T16:31:41.061Z</time></trkpt><trkpt lat="47.300060782625614" lon="-1.5496458392604715"><ele>29.0</ele><time>2026-04-06T16:31:43.061Z</time></trkpt><trkpt lat="47.29997847233647" lon="-1.549706691877497"><ele>29.0</ele><time>2026-04-06T16:31:45.052Z</time></trkpt><trkpt lat="47.299895952499746" lon="-1.5497719869032034"><ele>29.0</ele><time>2026-04-06T16:31:47.06Z</time></trkpt><trkpt lat="47.29980769105935" lon="-1.5498546324684748"><ele>29.0</ele><time>2026-04-06T16:31:49.061Z</time></trkpt><trkpt lat="47.299738121263026" lon="-1.549971224741591"><ele>29.2</ele><time>2026-04-06T16:31:51.05Z</time></trkpt><trkpt lat="47.299660127654015" lon="-1.5500446502133738"><ele>29.4</ele><time>2026-04-06T16:31:53.058Z</time></trkpt><trkpt lat="47.29955443185502" lon="-1.5500872302814852"><ele>29.6</ele><time>2026-04-06T16:31:55.054Z</time></trkpt><trkpt lat="47.299449364698766" lon="-1.5501007251455914"><ele>29.8</ele><time>2026-04-06T16:31:57.059Z</time></trkpt><trkpt lat="47.299338388300775" lon="-1.5501292236163746"><ele>30.0</ele><time>2026-04-06T16:31:59.054Z</time></trkpt><trkpt lat="47.29923369833016" lon="-1.5501843765392436"><ele>30.0</ele><time>2026-04-06T16:32:01.053Z</time></trkpt><trkpt lat="47.299173893451034" lon="-1.5502208378180398"><ele>30.0</ele><time>2026-04-06T16:32:02.05Z</time></trkpt><trkpt lat="47.299126829064726" lon="-1.5502825286253823"><ele>30.0</ele><time>2026-04-06T16:32:03.056Z</time></trkpt><trkpt lat="47.29904024400496" lon="-1.550369784237398"><ele>30.0</ele><time>2026-04-06T16:32:05.057Z</time></trkpt><trkpt lat="47.29893781714821" lon="-1.5504101011916533"><ele>30.0</ele><time>2026-04-06T16:32:07.059Z</time></trkpt><trkpt lat="47.29884762787008" lon="-1.550485286863102"><ele>30.0</ele><time>2026-04-06T16:32:09.062Z</time></trkpt><trkpt lat="47.2987570194968" lon="-1.5505591314300433"><ele>30.0</ele><time>2026-04-06T16:32:11.051Z</time></trkpt><trkpt lat="47.298669135242044" lon="-1.5506436210140127"><ele>30.0</ele><time>2026-04-06T16:32:13.057Z</time></trkpt><trkpt lat="47.29861050382936" lon="-1.5506799984737771"><ele>30.0</ele><time>2026-04-06T16:32:14.056Z</time></trkpt><trkpt lat="47.29850635868245" lon="-1.5507605485632556"><ele>30.0</ele><time>2026-04-06T16:32:16.048Z</time></trkpt><trkpt lat="47.29840766177261" lon="-1.55083112418796"><ele>30.0</ele><time>2026-04-06T16:32:18.052Z</time></trkpt><trkpt lat="47.29831022214824" lon="-1.5509187988951345"><ele>30.0</ele><time>2026-04-06T16:32:20.046Z</time></trkpt><trkpt lat="47.298233653462766" lon="-1.551006138326182"><ele>30.0</ele><time>2026-04-06T16:32:22.054Z</time></trkpt><trkpt lat="47.298142500265776" lon="-1.5510938130333563"><ele>30.0</ele><time>2026-04-06T16:32:24.046Z</time></trkpt><trkpt lat="47.29805373591119" lon="-1.5511495526894472"><ele>30.0</ele><time>2026-04-06T16:32:26.056Z</time></trkpt><trkpt lat="47.29797217999333" lon="-1.5512318629785917"><ele>30.0</ele><time>2026-04-06T16:32:28.046Z</time></trkpt><trkpt lat="47.297884211919545" lon="-1.5512854233398579"><ele>30.6</ele><time>2026-04-06T16:32:30.054Z</time></trkpt><trkpt lat="47.29780068625444" lon="-1.5513354633017922"><ele>31.2</ele><time>2026-04-06T16:32:32.056Z</time></trkpt><trkpt lat="47.29771418501371" lon="-1.551395310090437"><ele>31.799999999999997</ele><time>2026-04-06T16:32:34.055Z</time></trkpt><trkpt lat="47.29762634266847" lon="-1.5515144169345045"><ele>32.4</ele><time>2026-04-06T16:32:36.056Z</time></trkpt><trkpt lat="47.297541433989345" lon="-1.5516173467054513"><ele>33.0</ele><time>2026-04-06T16:32:38.055Z</time></trkpt><trkpt lat="47.29746729605579" lon="-1.5517147444203045"><ele>33.0</ele><time>2026-04-06T16:32:40.051Z</time></trkpt><trkpt lat="47.297377735420405" lon="-1.5517856553211358"><ele>33.0</ele><time>2026-04-06T16:32:42.049Z</time></trkpt><trkpt lat="47.297299532263814" lon="-1.551851620899096"><ele>33.0</ele><time>2026-04-06T16:32:44.051Z</time></trkpt><trkpt lat="47.29722631633961" lon="-1.551923453809276"><ele>33.0</ele><time>2026-04-06T16:32:46.057Z</time></trkpt><trkpt lat="47.29718059305781" lon="-1.552040716634646"><ele>33.0</ele><time>2026-04-06T16:32:48.057Z</time></trkpt><trkpt lat="47.29712447621608" lon="-1.5521629247828872"><ele>33.6</ele><time>2026-04-06T16:32:50.057Z</time></trkpt><trkpt lat="47.29706282731825" lon="-1.5522615797832162"><ele>34.199999999999996</ele><time>2026-04-06T16:32:52.057Z</time></trkpt><trkpt lat="47.29700524364346" lon="-1.5523708798005733"><ele>34.8</ele><time>2026-04-06T16:32:54.054Z</time></trkpt><trkpt lat="47.29692624420607" lon="-1.552447574214593"><ele>35.4</ele><time>2026-04-06T16:32:56.053Z</time></trkpt><trkpt lat="47.29687088173562" lon="-1.5525747276857054"><ele>36.0</ele><time>2026-04-06T16:32:58.056Z</time></trkpt><trkpt lat="47.29681053203279" lon="-1.5526810102179205"><ele>36.0</ele><time>2026-04-06T16:33:00.057Z</time></trkpt><trkpt lat="47.296743770174025" lon="-1.5527818445130743"><ele>36.0</ele><time>2026-04-06T16:33:02.057Z</time></trkpt><trkpt lat="47.296691467098235" lon="-1.5529072377845206"><ele>36.0</ele><time>2026-04-06T16:33:04.056Z</time></trkpt><trkpt lat="47.296625208153664" lon="-1.553038498388187"><ele>36.0</ele><time>2026-04-06T16:33:06.058Z</time></trkpt><trkpt lat="47.29657822758639" lon="-1.5531464573010365"><ele>36.0</ele><time>2026-04-06T16:33:08.057Z</time></trkpt><trkpt lat="47.29650899306619" lon="-1.553273024038927"><ele>36.2</ele><time>2026-04-06T16:33:10.056Z</time></trkpt><trkpt lat="47.29644411713564" lon="-1.5533841680749816"><ele>36.400000000000006</ele><time>2026-04-06T16:33:12.054Z</time></trkpt><trkpt lat="47.29639085014099" lon="-1.5535103995367452"><ele>36.6</ele><time>2026-04-06T16:33:14.056Z</time></trkpt><trkpt lat="47.29634215128356" lon="-1.5536062885090276"><ele>36.800000000000004</ele><time>2026-04-06T16:33:16.055Z</time></trkpt><trkpt lat="47.29626801335001" lon="-1.5537156723454162"><ele>37.0</ele><time>2026-04-06T16:33:18.057Z</time></trkpt><trkpt lat="47.29620728646153" lon="-1.5538362879320549"><ele>37.4</ele><time>2026-04-06T16:33:20.057Z</time></trkpt><trkpt lat="47.29615376800978" lon="-1.553966458888309"><ele>37.800000000000004</ele><time>2026-04-06T16:33:22.056Z</time></trkpt><trkpt lat="47.296094927049516" lon="-1.554080452771442"><ele>38.2</ele><time>2026-04-06T16:33:24.058Z</time></trkpt><trkpt lat="47.2960412409597" lon="-1.5541904233410526"><ele>38.6</ele><time>2026-04-06T16:33:26.056Z</time></trkpt><trkpt lat="47.295978879600106" lon="-1.5542964544161728"><ele>39.0</ele><time>2026-04-06T16:33:28.056Z</time></trkpt><trkpt lat="47.29590373583817" lon="-1.5544235240682533"><ele>38.8</ele><time>2026-04-06T16:33:30.056Z</time></trkpt><trkpt lat="47.29584405668759" lon="-1.5545381046846085"><ele>38.599999999999994</ele><time>2026-04-06T16:33:32.056Z</time></trkpt><trkpt lat="47.295780479952036" lon="-1.5546559542432004"><ele>38.4</ele><time>2026-04-06T16:33:34.06Z</time></trkpt><trkpt lat="47.29570776694202" lon="-1.554713286460894"><ele>38.199999999999996</ele><time>2026-04-06T16:33:36.064Z</time></trkpt><trkpt lat="47.29566426486456" lon="-1.5548560302719052"><ele>38.0</ele><time>2026-04-06T16:33:38.06Z</time></trkpt><trkpt lat="47.29563534729862" lon="-1.554991062731999"><ele>38.4</ele><time>2026-04-06T16:33:40.058Z</time></trkpt><trkpt lat="47.29556607086891" lon="-1.5550884604468522"><ele>38.8</ele><time>2026-04-06T16:33:42.054Z</time></trkpt><trkpt lat="47.29549109474504" lon="-1.5551923960461795"><ele>39.2</ele><time>2026-04-06T16:33:44.056Z</time></trkpt><trkpt lat="47.29543732483619" lon="-1.5553178731366575"><ele>39.6</ele><time>2026-04-06T16:33:46.053Z</time></trkpt><trkpt lat="47.2953784000569" lon="-1.5554281789823952"><ele>40.0</ele><time>2026-04-06T16:33:48.053Z</time></trkpt><trkpt lat="47.29532190602952" lon="-1.5555571764722051"><ele>40.0</ele><time>2026-04-06T16:33:50.052Z</time></trkpt><trkpt lat="47.295278068675934" lon="-1.5556905325516646"><ele>40.0</ele><time>2026-04-06T16:33:52.054Z</time></trkpt><trkpt lat="47.295226771428524" lon="-1.5558020956828778"><ele>40.0</ele><time>2026-04-06T16:33:54.053Z</time></trkpt><trkpt lat="47.29517400734806" lon="-1.5559073723867125"><ele>40.0</ele><time>2026-04-06T16:33:56.055Z</time></trkpt><trkpt lat="47.29509475645357" lon="-1.556016504766006"><ele>40.0</ele><time>2026-04-06T16:33:58.052Z</time></trkpt><trkpt lat="47.29500435762787" lon="-1.5561409760281035"><ele>40.4</ele><time>2026-04-06T16:34:00.055Z</time></trkpt><trkpt lat="47.29493948169732" lon="-1.5562614239766785"><ele>40.8</ele><time>2026-04-06T16:34:02.056Z</time></trkpt><trkpt lat="47.2948886873641" lon="-1.5563917625709962"><ele>41.2</ele><time>2026-04-06T16:34:04.056Z</time></trkpt><trkpt lat="47.29482972067529" lon="-1.5564970392748307"><ele>41.6</ele><time>2026-04-06T16:34:06.055Z</time></trkpt><trkpt lat="47.29476987388664" lon="-1.5566206723466112"><ele>42.0</ele><time>2026-04-06T16:34:08.058Z</time></trkpt><trkpt lat="47.2946952330389" lon="-1.5567469876274063"><ele>42.2</ele><time>2026-04-06T16:34:10.056Z</time></trkpt><trkpt lat="47.29463299740785" lon="-1.5568562038257316"><ele>42.400000000000006</ele><time>2026-04-06T16:34:12.057Z</time></trkpt><trkpt lat="47.294573485895334" lon="-1.556966844947596"><ele>42.599999999999994</ele><time>2026-04-06T16:34:14.056Z</time></trkpt><trkpt lat="47.294513597197174" lon="-1.557100620122214"><ele>42.8</ele><time>2026-04-06T16:34:16.057Z</time></trkpt><trkpt lat="47.294427892237245" lon="-1.5572131890818077"><ele>43.0</ele><time>2026-04-06T16:34:18.057Z</time></trkpt><trkpt lat="47.294344827576815" lon="-1.5573267638697823"><ele>43.333333333333336</ele><time>2026-04-06T16:34:20.057Z</time></trkpt><trkpt lat="47.29430379816079" lon="-1.5574407577529152"><ele>43.66666666666667</ele><time>2026-04-06T16:34:22.055Z</time></trkpt><trkpt lat="47.294243951372145" lon="-1.5575295221075018"><ele>44.0</ele><time>2026-04-06T16:34:24.061Z</time></trkpt><trkpt lat="47.29419634216213" lon="-1.557656759397646"><ele>44.333333333333336</ele><time>2026-04-06T16:34:26.044Z</time></trkpt><trkpt lat="47.29416076098317" lon="-1.5577425062670909"><ele>44.666666666666664</ele><time>2026-04-06T16:34:27.052Z</time></trkpt><trkpt lat="47.29408867661589" lon="-1.557862116025349"><ele>45.0</ele><time>2026-04-06T16:34:29.052Z</time></trkpt><trkpt lat="47.29404416871005" lon="-1.557958675549885"><ele>45.4</ele><time>2026-04-06T16:34:31.054Z</time></trkpt><trkpt lat="47.294002049646615" lon="-1.5580704901381937"><ele>45.8</ele><time>2026-04-06T16:34:33.057Z</time></trkpt><trkpt lat="47.29391253092074" lon="-1.5581792872413602"><ele>46.2</ele><time>2026-04-06T16:34:35.052Z</time></trkpt><trkpt lat="47.293853815689026" lon="-1.5582840610310047"><ele>46.6</ele><time>2026-04-06T16:34:37.057Z</time></trkpt><trkpt lat="47.2938032728129" lon="-1.5583879966303318"><ele>47.0</ele><time>2026-04-06T16:34:39.056Z</time></trkpt><trkpt lat="47.293761866211234" lon="-1.5585044212653847"><ele>47.0</ele><time>2026-04-06T16:34:41.06Z</time></trkpt><trkpt lat="47.293692966967164" lon="-1.5586323291077824"><ele>47.0</ele><time>2026-04-06T16:34:43.053Z</time></trkpt><trkpt lat="47.293611201501726" lon="-1.5587683673962567"><ele>47.0</ele><time>2026-04-06T16:34:45.049Z</time></trkpt><trkpt lat="47.29353203442627" lon="-1.5588877256974194"><ele>47.0</ele><time>2026-04-06T16:34:47.046Z</time></trkpt><trkpt lat="47.29348316793078" lon="-1.5590012166663623"><ele>47.0</ele><time>2026-04-06T16:34:49.057Z</time></trkpt><trkpt lat="47.293444066352485" lon="-1.5590792521848893"><ele>47.0</ele><time>2026-04-06T16:34:51.053Z</time></trkpt><trkpt lat="47.293379819064675" lon="-1.5592268574997403"><ele>47.0</ele><time>2026-04-06T16:34:53.056Z</time></trkpt><trkpt lat="47.29332567197019" lon="-1.5593025460853793"><ele>47.0</ele><time>2026-04-06T16:34:54.053Z</time></trkpt><trkpt lat="47.29328921069139" lon="-1.5593869518503167"><ele>47.0</ele><time>2026-04-06T16:34:55.061Z</time></trkpt><trkpt lat="47.293237787715434" lon="-1.5594555158182601"><ele>47.0</ele><time>2026-04-06T16:34:56.056Z</time></trkpt><trkpt lat="47.2931999015131" lon="-1.5595318749561529"><ele>47.0</ele><time>2026-04-06T16:34:57.051Z</time></trkpt><trkpt lat="47.29315686044031" lon="-1.5596133470549802"><ele>47.166666666666664</ele><time>2026-04-06T16:34:58.061Z</time></trkpt><trkpt lat="47.29311017323965" lon="-1.5596887841835243"><ele>47.33333333333333</ele><time>2026-04-06T16:34:59.058Z</time></trkpt><trkpt lat="47.293064366138815" lon="-1.5597538277521354"><ele>47.5</ele><time>2026-04-06T16:35:00.057Z</time></trkpt><trkpt lat="47.29302756958389" lon="-1.5598471183344347"><ele>47.666666666666664</ele><time>2026-04-06T16:35:01.056Z</time></trkpt><trkpt lat="47.29295238391244" lon="-1.5599912032499537"><ele>47.833333333333336</ele><time>2026-04-06T16:35:03.054Z</time></trkpt><trkpt lat="47.29287610859358" lon="-1.5601279120906815"><ele>48.0</ele><time>2026-04-06T16:35:05.047Z</time></trkpt><trkpt lat="47.292824685617624" lon="-1.5602767746910082"><ele>47.42857142857142</ele><time>2026-04-06T16:35:07.062Z</time></trkpt><trkpt lat="47.29278130926871" lon="-1.5603741724058615"><ele>46.857142857142854</ele><time>2026-04-06T16:35:08.056Z</time></trkpt><trkpt lat="47.292748787484406" lon="-1.5604628529414166"><ele>46.285714285714285</ele><time>2026-04-06T16:35:09.056Z</time></trkpt><trkpt lat="47.29271316439592" lon="-1.5605506114676226"><ele>45.71428571428571</ele><time>2026-04-06T16:35:10.061Z</time></trkpt><trkpt lat="47.2926573409208" lon="-1.560625042767786"><ele>45.14285714285714</ele><time>2026-04-06T16:35:11.059Z</time></trkpt><trkpt lat="47.29260378055953" lon="-1.5607076045140258"><ele>44.57142857142857</ele><time>2026-04-06T16:35:12.051Z</time></trkpt><trkpt lat="47.29255395014518" lon="-1.5607989672585956"><ele>44.0</ele><time>2026-04-06T16:35:13.052Z</time></trkpt><trkpt lat="47.29250508364969" lon="-1.5608894079938167"><ele>44.0</ele><time>2026-04-06T16:35:14.066Z</time></trkpt><trkpt lat="47.29246246167206" lon="-1.5609754901393884"><ele>44.0</ele><time>2026-04-06T16:35:15.048Z</time></trkpt><trkpt lat="47.29242340200328" lon="-1.5610602311804527"><ele>44.0</ele><time>2026-04-06T16:35:16.046Z</time></trkpt><trkpt lat="47.29236158546739" lon="-1.5612347424044843"><ele>44.0</ele><time>2026-04-06T16:35:18.061Z</time></trkpt><trkpt lat="47.29231070731514" lon="-1.5613385941847797"><ele>44.0</ele><time>2026-04-06T16:35:19.051Z</time></trkpt><trkpt lat="47.292257314591936" lon="-1.5614205691977976"><ele>44.0</ele><time>2026-04-06T16:35:20.049Z</time></trkpt><trkpt lat="47.29220295794987" lon="-1.5615183021887777"><ele>43.83333333333333</ele><time>2026-04-06T16:35:21.056Z</time></trkpt><trkpt lat="47.29216649667107" lon="-1.5616002772017956"><ele>43.666666666666664</ele><time>2026-04-06T16:35:22.061Z</time></trkpt><trkpt lat="47.292109709277085" lon="-1.5616797376438618"><ele>43.5</ele><time>2026-04-06T16:35:23.056Z</time></trkpt><trkpt lat="47.292050826407305" lon="-1.56178568489995"><ele>43.333333333333336</ele><time>2026-04-06T16:35:24.051Z</time></trkpt><trkpt lat="47.291997517503134" lon="-1.561891799794102"><ele>43.16666666666667</ele><time>2026-04-06T16:35:25.055Z</time></trkpt><trkpt lat="47.291952883868746" lon="-1.5619876887663844"><ele>43.0</ele><time>2026-04-06T16:35:26.059Z</time></trkpt><trkpt lat="47.29191097435289" lon="-1.56210034154501"><ele>42.199999999999996</ele><time>2026-04-06T16:35:27.056Z</time></trkpt><trkpt lat="47.29186332323336" lon="-1.5622259024545198"><ele>41.4</ele><time>2026-04-06T16:35:28.052Z</time></trkpt><trkpt lat="47.29182363492184" lon="-1.562338387595082"><ele>40.599999999999994</ele><time>2026-04-06T16:35:29.055Z</time></trkpt><trkpt lat="47.29176952973687" lon="-1.5624761022641904"><ele>39.8</ele><time>2026-04-06T16:35:30.063Z</time></trkpt><trkpt lat="47.291765715970925" lon="-1.562617672608758"><ele>39.0</ele><time>2026-04-06T16:35:31.057Z</time></trkpt><trkpt lat="47.291733529462746" lon="-1.5627611707910547"><ele>38.2</ele><time>2026-04-06T16:35:32.055Z</time></trkpt><trkpt lat="47.2917082999342" lon="-1.5629038307830345"><ele>37.4</ele><time>2026-04-06T16:35:33.053Z</time></trkpt><trkpt lat="47.29167301212185" lon="-1.5630514360978855"><ele>36.6</ele><time>2026-04-06T16:35:34.063Z</time></trkpt><trkpt lat="47.29163898159497" lon="-1.563180014492537"><ele>35.8</ele><time>2026-04-06T16:35:35.059Z</time></trkpt><trkpt lat="47.29159208484673" lon="-1.5633089281633155"><ele>35.0</ele><time>2026-04-06T16:35:36.052Z</time></trkpt><trkpt lat="47.29154594246977" lon="-1.5634520910694854"><ele>35.0</ele><time>2026-04-06T16:35:37.052Z</time></trkpt><trkpt lat="47.29148760442369" lon="-1.5635906439289111"><ele>35.0</ele><time>2026-04-06T16:35:38.064Z</time></trkpt><trkpt lat="47.29142176457428" lon="-1.56372349709418"><ele>35.0</ele><time>2026-04-06T16:35:39.049Z</time></trkpt><trkpt lat="47.29138961997562" lon="-1.5638120938107034"><ele>35.0</ele><time>2026-04-06T16:35:40.045Z</time></trkpt><trkpt lat="47.291322983845404" lon="-1.5639550052597782"><ele>35.0</ele><time>2026-04-06T16:35:41.048Z</time></trkpt><trkpt lat="47.29122374211185" lon="-1.564068496228721"><ele>34.8</ele><time>2026-04-06T16:35:42.059Z</time></trkpt><trkpt lat="47.291150987192324" lon="-1.5641736052944921"><ele>34.6</ele><time>2026-04-06T16:35:43.06Z</time></trkpt><trkpt lat="47.29108078875326" lon="-1.5642597712590958"><ele>34.4</ele><time>2026-04-06T16:35:44.05Z</time></trkpt><trkpt lat="47.29101411071353" lon="-1.5643595997258688"><ele>34.2</ele><time>2026-04-06T16:35:45.05Z</time></trkpt><trkpt lat="47.29094491810285" lon="-1.5645113121732739"><ele>34.0</ele><time>2026-04-06T16:35:46.054Z</time></trkpt><trkpt lat="47.290879036343924" lon="-1.564665287734535"><ele>32.5</ele><time>2026-04-06T16:35:47.049Z</time></trkpt><trkpt lat="47.29086311206097" lon="-1.564811284148029"><ele>31.0</ele><time>2026-04-06T16:35:48.047Z</time></trkpt><trkpt lat="47.290925975001684" lon="-1.5649825427695783"><ele>29.5</ele><time>2026-04-06T16:35:49.046Z</time></trkpt><trkpt lat="47.29094810322606" lon="-1.565149929375914"><ele>28.0</ele><time>2026-04-06T16:35:50.051Z</time></trkpt><trkpt lat="47.29098734416512" lon="-1.5652923734880713"><ele>26.0</ele><time>2026-04-06T16:35:51.046Z</time></trkpt><trkpt lat="47.29105141018265" lon="-1.5654349140837467"><ele>24.0</ele><time>2026-04-06T16:35:52.04Z</time></trkpt><trkpt lat="47.291122090450195" lon="-1.5655449837405881"><ele>22.0</ele><time>2026-04-06T16:35:53.037Z</time></trkpt><trkpt lat="47.29120488868701" lon="-1.5656792656971363"><ele>20.0</ele><time>2026-04-06T16:35:54.036Z</time></trkpt><trkpt lat="47.29128287612993" lon="-1.5658066084066407"><ele>20.0</ele><time>2026-04-06T16:35:55.035Z</time></trkpt><trkpt lat="47.291354605406475" lon="-1.5659266384198336"><ele>20.0</ele><time>2026-04-06T16:35:56.047Z</time></trkpt><trkpt lat="47.29143221865601" lon="-1.5660482987424107"><ele>20.0</ele><time>2026-04-06T16:35:57.048Z</time></trkpt><trkpt lat="47.29151537280219" lon="-1.566154885500149"><ele>20.0</ele><time>2026-04-06T16:35:58.045Z</time></trkpt><trkpt lat="47.29160401735713" lon="-1.5662120967101407"><ele>20.0</ele><time>2026-04-06T16:35:59.048Z</time></trkpt><trkpt lat="47.291715849302555" lon="-1.5662376301341772"><ele>20.8</ele><time>2026-04-06T16:36:00.04Z</time></trkpt><trkpt lat="47.291818396854694" lon="-1.5662347805493744"><ele>21.6</ele><time>2026-04-06T16:36:01.045Z</time></trkpt><trkpt lat="47.291928717318704" lon="-1.566203582516929"><ele>22.4</ele><time>2026-04-06T16:36:02.036Z</time></trkpt><trkpt lat="47.29205189360761" lon="-1.566185801776877"><ele>23.2</ele><time>2026-04-06T16:36:03.05Z</time></trkpt><trkpt lat="47.29214170127484" lon="-1.5661873635973882"><ele>24.0</ele><time>2026-04-06T16:36:04.041Z</time></trkpt><trkpt lat="47.29223837409221" lon="-1.5662204085265705"><ele>22.4</ele><time>2026-04-06T16:36:05.045Z</time></trkpt><trkpt lat="47.29233773895287" lon="-1.5663154330119176"><ele>20.799999999999997</ele><time>2026-04-06T16:36:06.037Z</time></trkpt><trkpt lat="47.29241782803767" lon="-1.5664186142399594"><ele>19.200000000000003</ele><time>2026-04-06T16:36:07.042Z</time></trkpt><trkpt lat="47.29247725573116" lon="-1.5665337815895364"><ele>17.6</ele><time>2026-04-06T16:36:08.047Z</time></trkpt><trkpt lat="47.29251598012381" lon="-1.5666601806893634"><ele>16.0</ele><time>2026-04-06T16:36:09.049Z</time></trkpt><trkpt lat="47.2925537405976" lon="-1.5668054390713262"><ele>16.0</ele><time>2026-04-06T16:36:10.035Z</time></trkpt><trkpt lat="47.29258337062531" lon="-1.56694927252975"><ele>16.0</ele><time>2026-04-06T16:36:11.043Z</time></trkpt><trkpt lat="47.292602732821635" lon="-1.5670775994673065"><ele>16.0</ele><time>2026-04-06T16:36:12.038Z</time></trkpt><trkpt lat="47.29261450939559" lon="-1.5672254562392525"><ele>16.0</ele><time>2026-04-06T16:36:13.037Z</time></trkpt><trkpt lat="47.292633075311116" lon="-1.5673697087928349"><ele>16.0</ele><time>2026-04-06T16:36:14.04Z</time></trkpt><trkpt lat="47.29265235368841" lon="-1.5675105247661167"><ele>15.666666666666666</ele><time>2026-04-06T16:36:15.044Z</time></trkpt><trkpt lat="47.29267858904534" lon="-1.567640695722371"><ele>15.333333333333332</ele><time>2026-04-06T16:36:16.044Z</time></trkpt><trkpt lat="47.292693886018625" lon="-1.5677674300983246"><ele>15.0</ele><time>2026-04-06T16:36:17.051Z</time></trkpt><trkpt lat="47.29272519242697" lon="-1.5678991936161815"><ele>14.666666666666668</ele><time>2026-04-06T16:36:18.042Z</time></trkpt><trkpt lat="47.29274346497589" lon="-1.5680252574398816"><ele>14.333333333333334</ele><time>2026-04-06T16:36:19.04Z</time></trkpt><trkpt lat="47.29275381662631" lon="-1.5681374911233485"><ele>14.0</ele><time>2026-04-06T16:36:20.042Z</time></trkpt><trkpt lat="47.29276429400527" lon="-1.568252826110989"><ele>15.6</ele><time>2026-04-06T16:36:21.045Z</time></trkpt><trkpt lat="47.29279694151813" lon="-1.5684321150198284"><ele>17.2</ele><time>2026-04-06T16:36:23.05Z</time></trkpt><trkpt lat="47.2928182734617" lon="-1.5686085540815895"><ele>18.8</ele><time>2026-04-06T16:36:25.064Z</time></trkpt><trkpt lat="47.292860099158524" lon="-1.5687232185169762"><ele>20.400000000000002</ele><time>2026-04-06T16:36:27.053Z</time></trkpt><trkpt lat="47.292884783863364" lon="-1.5688787866398402"><ele>22.0</ele><time>2026-04-06T16:36:29.059Z</time></trkpt><trkpt lat="47.29290033229375" lon="-1.5690645296141217"><ele>22.666666666666664</ele><time>2026-04-06T16:36:31.059Z</time></trkpt><trkpt lat="47.292915838814615" lon="-1.569189336152346"><ele>23.333333333333332</ele><time>2026-04-06T16:36:33.055Z</time></trkpt><trkpt lat="47.29292669337922" lon="-1.5692920982852292"><ele>24.0</ele><time>2026-04-06T16:36:35.058Z</time></trkpt><trkpt lat="47.292950246527134" lon="-1.5694197546705317"><ele>24.666666666666664</ele><time>2026-04-06T16:36:37.058Z</time></trkpt><trkpt lat="47.29296818379992" lon="-1.569523690269859"><ele>25.333333333333332</ele><time>2026-04-06T16:36:39.051Z</time></trkpt><trkpt lat="47.29296789043331" lon="-1.5696555376067474"><ele>26.0</ele><time>2026-04-06T16:36:41.044Z</time></trkpt><trkpt lat="47.29296529204333" lon="-1.5698142908528165"><ele>26.0</ele><time>2026-04-06T16:36:43.052Z</time></trkpt><trkpt lat="47.29293503337288" lon="-1.569977067412408"><ele>26.0</ele><time>2026-04-06T16:36:45.057Z</time></trkpt><trkpt lat="47.29289593179458" lon="-1.5701108425870258"><ele>26.0</ele><time>2026-04-06T16:36:47.055Z</time></trkpt><trkpt lat="47.29285150770777" lon="-1.5702352300300917"><ele>26.0</ele><time>2026-04-06T16:36:49.053Z</time></trkpt><trkpt lat="47.29277950715953" lon="-1.5703438594951948"><ele>26.0</ele><time>2026-04-06T16:36:51.047Z</time></trkpt><trkpt lat="47.29271500841462" lon="-1.570439329372319"><ele>25.4</ele><time>2026-04-06T16:36:53.053Z</time></trkpt><trkpt lat="47.29263047692113" lon="-1.5705303568407618"><ele>24.8</ele><time>2026-04-06T16:36:55.046Z</time></trkpt><trkpt lat="47.29256270923399" lon="-1.5705665666624629"><ele>24.2</ele><time>2026-04-06T16:36:57.045Z</time></trkpt><trkpt lat="47.292471807494096" lon="-1.5705731883659684"><ele>23.599999999999998</ele><time>2026-04-06T16:36:59.051Z</time></trkpt><trkpt lat="47.292358197802095" lon="-1.5705727346335"><ele>23.0</ele><time>2026-04-06T16:37:01.055Z</time></trkpt><trkpt lat="47.29227286302232" lon="-1.5705549996360861"><ele>23.833333333333336</ele><time>2026-04-06T16:37:03.053Z</time></trkpt><trkpt lat="47.29219066219663" lon="-1.5705823511377577"><ele>24.666666666666668</ele><time>2026-04-06T16:37:05.058Z</time></trkpt><trkpt lat="47.292104785559104" lon="-1.5705805968036504"><ele>25.5</ele><time>2026-04-06T16:37:07.059Z</time></trkpt><trkpt lat="47.29201181146295" lon="-1.5705767891068791"><ele>26.333333333333336</ele><time>2026-04-06T16:37:09.059Z</time></trkpt><trkpt lat="47.2919180163089" lon="-1.5705735689028149"><ele>27.166666666666668</ele><time>2026-04-06T16:37:11.054Z</time></trkpt><trkpt lat="47.2918276101696" lon="-1.5705714015751784"><ele>28.0</ele><time>2026-04-06T16:37:13.058Z</time></trkpt><trkpt lat="47.29174393907404" lon="-1.5705693957072373"><ele>28.000000000000004</ele><time>2026-04-06T16:37:15.057Z</time></trkpt><trkpt lat="47.29165882844729" lon="-1.5705661823626957"><ele>28.0</ele><time>2026-04-06T16:37:17.055Z</time></trkpt><trkpt lat="47.29157098413018" lon="-1.5705626448442291"><ele>28.0</ele><time>2026-04-06T16:37:19.071Z</time></trkpt><trkpt lat="47.291500020251384" lon="-1.5705597871084211"><ele>28.0</ele><time>2026-04-06T16:37:21.058Z</time></trkpt><trkpt lat="47.29142850314521" lon="-1.5705569070927783"><ele>28.000000000000004</ele><time>2026-04-06T16:37:23.065Z</time></trkpt><trkpt lat="47.29132929592237" lon="-1.5705529119866088"><ele>28.0</ele><time>2026-04-06T16:37:26.051Z</time></trkpt><trkpt lat="47.29124884591185" lon="-1.5705333743259036"><ele>28.833333333333336</ele><time>2026-04-06T16:37:28.059Z</time></trkpt><trkpt lat="47.29117034938865" lon="-1.5705532394364201"><ele>29.666666666666668</ele><time>2026-04-06T16:37:31.06Z</time></trkpt><trkpt lat="47.29107839991086" lon="-1.5705325361355864"><ele>30.5</ele><time>2026-04-06T16:37:33.052Z</time></trkpt><trkpt lat="47.29099411987447" lon="-1.57053027302173"><ele>31.333333333333336</ele><time>2026-04-06T16:37:35.053Z</time></trkpt><trkpt lat="47.29090657089584" lon="-1.5705303568407618"><ele>32.166666666666664</ele><time>2026-04-06T16:37:37.062Z</time></trkpt><trkpt lat="47.29084228169852" lon="-1.5705599449589573"><ele>33.0</ele><time>2026-04-06T16:37:39.057Z</time></trkpt><trkpt lat="47.29075200860136" lon="-1.5706100687399231"><ele>33.0</ele><time>2026-04-06T16:37:42.052Z</time></trkpt><trkpt lat="47.29066974022173" lon="-1.5706428419813239"><ele>33.0</ele><time>2026-04-06T16:37:45.061Z</time></trkpt><trkpt lat="47.290596859573654" lon="-1.5706713404521073"><ele>33.0</ele><time>2026-04-06T16:37:47.06Z</time></trkpt><trkpt lat="47.29051325008952" lon="-1.5707411617055262"><ele>33.0</ele><time>2026-04-06T16:37:49.064Z</time></trkpt><trkpt lat="47.29043433447116" lon="-1.5708222985282267"><ele>33.0</ele><time>2026-04-06T16:37:51.057Z</time></trkpt><trkpt lat="47.29037432004445" lon="-1.5708994120374051"><ele>33.0</ele><time>2026-04-06T16:37:53.06Z</time></trkpt><trkpt lat="47.29031309024178" lon="-1.570983063431057"><ele>33.666666666666664</ele><time>2026-04-06T16:37:55.053Z</time></trkpt><trkpt lat="47.29026120626115" lon="-1.5710762701943246"><ele>34.333333333333336</ele><time>2026-04-06T16:37:57.064Z</time></trkpt><trkpt lat="47.290215818255476" lon="-1.571155730636391"><ele>35.0</ele><time>2026-04-06T16:37:59.053Z</time></trkpt><trkpt lat="47.290166658393375" lon="-1.5712185110911459"><ele>35.66666666666667</ele><time>2026-04-06T16:38:01.061Z</time></trkpt><trkpt lat="47.29010869753294" lon="-1.5712913498297065"><ele>36.333333333333336</ele><time>2026-04-06T16:38:03.056Z</time></trkpt><trkpt lat="47.29004872501575" lon="-1.571377599613342"><ele>37.0</ele><time>2026-04-06T16:38:05.063Z</time></trkpt><trkpt lat="47.28999797259205" lon="-1.5714540425702663"><ele>37.16666666666667</ele><time>2026-04-06T16:38:07.052Z</time></trkpt><trkpt lat="47.289951453029445" lon="-1.571529814974937"><ele>37.333333333333336</ele><time>2026-04-06T16:38:09.056Z</time></trkpt><trkpt lat="47.28990732230925" lon="-1.571608521045718"><ele>37.5</ele><time>2026-04-06T16:38:11.057Z</time></trkpt><trkpt lat="47.289858078628114" lon="-1.5716948546483849"><ele>37.666666666666664</ele><time>2026-04-06T16:38:13.063Z</time></trkpt><trkpt lat="47.28980409917169" lon="-1.5717877261355255"><ele>37.83333333333333</ele><time>2026-04-06T16:38:15.054Z</time></trkpt><trkpt lat="47.28974643167787" lon="-1.5718754846617318"><ele>38.0</ele><time>2026-04-06T16:38:17.066Z</time></trkpt><trkpt lat="47.28969228458338" lon="-1.5719565376654006"><ele>38.666666666666664</ele><time>2026-04-06T16:38:19.056Z</time></trkpt><trkpt lat="47.28964312472128" lon="-1.5720349922790862"><ele>39.33333333333333</ele><time>2026-04-06T16:38:21.061Z</time></trkpt><trkpt lat="47.28959484495901" lon="-1.5721234213575461"><ele>40.0</ele><time>2026-04-06T16:38:23.055Z</time></trkpt><trkpt lat="47.28955540810459" lon="-1.572207408027325"><ele>40.666666666666664</ele><time>2026-04-06T16:38:25.064Z</time></trkpt><trkpt lat="47.28950717025184" lon="-1.5723247546717267"><ele>41.333333333333336</ele><time>2026-04-06T16:38:28.048Z</time></trkpt><trkpt lat="47.28945754938506" lon="-1.5724002756193023"><ele>42.0</ele><time>2026-04-06T16:38:30.066Z</time></trkpt><trkpt lat="47.28939707395368" lon="-1.572478981690083"><ele>42.0</ele><time>2026-04-06T16:38:32.055Z</time></trkpt><trkpt lat="47.28933467068457" lon="-1.5725710988059385"><ele>42.0</ele><time>2026-04-06T16:38:34.058Z</time></trkpt><trkpt lat="47.289272686510614" lon="-1.5726330410703762"><ele>42.0</ele><time>2026-04-06T16:38:35.052Z</time></trkpt><trkpt lat="47.28921640203082" lon="-1.5727333724513395"><ele>42.0</ele><time>2026-04-06T16:38:37.063Z</time></trkpt><trkpt lat="47.289142054549686" lon="-1.5728327818229542"><ele>42.0</ele><time>2026-04-06T16:38:39.05Z</time></trkpt><trkpt lat="47.28909021247857" lon="-1.5729431714877233"><ele>42.0</ele><time>2026-04-06T16:38:41.063Z</time></trkpt><trkpt lat="47.28905429602348" lon="-1.5730359591558325"><ele>42.0</ele><time>2026-04-06T16:38:43.046Z</time></trkpt><trkpt lat="47.2889774339714" lon="-1.5731419902309525"><ele>42.0</ele><time>2026-04-06T16:38:45.045Z</time></trkpt><trkpt lat="47.288907947994105" lon="-1.5732497815057385"><ele>42.0</ele><time>2026-04-06T16:38:47.061Z</time></trkpt><trkpt lat="47.288830750665895" lon="-1.5733470954015603"><ele>42.0</ele><time>2026-04-06T16:38:49.047Z</time></trkpt><trkpt lat="47.28876767684453" lon="-1.5734516177341094"><ele>42.0</ele><time>2026-04-06T16:38:51.06Z</time></trkpt><trkpt lat="47.28869622111999" lon="-1.5735877398416154"><ele>42.0</ele><time>2026-04-06T16:38:53.048Z</time></trkpt><trkpt lat="47.288615964397124" lon="-1.5736931003644816"><ele>42.0</ele><time>2026-04-06T16:38:55.055Z</time></trkpt><trkpt lat="47.28854140736841" lon="-1.5738038253053779"><ele>42.0</ele><time>2026-04-06T16:38:57.062Z</time></trkpt><trkpt lat="47.28848788891666" lon="-1.5739229321494455"><ele>42.0</ele><time>2026-04-06T16:38:59.047Z</time></trkpt><trkpt lat="47.28840453088962" lon="-1.5740426257267353"><ele>42.0</ele><time>2026-04-06T16:39:01.048Z</time></trkpt><trkpt lat="47.28835193444722" lon="-1.5741489082589504"><ele>42.0</ele><time>2026-04-06T16:39:03.047Z</time></trkpt><trkpt lat="47.288269624158076" lon="-1.5742577053621172"><ele>42.0</ele><time>2026-04-06T16:39:05.054Z</time></trkpt><trkpt lat="47.28821300440215" lon="-1.574370861054933"><ele>42.0</ele><time>2026-04-06T16:39:07.046Z</time></trkpt><trkpt lat="47.288155504546395" lon="-1.574466917665279"><ele>42.0</ele><time>2026-04-06T16:39:09.047Z</time></trkpt><trkpt lat="47.28805215568029" lon="-1.5745469648405672"><ele>42.0</ele><time>2026-04-06T16:39:11.046Z</time></trkpt><trkpt lat="47.2879723599621" lon="-1.5746545884772898"><ele>42.0</ele><time>2026-04-06T16:39:13.047Z</time></trkpt><trkpt lat="47.28787450124257" lon="-1.5747290197774533"><ele>42.0</ele><time>2026-04-06T16:39:15.047Z</time></trkpt><trkpt lat="47.28777915709399" lon="-1.5748286806061629"><ele>42.0</ele><time>2026-04-06T16:39:17.057Z</time></trkpt><trkpt lat="47.28772496808999" lon="-1.574881654234207"><ele>42.0</ele><time>2026-04-06T16:39:18.057Z</time></trkpt><trkpt lat="47.2876346111738" lon="-1.5749557502582436"><ele>42.0</ele><time>2026-04-06T16:39:20.057Z</time></trkpt><trkpt lat="47.287576901770464" lon="-1.575017776341713"><ele>42.0</ele><time>2026-04-06T16:39:21.062Z</time></trkpt><trkpt lat="47.28747879159384" lon="-1.5750944707557326"><ele>42.0</ele><time>2026-04-06T16:39:23.046Z</time></trkpt><trkpt lat="47.28737841830336" lon="-1.5751826483770974"><ele>42.0</ele><time>2026-04-06T16:39:25.056Z</time></trkpt><trkpt lat="47.287285295359126" lon="-1.5752621926381953"><ele>42.0</ele><time>2026-04-06T16:39:27.044Z</time></trkpt><trkpt lat="47.28723039389335" lon="-1.5753137413427003"><ele>42.0</ele><time>2026-04-06T16:39:28.057Z</time></trkpt><trkpt lat="47.2871287633174" lon="-1.5754105523243316"><ele>42.25</ele><time>2026-04-06T16:39:30.057Z</time></trkpt><trkpt lat="47.28702231314712" lon="-1.5755037590875993"><ele>42.5</ele><time>2026-04-06T16:39:32.048Z</time></trkpt><trkpt lat="47.286924831613234" lon="-1.5755944512799154"><ele>42.75</ele><time>2026-04-06T16:39:34.05Z</time></trkpt><trkpt lat="47.286832965954474" lon="-1.5756817068919313"><ele>43.0</ele><time>2026-04-06T16:39:36.058Z</time></trkpt><trkpt lat="47.28673493959688" lon="-1.5757723990842474"><ele>43.0</ele><time>2026-04-06T16:39:38.052Z</time></trkpt><trkpt lat="47.286638799167505" lon="-1.5758534520879162"><ele>43.0</ele><time>2026-04-06T16:39:40.052Z</time></trkpt><trkpt lat="47.28654605340891" lon="-1.5759331639870777"><ele>43.0</ele><time>2026-04-06T16:39:42.049Z</time></trkpt><trkpt lat="47.28644278836184" lon="-1.5760250296458378"><ele>43.0</ele><time>2026-04-06T16:39:44.053Z</time></trkpt><trkpt lat="47.28633470372044" lon="-1.5761057473733797"><ele>43.25</ele><time>2026-04-06T16:39:46.058Z</time></trkpt><trkpt lat="47.28623860520058" lon="-1.5761941764518397"><ele>43.5</ele><time>2026-04-06T16:39:48.058Z</time></trkpt><trkpt lat="47.28614485361361" lon="-1.5762822702541726"><ele>43.75</ele><time>2026-04-06T16:39:50.055Z</time></trkpt><trkpt lat="47.28604292967104" lon="-1.5763629041626828"><ele>44.0</ele><time>2026-04-06T16:39:52.053Z</time></trkpt><trkpt lat="47.285936856686405" lon="-1.5764355752631802"><ele>44.0</ele><time>2026-04-06T16:39:54.059Z</time></trkpt><trkpt lat="47.2858395847001" lon="-1.5765315480544944"><ele>44.0</ele><time>2026-04-06T16:39:56.048Z</time></trkpt><trkpt lat="47.28577848062598" lon="-1.5765833482160945"><ele>44.0</ele><time>2026-04-06T16:39:57.052Z</time></trkpt><trkpt lat="47.28571766991847" lon="-1.5766237489893815"><ele>44.0</ele><time>2026-04-06T16:39:58.057Z</time></trkpt><trkpt lat="47.285630204758874" lon="-1.5767118427917144"><ele>44.0</ele><time>2026-04-06T16:40:00.055Z</time></trkpt><trkpt lat="47.28554923557424" lon="-1.5767825022354505"><ele>43.800000000000004</ele><time>2026-04-06T16:40:02.056Z</time></trkpt><trkpt lat="47.28544714399361" lon="-1.5768842585399532"><ele>43.6</ele><time>2026-04-06T16:40:04.059Z</time></trkpt><trkpt lat="47.28534819562667" lon="-1.5769920498147392"><ele>43.4</ele><time>2026-04-06T16:40:06.049Z</time></trkpt><trkpt lat="47.28527246513151" lon="-1.5770700853332662"><ele>43.2</ele><time>2026-04-06T16:40:08.061Z</time></trkpt><trkpt lat="47.28521048095756" lon="-1.5771286748364355"><ele>43.0</ele><time>2026-04-06T16:40:09.063Z</time></trkpt><trkpt lat="47.28513005659663" lon="-1.5772379748537924"><ele>43.0</ele><time>2026-04-06T16:40:11.055Z</time></trkpt><trkpt lat="47.285047955855056" lon="-1.5773693192764906"><ele>43.0</ele><time>2026-04-06T16:40:13.061Z</time></trkpt><trkpt lat="47.28497042325072" lon="-1.5774862468257336"><ele>43.0</ele><time>2026-04-06T16:40:15.046Z</time></trkpt><trkpt lat="47.284889537885114" lon="-1.5775811299696356"><ele>43.0</ele><time>2026-04-06T16:40:17.052Z</time></trkpt><trkpt lat="47.28484163530849" lon="-1.5776506159469277"><ele>43.0</ele><time>2026-04-06T16:40:18.058Z</time></trkpt><trkpt lat="47.284799977249726" lon="-1.57772060483841"><ele>43.0</ele><time>2026-04-06T16:40:19.046Z</time></trkpt><trkpt lat="47.284758109643384" lon="-1.5777941141292244"><ele>43.0</ele><time>2026-04-06T16:40:20.058Z</time></trkpt><trkpt lat="47.28471272163771" lon="-1.5778641868397387"><ele>43.0</ele><time>2026-04-06T16:40:21.055Z</time></trkpt><trkpt lat="47.284629195972606" lon="-1.5779899153873118"><ele>43.0</ele><time>2026-04-06T16:40:23.052Z</time></trkpt><trkpt lat="47.28455040608279" lon="-1.5781145542874728"><ele>43.0</ele><time>2026-04-06T16:40:25.053Z</time></trkpt><trkpt lat="47.28449722290717" lon="-1.5781873930260335"><ele>43.0</ele><time>2026-04-06T16:40:26.059Z</time></trkpt><trkpt lat="47.28442455180667" lon="-1.5783088468029893"><ele>42.8</ele><time>2026-04-06T16:40:28.055Z</time></trkpt><trkpt lat="47.28434748020701" lon="-1.5784448850914634"><ele>42.599999999999994</ele><time>2026-04-06T16:40:30.058Z</time></trkpt><trkpt lat="47.28430624124341" lon="-1.5785223338767687"><ele>42.400000000000006</ele><time>2026-04-06T16:40:31.052Z</time></trkpt><trkpt lat="47.28422397286378" lon="-1.5786648262306848"><ele>42.2</ele><time>2026-04-06T16:40:33.054Z</time></trkpt><trkpt lat="47.28417741139166" lon="-1.5787424426540533"><ele>42.0</ele><time>2026-04-06T16:40:34.06Z</time></trkpt><trkpt lat="47.28408546191387" lon="-1.5788675006493729"><ele>42.400000000000006</ele><time>2026-04-06T16:40:36.056Z</time></trkpt><trkpt lat="47.284027710601016" lon="-1.5789316222086351"><ele>42.800000000000004</ele><time>2026-04-06T16:40:37.052Z</time></trkpt><trkpt lat="47.283931821628734" lon="-1.5790717676296635"><ele>43.2</ele><time>2026-04-06T16:40:39.06Z</time></trkpt><trkpt lat="47.28388412859969" lon="-1.5791520662620468"><ele>43.6</ele><time>2026-04-06T16:40:40.055Z</time></trkpt><trkpt lat="47.28380529680036" lon="-1.5792774595334933"><ele>44.0</ele><time>2026-04-06T16:40:42.055Z</time></trkpt><trkpt lat="47.28372554299168" lon="-1.5794054511949227"><ele>44.0</ele><time>2026-04-06T16:40:44.056Z</time></trkpt><trkpt lat="47.28366033178501" lon="-1.5795489493772197"><ele>44.0</ele><time>2026-04-06T16:40:46.058Z</time></trkpt><trkpt lat="47.283613728403374" lon="-1.5797125641271283"><ele>44.0</ele><time>2026-04-06T16:40:48.057Z</time></trkpt><trkpt lat="47.28358887606047" lon="-1.579799819739144"><ele>44.0</ele><time>2026-04-06T16:40:49.056Z</time></trkpt><trkpt lat="47.28356846612625" lon="-1.5798921044930627"><ele>44.0</ele><time>2026-04-06T16:40:50.059Z</time></trkpt><trkpt lat="47.28354516443543" lon="-1.5799928549691848"><ele>44.0</ele><time>2026-04-06T16:40:51.047Z</time></trkpt><trkpt lat="47.283510211899205" lon="-1.5802045818432982"><ele>44.0</ele><time>2026-04-06T16:40:53.056Z</time></trkpt><trkpt lat="47.28350229100071" lon="-1.580309187994879"><ele>44.0</ele><time>2026-04-06T16:40:54.06Z</time></trkpt><trkpt lat="47.283492106988355" lon="-1.5804944280549702"><ele>44.0</ele><time>2026-04-06T16:40:56.057Z</time></trkpt><trkpt lat="47.2834879998558" lon="-1.580598447473329"><ele>44.0</ele><time>2026-04-06T16:40:57.056Z</time></trkpt><trkpt lat="47.28348619774662" lon="-1.5807022154345929"><ele>44.0</ele><time>2026-04-06T16:40:58.055Z</time></trkpt><trkpt lat="47.2834562743523" lon="-1.5808932390078723"><ele>43.800000000000004</ele><time>2026-04-06T16:41:00.057Z</time></trkpt><trkpt lat="47.28344944310121" lon="-1.581004131586832"><ele>43.6</ele><time>2026-04-06T16:41:01.056Z</time></trkpt><trkpt lat="47.28344269566916" lon="-1.5811860188856546"><ele>43.4</ele><time>2026-04-06T16:41:03.049Z</time></trkpt><trkpt lat="47.28345090993427" lon="-1.5812805667534295"><ele>43.2</ele><time>2026-04-06T16:41:04.06Z</time></trkpt><trkpt lat="47.28345212531023" lon="-1.581397410483641"><ele>43.0</ele><time>2026-04-06T16:41:05.056Z</time></trkpt><trkpt lat="47.28345049083911" lon="-1.5815931279226965"><ele>43.333333333333336</ele><time>2026-04-06T16:41:07.049Z</time></trkpt><trkpt lat="47.283441312655135" lon="-1.5817815531059929"><ele>43.66666666666667</ele><time>2026-04-06T16:41:09.056Z</time></trkpt><trkpt lat="47.283434649042114" lon="-1.5818857401624153"><ele>44.0</ele><time>2026-04-06T16:41:10.055Z</time></trkpt><trkpt lat="47.28342236955397" lon="-1.5819916035994719"><ele>44.333333333333336</ele><time>2026-04-06T16:41:11.047Z</time></trkpt><trkpt lat="47.28342144754462" lon="-1.5820905938759278"><ele>44.666666666666664</ele><time>2026-04-06T16:41:12.057Z</time></trkpt><trkpt lat="47.283415203026756" lon="-1.5821926016375256"><ele>45.0</ele><time>2026-04-06T16:41:13.052Z</time></trkpt><trkpt lat="47.283410257703885" lon="-1.5823744889363482"><ele>45.0</ele><time>2026-04-06T16:41:15.046Z</time></trkpt><trkpt lat="47.283409964337274" lon="-1.5824818611159757"><ele>45.0</ele><time>2026-04-06T16:41:16.059Z</time></trkpt><trkpt lat="47.28339848112993" lon="-1.5825871378198104"><ele>45.0</ele><time>2026-04-06T16:41:17.051Z</time></trkpt><trkpt lat="47.28339441590689" lon="-1.5827695280328231"><ele>45.0</ele><time>2026-04-06T16:41:19.056Z</time></trkpt><trkpt lat="47.28339378726415" lon="-1.5828649979099472"><ele>45.0</ele><time>2026-04-06T16:41:20.063Z</time></trkpt><trkpt lat="47.28339181751691" lon="-1.582971364261194"><ele>45.0</ele><time>2026-04-06T16:41:21.057Z</time></trkpt><trkpt lat="47.283385070084854" lon="-1.5830820053830585"><ele>45.0</ele><time>2026-04-06T16:41:22.05Z</time></trkpt><trkpt lat="47.28338033430956" lon="-1.5831945743426523"><ele>45.0</ele><time>2026-04-06T16:41:23.056Z</time></trkpt><trkpt lat="47.283367971002384" lon="-1.5833806525930607"><ele>45.0</ele><time>2026-04-06T16:41:25.054Z</time></trkpt><trkpt lat="47.28336143311791" lon="-1.5834756195559943"><ele>45.0</ele><time>2026-04-06T16:41:26.047Z</time></trkpt><trkpt lat="47.28334869262509" lon="-1.5835679043099131"><ele>45.0</ele><time>2026-04-06T16:41:27.055Z</time></trkpt><trkpt lat="47.28335548196666" lon="-1.5836655534818616"><ele>45.0</ele><time>2026-04-06T16:41:28.066Z</time></trkpt><trkpt lat="47.28335133292459" lon="-1.5837582573309388"><ele>44.857142857142854</ele><time>2026-04-06T16:41:29.059Z</time></trkpt><trkpt lat="47.283348734534606" lon="-1.5838511288180797"><ele>44.714285714285715</ele><time>2026-04-06T16:41:30.046Z</time></trkpt><trkpt lat="47.28334668096833" lon="-1.5839496161803452"><ele>44.57142857142857</ele><time>2026-04-06T16:41:31.057Z</time></trkpt><trkpt lat="47.28334345393561" lon="-1.5840562339886874"><ele>44.42857142857143</ele><time>2026-04-06T16:41:32.063Z</time></trkpt><trkpt lat="47.28334831543945" lon="-1.58415799029319"><ele>44.285714285714285</ele><time>2026-04-06T16:41:33.054Z</time></trkpt><trkpt lat="47.28333352138035" lon="-1.5842611715212318"><ele>44.142857142857146</ele><time>2026-04-06T16:41:34.048Z</time></trkpt><trkpt lat="47.283349446996375" lon="-1.5843604970738145"><ele>44.0</ele><time>2026-04-06T16:41:35.054Z</time></trkpt><trkpt lat="47.28334253192626" lon="-1.584479101003692"><ele>43.85714285714286</ele><time>2026-04-06T16:41:36.061Z</time></trkpt><trkpt lat="47.28333096489988" lon="-1.5845781750991796"><ele>43.714285714285715</ele><time>2026-04-06T16:41:37.056Z</time></trkpt><trkpt lat="47.28332350500606" lon="-1.5846925042584394"><ele>43.57142857142857</ele><time>2026-04-06T16:41:38.051Z</time></trkpt><trkpt lat="47.28332346309654" lon="-1.5847997088000036"><ele>43.42857142857143</ele><time>2026-04-06T16:41:39.056Z</time></trkpt><trkpt lat="47.28331876923077" lon="-1.5849123615786291"><ele>43.285714285714285</ele><time>2026-04-06T16:41:40.058Z</time></trkpt><trkpt lat="47.28331369817935" lon="-1.5850124415024975"><ele>43.142857142857146</ele><time>2026-04-06T16:41:41.053Z</time></trkpt><trkpt lat="47.28330305316232" lon="-1.5851179696634272"><ele>43.0</ele><time>2026-04-06T16:41:42.046Z</time></trkpt><trkpt lat="47.28328214031391" lon="-1.5852961689248544"><ele>43.0</ele><time>2026-04-06T16:41:44.048Z</time></trkpt><trkpt lat="47.2832868760892" lon="-1.5854778885856136"><ele>43.0</ele><time>2026-04-06T16:41:46.056Z</time></trkpt><trkpt lat="47.28328465488486" lon="-1.585582578556226"><ele>43.0</ele><time>2026-04-06T16:41:47.054Z</time></trkpt><trkpt lat="47.283286121717914" lon="-1.5857623703792558"><ele>43.0</ele><time>2026-04-06T16:41:49.055Z</time></trkpt><trkpt lat="47.2832662566074" lon="-1.585958255456375"><ele>43.0</ele><time>2026-04-06T16:41:51.055Z</time></trkpt><trkpt lat="47.283261437013074" lon="-1.586058922113465"><ele>43.0</ele><time>2026-04-06T16:41:52.048Z</time></trkpt><trkpt lat="47.28325368375264" lon="-1.5861596725895872"><ele>43.0</ele><time>2026-04-06T16:41:53.047Z</time></trkpt><trkpt lat="47.28325477340005" lon="-1.5862646978363266"><ele>43.0</ele><time>2026-04-06T16:41:54.054Z</time></trkpt><trkpt lat="47.28322049141608" lon="-1.5864447411164515"><ele>43.0</ele><time>2026-04-06T16:41:56.046Z</time></trkpt><trkpt lat="47.28320100349121" lon="-1.5865352656707041"><ele>43.0</ele><time>2026-04-06T16:41:57.056Z</time></trkpt><trkpt lat="47.28318742480807" lon="-1.5866336692139382"><ele>43.2</ele><time>2026-04-06T16:41:58.061Z</time></trkpt><trkpt lat="47.28313792966984" lon="-1.586797786878037"><ele>43.4</ele><time>2026-04-06T16:42:00.046Z</time></trkpt><trkpt lat="47.28310972456567" lon="-1.5868866350516555"><ele>43.6</ele><time>2026-04-06T16:42:01.054Z</time></trkpt><trkpt lat="47.28306756359272" lon="-1.587041113527107"><ele>43.800000000000004</ele><time>2026-04-06T16:42:03.056Z</time></trkpt><trkpt lat="47.283037430650815" lon="-1.5871318057194232"><ele>44.0</ele><time>2026-04-06T16:42:04.047Z</time></trkpt><trkpt lat="47.28296970487319" lon="-1.5873059816673278"><ele>44.6</ele><time>2026-04-06T16:42:06.047Z</time></trkpt><trkpt lat="47.28290047035299" lon="-1.5874654054656507"><ele>45.2</ele><time>2026-04-06T16:42:08.045Z</time></trkpt><trkpt lat="47.28284250949256" lon="-1.5876134298756603"><ele>45.800000000000004</ele><time>2026-04-06T16:42:10.045Z</time></trkpt><trkpt lat="47.28280617394231" lon="-1.5876962430789952"><ele>46.400000000000006</ele><time>2026-04-06T16:42:11.049Z</time></trkpt><trkpt lat="47.28275349368088" lon="-1.5878535714015252"><ele>47.0</ele><time>2026-04-06T16:42:13.056Z</time></trkpt><trkpt lat="47.28263983507387" lon="-1.5879939682796484"><ele>47.2</ele><time>2026-04-06T16:42:15.047Z</time></trkpt><trkpt lat="47.282634847841486" lon="-1.5881457645460852"><ele>47.400000000000006</ele><time>2026-04-06T16:42:17.053Z</time></trkpt><trkpt lat="47.28257558778606" lon="-1.5882955491557609"><ele>47.599999999999994</ele><time>2026-04-06T16:42:19.049Z</time></trkpt><trkpt lat="47.282564439854845" lon="-1.5884137339904796"><ele>47.8</ele><time>2026-04-06T16:42:21.049Z</time></trkpt><trkpt lat="47.28251511235468" lon="-1.5885518677547468"><ele>48.0</ele><time>2026-04-06T16:42:23.057Z</time></trkpt><trkpt lat="47.28245308627121" lon="-1.5887005627170099"><ele>48.25</ele><time>2026-04-06T16:42:25.056Z</time></trkpt><trkpt lat="47.282395670234486" lon="-1.5888473298415438"><ele>48.5</ele><time>2026-04-06T16:42:27.052Z</time></trkpt><trkpt lat="47.28233125530861" lon="-1.5889938455089823"><ele>48.75</ele><time>2026-04-06T16:42:29.052Z</time></trkpt><trkpt lat="47.282264870635494" lon="-1.5891096834108132"><ele>49.0</ele><time>2026-04-06T16:42:31.049Z</time></trkpt><trkpt lat="47.28218536828391" lon="-1.58924731426089"><ele>49.400000000000006</ele><time>2026-04-06T16:42:33.056Z</time></trkpt><trkpt lat="47.282152469313964" lon="-1.5893292892739077"><ele>49.8</ele><time>2026-04-06T16:42:34.058Z</time></trkpt><trkpt lat="47.28211215235971" lon="-1.5894744638368388"><ele>50.2</ele><time>2026-04-06T16:42:36.059Z</time></trkpt><trkpt lat="47.282033278650864" lon="-1.5895963367089532"><ele>50.599999999999994</ele><time>2026-04-06T16:42:38.052Z</time></trkpt><trkpt lat="47.28196240965955" lon="-1.5897240769132877"><ele>51.0</ele><time>2026-04-06T16:42:40.056Z</time></trkpt><trkpt lat="47.28190365251832" lon="-1.5898448601379895"><ele>51.166666666666664</ele><time>2026-04-06T16:42:42.051Z</time></trkpt><trkpt lat="47.2818267066472" lon="-1.58997142687588"><ele>51.33333333333333</ele><time>2026-04-06T16:42:44.059Z</time></trkpt><trkpt lat="47.28177997753702" lon="-1.5900360513493326"><ele>51.5</ele><time>2026-04-06T16:42:45.056Z</time></trkpt><trkpt lat="47.28170508523218" lon="-1.590162534268191"><ele>51.666666666666664</ele><time>2026-04-06T16:42:47.055Z</time></trkpt><trkpt lat="47.28167285681449" lon="-1.590242413805416"><ele>51.83333333333333</ele><time>2026-04-06T16:42:48.063Z</time></trkpt><trkpt lat="47.281627971723005" lon="-1.5903095528498201"><ele>52.0</ele><time>2026-04-06T16:42:49.057Z</time></trkpt><trkpt lat="47.28157763839446" lon="-1.5904260613039045"><ele>52.2</ele><time>2026-04-06T16:42:51.049Z</time></trkpt><trkpt lat="47.2815029556372" lon="-1.590540809558323"><ele>52.400000000000006</ele><time>2026-04-06T16:42:53.056Z</time></trkpt><trkpt lat="47.28145463396542" lon="-1.5906023327276022"><ele>52.599999999999994</ele><time>2026-04-06T16:42:54.043Z</time></trkpt><trkpt lat="47.2813750477948" lon="-1.590722026304892"><ele>52.8</ele><time>2026-04-06T16:42:56.057Z</time></trkpt><trkpt lat="47.28128645107828" lon="-1.590845156462482"><ele>53.0</ele><time>2026-04-06T16:42:58.052Z</time></trkpt><trkpt lat="47.281210385307" lon="-1.5909564681366002"><ele>53.00000000000001</ele><time>2026-04-06T16:43:00.047Z</time></trkpt><trkpt lat="47.28112991903655" lon="-1.5910845436170613"><ele>53.0</ele><time>2026-04-06T16:43:02.045Z</time></trkpt><trkpt lat="47.28107816078447" lon="-1.5911472402527844"><ele>53.0</ele><time>2026-04-06T16:43:03.056Z</time></trkpt><trkpt lat="47.281034071973785" lon="-1.5912221744671382"><ele>53.0</ele><time>2026-04-06T16:43:04.059Z</time></trkpt><trkpt lat="47.2809762368419" lon="-1.591266430915884"><ele>53.00000000000001</ele><time>2026-04-06T16:43:05.059Z</time></trkpt><trkpt lat="47.280932189940735" lon="-1.5913428738728084"><ele>53.0</ele><time>2026-04-06T16:43:06.052Z</time></trkpt><trkpt lat="47.28089937478982" lon="-1.5914266090854923"><ele>53.0</ele><time>2026-04-06T16:43:07.059Z</time></trkpt><trkpt lat="47.280851053118035" lon="-1.5915805846467534"><ele>53.0</ele><time>2026-04-06T16:43:09.053Z</time></trkpt><trkpt lat="47.280756253793164" lon="-1.5917016193285507"><ele>53.0</ele><time>2026-04-06T16:43:11.05Z</time></trkpt><trkpt lat="47.28069913112305" lon="-1.5917505696430725"><ele>53.0</ele><time>2026-04-06T16:43:12.05Z</time></trkpt><trkpt lat="47.28061405480586" lon="-1.5918708499535843"><ele>53.0</ele><time>2026-04-06T16:43:14.054Z</time></trkpt><trkpt lat="47.280574450313374" lon="-1.5919486340150162"><ele>53.2</ele><time>2026-04-06T16:43:15.055Z</time></trkpt><trkpt lat="47.280523739799186" lon="-1.5920114982888027"><ele>53.4</ele><time>2026-04-06T16:43:16.045Z</time></trkpt><trkpt lat="47.28044440508567" lon="-1.5921399928644226"><ele>53.60000000000001</ele><time>2026-04-06T16:43:18.049Z</time></trkpt><trkpt lat="47.28034826465629" lon="-1.5922716725632475"><ele>53.800000000000004</ele><time>2026-04-06T16:43:20.054Z</time></trkpt><trkpt lat="47.28030191273175" lon="-1.592351971195631"><ele>54.0</ele><time>2026-04-06T16:43:21.059Z</time></trkpt><trkpt lat="47.28025388442658" lon="-1.5924298390760947"><ele>54.0</ele><time>2026-04-06T16:43:22.047Z</time></trkpt><trkpt lat="47.280166083990856" lon="-1.5925707388684083"><ele>54.0</ele><time>2026-04-06T16:43:24.052Z</time></trkpt><trkpt lat="47.28012455166064" lon="-1.592645673082762"><ele>54.0</ele><time>2026-04-06T16:43:25.06Z</time></trkpt><trkpt lat="47.280071200846955" lon="-1.5927212778493693"><ele>54.0</ele><time>2026-04-06T16:43:26.048Z</time></trkpt><trkpt lat="47.28002551947467" lon="-1.5927920211121371"><ele>54.0</ele><time>2026-04-06T16:43:27.055Z</time></trkpt><trkpt lat="47.27997635961257" lon="-1.592854298652702"><ele>54.0</ele><time>2026-04-06T16:43:28.056Z</time></trkpt><trkpt lat="47.279899413741454" lon="-1.5929914265885883"><ele>54.0</ele><time>2026-04-06T16:43:30.046Z</time></trkpt><trkpt lat="47.27985633075915" lon="-1.5930617507561977"><ele>54.0</ele><time>2026-04-06T16:43:31.056Z</time></trkpt><trkpt lat="47.279776283583864" lon="-1.5931875631228025"><ele>54.0</ele><time>2026-04-06T16:43:33.059Z</time></trkpt><trkpt lat="47.279722765132114" lon="-1.5932635869845684"><ele>54.0</ele><time>2026-04-06T16:43:34.055Z</time></trkpt><trkpt lat="47.279657176739796" lon="-1.5933330729618607"><ele>54.0</ele><time>2026-04-06T16:43:35.046Z</time></trkpt><trkpt lat="47.279609022706076" lon="-1.5934053249671993"><ele>54.0</ele><time>2026-04-06T16:43:36.055Z</time></trkpt><trkpt lat="47.279562503143474" lon="-1.5934848692282972"><ele>53.400000000000006</ele><time>2026-04-06T16:43:37.06Z</time></trkpt><trkpt lat="47.27948526390575" lon="-1.593616968022281"><ele>52.800000000000004</ele><time>2026-04-06T16:43:39.046Z</time></trkpt><trkpt lat="47.27943321228705" lon="-1.5937000326827109"><ele>52.2</ele><time>2026-04-06T16:43:40.058Z</time></trkpt><trkpt lat="47.279400313317105" lon="-1.5937873721137585"><ele>51.599999999999994</ele><time>2026-04-06T16:43:41.061Z</time></trkpt><trkpt lat="47.279357397972866" lon="-1.593958614395553"><ele>51.0</ele><time>2026-04-06T16:43:43.061Z</time></trkpt><trkpt lat="47.27936062500559" lon="-1.594137735666329"><ele>50.85714285714286</ele><time>2026-04-06T16:43:45.061Z</time></trkpt><trkpt lat="47.27937479042195" lon="-1.594229349867994"><ele>50.714285714285715</ele><time>2026-04-06T16:43:46.048Z</time></trkpt><trkpt lat="47.279376341074034" lon="-1.5943344589337654"><ele>50.57142857142857</ele><time>2026-04-06T16:43:47.052Z</time></trkpt><trkpt lat="47.27932931859724" lon="-1.59447150305062"><ele>50.42857142857143</ele><time>2026-04-06T16:43:49.057Z</time></trkpt><trkpt lat="47.27927378848873" lon="-1.5945222973838398"><ele>50.285714285714285</ele><time>2026-04-06T16:43:50.053Z</time></trkpt><trkpt lat="47.279207110449" lon="-1.5945579204723188"><ele>50.142857142857146</ele><time>2026-04-06T16:43:51.058Z</time></trkpt><trkpt lat="47.27914219260894" lon="-1.5945590939387628"><ele>50.0</ele><time>2026-04-06T16:43:52.048Z</time></trkpt><trkpt lat="47.27902166084133" lon="-1.5945954713985273"><ele>50.00000000000001</ele><time>2026-04-06T16:43:54.05Z</time></trkpt><trkpt lat="47.27895678491078" lon="-1.5946510434165546"><ele>50.0</ele><time>2026-04-06T16:43:55.054Z</time></trkpt><trkpt lat="47.27890519429676" lon="-1.5947237983360836"><ele>50.0</ele><time>2026-04-06T16:43:56.05Z</time></trkpt><trkpt lat="47.27886885874651" lon="-1.5948047675207209"><ele>50.0</ele><time>2026-04-06T16:43:57.059Z</time></trkpt><trkpt lat="47.278830385810956" lon="-1.5948849823340725"><ele>50.0</ele><time>2026-04-06T16:43:58.054Z</time></trkpt><trkpt lat="47.278792541518136" lon="-1.5949776023641182"><ele>50.00000000000001</ele><time>2026-04-06T16:43:59.051Z</time></trkpt><trkpt lat="47.27875587069176" lon="-1.5950622595861508"><ele>50.0</ele><time>2026-04-06T16:44:00.054Z</time></trkpt><trkpt lat="47.2787166014754" lon="-1.5951500181123568"><ele>50.00000000000001</ele><time>2026-04-06T16:44:01.055Z</time></trkpt><trkpt lat="47.27868638471447" lon="-1.5952402912095145"><ele>50.0</ele><time>2026-04-06T16:44:02.051Z</time></trkpt><trkpt lat="47.27865604222499" lon="-1.5953247807934836"><ele>50.0</ele><time>2026-04-06T16:44:03.047Z</time></trkpt><trkpt lat="47.27862544827841" lon="-1.595417149366434"><ele>50.0</ele><time>2026-04-06T16:44:04.051Z</time></trkpt><trkpt lat="47.27858588569544" lon="-1.5955096017584163"><ele>50.00000000000001</ele><time>2026-04-06T16:44:05.057Z</time></trkpt><trkpt lat="47.278520590669736" lon="-1.595668438823517"><ele>50.0</ele><time>2026-04-06T16:44:07.055Z</time></trkpt><trkpt lat="47.278480315624996" lon="-1.5958245098605712"><ele>50.0</ele><time>2026-04-06T16:44:09.058Z</time></trkpt><trkpt lat="47.27843869947575" lon="-1.5959128551199993"><ele>50.0</ele><time>2026-04-06T16:44:10.054Z</time></trkpt><trkpt lat="47.27839368865572" lon="-1.5960612986251674"><ele>50.0</ele><time>2026-04-06T16:44:12.055Z</time></trkpt><trkpt lat="47.27834700145505" lon="-1.596203455702957"><ele>50.0</ele><time>2026-04-06T16:44:14.058Z</time></trkpt><trkpt lat="47.278310456357225" lon="-1.596338907258209"><ele>50.0</ele><time>2026-04-06T16:44:16.056Z</time></trkpt><trkpt lat="47.27829226762734" lon="-1.596514508129653"><ele>50.00000000000001</ele><time>2026-04-06T16:44:18.056Z</time></trkpt><trkpt lat="47.27830421183936" lon="-1.5966966468855708"><ele>50.0</ele><time>2026-04-06T16:44:20.055Z</time></trkpt><trkpt lat="47.278330698653384" lon="-1.5967820584788888"><ele>50.0</ele><time>2026-04-06T16:44:21.061Z</time></trkpt><trkpt lat="47.27834461261265" lon="-1.5968772768989177"><ele>50.0</ele><time>2026-04-06T16:44:22.056Z</time></trkpt><trkpt lat="47.27834683381699" lon="-1.5969747584328027"><ele>50.00000000000001</ele><time>2026-04-06T16:44:23.057Z</time></trkpt><trkpt lat="47.278339080556556" lon="-1.5970713179573388"><ele>50.0</ele><time>2026-04-06T16:44:24.053Z</time></trkpt><trkpt lat="47.278303080282434" lon="-1.597249768675861"><ele>50.16666666666667</ele><time>2026-04-06T16:44:26.056Z</time></trkpt><trkpt lat="47.278235480233356" lon="-1.5973059274271104"><ele>50.333333333333336</ele><time>2026-04-06T16:44:27.046Z</time></trkpt><trkpt lat="47.27817592681132" lon="-1.597360912711916"><ele>50.5</ele><time>2026-04-06T16:44:28.05Z</time></trkpt><trkpt lat="47.27804521103136" lon="-1.5974217653289413"><ele>50.66666666666667</ele><time>2026-04-06T16:44:30.046Z</time></trkpt><trkpt lat="47.277982053390964" lon="-1.5974555443987226"><ele>50.833333333333336</ele><time>2026-04-06T16:44:31.048Z</time></trkpt><trkpt lat="47.27791177113287" lon="-1.5975262038424587"><ele>51.0</ele><time>2026-04-06T16:44:32.046Z</time></trkpt><trkpt lat="47.2778341547095" lon="-1.597689650954304"><ele>50.714285714285715</ele><time>2026-04-06T16:44:34.045Z</time></trkpt><trkpt lat="47.27779232901268" lon="-1.5977827738985397"><ele>50.42857142857143</ele><time>2026-04-06T16:44:35.048Z</time></trkpt><trkpt lat="47.27777032651685" lon="-1.5978709515199045"><ele>50.14285714285714</ele><time>2026-04-06T16:44:36.055Z</time></trkpt><trkpt lat="47.277727788358256" lon="-1.5979545190945248"><ele>49.85714285714286</ele><time>2026-04-06T16:44:37.044Z</time></trkpt><trkpt lat="47.27769463793121" lon="-1.5980554372087101"><ele>49.57142857142857</ele><time>2026-04-06T16:44:38.051Z</time></trkpt><trkpt lat="47.27767506618731" lon="-1.598148895429073"><ele>49.285714285714285</ele><time>2026-04-06T16:44:39.052Z</time></trkpt><trkpt lat="47.277638646818026" lon="-1.5982494782671315"><ele>49.0</ele><time>2026-04-06T16:44:40.052Z</time></trkpt><trkpt lat="47.277611531361266" lon="-1.5983379911646232"><ele>48.99999999999999</ele><time>2026-04-06T16:44:41.049Z</time></trkpt><trkpt lat="47.27756421551786" lon="-1.598510909827052"><ele>49.0</ele><time>2026-04-06T16:44:43.063Z</time></trkpt><trkpt lat="47.277525952129885" lon="-1.5986033622190343"><ele>49.0</ele><time>2026-04-06T16:44:44.054Z</time></trkpt><trkpt lat="47.27749330461703" lon="-1.5986964851632701"><ele>49.0</ele><time>2026-04-06T16:44:45.045Z</time></trkpt><trkpt lat="47.27746488996527" lon="-1.5987963136300434"><ele>48.99999999999999</ele><time>2026-04-06T16:44:46.055Z</time></trkpt><trkpt lat="47.27743530184708" lon="-1.5988840721562494"><ele>49.0</ele><time>2026-04-06T16:44:47.063Z</time></trkpt><trkpt lat="47.27742013060234" lon="-1.5989788714811195"><ele>49.0</ele><time>2026-04-06T16:44:48.055Z</time></trkpt><trkpt lat="47.277379185005344" lon="-1.5990854892894617"><ele>49.0</ele><time>2026-04-06T16:44:49.046Z</time></trkpt><trkpt lat="47.27734976452521" lon="-1.5991863235846153"><ele>49.0</ele><time>2026-04-06T16:44:50.063Z</time></trkpt><trkpt lat="47.277315440631725" lon="-1.5992867387846106"><ele>49.0</ele><time>2026-04-06T16:44:51.051Z</time></trkpt><trkpt lat="47.27727772206745" lon="-1.5993765089675778"><ele>49.0</ele><time>2026-04-06T16:44:52.05Z</time></trkpt><trkpt lat="47.277249475053765" lon="-1.599469212816655"><ele>49.0</ele><time>2026-04-06T16:44:53.045Z</time></trkpt><trkpt lat="47.27721515116028" lon="-1.5995656885221596"><ele>49.0</ele><time>2026-04-06T16:44:54.045Z</time></trkpt><trkpt lat="47.27716138125143" lon="-1.5997468214496968"><ele>49.2</ele><time>2026-04-06T16:44:56.044Z</time></trkpt><trkpt lat="47.27709663104943" lon="-1.5999304689481852"><ele>49.400000000000006</ele><time>2026-04-06T16:44:58.045Z</time></trkpt><trkpt lat="47.2770611336895" lon="-1.6000298783198"><ele>49.6</ele><time>2026-04-06T16:44:59.046Z</time></trkpt><trkpt lat="47.2770302044668" lon="-1.6001398488894105"><ele>49.8</ele><time>2026-04-06T16:45:00.053Z</time></trkpt><trkpt lat="47.27699164771221" lon="-1.600240180270374"><ele>50.0</ele><time>2026-04-06T16:45:01.044Z</time></trkpt><trkpt lat="47.276959000199355" lon="-1.6003401763752105"><ele>50.00000000000001</ele><time>2026-04-06T16:45:02.061Z</time></trkpt><trkpt lat="47.27691897661171" lon="-1.6004381608232858"><ele>50.0</ele><time>2026-04-06T16:45:03.052Z</time></trkpt><trkpt lat="47.27687970739535" lon="-1.600544778631628"><ele>50.0</ele><time>2026-04-06T16:45:04.048Z</time></trkpt><trkpt lat="47.27684450340203" lon="-1.600627256558836"><ele>50.0</ele><time>2026-04-06T16:45:05.049Z</time></trkpt><trkpt lat="47.276813322722234" lon="-1.600725408644975"><ele>50.00000000000001</ele><time>2026-04-06T16:45:06.06Z</time></trkpt><trkpt lat="47.27678096857599" lon="-1.600826075302065"><ele>50.0</ele><time>2026-04-06T16:45:07.057Z</time></trkpt><trkpt lat="47.27674710568718" lon="-1.6009314358249316"><ele>50.00000000000001</ele><time>2026-04-06T16:45:08.057Z</time></trkpt><trkpt lat="47.27671843957833" lon="-1.6010431665942082"><ele>50.0</ele><time>2026-04-06T16:45:09.059Z</time></trkpt><trkpt lat="47.27669346150688" lon="-1.60115221515447"><ele>50.0</ele><time>2026-04-06T16:45:10.056Z</time></trkpt><trkpt lat="47.27667464413426" lon="-1.6012615989908587"><ele>50.0</ele><time>2026-04-06T16:45:11.062Z</time></trkpt><trkpt lat="47.276651342443444" lon="-1.601373748855294"><ele>50.00000000000001</ele><time>2026-04-06T16:45:12.058Z</time></trkpt><trkpt lat="47.27663793139837" lon="-1.6014784388259067"><ele>50.0</ele><time>2026-04-06T16:45:13.047Z</time></trkpt><trkpt lat="47.27661861111156" lon="-1.6015874035671367"><ele>49.833333333333336</ele><time>2026-04-06T16:45:14.056Z</time></trkpt><trkpt lat="47.2766060382568" lon="-1.6016970388606206"><ele>49.66666666666667</ele><time>2026-04-06T16:45:15.051Z</time></trkpt><trkpt lat="47.276590699374" lon="-1.601817402990164"><ele>49.5</ele><time>2026-04-06T16:45:16.056Z</time></trkpt><trkpt lat="47.276575444310225" lon="-1.6019259486362356"><ele>49.33333333333333</ele><time>2026-04-06T16:45:17.048Z</time></trkpt><trkpt lat="47.2765637515553" lon="-1.602036254481973"><ele>49.166666666666664</ele><time>2026-04-06T16:45:18.052Z</time></trkpt><trkpt lat="47.276558051861144" lon="-1.6021472308799645"><ele>49.0</ele><time>2026-04-06T16:45:19.05Z</time></trkpt><trkpt lat="47.27655444764278" lon="-1.6022597998395582"><ele>48.99999999999999</ele><time>2026-04-06T16:45:20.055Z</time></trkpt><trkpt lat="47.276549963324584" lon="-1.6023835167303704"><ele>49.0</ele><time>2026-04-06T16:45:21.054Z</time></trkpt><trkpt lat="47.27654476654462" lon="-1.6025006957367085"><ele>49.0</ele><time>2026-04-06T16:45:22.06Z</time></trkpt><trkpt lat="47.27655352563343" lon="-1.6026152763530637"><ele>49.0</ele><time>2026-04-06T16:45:23.062Z</time></trkpt><trkpt lat="47.276564422107555" lon="-1.6027369815871144"><ele>48.99999999999999</ele><time>2026-04-06T16:45:24.056Z</time></trkpt><trkpt lat="47.276578671342946" lon="-1.6028510592892793"><ele>49.0</ele><time>2026-04-06T16:45:25.051Z</time></trkpt><trkpt lat="47.2765872627937" lon="-1.6029838286355165"><ele>48.99999999999999</ele><time>2026-04-06T16:45:26.061Z</time></trkpt><trkpt lat="47.276598201177336" lon="-1.6030935477480321"><ele>49.0</ele><time>2026-04-06T16:45:27.055Z</time></trkpt><trkpt lat="47.27661022920839" lon="-1.6032122354969411"><ele>49.0</ele><time>2026-04-06T16:45:28.049Z</time></trkpt><trkpt lat="47.27662338879637" lon="-1.603321032600108"><ele>49.0</ele><time>2026-04-06T16:45:29.051Z</time></trkpt><trkpt lat="47.276637554212726" lon="-1.6034396365299852"><ele>48.99999999999999</ele><time>2026-04-06T16:45:30.055Z</time></trkpt><trkpt lat="47.27665670686147" lon="-1.6035597492024336"><ele>49.0</ele><time>2026-04-06T16:45:31.051Z</time></trkpt><trkpt lat="47.27667405740104" lon="-1.6036754194662008"><ele>48.99999999999999</ele><time>2026-04-06T16:45:32.06Z</time></trkpt><trkpt lat="47.27669174321673" lon="-1.6038070153459942"><ele>49.0</ele><time>2026-04-06T16:45:33.046Z</time></trkpt><trkpt lat="47.276706579185344" lon="-1.603936096654836"><ele>49.0</ele><time>2026-04-06T16:45:34.056Z</time></trkpt><trkpt lat="47.27672728248618" lon="-1.604060735554997"><ele>49.0</ele><time>2026-04-06T16:45:35.046Z</time></trkpt><trkpt lat="47.27674341764978" lon="-1.6041787527516522"><ele>48.99999999999999</ele><time>2026-04-06T16:45:36.057Z</time></trkpt><trkpt lat="47.276762528389014" lon="-1.6043048165753524"><ele>49.0</ele><time>2026-04-06T16:45:37.048Z</time></trkpt><trkpt lat="47.27678394415162" lon="-1.6044306289419572"><ele>48.49999999999999</ele><time>2026-04-06T16:45:38.056Z</time></trkpt><trkpt lat="47.27680791639469" lon="-1.6045448742821855"><ele>48.0</ele><time>2026-04-06T16:45:39.047Z</time></trkpt><trkpt lat="47.276829793161966" lon="-1.604655180127923"><ele>47.5</ele><time>2026-04-06T16:45:40.057Z</time></trkpt><trkpt lat="47.276850747919895" lon="-1.6047861054554626"><ele>47.0</ele><time>2026-04-06T16:45:41.05Z</time></trkpt><trkpt lat="47.27686717645011" lon="-1.60491351038367"><ele>46.5</ele><time>2026-04-06T16:45:42.051Z</time></trkpt><trkpt lat="47.27688729301772" lon="-1.6050399933025288"><ele>46.0</ele><time>2026-04-06T16:45:43.054Z</time></trkpt><trkpt lat="47.276904769285835" lon="-1.6051472816631245"><ele>46.0</ele><time>2026-04-06T16:45:44.057Z</time></trkpt><trkpt lat="47.27691382174126" lon="-1.6052502114340712"><ele>46.0</ele><time>2026-04-06T16:45:45.057Z</time></trkpt><trkpt lat="47.27692262273959" lon="-1.6053467709586073"><ele>46.0</ele><time>2026-04-06T16:45:46.059Z</time></trkpt><trkpt lat="47.2769548930668" lon="-1.605485072360938"><ele>46.0</ele><time>2026-04-06T16:45:48.049Z</time></trkpt><trkpt lat="47.27702802517197" lon="-1.6055817157045058"><ele>46.0</ele><time>2026-04-06T16:45:50.061Z</time></trkpt><trkpt lat="47.27713162549517" lon="-1.6055261436864785"><ele>46.0</ele><time>2026-04-06T16:45:52.06Z</time></trkpt><trkpt lat="47.27721188221804" lon="-1.605490939693158"><ele>45.75</ele><time>2026-04-06T16:45:53.058Z</time></trkpt><trkpt lat="47.277296204163946" lon="-1.6054659616217068"><ele>45.5</ele><time>2026-04-06T16:45:54.062Z</time></trkpt><trkpt lat="47.27740596518598" lon="-1.6054142452791382"><ele>45.25</ele><time>2026-04-06T16:45:56.057Z</time></trkpt><trkpt lat="47.27751576811753" lon="-1.605339227245753"><ele>45.0</ele><time>2026-04-06T16:45:58.06Z</time></trkpt><trkpt lat="47.277648663192316" lon="-1.6052466072157074"><ele>45.0</ele><time>2026-04-06T16:46:00.057Z</time></trkpt><trkpt lat="47.277713036208674" lon="-1.605213079603021"><ele>45.0</ele><time>2026-04-06T16:46:01.054Z</time></trkpt><trkpt lat="47.277776361487135" lon="-1.60516806878299"><ele>45.0</ele><time>2026-04-06T16:46:02.053Z</time></trkpt><trkpt lat="47.27785347499631" lon="-1.6051419172450947"><ele>45.0</ele><time>2026-04-06T16:46:03.058Z</time></trkpt><trkpt lat="47.277929037853404" lon="-1.605104450137918"><ele>45.0</ele><time>2026-04-06T16:46:04.057Z</time></trkpt><trkpt lat="47.27801407226108" lon="-1.6050779633238959"><ele>45.0</ele><time>2026-04-06T16:46:05.049Z</time></trkpt><trkpt lat="47.27808091793887" lon="-1.6050456929966854"><ele>44.714285714285715</ele><time>2026-04-06T16:46:06.057Z</time></trkpt><trkpt lat="47.278138250156566" lon="-1.6050030291095423"><ele>44.42857142857143</ele><time>2026-04-06T16:46:07.056Z</time></trkpt><trkpt lat="47.27820174307309" lon="-1.6049602814033672"><ele>44.142857142857146</ele><time>2026-04-06T16:46:08.058Z</time></trkpt><trkpt lat="47.27826171559028" lon="-1.6049223113820001"><ele>43.85714285714286</ele><time>2026-04-06T16:46:09.058Z</time></trkpt><trkpt lat="47.27835542526774" lon="-1.6048347204938576"><ele>43.57142857142857</ele><time>2026-04-06T16:46:11.055Z</time></trkpt><trkpt lat="47.27841761898927" lon="-1.604800103233759"><ele>43.28571428571429</ele><time>2026-04-06T16:46:12.058Z</time></trkpt><trkpt lat="47.27848220155321" lon="-1.604762468488519"><ele>43.0</ele><time>2026-04-06T16:46:13.059Z</time></trkpt><trkpt lat="47.278542341708466" lon="-1.60473321564645"><ele>43.0</ele><time>2026-04-06T16:46:14.053Z</time></trkpt><trkpt lat="47.27860591844402" lon="-1.6047322936371011"><ele>43.0</ele><time>2026-04-06T16:46:15.055Z</time></trkpt><trkpt lat="47.278676410249695" lon="-1.604754170404379"><ele>43.0</ele><time>2026-04-06T16:46:16.057Z</time></trkpt><trkpt lat="47.278743172108456" lon="-1.604786608369653"><ele>43.0</ele><time>2026-04-06T16:46:17.047Z</time></trkpt><trkpt lat="47.27885071192615" lon="-1.604881407694523"><ele>43.0</ele><time>2026-04-06T16:46:19.05Z</time></trkpt><trkpt lat="47.27891353429042" lon="-1.6049268376097128"><ele>43.0</ele><time>2026-04-06T16:46:20.061Z</time></trkpt><trkpt lat="47.27897773966871" lon="-1.6049802303329157"><ele>43.0</ele><time>2026-04-06T16:46:21.049Z</time></trkpt><trkpt lat="47.279037712185904" lon="-1.6050338745132136"><ele>43.0</ele><time>2026-04-06T16:46:22.058Z</time></trkpt><trkpt lat="47.27910229474984" lon="-1.6050777118668007"><ele>43.0</ele><time>2026-04-06T16:46:23.056Z</time></trkpt><trkpt lat="47.279232214249" lon="-1.6051820665612864"><ele>43.0</ele><time>2026-04-06T16:46:25.048Z</time></trkpt><trkpt lat="47.27936334912412" lon="-1.6052818950280596"><ele>43.0</ele><time>2026-04-06T16:46:27.055Z</time></trkpt><trkpt lat="47.27942730304532" lon="-1.605302682147925"><ele>42.85714285714286</ele><time>2026-04-06T16:46:28.085Z</time></trkpt><trkpt lat="47.27950060278855" lon="-1.6053402330741335"><ele>42.714285714285715</ele><time>2026-04-06T16:46:29.072Z</time></trkpt><trkpt lat="47.27956925057553" lon="-1.6053855791702916"><ele>42.57142857142857</ele><time>2026-04-06T16:46:30.056Z</time></trkpt><trkpt lat="47.27963479705833" lon="-1.6054124850794722"><ele>42.42857142857143</ele><time>2026-04-06T16:46:31.056Z</time></trkpt><trkpt lat="47.279700888364836" lon="-1.6054531373098542"><ele>42.285714285714285</ele><time>2026-04-06T16:46:32.061Z</time></trkpt><trkpt lat="47.27977624167435" lon="-1.6054831445232085"><ele>42.142857142857146</ele><time>2026-04-06T16:46:33.052Z</time></trkpt><trkpt lat="47.27984279398553" lon="-1.6055288258954934"><ele>42.0</ele><time>2026-04-06T16:46:34.06Z</time></trkpt><trkpt lat="47.279907083182856" lon="-1.6055717412397317"><ele>42.0</ele><time>2026-04-06T16:46:35.056Z</time></trkpt><trkpt lat="47.279967181428596" lon="-1.605613734574621"><ele>42.0</ele><time>2026-04-06T16:46:36.059Z</time></trkpt><trkpt lat="47.280017682395204" lon="-1.605677101762598"><ele>42.0</ele><time>2026-04-06T16:46:37.057Z</time></trkpt><trkpt lat="47.28011415810071" lon="-1.6057907603696042"><ele>42.0</ele><time>2026-04-06T16:46:39.058Z</time></trkpt><trkpt lat="47.28018691302024" lon="-1.6058843862280303"><ele>42.0</ele><time>2026-04-06T16:46:41.046Z</time></trkpt><trkpt lat="47.28022450585596" lon="-1.605997039006656"><ele>42.0</ele><time>2026-04-06T16:46:42.059Z</time></trkpt><trkpt lat="47.28026117668234" lon="-1.6060876473799404"><ele>41.6</ele><time>2026-04-06T16:46:43.056Z</time></trkpt><trkpt lat="47.28032902818851" lon="-1.6062466520831047"><ele>41.2</ele><time>2026-04-06T16:46:45.055Z</time></trkpt><trkpt lat="47.28036821358584" lon="-1.6063230950400291"><ele>40.8</ele><time>2026-04-06T16:46:46.062Z</time></trkpt><trkpt lat="47.2804392083057" lon="-1.6064370051041306"><ele>40.4</ele><time>2026-04-06T16:46:48.055Z</time></trkpt><trkpt lat="47.28046946697615" lon="-1.6065297089532078"><ele>40.0</ele><time>2026-04-06T16:46:49.056Z</time></trkpt><trkpt lat="47.28052260824226" lon="-1.6066733747735682"><ele>40.0</ele><time>2026-04-06T16:46:51.06Z</time></trkpt><trkpt lat="47.28057461795144" lon="-1.606832463295764"><ele>40.0</ele><time>2026-04-06T16:46:53.055Z</time></trkpt><trkpt lat="47.28064531930469" lon="-1.6069671604797309"><ele>40.0</ele><time>2026-04-06T16:46:55.056Z</time></trkpt><trkpt lat="47.28068123575978" lon="-1.6070493869498437"><ele>40.0</ele><time>2026-04-06T16:46:56.058Z</time></trkpt><trkpt lat="47.280738023153766" lon="-1.607201015578217"><ele>40.0</ele><time>2026-04-06T16:46:58.06Z</time></trkpt><trkpt lat="47.28079061959617" lon="-1.6073756944403121"><ele>41.2</ele><time>2026-04-06T16:47:00.057Z</time></trkpt><trkpt lat="47.2808443475955" lon="-1.607500333340473"><ele>42.4</ele><time>2026-04-06T16:47:02.061Z</time></trkpt><trkpt lat="47.28090691850267" lon="-1.6076053585872125"><ele>43.599999999999994</ele><time>2026-04-06T16:47:04.052Z</time></trkpt><trkpt lat="47.28097627875142" lon="-1.6077399719521475"><ele>44.8</ele><time>2026-04-06T16:47:06.066Z</time></trkpt><trkpt lat="47.281044800809845" lon="-1.6078377887621593"><ele>46.0</ele><time>2026-04-06T16:47:08.045Z</time></trkpt><trkpt lat="47.281043292067274" lon="-1.6079873219147398"><ele>46.599999999999994</ele><time>2026-04-06T16:47:09.054Z</time></trkpt><trkpt lat="47.28110699453138" lon="-1.6080910898760037"><ele>47.2</ele><time>2026-04-06T16:47:11.056Z</time></trkpt><trkpt lat="47.28116005197845" lon="-1.6082089394345955"><ele>47.8</ele><time>2026-04-06T16:47:13.057Z</time></trkpt><trkpt lat="47.281209505207165" lon="-1.6083254478886801"><ele>48.400000000000006</ele><time>2026-04-06T16:47:15.057Z</time></trkpt><trkpt lat="47.281271028376445" lon="-1.6084280423834998"><ele>49.0</ele><time>2026-04-06T16:47:17.049Z</time></trkpt><trkpt lat="47.281379574022516" lon="-1.6084628272816617"><ele>48.800000000000004</ele><time>2026-04-06T16:47:19.057Z</time></trkpt><trkpt lat="47.28146846410565" lon="-1.6084392741337497"><ele>48.6</ele><time>2026-04-06T16:47:21.053Z</time></trkpt><trkpt lat="47.28157659065656" lon="-1.6084057465210635"><ele>48.4</ele><time>2026-04-06T16:47:23.057Z</time></trkpt><trkpt lat="47.281684423840865" lon="-1.6083769965931851"><ele>48.2</ele><time>2026-04-06T16:47:25.056Z</time></trkpt><trkpt lat="47.281784797131344" lon="-1.6083754040315825"><ele>48.0</ele><time>2026-04-06T16:47:27.057Z</time></trkpt><trkpt lat="47.281870376362725" lon="-1.6084283776596267"><ele>48.0</ele><time>2026-04-06T16:47:29.052Z</time></trkpt><trkpt lat="47.281953357204124" lon="-1.6085090953871686"><ele>48.0</ele><time>2026-04-06T16:47:31.055Z</time></trkpt><trkpt lat="47.28202615403317" lon="-1.608625352384158"><ele>48.0</ele><time>2026-04-06T16:47:33.059Z</time></trkpt><trkpt lat="47.2821055306562" lon="-1.608753763140746"><ele>48.0</ele><time>2026-04-06T16:47:35.047Z</time></trkpt><trkpt lat="47.28217811793767" lon="-1.6088720317944967"><ele>48.0</ele><time>2026-04-06T16:47:37.056Z</time></trkpt><trkpt lat="47.28224144321613" lon="-1.6089798230692827"><ele>49.0</ele><time>2026-04-06T16:47:39.057Z</time></trkpt><trkpt lat="47.28231222838841" lon="-1.6090901289150203"><ele>50.0</ele><time>2026-04-06T16:47:41.049Z</time></trkpt><trkpt lat="47.28237936743282" lon="-1.6092007700368847"><ele>51.0</ele><time>2026-04-06T16:47:43.048Z</time></trkpt><trkpt lat="47.2824448720061" lon="-1.609337395058581"><ele>52.0</ele><time>2026-04-06T16:47:45.056Z</time></trkpt><trkpt lat="47.2825133102455" lon="-1.6094412468388763"><ele>53.0</ele><time>2026-04-06T16:47:47.052Z</time></trkpt><trkpt lat="47.28258656807922" lon="-1.6095402371153325"><ele>53.4</ele><time>2026-04-06T16:47:49.059Z</time></trkpt><trkpt lat="47.28264670823447" lon="-1.6096652951106518"><ele>53.8</ele><time>2026-04-06T16:47:51.056Z</time></trkpt><trkpt lat="47.28270986587487" lon="-1.609783396126339"><ele>54.2</ele><time>2026-04-06T16:47:53.061Z</time></trkpt><trkpt lat="47.282764851159676" lon="-1.6098897624775859"><ele>54.6</ele><time>2026-04-06T16:47:55.058Z</time></trkpt><trkpt lat="47.28280286309056" lon="-1.610025549308965"><ele>55.0</ele><time>2026-04-06T16:47:57.056Z</time></trkpt><trkpt lat="47.282846826172694" lon="-1.6101516969516967"><ele>55.0</ele><time>2026-04-06T16:47:59.05Z</time></trkpt><trkpt lat="47.282881024337634" lon="-1.6102994699046111"><ele>55.0</ele><time>2026-04-06T16:48:01.058Z</time></trkpt><trkpt lat="47.28291031908922" lon="-1.6104409564301467"><ele>55.0</ele><time>2026-04-06T16:48:03.051Z</time></trkpt><trkpt lat="47.28290047035299" lon="-1.6105819400414922"><ele>55.0</ele><time>2026-04-06T16:48:05.059Z</time></trkpt><trkpt lat="47.28285902184181" lon="-1.6107371728882294"><ele>55.0</ele><time>2026-04-06T16:48:07.059Z</time></trkpt><trkpt lat="47.282852274409755" lon="-1.6108910646304588"><ele>55.0</ele><time>2026-04-06T16:48:09.048Z</time></trkpt><trkpt lat="47.28288420946084" lon="-1.6110166255399687"><ele>55.0</ele><time>2026-04-06T16:48:11.05Z</time></trkpt><trkpt lat="47.282896782315596" lon="-1.6111282724902136"><ele>55.0</ele><time>2026-04-06T16:48:13.06Z</time></trkpt><trkpt lat="47.282919455363675" lon="-1.6112643945977196"><ele>55.0</ele><time>2026-04-06T16:48:15.059Z</time></trkpt><trkpt lat="47.2829396138408" lon="-1.6114016901716695"><ele>55.0</ele><time>2026-04-06T16:48:17.058Z</time></trkpt><trkpt lat="47.282958598851486" lon="-1.611534710975002"><ele>55.2</ele><time>2026-04-06T16:48:19.048Z</time></trkpt><trkpt lat="47.28296362799339" lon="-1.6116789635285844"><ele>55.4</ele><time>2026-04-06T16:48:21.055Z</time></trkpt><trkpt lat="47.28298034989022" lon="-1.6118037700668086"><ele>55.599999999999994</ele><time>2026-04-06T16:48:23.048Z</time></trkpt><trkpt lat="47.28298064325683" lon="-1.611955985428404"><ele>55.8</ele><time>2026-04-06T16:48:25.056Z</time></trkpt><trkpt lat="47.28300256193362" lon="-1.6120745055392496"><ele>56.0</ele><time>2026-04-06T16:48:27.055Z</time></trkpt><trkpt lat="47.283015386245474" lon="-1.6122124716654533"><ele>56.199999999999996</ele><time>2026-04-06T16:48:29.048Z</time></trkpt><trkpt lat="47.28302464824848" lon="-1.6123703029021734"><ele>56.39999999999999</ele><time>2026-04-06T16:48:31.056Z</time></trkpt><trkpt lat="47.283037011555656" lon="-1.61250743083806"><ele>56.6</ele><time>2026-04-06T16:48:33.057Z</time></trkpt><trkpt lat="47.28304799184881" lon="-1.6126494202777861"><ele>56.8</ele><time>2026-04-06T16:48:35.057Z</time></trkpt><trkpt lat="47.283063833645805" lon="-1.6127815190717696"><ele>57.0</ele><time>2026-04-06T16:48:37.059Z</time></trkpt><trkpt lat="47.28307066489689" lon="-1.6129247657969714"><ele>57.400000000000006</ele><time>2026-04-06T16:48:39.049Z</time></trkpt><trkpt lat="47.2831082158231" lon="-1.6130364127472163"><ele>57.800000000000004</ele><time>2026-04-06T16:48:41.049Z</time></trkpt><trkpt lat="47.28312556636266" lon="-1.6131733730450395"><ele>58.2</ele><time>2026-04-06T16:48:43.047Z</time></trkpt><trkpt lat="47.283137594393715" lon="-1.6133171226844314"><ele>58.6</ele><time>2026-04-06T16:48:45.047Z</time></trkpt><trkpt lat="47.28316898462109" lon="-1.6134731937214857"><ele>59.0</ele><time>2026-04-06T16:48:47.054Z</time></trkpt><trkpt lat="47.283235034018084" lon="-1.6135938093081243"><ele>59.00000000000001</ele><time>2026-04-06T16:48:49.048Z</time></trkpt><trkpt lat="47.28330066431992" lon="-1.6136305220440157"><ele>59.0</ele><time>2026-04-06T16:48:51.057Z</time></trkpt><trkpt lat="47.283391146964654" lon="-1.61367813125403"><ele>59.0</ele><time>2026-04-06T16:48:53.056Z</time></trkpt><trkpt lat="47.283455897166654" lon="-1.6136982478216417"><ele>59.0</ele><time>2026-04-06T16:48:55.053Z</time></trkpt><trkpt lat="47.28353745308451" lon="-1.6137469466790684"><ele>59.00000000000001</ele><time>2026-04-06T16:48:57.056Z</time></trkpt><trkpt lat="47.2836288577386" lon="-1.6137789655491837"><ele>59.0</ele><time>2026-04-06T16:48:59.047Z</time></trkpt><trkpt lat="47.283697589344605" lon="-1.6138082183912525"><ele>59.400000000000006</ele><time>2026-04-06T16:49:00.045Z</time></trkpt><trkpt lat="47.28380609308116" lon="-1.6138814762249718"><ele>59.800000000000004</ele><time>2026-04-06T16:49:02.051Z</time></trkpt><trkpt lat="47.283888319551274" lon="-1.6139346174910794"><ele>60.199999999999996</ele><time>2026-04-06T16:49:03.052Z</time></trkpt><trkpt lat="47.28395034563474" lon="-1.613989770413948"><ele>60.599999999999994</ele><time>2026-04-06T16:49:05.056Z</time></trkpt><trkpt lat="47.284052018120214" lon="-1.6140391398236285"><ele>61.0</ele><time>2026-04-06T16:49:07.058Z</time></trkpt><trkpt lat="47.28412699424408" lon="-1.6140887606904042"><ele>61.49999999999999</ele><time>2026-04-06T16:49:08.058Z</time></trkpt><trkpt lat="47.284204987853094" lon="-1.6141217853889"><ele>62.0</ele><time>2026-04-06T16:49:09.048Z</time></trkpt><trkpt lat="47.28427321654491" lon="-1.6141561511919034"><ele>62.5</ele><time>2026-04-06T16:49:10.049Z</time></trkpt><trkpt lat="47.28433566172354" lon="-1.614176854492737"><ele>63.0</ele><time>2026-04-06T16:49:11.056Z</time></trkpt><trkpt lat="47.28441751100801" lon="-1.6141847334817183"><ele>63.49999999999999</ele><time>2026-04-06T16:49:12.06Z</time></trkpt><trkpt lat="47.28452173997395" lon="-1.6142108012005818"><ele>64.0</ele><time>2026-04-06T16:49:14.044Z</time></trkpt><trkpt lat="47.284625759392306" lon="-1.6142444126322997"><ele>64.0</ele><time>2026-04-06T16:49:16.061Z</time></trkpt><trkpt lat="47.28469461672686" lon="-1.6142355278149378"><ele>64.0</ele><time>2026-04-06T16:49:17.053Z</time></trkpt><trkpt lat="47.28480328810148" lon="-1.614188672976209"><ele>64.0</ele><time>2026-04-06T16:49:19.048Z</time></trkpt><trkpt lat="47.28490340993486" lon="-1.6142263077214491"><ele>64.0</ele><time>2026-04-06T16:49:21.157Z</time></trkpt><trkpt lat="47.28501250040464" lon="-1.6142934467658534"><ele>64.0</ele><time>2026-04-06T16:49:23.057Z</time></trkpt><trkpt lat="47.28513852231883" lon="-1.6143546346590056"><ele>64.2</ele><time>2026-04-06T16:49:25.057Z</time></trkpt><trkpt lat="47.28521400135689" lon="-1.6143915150329604"><ele>64.4</ele><time>2026-04-06T16:49:27.061Z</time></trkpt><trkpt lat="47.28527187839829" lon="-1.6144482605174317"><ele>64.6</ele><time>2026-04-06T16:49:28.049Z</time></trkpt><trkpt lat="47.285377867563895" lon="-1.6145490948125856"><ele>64.8</ele><time>2026-04-06T16:49:30.055Z</time></trkpt><trkpt lat="47.285417220599285" lon="-1.614671219141795"><ele>65.0</ele><time>2026-04-06T16:49:32.053Z</time></trkpt><trkpt lat="47.28550267410212" lon="-1.614770796151473"><ele>64.33333333333334</ele><time>2026-04-06T16:49:34.05Z</time></trkpt><trkpt lat="47.28556126360529" lon="-1.614827960731103"><ele>63.66666666666667</ele><time>2026-04-06T16:49:35.055Z</time></trkpt><trkpt lat="47.285618050999275" lon="-1.6148979496225853"><ele>63.0</ele><time>2026-04-06T16:49:36.047Z</time></trkpt><trkpt lat="47.28570987474852" lon="-1.614978751169159"><ele>62.33333333333333</ele><time>2026-04-06T16:49:38.055Z</time></trkpt><trkpt lat="47.28576251310044" lon="-1.6150313895210764"><ele>61.666666666666664</ele><time>2026-04-06T16:49:40.052Z</time></trkpt><trkpt lat="47.28585391775452" lon="-1.6150054894402763"><ele>61.0</ele><time>2026-04-06T16:49:42.055Z</time></trkpt><trkpt lat="47.28589909621262" lon="-1.6149315610543031"><ele>61.0</ele><time>2026-04-06T16:49:44.044Z</time></trkpt><trkpt lat="47.285973988517455" lon="-1.6148546151831884"><ele>60.99999999999999</ele><time>2026-04-06T16:49:46.048Z</time></trkpt><trkpt lat="47.286069248847" lon="-1.6147837042823572"><ele>60.99999999999999</ele><time>2026-04-06T16:49:48.046Z</time></trkpt><trkpt lat="47.28614954747938" lon="-1.6147020645454662"><ele>61.0</ele><time>2026-04-06T16:49:50.055Z</time></trkpt><trkpt lat="47.286218530542484" lon="-1.6146339196726816"><ele>61.0</ele><time>2026-04-06T16:49:52.056Z</time></trkpt><trkpt lat="47.28631550916218" lon="-1.614562254400565"><ele>61.0</ele><time>2026-04-06T16:49:54.057Z</time></trkpt><trkpt lat="47.28641462516718" lon="-1.6145030781641736"><ele>60.99999999999999</ele><time>2026-04-06T16:49:56.046Z</time></trkpt><trkpt lat="47.286504143893055" lon="-1.6144352685675158"><ele>60.99999999999999</ele><time>2026-04-06T16:49:58.057Z</time></trkpt><trkpt lat="47.286602170250646" lon="-1.6143776010736957"><ele>61.0</ele><time>2026-04-06T16:50:00.046Z</time></trkpt><trkpt lat="47.28668267843061" lon="-1.6143045946970715"><ele>61.0</ele><time>2026-04-06T16:50:02.051Z</time></trkpt><trkpt lat="47.2867685510286" lon="-1.6142389643952382"><ele>61.0</ele><time>2026-04-06T16:50:04.048Z</time></trkpt><trkpt lat="47.28685283106499" lon="-1.6141664609328044"><ele>60.99999999999999</ele><time>2026-04-06T16:50:06.055Z</time></trkpt><trkpt lat="47.2869448224523" lon="-1.6141013335451615"><ele>60.99999999999999</ele><time>2026-04-06T16:50:08.048Z</time></trkpt><trkpt lat="47.28702273224228" lon="-1.6140131559237967"><ele>61.0</ele><time>2026-04-06T16:50:10.059Z</time></trkpt><trkpt lat="47.287093894600204" lon="-1.6139135789141188"><ele>61.0</ele><time>2026-04-06T16:50:12.045Z</time></trkpt><trkpt lat="47.28717146911406" lon="-1.613812828437997"><ele>61.0</ele><time>2026-04-06T16:50:14.057Z</time></trkpt><trkpt lat="47.28723688986831" lon="-1.6137080546483524"><ele>60.99999999999999</ele><time>2026-04-06T16:50:16.05Z</time></trkpt><trkpt lat="47.28731023152106" lon="-1.6136299353107937"><ele>60.99999999999999</ele><time>2026-04-06T16:50:18.058Z</time></trkpt><trkpt lat="47.28738612965428" lon="-1.6135682445034512"><ele>61.0</ele><time>2026-04-06T16:50:20.047Z</time></trkpt><trkpt lat="47.2874800069698" lon="-1.6135694179698952"><ele>61.0</ele><time>2026-04-06T16:50:22.058Z</time></trkpt><trkpt lat="47.28759060618215" lon="-1.6135871876046188"><ele>61.166666666666664</ele><time>2026-04-06T16:50:24.06Z</time></trkpt><trkpt lat="47.28765405718916" lon="-1.6136083938196428"><ele>61.33333333333333</ele><time>2026-04-06T16:50:25.063Z</time></trkpt><trkpt lat="47.28771767583423" lon="-1.6136234812453516"><ele>61.5</ele><time>2026-04-06T16:50:26.06Z</time></trkpt><trkpt lat="47.287837914235226" lon="-1.6136210504934319"><ele>61.66666666666667</ele><time>2026-04-06T16:50:28.058Z</time></trkpt><trkpt lat="47.28793715596878" lon="-1.6136011015638836"><ele>61.833333333333336</ele><time>2026-04-06T16:50:30.06Z</time></trkpt><trkpt lat="47.288016700229875" lon="-1.6135881096139677"><ele>62.0</ele><time>2026-04-06T16:50:32.058Z</time></trkpt><trkpt lat="47.288117660253576" lon="-1.6135905403658874"><ele>62.2</ele><time>2026-04-06T16:50:34.061Z</time></trkpt><trkpt lat="47.2882173629918" lon="-1.6135646402850874"><ele>62.400000000000006</ele><time>2026-04-06T16:50:36.056Z</time></trkpt><trkpt lat="47.288354910022846" lon="-1.6135496366784101"><ele>62.599999999999994</ele><time>2026-04-06T16:50:38.059Z</time></trkpt><trkpt lat="47.28844099216842" lon="-1.6135138459518676"><ele>62.8</ele><time>2026-04-06T16:50:40.058Z</time></trkpt><trkpt lat="47.28855607569896" lon="-1.6135099902764087"><ele>63.0</ele><time>2026-04-06T16:50:42.062Z</time></trkpt><trkpt lat="47.288671284958056" lon="-1.6134580224767452"><ele>63.0</ele><time>2026-04-06T16:50:44.055Z</time></trkpt><trkpt lat="47.28877970487558" lon="-1.6134200524553781"><ele>63.0</ele><time>2026-04-06T16:50:46.055Z</time></trkpt><trkpt lat="47.28888556831264" lon="-1.613374454902125"><ele>63.0</ele><time>2026-04-06T16:50:48.057Z</time></trkpt><trkpt lat="47.28899683807724" lon="-1.6133187990650657"><ele>63.0</ele><time>2026-04-06T16:50:50.056Z</time></trkpt><trkpt lat="47.28908937428825" lon="-1.613253923134518"><ele>63.0</ele><time>2026-04-06T16:50:52.058Z</time></trkpt><trkpt lat="47.28922671177172" lon="-1.6132077388480428"><ele>62.833333333333336</ele><time>2026-04-06T16:50:54.061Z</time></trkpt><trkpt lat="47.28929468900644" lon="-1.61319147795589"><ele>62.66666666666667</ele><time>2026-04-06T16:50:55.056Z</time></trkpt><trkpt lat="47.2893500933864" lon="-1.6131466347739223"><ele>62.5</ele><time>2026-04-06T16:50:56.057Z</time></trkpt><trkpt lat="47.28941530459308" lon="-1.6131029650583986"><ele>62.333333333333336</ele><time>2026-04-06T16:50:57.065Z</time></trkpt><trkpt lat="47.2895134147697" lon="-1.6130186431124927"><ele>62.16666666666667</ele><time>2026-04-06T16:50:59.049Z</time></trkpt><trkpt lat="47.289567394226125" lon="-1.6129635740086556"><ele>62.0</ele><time>2026-04-06T16:51:00.058Z</time></trkpt><trkpt lat="47.28962703146719" lon="-1.61290808580966"><ele>62.0</ele><time>2026-04-06T16:51:01.062Z</time></trkpt><trkpt lat="47.289689518555335" lon="-1.6128499992206813"><ele>62.00000000000001</ele><time>2026-04-06T16:51:02.058Z</time></trkpt><trkpt lat="47.2897457192161" lon="-1.6127790045008181"><ele>62.0</ele><time>2026-04-06T16:51:03.051Z</time></trkpt><trkpt lat="47.289803135252825" lon="-1.6127096861615895"><ele>62.0</ele><time>2026-04-06T16:51:04.056Z</time></trkpt><trkpt lat="47.28986310777002" lon="-1.6126502584681033"><ele>62.00000000000001</ele><time>2026-04-06T16:51:05.049Z</time></trkpt><trkpt lat="47.28991955988788" lon="-1.6125761624440667"><ele>62.0</ele><time>2026-04-06T16:51:06.056Z</time></trkpt><trkpt lat="47.28997416798704" lon="-1.612500976772618"><ele>62.0</ele><time>2026-04-06T16:51:07.048Z</time></trkpt><trkpt lat="47.290026932067505" lon="-1.6124271322056767"><ele>61.714285714285715</ele><time>2026-04-06T16:51:08.048Z</time></trkpt><trkpt lat="47.290080953433446" lon="-1.6123552154764647"><ele>61.42857142857143</ele><time>2026-04-06T16:51:09.047Z</time></trkpt><trkpt lat="47.290133382237784" lon="-1.6122755035773033"><ele>61.142857142857146</ele><time>2026-04-06T16:51:10.054Z</time></trkpt><trkpt lat="47.29019004390322" lon="-1.6122097894564384"><ele>60.85714285714286</ele><time>2026-04-06T16:51:11.063Z</time></trkpt><trkpt lat="47.29023614437067" lon="-1.6121412254884953"><ele>60.57142857142857</ele><time>2026-04-06T16:51:12.061Z</time></trkpt><trkpt lat="47.29028631006115" lon="-1.612078780309867"><ele>60.28571428571429</ele><time>2026-04-06T16:51:13.051Z</time></trkpt><trkpt lat="47.29033098560505" lon="-1.612013150008034"><ele>60.0</ele><time>2026-04-06T16:51:14.057Z</time></trkpt><trkpt lat="47.290382869585684" lon="-1.6119531355813257"><ele>60.0</ele><time>2026-04-06T16:51:15.058Z</time></trkpt><trkpt lat="47.290466940074495" lon="-1.6118093021229019"><ele>60.0</ele><time>2026-04-06T16:51:17.058Z</time></trkpt><trkpt lat="47.29052628394895" lon="-1.6116747725769986"><ele>60.0</ele><time>2026-04-06T16:51:19.05Z</time></trkpt><trkpt lat="47.29054267056965" lon="-1.6115223895773398"><ele>60.0</ele><time>2026-04-06T16:51:21.052Z</time></trkpt><trkpt lat="47.29057779074394" lon="-1.611368246378015"><ele>60.0</ele><time>2026-04-06T16:51:23.06Z</time></trkpt><trkpt lat="47.29060000278734" lon="-1.611227178947638"><ele>60.0</ele><time>2026-04-06T16:51:25.048Z</time></trkpt><trkpt lat="47.290645013607374" lon="-1.6111141908928854"><ele>60.0</ele><time>2026-04-06T16:51:27.064Z</time></trkpt><trkpt lat="47.290730006105534" lon="-1.6111189685776932"><ele>60.0</ele><time>2026-04-06T16:51:30.056Z</time></trkpt><trkpt lat="47.29082006965511" lon="-1.6111768037095768"><ele>60.0</ele><time>2026-04-06T16:51:32.058Z</time></trkpt><trkpt lat="47.290912605866126" lon="-1.6113001853242621"><ele>60.0</ele><time>2026-04-06T16:51:34.056Z</time></trkpt><trkpt lat="47.291013691618375" lon="-1.6113913804307685"><ele>60.0</ele><time>2026-04-06T16:51:36.047Z</time></trkpt><trkpt lat="47.291098767935566" lon="-1.6115209646538007"><ele>60.0</ele><time>2026-04-06T16:51:38.049Z</time></trkpt><trkpt lat="47.291150484278134" lon="-1.61158299073727"><ele>60.0</ele><time>2026-04-06T16:51:39.05Z</time></trkpt><trkpt lat="47.291222820102504" lon="-1.611740905793022"><ele>60.0</ele><time>2026-04-06T16:51:41.063Z</time></trkpt><trkpt lat="47.29124666661703" lon="-1.6118508763626327"><ele>59.833333333333336</ele><time>2026-04-06T16:51:42.056Z</time></trkpt><trkpt lat="47.29130802214824" lon="-1.6119923628881685"><ele>59.66666666666667</ele><time>2026-04-06T16:51:44.046Z</time></trkpt><trkpt lat="47.29134750091218" lon="-1.6120665427312366"><ele>59.5</ele><time>2026-04-06T16:51:45.051Z</time></trkpt><trkpt lat="47.29138148952954" lon="-1.6121596656754726"><ele>59.333333333333336</ele><time>2026-04-06T16:51:46.056Z</time></trkpt><trkpt lat="47.29143706154757" lon="-1.6123098693803066"><ele>59.16666666666667</ele><time>2026-04-06T16:51:48.055Z</time></trkpt><trkpt lat="47.291472223631374" lon="-1.6123915929362294"><ele>59.0</ele><time>2026-04-06T16:51:49.057Z</time></trkpt><trkpt lat="47.29150818199598" lon="-1.6124752443298813"><ele>59.00000000000001</ele><time>2026-04-06T16:51:50.058Z</time></trkpt><trkpt lat="47.2915415419706" lon="-1.6125576384380576"><ele>59.0</ele><time>2026-04-06T16:51:51.053Z</time></trkpt><trkpt lat="47.29157645259731" lon="-1.612646821887803"><ele>59.0</ele><time>2026-04-06T16:51:52.056Z</time></trkpt><trkpt lat="47.29161731437527" lon="-1.6127223428353785"><ele>59.0</ele><time>2026-04-06T16:51:53.061Z</time></trkpt><trkpt lat="47.29169501461767" lon="-1.61289635114522"><ele>59.00000000000001</ele><time>2026-04-06T16:51:55.062Z</time></trkpt><trkpt lat="47.2917352477529" lon="-1.6129825171098233"><ele>59.0</ele><time>2026-04-06T16:51:56.057Z</time></trkpt><trkpt lat="47.291771080388955" lon="-1.613070359455061"><ele>58.71428571428571</ele><time>2026-04-06T16:51:57.05Z</time></trkpt><trkpt lat="47.29181181643837" lon="-1.6131633147612336"><ele>58.42857142857143</ele><time>2026-04-06T16:51:58.056Z</time></trkpt><trkpt lat="47.29184601460331" lon="-1.6132499836400274"><ele>58.14285714285714</ele><time>2026-04-06T16:51:59.062Z</time></trkpt><trkpt lat="47.29188809175723" lon="-1.6133415978416925"><ele>57.857142857142854</ele><time>2026-04-06T16:52:00.059Z</time></trkpt><trkpt lat="47.291936497248045" lon="-1.6134300269201522"><ele>57.57142857142857</ele><time>2026-04-06T16:52:01.048Z</time></trkpt><trkpt lat="47.29197266516023" lon="-1.6135120857522016"><ele>57.285714285714285</ele><time>2026-04-06T16:52:02.058Z</time></trkpt><trkpt lat="47.29203163184904" lon="-1.6135810688153036"><ele>57.0</ele><time>2026-04-06T16:52:03.06Z</time></trkpt><trkpt lat="47.29207836095922" lon="-1.6136494651451834"><ele>57.0</ele><time>2026-04-06T16:52:04.047Z</time></trkpt><trkpt lat="47.292113145857385" lon="-1.6137270815685518"><ele>56.99999999999999</ele><time>2026-04-06T16:52:05.047Z</time></trkpt><trkpt lat="47.29216046170079" lon="-1.6138144209995995"><ele>57.0</ele><time>2026-04-06T16:52:06.057Z</time></trkpt><trkpt lat="47.29221205231481" lon="-1.613871669398261"><ele>57.0</ele><time>2026-04-06T16:52:07.056Z</time></trkpt><trkpt lat="47.292254590473405" lon="-1.6139511298403273"><ele>56.99999999999999</ele><time>2026-04-06T16:52:08.054Z</time></trkpt><trkpt lat="47.29229406923734" lon="-1.614029584454013"><ele>57.0</ele><time>2026-04-06T16:52:09.059Z</time></trkpt><trkpt lat="47.29233924769544" lon="-1.6141102183625233"><ele>57.0</ele><time>2026-04-06T16:52:10.057Z</time></trkpt><trkpt lat="47.29238325268709" lon="-1.6141978930696976"><ele>57.6</ele><time>2026-04-06T16:52:11.057Z</time></trkpt><trkpt lat="47.29247826155954" lon="-1.614310964943482"><ele>58.2</ele><time>2026-04-06T16:52:13.061Z</time></trkpt><trkpt lat="47.292578844397596" lon="-1.6143264714643493"><ele>58.8</ele><time>2026-04-06T16:52:15.05Z</time></trkpt><trkpt lat="47.292642588771216" lon="-1.6143294051304593"><ele>59.4</ele><time>2026-04-06T16:52:16.053Z</time></trkpt><trkpt lat="47.2927482426607" lon="-1.6143408883378043"><ele>60.0</ele><time>2026-04-06T16:52:18.057Z</time></trkpt><trkpt lat="47.29288004808807" lon="-1.6143426485374703"><ele>60.0</ele><time>2026-04-06T16:52:20.054Z</time></trkpt><trkpt lat="47.29295452129775" lon="-1.6143466718509927"><ele>60.0</ele><time>2026-04-06T16:52:21.061Z</time></trkpt><trkpt lat="47.293023294813274" lon="-1.6143558919444814"><ele>60.0</ele><time>2026-04-06T16:52:22.058Z</time></trkpt><trkpt lat="47.29309131395751" lon="-1.6143640223905578"><ele>60.0</ele><time>2026-04-06T16:52:23.06Z</time></trkpt><trkpt lat="47.293210546530126" lon="-1.614426970483376"><ele>60.0</ele><time>2026-04-06T16:52:25.059Z</time></trkpt><trkpt lat="47.29327144105667" lon="-1.6144899185761943"><ele>60.0</ele><time>2026-04-06T16:52:26.061Z</time></trkpt><trkpt lat="47.29332868945533" lon="-1.6145691275611656"><ele>59.57142857142857</ele><time>2026-04-06T16:52:27.057Z</time></trkpt><trkpt lat="47.29337634057486" lon="-1.6146536171451347"><ele>59.14285714285714</ele><time>2026-04-06T16:52:28.051Z</time></trkpt><trkpt lat="47.29342239913279" lon="-1.6147376876339452"><ele>58.71428571428571</ele><time>2026-04-06T16:52:29.051Z</time></trkpt><trkpt lat="47.29347235527569" lon="-1.6148234345033903"><ele>58.285714285714285</ele><time>2026-04-06T16:52:30.052Z</time></trkpt><trkpt lat="47.29352038358086" lon="-1.6148976143464584"><ele>57.85714285714285</ele><time>2026-04-06T16:52:31.05Z</time></trkpt><trkpt lat="47.29356715460056" lon="-1.614988138900711"><ele>57.42857142857142</ele><time>2026-04-06T16:52:32.052Z</time></trkpt><trkpt lat="47.293615979186534" lon="-1.6150692757234117"><ele>57.0</ele><time>2026-04-06T16:52:33.053Z</time></trkpt><trkpt lat="47.29366367221558" lon="-1.6151530109360954"><ele>57.0</ele><time>2026-04-06T16:52:34.059Z</time></trkpt><trkpt lat="47.29371417318219" lon="-1.6152376681581282"><ele>57.0</ele><time>2026-04-06T16:52:35.059Z</time></trkpt><trkpt lat="47.29376174048269" lon="-1.6153229121133827"><ele>57.0</ele><time>2026-04-06T16:52:36.051Z</time></trkpt><trkpt lat="47.29381601330572" lon="-1.6154053900405907"><ele>57.0</ele><time>2026-04-06T16:52:37.054Z</time></trkpt><trkpt lat="47.29386781346732" lon="-1.615488119424894"><ele>57.0</ele><time>2026-04-06T16:52:38.057Z</time></trkpt><trkpt lat="47.29391647041523" lon="-1.6155752073988463"><ele>57.0</ele><time>2026-04-06T16:52:39.057Z</time></trkpt><trkpt lat="47.293965211182176" lon="-1.6156676597908284"><ele>57.0</ele><time>2026-04-06T16:52:40.057Z</time></trkpt><trkpt lat="47.29401374240154" lon="-1.615741169081643"><ele>56.99999999999999</ele><time>2026-04-06T16:52:41.049Z</time></trkpt><trkpt lat="47.294059214226245" lon="-1.6158223897233752"><ele>57.0</ele><time>2026-04-06T16:52:42.057Z</time></trkpt><trkpt lat="47.294116588353454" lon="-1.6158950608238725"><ele>57.0</ele><time>2026-04-06T16:52:43.053Z</time></trkpt><trkpt lat="47.29416516148233" lon="-1.6159826517120153"><ele>56.99999999999999</ele><time>2026-04-06T16:52:44.045Z</time></trkpt><trkpt lat="47.294219057119726" lon="-1.6160645429060012"><ele>57.0</ele><time>2026-04-06T16:52:45.053Z</time></trkpt><trkpt lat="47.29427425195211" lon="-1.6161452606335431"><ele>57.0</ele><time>2026-04-06T16:52:46.057Z</time></trkpt><trkpt lat="47.29433062025094" lon="-1.6162257269039901"><ele>56.666666666666664</ele><time>2026-04-06T16:52:47.061Z</time></trkpt><trkpt lat="47.294377600818216" lon="-1.6163025889560731"><ele>56.33333333333333</ele><time>2026-04-06T16:52:48.057Z</time></trkpt><trkpt lat="47.29442269545728" lon="-1.616372158752397"><ele>56.0</ele><time>2026-04-06T16:52:49.045Z</time></trkpt><trkpt lat="47.294470388486324" lon="-1.6164513677373682"><ele>55.666666666666664</ele><time>2026-04-06T16:52:50.059Z</time></trkpt><trkpt lat="47.294523613571464" lon="-1.6165354382261787"><ele>55.33333333333333</ele><time>2026-04-06T16:52:51.056Z</time></trkpt><trkpt lat="47.29458069433206" lon="-1.6166143957540546"><ele>55.0</ele><time>2026-04-06T16:52:52.055Z</time></trkpt><trkpt lat="47.29463182394141" lon="-1.616716822610811"><ele>54.99999999999999</ele><time>2026-04-06T16:52:53.052Z</time></trkpt><trkpt lat="47.2946770023995" lon="-1.6167910024538792"><ele>55.0</ele><time>2026-04-06T16:52:54.054Z</time></trkpt><trkpt lat="47.29472993411803" lon="-1.6168769169613875"><ele>55.0</ele><time>2026-04-06T16:52:55.062Z</time></trkpt><trkpt lat="47.29477888443255" lon="-1.616964591668562"><ele>55.0</ele><time>2026-04-06T16:52:56.063Z</time></trkpt><trkpt lat="47.29487158828163" lon="-1.6170977801099577"><ele>54.99999999999999</ele><time>2026-04-06T16:52:58.053Z</time></trkpt><trkpt lat="47.29491814975375" lon="-1.6171732172385018"><ele>55.0</ele><time>2026-04-06T16:52:59.048Z</time></trkpt><trkpt lat="47.294964208311676" lon="-1.6172492411002677"><ele>54.99999999999999</ele><time>2026-04-06T16:53:00.053Z</time></trkpt><trkpt lat="47.29501043450767" lon="-1.6173172183349889"><ele>55.0</ele><time>2026-04-06T16:53:01.054Z</time></trkpt><trkpt lat="47.29505582251334" lon="-1.6173874586835666"><ele>55.0</ele><time>2026-04-06T16:53:02.077Z</time></trkpt><trkpt lat="47.29510703594172" lon="-1.6174569446608587"><ele>55.0</ele><time>2026-04-06T16:53:03.062Z</time></trkpt><trkpt lat="47.29520355355674" lon="-1.6175754647717042"><ele>54.99999999999999</ele><time>2026-04-06T16:53:05.055Z</time></trkpt><trkpt lat="47.295250324576436" lon="-1.617643022911267"><ele>55.0</ele><time>2026-04-06T16:53:06.061Z</time></trkpt><trkpt lat="47.29528942615473" lon="-1.617718711496906"><ele>54.99999999999999</ele><time>2026-04-06T16:53:07.045Z</time></trkpt><trkpt lat="47.29532886300915" lon="-1.6178012732431457"><ele>55.0</ele><time>2026-04-06T16:53:08.046Z</time></trkpt><trkpt lat="47.29537450247192" lon="-1.617887523026781"><ele>55.0</ele><time>2026-04-06T16:53:09.046Z</time></trkpt><trkpt lat="47.295420728667914" lon="-1.6179645527169275"><ele>55.0</ele><time>2026-04-06T16:53:10.062Z</time></trkpt><trkpt lat="47.295466242402135" lon="-1.6180475335583258"><ele>55.0</ele><time>2026-04-06T16:53:11.057Z</time></trkpt><trkpt lat="47.29551334869796" lon="-1.6181166842594912"><ele>54.99999999999999</ele><time>2026-04-06T16:53:12.059Z</time></trkpt><trkpt lat="47.29556263428861" lon="-1.6181935463115742"><ele>55.0</ele><time>2026-04-06T16:53:13.059Z</time></trkpt><trkpt lat="47.2956389934265" lon="-1.6182870883509686"><ele>55.166666666666664</ele><time>2026-04-06T16:53:15.056Z</time></trkpt><trkpt lat="47.295683375603794" lon="-1.6183617711082272"><ele>55.33333333333333</ele><time>2026-04-06T16:53:16.057Z</time></trkpt><trkpt lat="47.29572528511965" lon="-1.6184403933599762"><ele>55.5</ele><time>2026-04-06T16:53:17.051Z</time></trkpt><trkpt lat="47.2957703378492" lon="-1.618522955106216"><ele>55.66666666666667</ele><time>2026-04-06T16:53:18.056Z</time></trkpt><trkpt lat="47.29581585158342" lon="-1.6185999847963626"><ele>55.833333333333336</ele><time>2026-04-06T16:53:19.055Z</time></trkpt><trkpt lat="47.295888438864885" lon="-1.618758905680495"><ele>56.0</ele><time>2026-04-06T16:53:21.054Z</time></trkpt><trkpt lat="47.29592117019677" lon="-1.61883878521772"><ele>56.00000000000001</ele><time>2026-04-06T16:53:22.06Z</time></trkpt><trkpt lat="47.29589363564485" lon="-1.6189595684424218"><ele>56.0</ele><time>2026-04-06T16:53:23.056Z</time></trkpt><trkpt lat="47.29587335143918" lon="-1.619056798519212"><ele>56.0</ele><time>2026-04-06T16:53:24.059Z</time></trkpt><trkpt lat="47.295825406953035" lon="-1.619156626985985"><ele>56.0</ele><time>2026-04-06T16:53:25.06Z</time></trkpt><trkpt lat="47.29577247523451" lon="-1.6192300524577676"><ele>56.00000000000001</ele><time>2026-04-06T16:53:26.049Z</time></trkpt><trkpt lat="47.29572260291064" lon="-1.6193277016297163"><ele>56.0</ele><time>2026-04-06T16:53:27.05Z</time></trkpt><trkpt lat="47.29568651881748" lon="-1.61941730417462"><ele>56.0</ele><time>2026-04-06T16:53:28.069Z</time></trkpt><trkpt lat="47.29565349411899" lon="-1.6195197310313763"><ele>56.0</ele><time>2026-04-06T16:53:29.053Z</time></trkpt><trkpt lat="47.295626713938354" lon="-1.6196210682407204"><ele>56.0</ele><time>2026-04-06T16:53:30.046Z</time></trkpt><trkpt lat="47.29558689989829" lon="-1.6197188012317005"><ele>56.0</ele><time>2026-04-06T16:53:31.046Z</time></trkpt><trkpt lat="47.295573195486604" lon="-1.6198310349151677"><ele>56.0</ele><time>2026-04-06T16:53:32.047Z</time></trkpt><trkpt lat="47.29555383329028" lon="-1.6199295222774333"><ele>56.0</ele><time>2026-04-06T16:53:33.047Z</time></trkpt><trkpt lat="47.295530280142366" lon="-1.6200333740577288"><ele>56.0</ele><time>2026-04-06T16:53:34.057Z</time></trkpt><trkpt lat="47.29550899010831" lon="-1.620139069856722"><ele>56.0</ele><time>2026-04-06T16:53:35.062Z</time></trkpt><trkpt lat="47.29549088519746" lon="-1.6202337853625604"><ele>56.0</ele><time>2026-04-06T16:53:36.059Z</time></trkpt><trkpt lat="47.29550270368093" lon="-1.6203430015608857"><ele>56.0</ele><time>2026-04-06T16:53:37.051Z</time></trkpt><trkpt lat="47.29550542779946" lon="-1.6204450093224834"><ele>56.0</ele><time>2026-04-06T16:53:38.057Z</time></trkpt><trkpt lat="47.295520179949044" lon="-1.6205425746754003"><ele>56.0</ele><time>2026-04-06T16:53:39.054Z</time></trkpt><trkpt lat="47.29554054797375" lon="-1.6206312552109552"><ele>56.0</ele><time>2026-04-06T16:53:40.059Z</time></trkpt><trkpt lat="47.2955604969033" lon="-1.6207255516216352"><ele>56.0</ele><time>2026-04-06T16:53:41.047Z</time></trkpt><trkpt lat="47.29558182884687" lon="-1.6208182554707125"><ele>56.0</ele><time>2026-04-06T16:53:42.055Z</time></trkpt><trkpt lat="47.29561745193535" lon="-1.620910288767536"><ele>55.99999999999999</ele><time>2026-04-06T16:53:43.059Z</time></trkpt><trkpt lat="47.29567390405321" lon="-1.6210663598045902"><ele>55.99999999999999</ele><time>2026-04-06T16:53:45.053Z</time></trkpt><trkpt lat="47.29574242611164" lon="-1.6212131269291241"><ele>56.0</ele><time>2026-04-06T16:53:47.046Z</time></trkpt><trkpt lat="47.29580755349928" lon="-1.6213536076262791"><ele>56.0</ele><time>2026-04-06T16:53:49.06Z</time></trkpt><trkpt lat="47.295850091657876" lon="-1.6214331518873772"><ele>56.0</ele><time>2026-04-06T16:53:50.054Z</time></trkpt><trkpt lat="47.29589045052165" lon="-1.6215225029751859"><ele>55.99999999999999</ele><time>2026-04-06T16:53:51.058Z</time></trkpt><trkpt lat="47.29596580383116" lon="-1.6216628998533091"><ele>55.99999999999999</ele><time>2026-04-06T16:53:53.057Z</time></trkpt><trkpt lat="47.29600524068558" lon="-1.6217390913531387"><ele>56.0</ele><time>2026-04-06T16:53:54.061Z</time></trkpt><trkpt lat="47.29606198617005" lon="-1.621907148511728"><ele>56.0</ele><time>2026-04-06T16:53:56.057Z</time></trkpt><trkpt lat="47.29608872444117" lon="-1.6219931468382682"><ele>56.0</ele><time>2026-04-06T16:53:57.048Z</time></trkpt><trkpt lat="47.29611906693065" lon="-1.6220878623441066"><ele>56.0</ele><time>2026-04-06T16:53:58.048Z</time></trkpt><trkpt lat="47.296146852939664" lon="-1.6221767105177252"><ele>56.0</ele><time>2026-04-06T16:53:59.056Z</time></trkpt><trkpt lat="47.29617530950093" lon="-1.6222682409003584"><ele>56.0</ele><time>2026-04-06T16:54:00.061Z</time></trkpt><trkpt lat="47.29620104194367" lon="-1.6223596036449281"><ele>56.0</ele><time>2026-04-06T16:54:01.055Z</time></trkpt><trkpt lat="47.29622564282948" lon="-1.6224549897030205"><ele>56.0</ele><time>2026-04-06T16:54:02.049Z</time></trkpt><trkpt lat="47.29623909578407" lon="-1.6225648764535994"><ele>56.0</ele><time>2026-04-06T16:54:03.05Z</time></trkpt><trkpt lat="47.29625129145318" lon="-1.622674008832893"><ele>56.00000000000001</ele><time>2026-04-06T16:54:04.057Z</time></trkpt><trkpt lat="47.29626864199275" lon="-1.6227723285570952"><ele>56.0</ele><time>2026-04-06T16:54:05.059Z</time></trkpt><trkpt lat="47.29628439997071" lon="-1.6228757612422322"><ele>56.0</ele><time>2026-04-06T16:54:06.064Z</time></trkpt><trkpt lat="47.29629265614533" lon="-1.622994784267268"><ele>56.0</ele><time>2026-04-06T16:54:07.052Z</time></trkpt><trkpt lat="47.29629265614533" lon="-1.6231166571393825"><ele>56.00000000000001</ele><time>2026-04-06T16:54:08.058Z</time></trkpt><trkpt lat="47.29627890982413" lon="-1.6232459060862876"><ele>56.0</ele><time>2026-04-06T16:54:09.062Z</time></trkpt><trkpt lat="47.29627631143415" lon="-1.6233823634699205"><ele>55.833333333333336</ele><time>2026-04-06T16:54:10.059Z</time></trkpt><trkpt lat="47.29625523094767" lon="-1.6235101874932865"><ele>55.66666666666667</ele><time>2026-04-06T16:54:11.057Z</time></trkpt><trkpt lat="47.29623138443315" lon="-1.623623175548039"><ele>55.5</ele><time>2026-04-06T16:54:12.056Z</time></trkpt><trkpt lat="47.296204562343" lon="-1.6237432882204872"><ele>55.33333333333333</ele><time>2026-04-06T16:54:13.061Z</time></trkpt><trkpt lat="47.296182266480564" lon="-1.6238413564875944"><ele>55.166666666666664</ele><time>2026-04-06T16:54:14.05Z</time></trkpt><trkpt lat="47.296164035841166" lon="-1.6239613015219792"><ele>55.0</ele><time>2026-04-06T16:54:15.053Z</time></trkpt><trkpt lat="47.29618176356637" lon="-1.6240804921850787"><ele>54.83333333333333</ele><time>2026-04-06T16:54:16.06Z</time></trkpt><trkpt lat="47.296222834891914" lon="-1.6241771355286465"><ele>54.666666666666664</ele><time>2026-04-06T16:54:17.054Z</time></trkpt><trkpt lat="47.29626235556537" lon="-1.6242882795647011"><ele>54.5</ele><time>2026-04-06T16:54:18.05Z</time></trkpt><trkpt lat="47.29629948739642" lon="-1.6244057938471663"><ele>54.33333333333333</ele><time>2026-04-06T16:54:19.056Z</time></trkpt><trkpt lat="47.29633850515568" lon="-1.6245150100454915"><ele>54.166666666666664</ele><time>2026-04-06T16:54:20.061Z</time></trkpt><trkpt lat="47.2963824263283" lon="-1.6246165987119308"><ele>54.0</ele><time>2026-04-06T16:54:21.06Z</time></trkpt><trkpt lat="47.29641754650259" lon="-1.6247227974251142"><ele>54.2</ele><time>2026-04-06T16:54:22.059Z</time></trkpt><trkpt lat="47.29646054566586" lon="-1.6248252242818706"><ele>54.400000000000006</ele><time>2026-04-06T16:54:23.056Z</time></trkpt><trkpt lat="47.29649830613965" lon="-1.6249093785897128"><ele>54.6</ele><time>2026-04-06T16:54:24.063Z</time></trkpt><trkpt lat="47.29656117041343" lon="-1.6250796988621588"><ele>54.8</ele><time>2026-04-06T16:54:26.047Z</time></trkpt><trkpt lat="47.29658137080008" lon="-1.6251682117596502"><ele>55.0</ele><time>2026-04-06T16:54:27.056Z</time></trkpt><trkpt lat="47.29659603913063" lon="-1.6253477521255848"><ele>55.25</ele><time>2026-04-06T16:54:29.062Z</time></trkpt><trkpt lat="47.29659247682178" lon="-1.6254963632688164"><ele>55.5</ele><time>2026-04-06T16:54:31.054Z</time></trkpt><trkpt lat="47.29657495864415" lon="-1.625663498418057"><ele>55.75</ele><time>2026-04-06T16:54:33.063Z</time></trkpt><trkpt lat="47.29654725645417" lon="-1.6258338186905028"><ele>56.0</ele><time>2026-04-06T16:54:35.05Z</time></trkpt><trkpt lat="47.2965145670318" lon="-1.6259992774591092"><ele>56.0</ele><time>2026-04-06T16:54:37.048Z</time></trkpt><trkpt lat="47.296501658900915" lon="-1.6260901372894887"><ele>55.99999999999999</ele><time>2026-04-06T16:54:38.052Z</time></trkpt><trkpt lat="47.29647240605885" lon="-1.6262502316400653"><ele>55.99999999999999</ele><time>2026-04-06T16:54:40.046Z</time></trkpt><trkpt lat="47.29643150237137" lon="-1.6264033690110093"><ele>56.0</ele><time>2026-04-06T16:54:42.063Z</time></trkpt><trkpt lat="47.29637542743915" lon="-1.6265215538457283"><ele>56.0</ele><time>2026-04-06T16:54:44.046Z</time></trkpt><trkpt lat="47.29630434890026" lon="-1.6266254056260236"><ele>56.199999999999996</ele><time>2026-04-06T16:54:46.047Z</time></trkpt><trkpt lat="47.29627082128757" lon="-1.6267115715906273"><ele>56.39999999999999</ele><time>2026-04-06T16:54:47.054Z</time></trkpt><trkpt lat="47.296196306168376" lon="-1.62681089714321"><ele>56.6</ele><time>2026-04-06T16:54:49.056Z</time></trkpt><trkpt lat="47.2961165523597" lon="-1.6268919501468788"><ele>56.8</ele><time>2026-04-06T16:54:51.051Z</time></trkpt><trkpt lat="47.296015718064545" lon="-1.626990353690113"><ele>57.0</ele><time>2026-04-06T16:54:53.057Z</time></trkpt><trkpt lat="47.29591693733567" lon="-1.62707425654086"><ele>57.0</ele><time>2026-04-06T16:54:55.056Z</time></trkpt><trkpt lat="47.29583211247557" lon="-1.6271604225054637"><ele>57.0</ele><time>2026-04-06T16:54:57.056Z</time></trkpt><trkpt lat="47.29573199064219" lon="-1.627242229880418"><ele>57.0</ele><time>2026-04-06T16:54:59.051Z</time></trkpt><trkpt lat="47.29561979886824" lon="-1.6272994782790795"><ele>57.0</ele><time>2026-04-06T16:55:01.058Z</time></trkpt><trkpt lat="47.295498303181766" lon="-1.6273478418603793"><ele>57.0</ele><time>2026-04-06T16:55:03.054Z</time></trkpt><trkpt lat="47.295390469997464" lon="-1.627398971469726"><ele>57.0</ele><time>2026-04-06T16:55:05.058Z</time></trkpt><trkpt lat="47.29528075088495" lon="-1.62745194509777"><ele>57.0</ele><time>2026-04-06T16:55:07.051Z</time></trkpt><trkpt lat="47.2951582493701" lon="-1.6274807788446801"><ele>57.0</ele><time>2026-04-06T16:55:09.049Z</time></trkpt><trkpt lat="47.29505443949932" lon="-1.6275419667378324"><ele>57.0</ele><time>2026-04-06T16:55:11.056Z</time></trkpt><trkpt lat="47.29499673009598" lon="-1.6275842953488486"><ele>56.99999999999999</ele><time>2026-04-06T16:55:12.05Z</time></trkpt><trkpt lat="47.294922214976786" lon="-1.6276063397541898"><ele>57.0</ele><time>2026-04-06T16:55:13.055Z</time></trkpt><trkpt lat="47.294862242459594" lon="-1.627637855710115"><ele>57.0</ele><time>2026-04-06T16:55:14.059Z</time></trkpt><trkpt lat="47.29479866572404" lon="-1.627667862923469"><ele>56.99999999999999</ele><time>2026-04-06T16:55:15.053Z</time></trkpt><trkpt lat="47.294732532508014" lon="-1.6277050785735507"><ele>57.0</ele><time>2026-04-06T16:55:16.052Z</time></trkpt><trkpt lat="47.294665854468285" lon="-1.6277296375498433"><ele>57.0</ele><time>2026-04-06T16:55:17.057Z</time></trkpt><trkpt lat="47.294598380147754" lon="-1.6277346666917463"><ele>56.71428571428571</ele><time>2026-04-06T16:55:18.054Z</time></trkpt><trkpt lat="47.29452352975243" lon="-1.627750340850677"><ele>56.42857142857142</ele><time>2026-04-06T16:55:19.054Z</time></trkpt><trkpt lat="47.294448846995174" lon="-1.6277723014369865"><ele>56.14285714285714</ele><time>2026-04-06T16:55:20.046Z</time></trkpt><trkpt lat="47.29436368685895" lon="-1.6277838684633632"><ele>55.857142857142854</ele><time>2026-04-06T16:55:21.057Z</time></trkpt><trkpt lat="47.29428950701588" lon="-1.6277871374056"><ele>55.57142857142857</ele><time>2026-04-06T16:55:22.047Z</time></trkpt><trkpt lat="47.29422178123826" lon="-1.6277822759017606"><ele>55.28571428571428</ele><time>2026-04-06T16:55:23.057Z</time></trkpt><trkpt lat="47.29415166661823" lon="-1.627779509873714"><ele>55.0</ele><time>2026-04-06T16:55:24.06Z</time></trkpt><trkpt lat="47.29407719340855" lon="-1.6277769953027625"><ele>54.99999999999999</ele><time>2026-04-06T16:55:25.056Z</time></trkpt><trkpt lat="47.293999199799536" lon="-1.6277870535865684"><ele>55.0</ele><time>2026-04-06T16:55:26.057Z</time></trkpt><trkpt lat="47.293924558951794" lon="-1.6277940105662008"><ele>55.0</ele><time>2026-04-06T16:55:27.056Z</time></trkpt><trkpt lat="47.293849666646956" lon="-1.627794262023296"><ele>55.0</ele><time>2026-04-06T16:55:28.055Z</time></trkpt><trkpt lat="47.2937765764513" lon="-1.627795686946835"><ele>54.99999999999999</ele><time>2026-04-06T16:55:29.056Z</time></trkpt><trkpt lat="47.29369925339454" lon="-1.6277895681575199"><ele>55.0</ele><time>2026-04-06T16:55:30.06Z</time></trkpt><trkpt lat="47.293615057177185" lon="-1.6277821082636972"><ele>54.666666666666664</ele><time>2026-04-06T16:55:31.057Z</time></trkpt><trkpt lat="47.29354142215782" lon="-1.627779509873714"><ele>54.33333333333333</ele><time>2026-04-06T16:55:32.047Z</time></trkpt><trkpt lat="47.2934578545832" lon="-1.6277882270530124"><ele>54.0</ele><time>2026-04-06T16:55:33.057Z</time></trkpt><trkpt lat="47.29338677604431" lon="-1.6278101876393218"><ele>53.66666666666667</ele><time>2026-04-06T16:55:34.06Z</time></trkpt><trkpt lat="47.29331397921526" lon="-1.6278330702349801"><ele>53.333333333333336</ele><time>2026-04-06T16:55:35.048Z</time></trkpt><trkpt lat="47.293233219578205" lon="-1.6278288792833944"><ele>53.0</ele><time>2026-04-06T16:55:36.047Z</time></trkpt><trkpt lat="47.29316490706736" lon="-1.6278434637949128"><ele>53.00000000000001</ele><time>2026-04-06T16:55:37.055Z</time></trkpt><trkpt lat="47.293090978681384" lon="-1.627851342783894"><ele>53.0</ele><time>2026-04-06T16:55:38.058Z</time></trkpt><trkpt lat="47.293021869889735" lon="-1.6278645861909051"><ele>53.0</ele><time>2026-04-06T16:55:39.057Z</time></trkpt><trkpt lat="47.292948821603595" lon="-1.6278717946276329"><ele>53.0</ele><time>2026-04-06T16:55:40.054Z</time></trkpt><trkpt lat="47.29281714190477" lon="-1.6278614848867317"><ele>53.00000000000001</ele><time>2026-04-06T16:55:42.054Z</time></trkpt><trkpt lat="47.29274128568107" lon="-1.6278644185528417"><ele>53.0</ele><time>2026-04-06T16:55:43.056Z</time></trkpt><trkpt lat="47.292667189657024" lon="-1.6278486605748792"><ele>52.8</ele><time>2026-04-06T16:55:44.052Z</time></trkpt><trkpt lat="47.29259933815085" lon="-1.6278199106470008"><ele>52.599999999999994</ele><time>2026-04-06T16:55:45.056Z</time></trkpt><trkpt lat="47.29253014554017" lon="-1.6277930047378202"><ele>52.400000000000006</ele><time>2026-04-06T16:55:46.059Z</time></trkpt><trkpt lat="47.29240961377256" lon="-1.6277437191471715"><ele>52.2</ele><time>2026-04-06T16:55:48.055Z</time></trkpt><trkpt lat="47.29234955743634" lon="-1.627695607022967"><ele>52.0</ele><time>2026-04-06T16:55:49.065Z</time></trkpt><trkpt lat="47.29223451581531" lon="-1.6276564635351558"><ele>52.8</ele><time>2026-04-06T16:55:51.05Z</time></trkpt><trkpt lat="47.29213322051548" lon="-1.627605669201936"><ele>53.6</ele><time>2026-04-06T16:55:53.058Z</time></trkpt><trkpt lat="47.29206230961465" lon="-1.6275806073114532"><ele>54.39999999999999</ele><time>2026-04-06T16:55:54.058Z</time></trkpt><trkpt lat="47.29194311895155" lon="-1.6275216825321572"><ele>55.199999999999996</ele><time>2026-04-06T16:55:56.046Z</time></trkpt><trkpt lat="47.29183193300598" lon="-1.6274632606670516"><ele>56.0</ele><time>2026-04-06T16:55:58.06Z</time></trkpt><trkpt lat="47.29177116420799" lon="-1.6274371929481881"><ele>56.0</ele><time>2026-04-06T16:55:59.049Z</time></trkpt><trkpt lat="47.29169434406542" lon="-1.6274277213976043"><ele>55.99999999999999</ele><time>2026-04-06T16:56:00.046Z</time></trkpt><trkpt lat="47.2916226787933" lon="-1.6274305712446826"><ele>55.99999999999999</ele><time>2026-04-06T16:56:01.06Z</time></trkpt><trkpt lat="47.29150298521601" lon="-1.627402156592931"><ele>56.0</ele><time>2026-04-06T16:56:03.059Z</time></trkpt><trkpt lat="47.29135185950183" lon="-1.627368545161213"><ele>56.0</ele><time>2026-04-06T16:56:05.062Z</time></trkpt><trkpt lat="47.29126988448881" lon="-1.6273390408620492"><ele>54.4</ele><time>2026-04-06T16:56:06.06Z</time></trkpt><trkpt lat="47.291178186468116" lon="-1.6272802837208167"><ele>52.8</ele><time>2026-04-06T16:56:07.053Z</time></trkpt><trkpt lat="47.29107999247246" lon="-1.6272470075652257"><ele>51.199999999999996</ele><time>2026-04-06T16:56:08.044Z</time></trkpt><trkpt lat="47.29097404521637" lon="-1.6272203531131402"><ele>49.599999999999994</ele><time>2026-04-06T16:56:09.062Z</time></trkpt><trkpt lat="47.29088050317698" lon="-1.6271967999652281"><ele>48.0</ele><time>2026-04-06T16:56:10.056Z</time></trkpt><trkpt lat="47.29077120315962" lon="-1.6271907649949446"><ele>48.0</ele><time>2026-04-06T16:56:11.058Z</time></trkpt><trkpt lat="47.29066177741372" lon="-1.6271755937502042"><ele>48.0</ele><time>2026-04-06T16:56:12.054Z</time></trkpt><trkpt lat="47.29056613989853" lon="-1.6271693911418572"><ele>48.0</ele><time>2026-04-06T16:56:13.057Z</time></trkpt><trkpt lat="47.29044866752558" lon="-1.6272073611632243"><ele>48.0</ele><time>2026-04-06T16:56:14.056Z</time></trkpt><trkpt lat="47.290351688905886" lon="-1.6272583231345072"><ele>48.0</ele><time>2026-04-06T16:56:15.063Z</time></trkpt><trkpt lat="47.29025005832993" lon="-1.6273144818857566"><ele>47.666666666666664</ele><time>2026-04-06T16:56:16.048Z</time></trkpt><trkpt lat="47.29017051406883" lon="-1.6273711435511962"><ele>47.333333333333336</ele><time>2026-04-06T16:56:17.065Z</time></trkpt><trkpt lat="47.29009235282176" lon="-1.6274058446303266"><ele>47.0</ele><time>2026-04-06T16:56:18.053Z</time></trkpt><trkpt lat="47.2900152812221" lon="-1.6274494305268186"><ele>46.66666666666667</ele><time>2026-04-06T16:56:19.051Z</time></trkpt><trkpt lat="47.28993439585649" lon="-1.6274821199491876"><ele>46.333333333333336</ele><time>2026-04-06T16:56:20.05Z</time></trkpt><trkpt lat="47.28985451631927" lon="-1.6275135520860808"><ele>46.0</ele><time>2026-04-06T16:56:21.056Z</time></trkpt><trkpt lat="47.289782390042475" lon="-1.6275438945755618"><ele>46.4</ele><time>2026-04-06T16:56:22.056Z</time></trkpt><trkpt lat="47.28971546054565" lon="-1.6275886539384978"><ele>46.8</ele><time>2026-04-06T16:56:23.058Z</time></trkpt><trkpt lat="47.289613117507926" lon="-1.6276554577067752"><ele>47.199999999999996</ele><time>2026-04-06T16:56:25.055Z</time></trkpt><trkpt lat="47.289555575742654" lon="-1.6277125384673734"><ele>47.599999999999994</ele><time>2026-04-06T16:56:26.055Z</time></trkpt><trkpt lat="47.28946169842713" lon="-1.6278194915518422"><ele>48.0</ele><time>2026-04-06T16:56:28.051Z</time></trkpt><trkpt lat="47.28937469427221" lon="-1.6279287077501676"><ele>48.0</ele><time>2026-04-06T16:56:30.061Z</time></trkpt><trkpt lat="47.28928706147455" lon="-1.6280375048533342"><ele>48.0</ele><time>2026-04-06T16:56:32.048Z</time></trkpt><trkpt lat="47.28924016472631" lon="-1.628102045507755"><ele>48.0</ele><time>2026-04-06T16:56:33.058Z</time></trkpt><trkpt lat="47.2891473770582" lon="-1.6282115131631756"><ele>48.0</ele><time>2026-04-06T16:56:35.061Z</time></trkpt><trkpt lat="47.289056056223146" lon="-1.6283251717701817"><ele>48.0</ele><time>2026-04-06T16:56:37.058Z</time></trkpt><trkpt lat="47.28900945284151" lon="-1.6283880360439684"><ele>48.0</ele><time>2026-04-06T16:56:38.052Z</time></trkpt><trkpt lat="47.288960460617474" lon="-1.6284515708700087"><ele>48.0</ele><time>2026-04-06T16:56:39.058Z</time></trkpt><trkpt lat="47.28887630630963" lon="-1.628550142051306"><ele>48.0</ele><time>2026-04-06T16:56:41.06Z</time></trkpt><trkpt lat="47.28879697159611" lon="-1.6286529041841893"><ele>48.0</ele><time>2026-04-06T16:56:43.057Z</time></trkpt><trkpt lat="47.288748691833845" lon="-1.6287138406202464"><ele>48.0</ele><time>2026-04-06T16:56:44.051Z</time></trkpt><trkpt lat="47.28867002767258" lon="-1.628821715714064"><ele>48.0</ele><time>2026-04-06T16:56:46.06Z</time></trkpt><trkpt lat="47.28859266270631" lon="-1.6289240587517888"><ele>48.5</ele><time>2026-04-06T16:56:48.05Z</time></trkpt><trkpt lat="47.28849530690097" lon="-1.6290062852219016"><ele>49.0</ele><time>2026-04-06T16:56:50.056Z</time></trkpt><trkpt lat="47.288437387950054" lon="-1.6290475241855056"><ele>49.5</ele><time>2026-04-06T16:56:51.061Z</time></trkpt><trkpt lat="47.288333578079275" lon="-1.6290815547123823"><ele>50.0</ele><time>2026-04-06T16:56:53.063Z</time></trkpt><trkpt lat="47.288250513418845" lon="-1.6291206982001933"><ele>50.5</ele><time>2026-04-06T16:56:55.057Z</time></trkpt><trkpt lat="47.288184338293306" lon="-1.629116088153449"><ele>51.0</ele><time>2026-04-06T16:56:56.047Z</time></trkpt><trkpt lat="47.28807373908096" lon="-1.6291103046402606"><ele>51.5</ele><time>2026-04-06T16:56:58.052Z</time></trkpt><trkpt lat="47.287974413528374" lon="-1.6291374620065364"><ele>52.0</ele><time>2026-04-06T16:57:00.048Z</time></trkpt><trkpt lat="47.28788103912704" lon="-1.6291356179878387"><ele>52.5</ele><time>2026-04-06T16:57:02.049Z</time></trkpt><trkpt lat="47.28779638190501" lon="-1.6291651222870025"><ele>53.0</ele><time>2026-04-06T16:57:04.046Z</time></trkpt><trkpt lat="47.28770816237413" lon="-1.629164703191844"><ele>53.5</ele><time>2026-04-06T16:57:06.048Z</time></trkpt><trkpt lat="47.287644166543416" lon="-1.6291383001968536"><ele>54.0</ele><time>2026-04-06T16:57:07.056Z</time></trkpt><trkpt lat="47.28755540218883" lon="-1.6291490290329131"><ele>54.0</ele><time>2026-04-06T16:57:09.049Z</time></trkpt><trkpt lat="47.28747434918516" lon="-1.6291601769641313"><ele>54.0</ele><time>2026-04-06T16:57:11.062Z</time></trkpt><trkpt lat="47.28738214825027" lon="-1.6291447542622957"><ele>54.0</ele><time>2026-04-06T16:57:13.048Z</time></trkpt><trkpt lat="47.287290156862966" lon="-1.6291253082469377"><ele>54.0</ele><time>2026-04-06T16:57:15.047Z</time></trkpt><trkpt lat="47.28721400727265" lon="-1.6291503701374206"><ele>54.0</ele><time>2026-04-06T16:57:17.04Z</time></trkpt><trkpt lat="47.287141336172155" lon="-1.6291801258936796"><ele>54.0</ele><time>2026-04-06T16:57:19.034Z</time></trkpt><trkpt lat="47.287081447473994" lon="-1.629227148370472"><ele>54.333333333333336</ele><time>2026-04-06T16:57:21.045Z</time></trkpt><trkpt lat="47.287004040598205" lon="-1.629269225524393"><ele>54.66666666666667</ele><time>2026-04-06T16:57:23.025Z</time></trkpt><trkpt lat="47.286918335638276" lon="-1.6293246299043571"><ele>55.0</ele><time>2026-04-06T16:57:25.036Z</time></trkpt><trkpt lat="47.286841264038614" lon="-1.6293894220158731"><ele>55.333333333333336</ele><time>2026-04-06T16:57:27.022Z</time></trkpt><trkpt lat="47.28676603645765" lon="-1.6294418089106952"><ele>55.66666666666667</ele><time>2026-04-06T16:57:29.016Z</time></trkpt><trkpt lat="47.28668552827769" lon="-1.6294861491784727"><ele>56.0</ele><time>2026-04-06T16:57:31.025Z</time></trkpt><trkpt lat="47.286598649851314" lon="-1.6295270528659498"><ele>56.00000000000001</ele><time>2026-04-06T16:57:33.012Z</time></trkpt><trkpt lat="47.28653930597686" lon="-1.6295701358482517"><ele>56.0</ele><time>2026-04-06T16:57:34.013Z</time></trkpt><trkpt lat="47.28646520995282" lon="-1.6296480037287153"><ele>56.0</ele><time>2026-04-06T16:57:36.017Z</time></trkpt><trkpt lat="47.286395682066015" lon="-1.6297029890135206"><ele>56.0</ele><time>2026-04-06T16:57:38.018Z</time></trkpt><trkpt lat="47.28631400041961" lon="-1.629764428363768"><ele>56.00000000000001</ele><time>2026-04-06T16:57:40.018Z</time></trkpt><trkpt lat="47.286239066205255" lon="-1.6298056673273722"><ele>56.0</ele><time>2026-04-06T16:57:42.013Z</time></trkpt><trkpt lat="47.2861606954106" lon="-1.6298572160318772"><ele>56.599999999999994</ele><time>2026-04-06T16:57:44.013Z</time></trkpt><trkpt lat="47.28608500682496" lon="-1.62992821075174"><ele>57.199999999999996</ele><time>2026-04-06T16:57:46.013Z</time></trkpt><trkpt lat="47.28601757441395" lon="-1.6299984511003176"><ele>57.800000000000004</ele><time>2026-04-06T16:57:48.013Z</time></trkpt><trkpt lat="47.28594507095151" lon="-1.630080593751399"><ele>58.400000000000006</ele><time>2026-04-06T16:57:50.015Z</time></trkpt><trkpt lat="47.28586879563265" lon="-1.630153013394801"><ele>59.0</ele><time>2026-04-06T16:57:52.011Z</time></trkpt><trkpt lat="47.2857766785168" lon="-1.6302060708418769"><ele>59.0</ele><time>2026-04-06T16:57:54.011Z</time></trkpt><trkpt lat="47.28569348812782" lon="-1.6302488185480517"><ele>59.00000000000001</ele><time>2026-04-06T16:57:56.014Z</time></trkpt><trkpt lat="47.28561792527073" lon="-1.6303322184846087"><ele>59.00000000000001</ele><time>2026-04-06T16:57:58.011Z</time></trkpt><trkpt lat="47.28553674653851" lon="-1.6304068174228354"><ele>59.0</ele><time>2026-04-06T16:58:00.007Z</time></trkpt><trkpt lat="47.28544429414653" lon="-1.6304648201927825"><ele>59.0</ele><time>2026-04-06T16:58:02.01Z</time></trkpt><trkpt lat="47.28535163220697" lon="-1.6305397544071363"><ele>59.0</ele><time>2026-04-06T16:58:04Z</time></trkpt><trkpt lat="47.28525750343435" lon="-1.6306310333326743"><ele>59.00000000000001</ele><time>2026-04-06T16:58:06.006Z</time></trkpt><trkpt lat="47.28516417094254" lon="-1.6307281795904325"><ele>59.00000000000001</ele><time>2026-04-06T16:58:08.013Z</time></trkpt><trkpt lat="47.28508668024771" lon="-1.630792887882917"><ele>59.0</ele><time>2026-04-06T16:58:10.014Z</time></trkpt><trkpt lat="47.284997287250384" lon="-1.6308632120505262"><ele>59.0</ele><time>2026-04-06T16:58:12.003Z</time></trkpt><trkpt lat="47.284899554259404" lon="-1.6309262439623762"><ele>59.0</ele><time>2026-04-06T16:58:14.009Z</time></trkpt><trkpt lat="47.28480429392986" lon="-1.6310056205854109"><ele>59.00000000000001</ele><time>2026-04-06T16:58:16.007Z</time></trkpt><trkpt lat="47.28472101972185" lon="-1.631085667760699"><ele>59.00000000000001</ele><time>2026-04-06T16:58:18.001Z</time></trkpt><trkpt lat="47.28463351265274" lon="-1.6311367135510138"><ele>59.0</ele><time>2026-04-06T16:58:20.001Z</time></trkpt><trkpt lat="47.28455388457261" lon="-1.631161691622465"><ele>59.0</ele><time>2026-04-06T16:58:22.008Z</time></trkpt><trkpt lat="47.28446918544106" lon="-1.6312034335002592"><ele>59.2</ele><time>2026-04-06T16:58:24.01Z</time></trkpt><trkpt lat="47.284433436624035" lon="-1.6313131526127749"><ele>59.400000000000006</ele><time>2026-04-06T16:58:26.01Z</time></trkpt><trkpt lat="47.28446273137562" lon="-1.6314157471075945"><ele>59.6</ele><time>2026-04-06T16:58:27.998Z</time></trkpt><trkpt lat="47.2844973067262" lon="-1.6315572336331303"><ele>59.8</ele><time>2026-04-06T16:58:30.007Z</time></trkpt><trkpt lat="47.28453485765241" lon="-1.6317117959276137"><ele>60.0</ele><time>2026-04-06T16:58:32.008Z</time></trkpt><trkpt lat="47.28457597088747" lon="-1.6318565513953862"><ele>60.2</ele><time>2026-04-06T16:58:34.008Z</time></trkpt><trkpt lat="47.28461368945174" lon="-1.6320070065573156"><ele>60.4</ele><time>2026-04-06T16:58:36.007Z</time></trkpt><trkpt lat="47.284643990031704" lon="-1.6321648377940359"><ele>60.599999999999994</ele><time>2026-04-06T16:58:38.007Z</time></trkpt><trkpt lat="47.284604217901155" lon="-1.6323225852117242"><ele>60.8</ele><time>2026-04-06T16:58:40.008Z</time></trkpt><trkpt lat="47.28453393564306" lon="-1.6324211563930218"><ele>61.0</ele><time>2026-04-06T16:58:42.007Z</time></trkpt><trkpt lat="47.28445736695759" lon="-1.632507657633752"><ele>61.0</ele><time>2026-04-06T16:58:44.008Z</time></trkpt><trkpt lat="47.28437329646878" lon="-1.6325910575703089"><ele>60.99999999999999</ele><time>2026-04-06T16:58:46.006Z</time></trkpt><trkpt lat="47.284303517124876" lon="-1.6326602082714743"><ele>60.99999999999999</ele><time>2026-04-06T16:58:48.009Z</time></trkpt><trkpt lat="47.28422099728815" lon="-1.6327677480891651"><ele>61.0</ele><time>2026-04-06T16:58:50.01Z</time></trkpt><trkpt lat="47.28418420073323" lon="-1.632918622346253"><ele>61.0</ele><time>2026-04-06T16:58:52.004Z</time></trkpt><trkpt lat="47.28420565840535" lon="-1.6330683231368968"><ele>60.666666666666664</ele><time>2026-04-06T16:58:53.998Z</time></trkpt><trkpt lat="47.284219153269454" lon="-1.6332387272283744"><ele>60.33333333333333</ele><time>2026-04-06T16:58:56.009Z</time></trkpt><trkpt lat="47.2842105618187" lon="-1.6334155015662624"><ele>60.0</ele><time>2026-04-06T16:58:58.007Z</time></trkpt><trkpt lat="47.28421542332254" lon="-1.6335159167662574"><ele>59.66666666666667</ele><time>2026-04-06T16:58:59.002Z</time></trkpt><trkpt lat="47.284224601506516" lon="-1.6336175054326967"><ele>59.333333333333336</ele><time>2026-04-06T16:59:00.008Z</time></trkpt><trkpt lat="47.284231600395664" lon="-1.6337156575188354"><ele>59.0</ele><time>2026-04-06T16:59:01.004Z</time></trkpt><trkpt lat="47.28426039223306" lon="-1.6338609997198301"><ele>58.75</ele><time>2026-04-06T16:59:03.007Z</time></trkpt><trkpt lat="47.284255656457766" lon="-1.634027715773912"><ele>58.5</ele><time>2026-04-06T16:59:05Z</time></trkpt><trkpt lat="47.28423013356261" lon="-1.634199796246024"><ele>58.25</ele><time>2026-04-06T16:59:07.003Z</time></trkpt><trkpt lat="47.28420536503874" lon="-1.634359471501442"><ele>58.0</ele><time>2026-04-06T16:59:09.004Z</time></trkpt><trkpt lat="47.28418508083306" lon="-1.634514955805274"><ele>58.599999999999994</ele><time>2026-04-06T16:59:11.004Z</time></trkpt><trkpt lat="47.284173010892495" lon="-1.6346719488516772"><ele>59.199999999999996</ele><time>2026-04-06T16:59:12.999Z</time></trkpt><trkpt lat="47.28417104114525" lon="-1.634773034603926"><ele>59.8</ele><time>2026-04-06T16:59:14.005Z</time></trkpt><trkpt lat="47.284154989800676" lon="-1.6349294409171071"><ele>60.4</ele><time>2026-04-06T16:59:16.011Z</time></trkpt><trkpt lat="47.284140237651094" lon="-1.6350926365718572"><ele>61.0</ele><time>2026-04-06T16:59:18.008Z</time></trkpt><trkpt lat="47.284132232933565" lon="-1.6352492105231016"><ele>61.4</ele><time>2026-04-06T16:59:20.003Z</time></trkpt><trkpt lat="47.284113834656104" lon="-1.6354091372356148"><ele>61.8</ele><time>2026-04-06T16:59:21.999Z</time></trkpt><trkpt lat="47.284109978980645" lon="-1.6355713270619843"><ele>62.199999999999996</ele><time>2026-04-06T16:59:24.012Z</time></trkpt><trkpt lat="47.28409233507447" lon="-1.6357346903547976"><ele>62.599999999999994</ele><time>2026-04-06T16:59:26.006Z</time></trkpt><trkpt lat="47.28408692874692" lon="-1.635900149123404"><ele>63.0</ele><time>2026-04-06T16:59:28.01Z</time></trkpt><trkpt lat="47.28408340834759" lon="-1.6360588185504414"><ele>62.8</ele><time>2026-04-06T16:59:29.999Z</time></trkpt><trkpt lat="47.284061908765956" lon="-1.6362199187293986"><ele>62.599999999999994</ele><time>2026-04-06T16:59:32.01Z</time></trkpt><trkpt lat="47.28403433230452" lon="-1.636366182939742"><ele>62.400000000000006</ele><time>2026-04-06T16:59:34.007Z</time></trkpt><trkpt lat="47.2839940991693" lon="-1.6365183144823057"><ele>62.2</ele><time>2026-04-06T16:59:36.006Z</time></trkpt><trkpt lat="47.283952650658115" lon="-1.6366453003153545"><ele>62.0</ele><time>2026-04-06T16:59:38.008Z</time></trkpt><trkpt lat="47.283900808587" lon="-1.6367733757958158"><ele>62.00000000000001</ele><time>2026-04-06T16:59:40.009Z</time></trkpt><trkpt lat="47.28385185827248" lon="-1.6368968412295326"><ele>62.0</ele><time>2026-04-06T16:59:42.007Z</time></trkpt><trkpt lat="47.28380559016697" lon="-1.6370032913998114"><ele>62.0</ele><time>2026-04-06T16:59:44.005Z</time></trkpt><trkpt lat="47.28373983413659" lon="-1.6370464582011448"><ele>62.0</ele><time>2026-04-06T16:59:46.011Z</time></trkpt><trkpt lat="47.2836624272608" lon="-1.637033466251229"><ele>62.00000000000001</ele><time>2026-04-06T16:59:48.014Z</time></trkpt><trkpt lat="47.28358879224144" lon="-1.636989293621515"><ele>62.0</ele><time>2026-04-06T16:59:50.007Z</time></trkpt><trkpt lat="47.28349843532525" lon="-1.636954508723353"><ele>62.0</ele><time>2026-04-06T16:59:52.008Z</time></trkpt><trkpt lat="47.28340434846215" lon="-1.636889046059583"><ele>62.0</ele><time>2026-04-06T16:59:54.007Z</time></trkpt><trkpt lat="47.2833119798892" lon="-1.6368719469771131"><ele>62.0</ele><time>2026-04-06T16:59:56.007Z</time></trkpt><trkpt lat="47.28321030740373" lon="-1.6368540935233578"><ele>62.0</ele><time>2026-04-06T16:59:58.008Z</time></trkpt><trkpt lat="47.28310930547051" lon="-1.636778321118687"><ele>62.0</ele><time>2026-04-06T17:00:00Z</time></trkpt><trkpt lat="47.28304841094397" lon="-1.6367115173504099"><ele>62.400000000000006</ele><time>2026-04-06T17:00:00.999Z</time></trkpt><trkpt lat="47.28299095299773" lon="-1.6366619803026659"><ele>62.800000000000004</ele><time>2026-04-06T17:00:02.008Z</time></trkpt><trkpt lat="47.282890914983376" lon="-1.6365562845036727"><ele>63.2</ele><time>2026-04-06T17:00:04.004Z</time></trkpt><trkpt lat="47.282796115658506" lon="-1.636426532642577"><ele>63.6</ele><time>2026-04-06T17:00:06.004Z</time></trkpt><trkpt lat="47.28275076956235" lon="-1.6363621596262197"><ele>64.0</ele><time>2026-04-06T17:00:07.005Z</time></trkpt><trkpt lat="47.282705968289896" lon="-1.636283453555439"><ele>63.99999999999999</ele><time>2026-04-06T17:00:08.003Z</time></trkpt><trkpt lat="47.28265224029057" lon="-1.6362226847574453"><ele>64.0</ele><time>2026-04-06T17:00:09.004Z</time></trkpt><trkpt lat="47.28259838656269" lon="-1.6360615007594563"><ele>64.0</ele><time>2026-04-06T17:00:11.004Z</time></trkpt><trkpt lat="47.28255723141812" lon="-1.635985309259627"><ele>64.0</ele><time>2026-04-06T17:00:12.003Z</time></trkpt><trkpt lat="47.282519512853845" lon="-1.6358999814853405"><ele>63.99999999999999</ele><time>2026-04-06T17:00:13.005Z</time></trkpt><trkpt lat="47.28246884424917" lon="-1.6358237061664795"><ele>64.0</ele><time>2026-04-06T17:00:14.012Z</time></trkpt><trkpt lat="47.28242458780043" lon="-1.6357291582987044"><ele>63.666666666666664</ele><time>2026-04-06T17:00:15.003Z</time></trkpt><trkpt lat="47.28238347456537" lon="-1.6356364544496271"><ele>63.33333333333333</ele><time>2026-04-06T17:00:16.005Z</time></trkpt><trkpt lat="47.28230091281913" lon="-1.6354997456088993"><ele>63.0</ele><time>2026-04-06T17:00:18.013Z</time></trkpt><trkpt lat="47.282260302498266" lon="-1.6354035213604898"><ele>62.66666666666667</ele><time>2026-04-06T17:00:19.008Z</time></trkpt><trkpt lat="47.28221805770628" lon="-1.6353034414366217"><ele>62.333333333333336</ele><time>2026-04-06T17:00:20.006Z</time></trkpt><trkpt lat="47.28217061613433" lon="-1.6352268308416336"><ele>62.0</ele><time>2026-04-06T17:00:21.004Z</time></trkpt><trkpt lat="47.28213277184151" lon="-1.6351499687895505"><ele>62.0</ele><time>2026-04-06T17:00:22.012Z</time></trkpt><trkpt lat="47.28208583318375" lon="-1.6350565105691879"><ele>62.0</ele><time>2026-04-06T17:00:23.006Z</time></trkpt><trkpt lat="47.28204878517173" lon="-1.6349717695281234"><ele>62.0</ele><time>2026-04-06T17:00:24.005Z</time></trkpt><trkpt lat="47.28201756258242" lon="-1.6348825860783782"><ele>62.0</ele><time>2026-04-06T17:00:25.006Z</time></trkpt><trkpt lat="47.28197929919444" lon="-1.634706482292744"><ele>62.0</ele><time>2026-04-06T17:00:27.003Z</time></trkpt><trkpt lat="47.281943927563056" lon="-1.6345245111748896"><ele>61.8</ele><time>2026-04-06T17:00:28.996Z</time></trkpt><trkpt lat="47.28187641133301" lon="-1.6344411112383328"><ele>61.6</ele><time>2026-04-06T17:00:31.006Z</time></trkpt><trkpt lat="47.28184330281548" lon="-1.634328542278739"><ele>61.39999999999999</ele><time>2026-04-06T17:00:32.008Z</time></trkpt><trkpt lat="47.281800764656886" lon="-1.6341876424864252"><ele>61.199999999999996</ele><time>2026-04-06T17:00:34.003Z</time></trkpt><trkpt lat="47.281768913424834" lon="-1.6340935975328406"><ele>61.0</ele><time>2026-04-06T17:00:35.009Z</time></trkpt><trkpt lat="47.28171795145355" lon="-1.6339603252724129"><ele>60.99999999999999</ele><time>2026-04-06T17:00:37.007Z</time></trkpt><trkpt lat="47.28168970443986" lon="-1.633869549261065"><ele>61.0</ele><time>2026-04-06T17:00:38.008Z</time></trkpt><trkpt lat="47.28162864227526" lon="-1.6337175853565649"><ele>61.0</ele><time>2026-04-06T17:00:40.002Z</time></trkpt><trkpt lat="47.28159058843486" lon="-1.6336308326587394"><ele>61.0</ele><time>2026-04-06T17:00:41.001Z</time></trkpt><trkpt lat="47.28152110245757" lon="-1.633512815462084"><ele>60.99999999999999</ele><time>2026-04-06T17:00:42.998Z</time></trkpt><trkpt lat="47.28147977967493" lon="-1.6334345284864618"><ele>61.0</ele><time>2026-04-06T17:00:44.012Z</time></trkpt><trkpt lat="47.28140337862752" lon="-1.633288012819023"><ele>61.0</ele><time>2026-04-06T17:00:46.007Z</time></trkpt><trkpt lat="47.28132580411367" lon="-1.6331590991482448"><ele>60.99999999999999</ele><time>2026-04-06T17:00:48.013Z</time></trkpt><trkpt lat="47.28125145663254" lon="-1.633029682563276"><ele>60.99999999999999</ele><time>2026-04-06T17:00:49.997Z</time></trkpt><trkpt lat="47.28117719297044" lon="-1.6328881122187087"><ele>61.0</ele><time>2026-04-06T17:00:52.008Z</time></trkpt><trkpt lat="47.281137588477954" lon="-1.632811669261784"><ele>61.0</ele><time>2026-04-06T17:00:53.004Z</time></trkpt><trkpt lat="47.281064121096655" lon="-1.6326794866487688"><ele>61.0</ele><time>2026-04-06T17:00:55.002Z</time></trkpt><trkpt lat="47.281024348966106" lon="-1.6325993556544487"><ele>60.99999999999999</ele><time>2026-04-06T17:00:56.017Z</time></trkpt><trkpt lat="47.28097686548464" lon="-1.6324519179776613"><ele>60.99999999999999</ele><time>2026-04-06T17:00:57.997Z</time></trkpt><trkpt lat="47.280947361185476" lon="-1.6323651652798357"><ele>61.0</ele><time>2026-04-06T17:00:59.001Z</time></trkpt><trkpt lat="47.28089048997246" lon="-1.632201885806054"><ele>61.0</ele><time>2026-04-06T17:01:01.006Z</time></trkpt><trkpt lat="47.28085352577947" lon="-1.6320111136898696"><ele>60.57142857142856</ele><time>2026-04-06T17:01:02.995Z</time></trkpt><trkpt lat="47.28085117884658" lon="-1.6318967845306096"><ele>60.14285714285714</ele><time>2026-04-06T17:01:04.011Z</time></trkpt><trkpt lat="47.280820710628554" lon="-1.631809193642467"><ele>59.714285714285715</ele><time>2026-04-06T17:01:05.007Z</time></trkpt><trkpt lat="47.28079502009533" lon="-1.6317159030601678"><ele>59.285714285714285</ele><time>2026-04-06T17:01:05.998Z</time></trkpt><trkpt lat="47.28077117358081" lon="-1.6316210199162657"><ele>58.85714285714286</ele><time>2026-04-06T17:01:07.001Z</time></trkpt><trkpt lat="47.28072888687931" lon="-1.631536446513265"><ele>58.42857142857144</ele><time>2026-04-06T17:01:08.009Z</time></trkpt><trkpt lat="47.28069984358482" lon="-1.631449274720281"><ele>58.00000000000001</ele><time>2026-04-06T17:01:09.004Z</time></trkpt><trkpt lat="47.28065965235911" lon="-1.631261268632143"><ele>58.00000000000001</ele><time>2026-04-06T17:01:11.006Z</time></trkpt><trkpt lat="47.28061254606329" lon="-1.6311777848765543"><ele>58.0</ele><time>2026-04-06T17:01:12.01Z</time></trkpt><trkpt lat="47.280543060085996" lon="-1.6311237216010979"><ele>58.00000000000001</ele><time>2026-04-06T17:01:13.008Z</time></trkpt><trkpt lat="47.28048233319752" lon="-1.6310695745066097"><ele>58.00000000000001</ele><time>2026-04-06T17:01:13.997Z</time></trkpt><trkpt lat="47.28041733153842" lon="-1.6310177743450096"><ele>58.0</ele><time>2026-04-06T17:01:15.006Z</time></trkpt><trkpt lat="47.280352958522066" lon="-1.6309641301647115"><ele>58.00000000000001</ele><time>2026-04-06T17:01:15.998Z</time></trkpt><trkpt lat="47.28028665766798" lon="-1.6309202089920927"><ele>58.00000000000001</ele><time>2026-04-06T17:01:17.004Z</time></trkpt><trkpt lat="47.28017790247433" lon="-1.6308496333673883"><ele>57.666666666666664</ele><time>2026-04-06T17:01:18.996Z</time></trkpt><trkpt lat="47.280117343223914" lon="-1.63080965168926"><ele>57.33333333333333</ele><time>2026-04-06T17:01:19.997Z</time></trkpt><trkpt lat="47.28005326357417" lon="-1.6307644732311655"><ele>57.0</ele><time>2026-04-06T17:01:21.006Z</time></trkpt><trkpt lat="47.27999668572776" lon="-1.630709739403455"><ele>56.66666666666667</ele><time>2026-04-06T17:01:22.011Z</time></trkpt><trkpt lat="47.279940275519415" lon="-1.6306643094882654"><ele>56.333333333333336</ele><time>2026-04-06T17:01:22.998Z</time></trkpt><trkpt lat="47.279883320487365" lon="-1.6306151915356801"><ele>56.0</ele><time>2026-04-06T17:01:23.995Z</time></trkpt><trkpt lat="47.27976769213311" lon="-1.6305179614588903"><ele>55.857142857142854</ele><time>2026-04-06T17:01:26.004Z</time></trkpt><trkpt lat="47.27970629469238" lon="-1.6304598748699113"><ele>55.714285714285715</ele><time>2026-04-06T17:01:26.994Z</time></trkpt><trkpt lat="47.27964611262761" lon="-1.6303960885867759"><ele>55.57142857142857</ele><time>2026-04-06T17:01:27.995Z</time></trkpt><trkpt lat="47.2795932228186" lon="-1.6303434502348586"><ele>55.42857142857143</ele><time>2026-04-06T17:01:29.007Z</time></trkpt><trkpt lat="47.27953794416718" lon="-1.6302878782168313"><ele>55.285714285714285</ele><time>2026-04-06T17:01:30.002Z</time></trkpt><trkpt lat="47.27947373878889" lon="-1.6302267741427106"><ele>55.14285714285714</ele><time>2026-04-06T17:01:30.996Z</time></trkpt><trkpt lat="47.27941485591911" lon="-1.6301582101747674"><ele>55.0</ele><time>2026-04-06T17:01:31.998Z</time></trkpt><trkpt lat="47.2793696355515" lon="-1.630087634550063"><ele>54.83333333333333</ele><time>2026-04-06T17:01:33.004Z</time></trkpt><trkpt lat="47.279301867864355" lon="-1.6299914941206852"><ele>54.666666666666664</ele><time>2026-04-06T17:01:34.001Z</time></trkpt><trkpt lat="47.27924088951878" lon="-1.6299185715630928"><ele>54.5</ele><time>2026-04-06T17:01:34.996Z</time></trkpt><trkpt lat="47.27917597167872" lon="-1.6298572998509089"><ele>54.33333333333333</ele><time>2026-04-06T17:01:35.997Z</time></trkpt><trkpt lat="47.27910698861562" lon="-1.6297878976926485"><ele>54.166666666666664</ele><time>2026-04-06T17:01:37.006Z</time></trkpt><trkpt lat="47.27903934665702" lon="-1.6297445632532515"><ele>54.0</ele><time>2026-04-06T17:01:38.01Z</time></trkpt><trkpt lat="47.278967094651684" lon="-1.6297148913160242"><ele>53.833333333333336</ele><time>2026-04-06T17:01:39.006Z</time></trkpt><trkpt lat="47.278891406066045" lon="-1.6296817827984966"><ele>53.66666666666667</ele><time>2026-04-06T17:01:39.995Z</time></trkpt><trkpt lat="47.27882024370812" lon="-1.629656637088982"><ele>53.5</ele><time>2026-04-06T17:01:41.006Z</time></trkpt><trkpt lat="47.27874564476989" lon="-1.6296305693701185"><ele>53.333333333333336</ele><time>2026-04-06T17:01:42.002Z</time></trkpt><trkpt lat="47.278671842112466" lon="-1.6296119615450777"><ele>53.16666666666667</ele><time>2026-04-06T17:01:43.003Z</time></trkpt><trkpt lat="47.27860319432549" lon="-1.6295958682909883"><ele>53.0</ele><time>2026-04-06T17:01:43.997Z</time></trkpt><trkpt lat="47.278526667549535" lon="-1.6295749135330595"><ele>53.0</ele><time>2026-04-06T17:01:45.003Z</time></trkpt><trkpt lat="47.27845592428677" lon="-1.6295566409841455"><ele>53.0</ele><time>2026-04-06T17:01:45.997Z</time></trkpt><trkpt lat="47.27838777941398" lon="-1.6295486781761326"><ele>53.0</ele><time>2026-04-06T17:01:46.995Z</time></trkpt><trkpt lat="47.278321185193285" lon="-1.629535518588153"><ele>53.0</ele><time>2026-04-06T17:01:48.01Z</time></trkpt><trkpt lat="47.278250861025676" lon="-1.629516072572795"><ele>53.0</ele><time>2026-04-06T17:01:49.008Z</time></trkpt><trkpt lat="47.27817689073019" lon="-1.6294903401300584"><ele>53.0</ele><time>2026-04-06T17:01:50.008Z</time></trkpt><trkpt lat="47.27810258515857" lon="-1.629464859144417"><ele>53.0</ele><time>2026-04-06T17:01:51.001Z</time></trkpt><trkpt lat="47.278033350638374" lon="-1.6294484306142007"><ele>52.50000000000001</ele><time>2026-04-06T17:01:52.004Z</time></trkpt><trkpt lat="47.27792543363504" lon="-1.6294310800746357"><ele>52.0</ele><time>2026-04-06T17:01:54.006Z</time></trkpt><trkpt lat="47.27785519328646" lon="-1.6293688863531028"><ele>51.5</ele><time>2026-04-06T17:01:54.997Z</time></trkpt><trkpt lat="47.27777963042937" lon="-1.6292396374061975"><ele>51.0</ele><time>2026-04-06T17:01:57.008Z</time></trkpt><trkpt lat="47.27776072923772" lon="-1.6291480232045326"><ele>50.50000000000001</ele><time>2026-04-06T17:01:58.009Z</time></trkpt><trkpt lat="47.27774819829248" lon="-1.6290560737267406"><ele>50.0</ele><time>2026-04-06T17:01:59.008Z</time></trkpt><trkpt lat="47.27775276642971" lon="-1.6289606876686484"><ele>50.00000000000001</ele><time>2026-04-06T17:01:59.997Z</time></trkpt><trkpt lat="47.277758843309506" lon="-1.628861865030256"><ele>50.0</ele><time>2026-04-06T17:02:01.009Z</time></trkpt><trkpt lat="47.27776257325642" lon="-1.6287676524386077"><ele>50.0</ele><time>2026-04-06T17:02:02.01Z</time></trkpt><trkpt lat="47.27779128127478" lon="-1.6285518184319403"><ele>50.0</ele><time>2026-04-06T17:02:03.997Z</time></trkpt><trkpt lat="47.27778264791451" lon="-1.6284369863584902"><ele>50.00000000000001</ele><time>2026-04-06T17:02:04.997Z</time></trkpt><trkpt lat="47.27779631041668" lon="-1.628314442934122"><ele>50.0</ele><time>2026-04-06T17:02:05.995Z</time></trkpt><trkpt lat="47.27781110447578" lon="-1.6281799133882189"><ele>49.66666666666667</ele><time>2026-04-06T17:02:06.994Z</time></trkpt><trkpt lat="47.277823593511506" lon="-1.6280535981074236"><ele>49.333333333333336</ele><time>2026-04-06T17:02:08Z</time></trkpt><trkpt lat="47.27783763319932" lon="-1.627927450464692"><ele>49.0</ele><time>2026-04-06T17:02:09.014Z</time></trkpt><trkpt lat="47.277849619320854" lon="-1.6278032306596895"><ele>48.66666666666667</ele><time>2026-04-06T17:02:09.995Z</time></trkpt><trkpt lat="47.27785695348613" lon="-1.6276871413007636"><ele>48.333333333333336</ele><time>2026-04-06T17:02:10.999Z</time></trkpt><trkpt lat="47.277867221317514" lon="-1.6275696270182984"><ele>48.0</ele><time>2026-04-06T17:02:12.006Z</time></trkpt><trkpt lat="47.27787476503037" lon="-1.6274474188700574"><ele>47.666666666666664</ele><time>2026-04-06T17:02:13.004Z</time></trkpt><trkpt lat="47.27786382664673" lon="-1.62726871669444"><ele>47.333333333333336</ele><time>2026-04-06T17:02:15.006Z</time></trkpt><trkpt lat="47.27784572173588" lon="-1.6271491907552136"><ele>47.0</ele><time>2026-04-06T17:02:16Z</time></trkpt><trkpt lat="47.277824515520855" lon="-1.6270325146630658"><ele>46.66666666666667</ele><time>2026-04-06T17:02:17.005Z</time></trkpt><trkpt lat="47.27779526267879" lon="-1.6269209515318526"><ele>46.333333333333336</ele><time>2026-04-06T17:02:18Z</time></trkpt><trkpt lat="47.27776194461368" lon="-1.6268225479886185"><ele>46.0</ele><time>2026-04-06T17:02:19.007Z</time></trkpt><trkpt lat="47.27772653107278" lon="-1.6266893595472227"><ele>45.714285714285715</ele><time>2026-04-06T17:02:20.007Z</time></trkpt><trkpt lat="47.27767976005308" lon="-1.6266140062377104"><ele>45.42857142857142</ele><time>2026-04-06T17:02:21.004Z</time></trkpt><trkpt lat="47.27764141284607" lon="-1.6265295166537412"><ele>45.14285714285714</ele><time>2026-04-06T17:02:22.01Z</time></trkpt><trkpt lat="47.277602730362936" lon="-1.6264321189388877"><ele>44.85714285714286</ele><time>2026-04-06T17:02:23.003Z</time></trkpt><trkpt lat="47.277557971" lon="-1.6263456176981574"><ele>44.57142857142857</ele><time>2026-04-06T17:02:24.001Z</time></trkpt><trkpt lat="47.277513798370286" lon="-1.6262676659986621"><ele>44.285714285714285</ele><time>2026-04-06T17:02:25.005Z</time></trkpt><trkpt lat="47.27746841036461" lon="-1.6261947434410695"><ele>44.0</ele><time>2026-04-06T17:02:26.008Z</time></trkpt><trkpt lat="47.27743186526678" lon="-1.626109499485815"><ele>44.0</ele><time>2026-04-06T17:02:27.005Z</time></trkpt><trkpt lat="47.277360870546914" lon="-1.6259478963926675"><ele>44.0</ele><time>2026-04-06T17:02:29.007Z</time></trkpt><trkpt lat="47.27733098906211" lon="-1.6258633229896666"><ele>44.0</ele><time>2026-04-06T17:02:29.997Z</time></trkpt><trkpt lat="47.277247044301845" lon="-1.6257243510350825"><ele>44.0</ele><time>2026-04-06T17:02:32.003Z</time></trkpt><trkpt lat="47.27720492523841" lon="-1.6256429627552866"><ele>44.0</ele><time>2026-04-06T17:02:33.005Z</time></trkpt><trkpt lat="47.27718342565677" lon="-1.6255531087532877"><ele>44.166666666666664</ele><time>2026-04-06T17:02:33.994Z</time></trkpt><trkpt lat="47.277142521969296" lon="-1.625458728523576"><ele>44.33333333333333</ele><time>2026-04-06T17:02:35.001Z</time></trkpt><trkpt lat="47.277066540017046" lon="-1.6253015678391096"><ele>44.5</ele><time>2026-04-06T17:02:37.007Z</time></trkpt><trkpt lat="47.27703141984276" lon="-1.6252071876093979"><ele>44.666666666666664</ele><time>2026-04-06T17:02:37.999Z</time></trkpt><trkpt lat="47.27698121224276" lon="-1.6251328401282663"><ele>44.833333333333336</ele><time>2026-04-06T17:02:39.005Z</time></trkpt><trkpt lat="47.276934608861126" lon="-1.625054301695549"><ele>45.0</ele><time>2026-04-06T17:02:40.002Z</time></trkpt><trkpt lat="47.276892028793014" lon="-1.6249719075873725"><ele>45.0</ele><time>2026-04-06T17:02:41.007Z</time></trkpt><trkpt lat="47.27684814952991" lon="-1.6248823888615005"><ele>45.0</ele><time>2026-04-06T17:02:42.004Z</time></trkpt><trkpt lat="47.27680808403275" lon="-1.6248043533429735"><ele>45.0</ele><time>2026-04-06T17:02:43.005Z</time></trkpt><trkpt lat="47.27675284729085" lon="-1.6247222945109239"><ele>45.0</ele><time>2026-04-06T17:02:44.002Z</time></trkpt><trkpt lat="47.27667393167249" lon="-1.6246482823059192"><ele>45.0</ele><time>2026-04-06T17:02:45.995Z</time></trkpt><trkpt lat="47.27659321394495" lon="-1.6245512198671928"><ele>45.0</ele><time>2026-04-06T17:02:48.001Z</time></trkpt><trkpt lat="47.27650235411457" lon="-1.6246155928835502"><ele>44.4</ele><time>2026-04-06T17:02:50Z</time></trkpt><trkpt lat="47.27639766414396" lon="-1.6246581729516616"><ele>43.8</ele><time>2026-04-06T17:02:52Z</time></trkpt><trkpt lat="47.276293183720924" lon="-1.6247188579306235"><ele>43.2</ele><time>2026-04-06T17:02:53.996Z</time></trkpt><trkpt lat="47.27617780682377" lon="-1.6247594263419738"><ele>42.6</ele><time>2026-04-06T17:02:56.002Z</time></trkpt><trkpt lat="47.27611636747352" lon="-1.6248319298044078"><ele>42.0</ele><time>2026-04-06T17:02:57Z</time></trkpt><trkpt lat="47.276048935062505" lon="-1.6248835623279445"><ele>42.0</ele><time>2026-04-06T17:02:58.002Z</time></trkpt><trkpt lat="47.275970438539304" lon="-1.6249182634070747"><ele>42.0</ele><time>2026-04-06T17:02:59.003Z</time></trkpt><trkpt lat="47.27588905025951" lon="-1.6249465942397945"><ele>42.0</ele><time>2026-04-06T17:03:00.001Z</time></trkpt><trkpt lat="47.27582350377671" lon="-1.625015158207738"><ele>42.0</ele><time>2026-04-06T17:03:00.995Z</time></trkpt><trkpt lat="47.27573754735968" lon="-1.6250655334457988"><ele>42.0</ele><time>2026-04-06T17:03:02.007Z</time></trkpt><trkpt lat="47.27564568170092" lon="-1.6251119691893692"><ele>42.0</ele><time>2026-04-06T17:03:03.001Z</time></trkpt><trkpt lat="47.2755502118238" lon="-1.625137953089201"><ele>41.0</ele><time>2026-04-06T17:03:04.007Z</time></trkpt><trkpt lat="47.27540876720778" lon="-1.625154716895544"><ele>40.0</ele><time>2026-04-06T17:03:05.999Z</time></trkpt><trkpt lat="47.27532000285319" lon="-1.6251625958845253"><ele>39.0</ele><time>2026-04-06T17:03:06.996Z</time></trkpt><trkpt lat="47.27523970422081" lon="-1.6251624282464618"><ele>38.0</ele><time>2026-04-06T17:03:07.996Z</time></trkpt><trkpt lat="47.275172565176405" lon="-1.6251247935012216"><ele>37.0</ele><time>2026-04-06T17:03:08.994Z</time></trkpt><trkpt lat="47.27510379166088" lon="-1.6251006536200876"><ele>37.0</ele><time>2026-04-06T17:03:09.988Z</time></trkpt><trkpt lat="47.27503086910329" lon="-1.6250709816828603"><ele>37.0</ele><time>2026-04-06T17:03:10.99Z</time></trkpt><trkpt lat="47.27496540643952" lon="-1.6250371187940473"><ele>37.0</ele><time>2026-04-06T17:03:11.987Z</time></trkpt><trkpt lat="47.27490094960413" lon="-1.6249846480801933"><ele>37.0</ele><time>2026-04-06T17:03:12.99Z</time></trkpt><trkpt lat="47.274833642921664" lon="-1.6249496117249362"><ele>37.0</ele><time>2026-04-06T17:03:13.988Z</time></trkpt><trkpt lat="47.27477153301916" lon="-1.6249089594945543"><ele>37.0</ele><time>2026-04-06T17:03:14.991Z</time></trkpt><trkpt lat="47.27469437760047" lon="-1.624880796299898"><ele>37.0</ele><time>2026-04-06T17:03:15.997Z</time></trkpt><trkpt lat="47.274577240503646" lon="-1.6248271521196"><ele>37.0</ele><time>2026-04-06T17:03:18.007Z</time></trkpt><trkpt lat="47.2744663898342" lon="-1.6247930377736919"><ele>37.0</ele><time>2026-04-06T17:03:19.994Z</time></trkpt><trkpt lat="47.274331189736046" lon="-1.6246948018685212"><ele>37.0</ele><time>2026-04-06T17:03:21.995Z</time></trkpt><trkpt lat="47.274258644364096" lon="-1.6246290877476564"><ele>37.0</ele><time>2026-04-06T17:03:23.002Z</time></trkpt><trkpt lat="47.27418907456777" lon="-1.6245896928027501"><ele>37.0</ele><time>2026-04-06T17:03:24.001Z</time></trkpt><trkpt lat="47.27413425692103" lon="-1.6245282534525025"><ele>37.0</ele><time>2026-04-06T17:03:25.008Z</time></trkpt><trkpt lat="47.2740710154616" lon="-1.6244923789069283"><ele>37.0</ele><time>2026-04-06T17:03:26.002Z</time></trkpt><trkpt lat="47.273994488685645" lon="-1.6244228929296363"><ele>37.0</ele><time>2026-04-06T17:03:27.002Z</time></trkpt><trkpt lat="47.27393401325426" lon="-1.6243753675386536"><ele>37.0</ele><time>2026-04-06T17:03:28.003Z</time></trkpt><trkpt lat="47.27387303490869" lon="-1.624338738621794"><ele>37.0</ele><time>2026-04-06T17:03:29.003Z</time></trkpt><trkpt lat="47.273755101531066" lon="-1.6243130061790574"><ele>37.0</ele><time>2026-04-06T17:03:31.002Z</time></trkpt><trkpt lat="47.27369684730402" lon="-1.6242716833964215"><ele>36.833333333333336</ele><time>2026-04-06T17:03:32.003Z</time></trkpt><trkpt lat="47.27363264192573" lon="-1.6242366470411644"><ele>36.66666666666667</ele><time>2026-04-06T17:03:33.011Z</time></trkpt><trkpt lat="47.27356877182356" lon="-1.624204376713954"><ele>36.5</ele><time>2026-04-06T17:03:34.012Z</time></trkpt><trkpt lat="47.2735046502643" lon="-1.6241707652822361"><ele>36.333333333333336</ele><time>2026-04-06T17:03:35.004Z</time></trkpt><trkpt lat="47.27340549234978" lon="-1.6241301130518542"><ele>36.166666666666664</ele><time>2026-04-06T17:03:37.008Z</time></trkpt><trkpt lat="47.27334774103693" lon="-1.624090969564043"><ele>36.0</ele><time>2026-04-06T17:03:37.998Z</time></trkpt><trkpt lat="47.273244895085014" lon="-1.6240101680174692"><ele>36.0</ele><time>2026-04-06T17:03:39.997Z</time></trkpt><trkpt lat="47.273148461289026" lon="-1.6238993592575415"><ele>36.0</ele><time>2026-04-06T17:03:41.996Z</time></trkpt><trkpt lat="47.2730437294089" lon="-1.623809002341352"><ele>36.0</ele><time>2026-04-06T17:03:43.996Z</time></trkpt><trkpt lat="47.27293547712944" lon="-1.6237289551660639"><ele>36.0</ele><time>2026-04-06T17:03:46.001Z</time></trkpt><trkpt lat="47.27285128091208" lon="-1.6236763168141466"><ele>36.2</ele><time>2026-04-06T17:03:48.004Z</time></trkpt><trkpt lat="47.272760882086374" lon="-1.6236247681096416"><ele>36.400000000000006</ele><time>2026-04-06T17:03:50.006Z</time></trkpt><trkpt lat="47.272662436633624" lon="-1.6235625743881086"><ele>36.6</ele><time>2026-04-06T17:03:52Z</time></trkpt><trkpt lat="47.27256797258488" lon="-1.6235120315119842"><ele>36.800000000000004</ele><time>2026-04-06T17:03:53.995Z</time></trkpt><trkpt lat="47.272466761104084" lon="-1.6234697867199996"><ele>37.0</ele><time>2026-04-06T17:03:55.992Z</time></trkpt><trkpt lat="47.2723711235889" lon="-1.6234427969917873"><ele>37.8</ele><time>2026-04-06T17:03:57.995Z</time></trkpt><trkpt lat="47.27226580497555" lon="-1.623403988780103"><ele>38.6</ele><time>2026-04-06T17:04:00.004Z</time></trkpt><trkpt lat="47.27216270756654" lon="-1.623359816150389"><ele>39.4</ele><time>2026-04-06T17:04:02Z</time></trkpt><trkpt lat="47.272072685926474" lon="-1.623374568299971"><ele>40.199999999999996</ele><time>2026-04-06T17:04:04.004Z</time></trkpt><trkpt lat="47.271977467506446" lon="-1.623344812543712"><ele>41.0</ele><time>2026-04-06T17:04:06.004Z</time></trkpt><trkpt lat="47.2718848474764" lon="-1.623307345436535"><ele>41.0</ele><time>2026-04-06T17:04:08.002Z</time></trkpt><trkpt lat="47.27178602483801" lon="-1.6232577245697595"><ele>41.0</ele><time>2026-04-06T17:04:10.002Z</time></trkpt><trkpt lat="47.27170266681097" lon="-1.6232345066979743"><ele>41.0</ele><time>2026-04-06T17:04:11.995Z</time></trkpt><trkpt lat="47.271610507785596" lon="-1.6232335846886254"><ele>41.0</ele><time>2026-04-06T17:04:13.992Z</time></trkpt><trkpt lat="47.2715542233058" lon="-1.623191591353736"><ele>41.0</ele><time>2026-04-06T17:04:14.997Z</time></trkpt><trkpt lat="47.2714548558437" lon="-1.6231361031547404"><ele>41.599999999999994</ele><time>2026-04-06T17:04:16.994Z</time></trkpt><trkpt lat="47.2713676421412" lon="-1.6230860631928061"><ele>42.2</ele><time>2026-04-06T17:04:19Z</time></trkpt><trkpt lat="47.27127024442635" lon="-1.6230803634986495"><ele>42.8</ele><time>2026-04-06T17:04:20.998Z</time></trkpt><trkpt lat="47.27117460691116" lon="-1.6231467481717683"><ele>43.400000000000006</ele><time>2026-04-06T17:04:23.008Z</time></trkpt><trkpt lat="47.27112469267777" lon="-1.6232709679767705"><ele>44.0</ele><time>2026-04-06T17:04:24.995Z</time></trkpt><trkpt lat="47.271054452329196" lon="-1.6232454031720973"><ele>44.0</ele><time>2026-04-06T17:04:27.011Z</time></trkpt><trkpt lat="47.27106350478462" lon="-1.6231422219440557"><ele>44.0</ele><time>2026-04-06T17:04:28.994Z</time></trkpt><trkpt lat="47.27109602656893" lon="-1.6230488475427245"><ele>44.0</ele><time>2026-04-06T17:04:31.011Z</time></trkpt><trkpt lat="47.2711630817943" lon="-1.6230391245350455"><ele>44.0</ele><time>2026-04-06T17:04:32.003Z</time></trkpt><trkpt lat="47.27125415117226" lon="-1.6229829657837962"><ele>44.0</ele><time>2026-04-06T17:04:33.999Z</time></trkpt><trkpt lat="47.271329546391286" lon="-1.6228501964375588"><ele>44.0</ele><time>2026-04-06T17:04:36.002Z</time></trkpt><trkpt lat="47.27138289720497" lon="-1.6227792855367276"><ele>43.33333333333333</ele><time>2026-04-06T17:04:36.994Z</time></trkpt><trkpt lat="47.27142225024036" lon="-1.6227021720275494"><ele>42.666666666666664</ele><time>2026-04-06T17:04:38.004Z</time></trkpt><trkpt lat="47.271490730389274" lon="-1.6225272417083592"><ele>42.0</ele><time>2026-04-06T17:04:40.005Z</time></trkpt><trkpt lat="47.271523294083096" lon="-1.622426575051269"><ele>41.333333333333336</ele><time>2026-04-06T17:04:40.994Z</time></trkpt><trkpt lat="47.27156776007942" lon="-1.622324902565798"><ele>40.66666666666667</ele><time>2026-04-06T17:04:42.001Z</time></trkpt><trkpt lat="47.27159592327408" lon="-1.6222271695748178"><ele>40.0</ele><time>2026-04-06T17:04:43.01Z</time></trkpt><trkpt lat="47.27163041480563" lon="-1.6221087332830038"><ele>39.5</ele><time>2026-04-06T17:04:44.001Z</time></trkpt><trkpt lat="47.271665744527496" lon="-1.621999684722742"><ele>39.0</ele><time>2026-04-06T17:04:44.994Z</time></trkpt><trkpt lat="47.271698853045024" lon="-1.6218819189831817"><ele>38.5</ele><time>2026-04-06T17:04:45.999Z</time></trkpt><trkpt lat="47.2717302432724" lon="-1.6217784862980449"><ele>38.0</ele><time>2026-04-06T17:04:46.998Z</time></trkpt><trkpt lat="47.2718045069345" lon="-1.6217074077591502"><ele>37.5</ele><time>2026-04-06T17:04:47.998Z</time></trkpt><trkpt lat="47.271845955445684" lon="-1.6216160450145802"><ele>37.0</ele><time>2026-04-06T17:04:48.994Z</time></trkpt><trkpt lat="47.271869215226985" lon="-1.6215224191561541"><ele>36.800000000000004</ele><time>2026-04-06T17:04:50.003Z</time></trkpt><trkpt lat="47.27190752052448" lon="-1.621353356169184"><ele>36.6</ele><time>2026-04-06T17:04:52.005Z</time></trkpt><trkpt lat="47.27192671508274" lon="-1.6212124563768704"><ele>36.400000000000006</ele><time>2026-04-06T17:04:54.002Z</time></trkpt><trkpt lat="47.27195659656755" lon="-1.621072897689064"><ele>36.2</ele><time>2026-04-06T17:04:56.003Z</time></trkpt><trkpt lat="47.271949639587916" lon="-1.6209525335595205"><ele>36.0</ele><time>2026-04-06T17:04:58.004Z</time></trkpt><trkpt lat="47.2719271341779" lon="-1.62079956382664"><ele>35.8</ele><time>2026-04-06T17:04:59.999Z</time></trkpt><trkpt lat="47.271923655688084" lon="-1.6206797864303184"><ele>35.6</ele><time>2026-04-06T17:05:01.994Z</time></trkpt><trkpt lat="47.27193312723867" lon="-1.620531762020309"><ele>35.4</ele><time>2026-04-06T17:05:04.003Z</time></trkpt><trkpt lat="47.271872567988254" lon="-1.6204202827081273"><ele>35.2</ele><time>2026-04-06T17:05:06.004Z</time></trkpt><trkpt lat="47.27178770121864" lon="-1.6203104797765802"><ele>35.0</ele><time>2026-04-06T17:05:08.004Z</time></trkpt><trkpt lat="47.2717199335315" lon="-1.6201951447889396"><ele>35.0</ele><time>2026-04-06T17:05:09.995Z</time></trkpt><trkpt lat="47.27163548585705" lon="-1.6200703382507153"><ele>35.0</ele><time>2026-04-06T17:05:12.001Z</time></trkpt><trkpt lat="47.271553762301124" lon="-1.6199678275749272"><ele>35.0</ele><time>2026-04-06T17:05:14.003Z</time></trkpt><trkpt lat="47.271473631306804" lon="-1.6198678314700907"><ele>35.0</ele><time>2026-04-06T17:05:16.002Z</time></trkpt><trkpt lat="47.27138972845606" lon="-1.6197303682580773"><ele>35.0</ele><time>2026-04-06T17:05:18.003Z</time></trkpt><trkpt lat="47.27131797936491" lon="-1.6196395922467295"><ele>35.0</ele><time>2026-04-06T17:05:20.004Z</time></trkpt><trkpt lat="47.27126215588979" lon="-1.6195039730534138"><ele>35.0</ele><time>2026-04-06T17:05:22Z</time></trkpt><trkpt lat="47.27119694468311" lon="-1.6194028034821333"><ele>35.0</ele><time>2026-04-06T17:05:24.001Z</time></trkpt><trkpt lat="47.27114413869313" lon="-1.619293335826713"><ele>35.0</ele><time>2026-04-06T17:05:26.003Z</time></trkpt><trkpt lat="47.27109363772652" lon="-1.6192108578995048"><ele>36.33333333333333</ele><time>2026-04-06T17:05:28.003Z</time></trkpt><trkpt lat="47.27108533964238" lon="-1.6191108617946683"><ele>37.666666666666664</ele><time>2026-04-06T17:05:30.005Z</time></trkpt><trkpt lat="47.2710557934337" lon="-1.6190058365479287"><ele>39.0</ele><time>2026-04-06T17:05:32.004Z</time></trkpt><trkpt lat="47.27102272682569" lon="-1.6189155634507713"><ele>40.333333333333336</ele><time>2026-04-06T17:05:34.002Z</time></trkpt><trkpt lat="47.27101325527511" lon="-1.618798384444433"><ele>41.66666666666667</ele><time>2026-04-06T17:05:36.008Z</time></trkpt><trkpt lat="47.27101384200833" lon="-1.6186837200090463"><ele>43.0</ele><time>2026-04-06T17:05:37.991Z</time></trkpt><trkpt lat="47.270979601933874" lon="-1.6185682173833422"><ele>43.16666666666667</ele><time>2026-04-06T17:05:41.005Z</time></trkpt><trkpt lat="47.27090760138563" lon="-1.6185424011215739"><ele>43.333333333333336</ele><time>2026-04-06T17:05:43.001Z</time></trkpt><trkpt lat="47.27081045512787" lon="-1.6185530461386017"><ele>43.5</ele><time>2026-04-06T17:05:44.993Z</time></trkpt><trkpt lat="47.270715027160264" lon="-1.618573665620404"><ele>43.666666666666664</ele><time>2026-04-06T17:05:46.998Z</time></trkpt><trkpt lat="47.270631752952255" lon="-1.6185504477486186"><ele>43.83333333333333</ele><time>2026-04-06T17:05:48.997Z</time></trkpt><trkpt lat="47.27056582928381" lon="-1.6184753458962016"><ele>44.0</ele><time>2026-04-06T17:05:50.999Z</time></trkpt><trkpt lat="47.27051759143106" lon="-1.6183820553139023"><ele>44.0</ele><time>2026-04-06T17:05:52.998Z</time></trkpt><trkpt lat="47.27046671327881" lon="-1.6182953864351084"><ele>44.0</ele><time>2026-04-06T17:05:54.998Z</time></trkpt><trkpt lat="47.270418978340246" lon="-1.6182169318214228"><ele>44.0</ele><time>2026-04-06T17:05:56.99Z</time></trkpt><trkpt lat="47.270370321392335" lon="-1.618139734493213"><ele>44.0</ele><time>2026-04-06T17:05:58.999Z</time></trkpt><trkpt lat="47.27032086816362" lon="-1.6180605255082416"><ele>44.0</ele><time>2026-04-06T17:06:01.002Z</time></trkpt><trkpt lat="47.27027162448249" lon="-1.617985004560666"><ele>44.0</ele><time>2026-04-06T17:06:02.999Z</time></trkpt><trkpt lat="47.270227368033744" lon="-1.617909064517932"><ele>44.0</ele><time>2026-04-06T17:06:05.002Z</time></trkpt><trkpt lat="47.2701820638471" lon="-1.617821808905916"><ele>44.666666666666664</ele><time>2026-04-06T17:06:06.991Z</time></trkpt><trkpt lat="47.27013198197565" lon="-1.617737570779042"><ele>45.33333333333333</ele><time>2026-04-06T17:06:09.006Z</time></trkpt><trkpt lat="47.27008739025078" lon="-1.6176615469172761"><ele>46.0</ele><time>2026-04-06T17:06:10.998Z</time></trkpt><trkpt lat="47.27003144104711" lon="-1.6175695136204524"><ele>46.666666666666664</ele><time>2026-04-06T17:06:13.004Z</time></trkpt><trkpt lat="47.2699825326421" lon="-1.617463901640491"><ele>47.333333333333336</ele><time>2026-04-06T17:06:14.999Z</time></trkpt><trkpt lat="47.269948627843775" lon="-1.6173494048431676"><ele>48.0</ele><time>2026-04-06T17:06:16.998Z</time></trkpt><trkpt lat="47.26990981963209" lon="-1.6172387637213033"><ele>48.0</ele><time>2026-04-06T17:06:18.997Z</time></trkpt><trkpt lat="47.26987247825346" lon="-1.6171379294261494"><ele>48.0</ele><time>2026-04-06T17:06:21.001Z</time></trkpt><trkpt lat="47.26983886682174" lon="-1.6170350834742346"><ele>48.0</ele><time>2026-04-06T17:06:23.008Z</time></trkpt><trkpt lat="47.26981640332124" lon="-1.6169273760184804"><ele>48.0</ele><time>2026-04-06T17:06:25Z</time></trkpt><trkpt lat="47.269783043346614" lon="-1.6168252844378508"><ele>48.0</ele><time>2026-04-06T17:06:27.002Z</time></trkpt><trkpt lat="47.269756724170655" lon="-1.6167226899430311"><ele>48.0</ele><time>2026-04-06T17:06:28.993Z</time></trkpt><trkpt lat="47.269749138548285" lon="-1.6166053432986294"><ele>48.0</ele><time>2026-04-06T17:06:31.009Z</time></trkpt><trkpt lat="47.26975534115663" lon="-1.6164804529413734"><ele>48.0</ele><time>2026-04-06T17:06:32.998Z</time></trkpt><trkpt lat="47.26976322014561" lon="-1.6163578256979736"><ele>48.0</ele><time>2026-04-06T17:06:35.009Z</time></trkpt><trkpt lat="47.269775751090854" lon="-1.6162349469974788"><ele>48.0</ele><time>2026-04-06T17:06:36.991Z</time></trkpt><trkpt lat="47.26978467781773" lon="-1.616120869295314"><ele>48.0</ele><time>2026-04-06T17:06:39.006Z</time></trkpt><trkpt lat="47.26977893621406" lon="-1.6160185262575895"><ele>48.0</ele><time>2026-04-06T17:06:41.009Z</time></trkpt><trkpt lat="47.26976762064478" lon="-1.6159068793073443"><ele>48.333333333333336</ele><time>2026-04-06T17:06:43.009Z</time></trkpt><trkpt lat="47.269753078042775" lon="-1.6158029437080172"><ele>48.66666666666667</ele><time>2026-04-06T17:06:45.001Z</time></trkpt><trkpt lat="47.269732542380005" lon="-1.6156926378622796"><ele>49.0</ele><time>2026-04-06T17:06:47.008Z</time></trkpt><trkpt lat="47.26971024651757" lon="-1.615585600958779"><ele>49.333333333333336</ele><time>2026-04-06T17:06:49.001Z</time></trkpt><trkpt lat="47.26968857929787" lon="-1.6154851019397523"><ele>49.66666666666667</ele><time>2026-04-06T17:06:51.002Z</time></trkpt><trkpt lat="47.26966967810622" lon="-1.6153692640379214"><ele>50.0</ele><time>2026-04-06T17:06:52.991Z</time></trkpt><trkpt lat="47.26965073500505" lon="-1.6152538452312493"><ele>50.42857142857143</ele><time>2026-04-06T17:06:55.005Z</time></trkpt><trkpt lat="47.26963120517066" lon="-1.6151509992793343"><ele>50.85714285714286</ele><time>2026-04-06T17:06:57.001Z</time></trkpt><trkpt lat="47.26961318407884" lon="-1.6150489915177366"><ele>51.28571428571429</ele><time>2026-04-06T17:06:58.996Z</time></trkpt><trkpt lat="47.26959759373894" lon="-1.6149437148139019"><ele>51.714285714285715</ele><time>2026-04-06T17:07:01.002Z</time></trkpt><trkpt lat="47.26958020128986" lon="-1.6148309782162447"><ele>52.14285714285714</ele><time>2026-04-06T17:07:02.999Z</time></trkpt><trkpt lat="47.26956373085013" lon="-1.6147158946856992"><ele>52.57142857142858</ele><time>2026-04-06T17:07:04.995Z</time></trkpt><trkpt lat="47.269561761102885" lon="-1.6146074328586595"><ele>53.0</ele><time>2026-04-06T17:07:07.006Z</time></trkpt><trkpt lat="47.26958070420405" lon="-1.6145049221828713"><ele>53.16666666666667</ele><time>2026-04-06T17:07:09Z</time></trkpt><trkpt lat="47.26962039251557" lon="-1.6144024953261151"><ele>53.333333333333336</ele><time>2026-04-06T17:07:11.003Z</time></trkpt><trkpt lat="47.2696828376942" lon="-1.614344241099073"><ele>53.5</ele><time>2026-04-06T17:07:12.99Z</time></trkpt><trkpt lat="47.269765944264144" lon="-1.6143054328873887"><ele>53.66666666666667</ele><time>2026-04-06T17:07:14.989Z</time></trkpt><trkpt lat="47.26983086210421" lon="-1.6142364498242867"><ele>53.833333333333336</ele><time>2026-04-06T17:07:17Z</time></trkpt><trkpt lat="47.26986459926448" lon="-1.6141208633795512"><ele>54.0</ele><time>2026-04-06T17:07:19Z</time></trkpt><trkpt lat="47.26986443162642" lon="-1.6139818914249668"><ele>54.0</ele><time>2026-04-06T17:07:21.002Z</time></trkpt><trkpt lat="47.26982616823843" lon="-1.6138534806683789"><ele>54.00000000000001</ele><time>2026-04-06T17:07:23.001Z</time></trkpt><trkpt lat="47.269741762473494" lon="-1.6138149239137898"><ele>54.00000000000001</ele><time>2026-04-06T17:07:23.992Z</time></trkpt><trkpt lat="47.26965073500505" lon="-1.613757340239001"><ele>54.0</ele><time>2026-04-06T17:07:26.008Z</time></trkpt><trkpt lat="47.269555390856475" lon="-1.6137435939177998"><ele>54.0</ele><time>2026-04-06T17:07:27.992Z</time></trkpt><trkpt lat="47.26947442167184" lon="-1.6136194579318293"><ele>54.25</ele><time>2026-04-06T17:07:30.008Z</time></trkpt><trkpt lat="47.269408078908235" lon="-1.6134855151191478"><ele>54.5</ele><time>2026-04-06T17:07:31.992Z</time></trkpt><trkpt lat="47.269364283464164" lon="-1.613316033037019"><ele>54.75</ele><time>2026-04-06T17:07:33.995Z</time></trkpt><trkpt lat="47.26933788046917" lon="-1.6131377499565605"><ele>55.0</ele><time>2026-04-06T17:07:36.007Z</time></trkpt><trkpt lat="47.26932455324313" lon="-1.612961394713831"><ele>54.6</ele><time>2026-04-06T17:07:37.99Z</time></trkpt><trkpt lat="47.269307412251145" lon="-1.6127893980607508"><ele>54.2</ele><time>2026-04-06T17:07:40.002Z</time></trkpt><trkpt lat="47.26927581247619" lon="-1.612615305931878"><ele>53.8</ele><time>2026-04-06T17:07:41.99Z</time></trkpt><trkpt lat="47.26925301369956" lon="-1.6124414652601"><ele>53.4</ele><time>2026-04-06T17:07:44.008Z</time></trkpt><trkpt lat="47.2692388482832" lon="-1.6123470012113565"><ele>53.0</ele><time>2026-04-06T17:07:44.992Z</time></trkpt><trkpt lat="47.26922619160941" lon="-1.612245831640076"><ele>53.00000000000001</ele><time>2026-04-06T17:07:45.992Z</time></trkpt><trkpt lat="47.26921273865482" lon="-1.6121546365335697"><ele>53.0</ele><time>2026-04-06T17:07:47.003Z</time></trkpt><trkpt lat="47.269189730330616" lon="-1.6119770240053646"><ele>53.0</ele><time>2026-04-06T17:07:49Z</time></trkpt><trkpt lat="47.269168901301235" lon="-1.6118006687626352"><ele>53.0</ele><time>2026-04-06T17:07:51Z</time></trkpt><trkpt lat="47.26915741809389" lon="-1.6117020137623062"><ele>53.00000000000001</ele><time>2026-04-06T17:07:51.989Z</time></trkpt><trkpt lat="47.26914559961042" lon="-1.6116100642845141"><ele>53.0</ele><time>2026-04-06T17:07:52.997Z</time></trkpt><trkpt lat="47.2691516345807" lon="-1.6115012671813476"><ele>52.8</ele><time>2026-04-06T17:07:53.987Z</time></trkpt><trkpt lat="47.269140360920936" lon="-1.6113972477629885"><ele>52.599999999999994</ele><time>2026-04-06T17:07:54.988Z</time></trkpt><trkpt lat="47.26911429320207" lon="-1.6111934836968884"><ele>52.400000000000006</ele><time>2026-04-06T17:07:56.993Z</time></trkpt><trkpt lat="47.26908629764548" lon="-1.6110458783820374"><ele>52.2</ele><time>2026-04-06T17:07:58.997Z</time></trkpt><trkpt lat="47.26908248387954" lon="-1.6108769830331306"><ele>52.0</ele><time>2026-04-06T17:08:00.994Z</time></trkpt><trkpt lat="47.26906534288755" lon="-1.610749326647828"><ele>52.0</ele><time>2026-04-06T17:08:02.996Z</time></trkpt><trkpt lat="47.268996108367354" lon="-1.6107007954284647"><ele>52.0</ele><time>2026-04-06T17:08:05.004Z</time></trkpt><trkpt lat="47.268942673734635" lon="-1.6105945967152813"><ele>52.0</ele><time>2026-04-06T17:08:06.997Z</time></trkpt><trkpt lat="47.268885215788394" lon="-1.610473897309611"><ele>52.0</ele><time>2026-04-06T17:08:08.997Z</time></trkpt><trkpt lat="47.268836433111936" lon="-1.6103237774238086"><ele>52.0</ele><time>2026-04-06T17:08:11.001Z</time></trkpt><trkpt lat="47.26882063322446" lon="-1.6101656109109614"><ele>51.8</ele><time>2026-04-06T17:08:12.993Z</time></trkpt><trkpt lat="47.26883207452229" lon="-1.6099791135653945"><ele>51.6</ele><time>2026-04-06T17:08:15.002Z</time></trkpt><trkpt lat="47.26883102678439" lon="-1.6098025068655701"><ele>51.4</ele><time>2026-04-06T17:08:16.999Z</time></trkpt><trkpt lat="47.268815813630134" lon="-1.6096295043841093"><ele>51.199999999999996</ele><time>2026-04-06T17:08:19.001Z</time></trkpt><trkpt lat="47.26881866347721" lon="-1.6095177736148327"><ele>51.0</ele><time>2026-04-06T17:08:19.991Z</time></trkpt><trkpt lat="47.26880424660376" lon="-1.6093581821784464"><ele>51.599999999999994</ele><time>2026-04-06T17:08:22.005Z</time></trkpt><trkpt lat="47.2687961580672" lon="-1.6092482954278673"><ele>52.2</ele><time>2026-04-06T17:08:23Z</time></trkpt><trkpt lat="47.26876677949658" lon="-1.6090903803721155"><ele>52.800000000000004</ele><time>2026-04-06T17:08:24.99Z</time></trkpt><trkpt lat="47.26875667930326" lon="-1.6089525818839752"><ele>53.400000000000006</ele><time>2026-04-06T17:08:26.99Z</time></trkpt><trkpt lat="47.26872290023348" lon="-1.6087868716582736"><ele>54.0</ele><time>2026-04-06T17:08:28.997Z</time></trkpt><trkpt lat="47.26871288385919" lon="-1.6086793318405828"><ele>54.0</ele><time>2026-04-06T17:08:29.991Z</time></trkpt><trkpt lat="47.26868434347889" lon="-1.6085217520609576"><ele>54.00000000000001</ele><time>2026-04-06T17:08:32.003Z</time></trkpt><trkpt lat="47.26866108369759" lon="-1.6083394456669766"><ele>54.00000000000001</ele><time>2026-04-06T17:08:33.997Z</time></trkpt><trkpt lat="47.26864519999108" lon="-1.6082195006325917"><ele>54.0</ele><time>2026-04-06T17:08:34.989Z</time></trkpt><trkpt lat="47.26862634070894" lon="-1.6081263776883559"><ele>54.0</ele><time>2026-04-06T17:08:35.99Z</time></trkpt><trkpt lat="47.26860073399475" lon="-1.6079005692169144"><ele>53.833333333333336</ele><time>2026-04-06T17:08:37.997Z</time></trkpt><trkpt lat="47.268613264939994" lon="-1.6077720746412945"><ele>53.66666666666667</ele><time>2026-04-06T17:08:38.989Z</time></trkpt><trkpt lat="47.26860056635669" lon="-1.6076304204776954"><ele>53.5</ele><time>2026-04-06T17:08:39.99Z</time></trkpt><trkpt lat="47.26858799350193" lon="-1.607503853739805"><ele>53.333333333333336</ele><time>2026-04-06T17:08:41Z</time></trkpt><trkpt lat="47.268563476435155" lon="-1.6073823161438177"><ele>53.16666666666667</ele><time>2026-04-06T17:08:42.004Z</time></trkpt><trkpt lat="47.268540803387076" lon="-1.6072637960329719"><ele>53.0</ele><time>2026-04-06T17:08:43.001Z</time></trkpt><trkpt lat="47.268517040691584" lon="-1.6071549151107736"><ele>53.0</ele><time>2026-04-06T17:08:43.996Z</time></trkpt><trkpt lat="47.26849717558107" lon="-1.6070190444603627"><ele>53.0</ele><time>2026-04-06T17:08:45.009Z</time></trkpt><trkpt lat="47.268469180024475" lon="-1.6069120075568621"><ele>53.0</ele><time>2026-04-06T17:08:46.001Z</time></trkpt><trkpt lat="47.26847202987155" lon="-1.6067964211121264"><ele>53.0</ele><time>2026-04-06T17:08:46.996Z</time></trkpt><trkpt lat="47.26841624830595" lon="-1.6066166292890967"><ele>53.0</ele><time>2026-04-06T17:08:49.003Z</time></trkpt><trkpt lat="47.2683730395951" lon="-1.6065118554994524"><ele>53.2</ele><time>2026-04-06T17:08:50.004Z</time></trkpt><trkpt lat="47.268356066241175" lon="-1.6063947603121458"><ele>53.4</ele><time>2026-04-06T17:08:50.998Z</time></trkpt><trkpt lat="47.26835958664051" lon="-1.6062774136677442"><ele>53.60000000000001</ele><time>2026-04-06T17:08:51.996Z</time></trkpt><trkpt lat="47.26835028272799" lon="-1.606139866636699"><ele>53.800000000000004</ele><time>2026-04-06T17:08:53.001Z</time></trkpt><trkpt lat="47.26833687168291" lon="-1.6060283873245176"><ele>54.0</ele><time>2026-04-06T17:08:54.007Z</time></trkpt><trkpt lat="47.26830250587991" lon="-1.605852367357915"><ele>54.0</ele><time>2026-04-06T17:08:55.999Z</time></trkpt><trkpt lat="47.26828729272565" lon="-1.6057521197959834"><ele>54.0</ele><time>2026-04-06T17:08:57.008Z</time></trkpt><trkpt lat="47.26825908762148" lon="-1.6056515369579247"><ele>54.0</ele><time>2026-04-06T17:08:58.001Z</time></trkpt><trkpt lat="47.26822882895103" lon="-1.6054948791876487"><ele>54.0</ele><time>2026-04-06T17:08:59.99Z</time></trkpt><trkpt lat="47.268197815909296" lon="-1.6054101381465842"><ele>54.0</ele><time>2026-04-06T17:09:00.998Z</time></trkpt><trkpt lat="47.26818293803117" lon="-1.6053116507843186"><ele>54.0</ele><time>2026-04-06T17:09:02Z</time></trkpt><trkpt lat="47.268182351297945" lon="-1.6051741875723051"><ele>53.5</ele><time>2026-04-06T17:09:03.003Z</time></trkpt><trkpt lat="47.268158881969065" lon="-1.6050681564971852"><ele>53.0</ele><time>2026-04-06T17:09:03.989Z</time></trkpt><trkpt lat="47.26814819504252" lon="-1.604967992754285"><ele>52.5</ele><time>2026-04-06T17:09:05.006Z</time></trkpt><trkpt lat="47.26811864883384" lon="-1.6048261709526226"><ele>52.0</ele><time>2026-04-06T17:09:06.996Z</time></trkpt><trkpt lat="47.26808889307758" lon="-1.6047345567509574"><ele>51.5</ele><time>2026-04-06T17:09:07.998Z</time></trkpt><trkpt lat="47.26808051117441" lon="-1.6046405117973728"><ele>51.0</ele><time>2026-04-06T17:09:09.001Z</time></trkpt><trkpt lat="47.268028962469906" lon="-1.6044743824765126"><ele>51.0</ele><time>2026-04-06T17:09:10.999Z</time></trkpt><trkpt lat="47.268009432635516" lon="-1.6043704468771856"><ele>51.0</ele><time>2026-04-06T17:09:12Z</time></trkpt><trkpt lat="47.26799367465755" lon="-1.6042608954027333"><ele>51.0</ele><time>2026-04-06T17:09:12.999Z</time></trkpt><trkpt lat="47.267969073771745" lon="-1.6041700355723538"><ele>51.0</ele><time>2026-04-06T17:09:14.001Z</time></trkpt><trkpt lat="47.26795381870797" lon="-1.6040686145439782"><ele>51.0</ele><time>2026-04-06T17:09:14.996Z</time></trkpt><trkpt lat="47.26792603269896" lon="-1.603966690601412"><ele>51.0</ele><time>2026-04-06T17:09:16Z</time></trkpt><trkpt lat="47.267904323569745" lon="-1.6038757469520009"><ele>51.0</ele><time>2026-04-06T17:09:16.998Z</time></trkpt><trkpt lat="47.26786379706791" lon="-1.6037049237653647"><ele>51.0</ele><time>2026-04-06T17:09:19.003Z</time></trkpt><trkpt lat="47.26785654672167" lon="-1.6035893373206291"><ele>51.0</ele><time>2026-04-06T17:09:19.995Z</time></trkpt><trkpt lat="47.2678360110589" lon="-1.6034957952812345"><ele>51.0</ele><time>2026-04-06T17:09:21Z</time></trkpt><trkpt lat="47.26779498164287" lon="-1.6033332701787384"><ele>51.0</ele><time>2026-04-06T17:09:23.002Z</time></trkpt><trkpt lat="47.2677651839771" lon="-1.6031623631730705"><ele>51.0</ele><time>2026-04-06T17:09:25.005Z</time></trkpt><trkpt lat="47.26773643404922" lon="-1.6030611936017898"><ele>51.0</ele><time>2026-04-06T17:09:25.998Z</time></trkpt><trkpt lat="47.267717449038535" lon="-1.6029685735717443"><ele>51.0</ele><time>2026-04-06T17:09:27Z</time></trkpt><trkpt lat="47.267702571160406" lon="-1.602862626315656"><ele>51.0</ele><time>2026-04-06T17:09:27.993Z</time></trkpt><trkpt lat="47.26769829638979" lon="-1.6027528233841086"><ele>51.0</ele><time>2026-04-06T17:09:28.996Z</time></trkpt><trkpt lat="47.26767897610298" lon="-1.602636063472929"><ele>51.0</ele><time>2026-04-06T17:09:29.995Z</time></trkpt><trkpt lat="47.26763291754505" lon="-1.6024629771724366"><ele>51.0</ele><time>2026-04-06T17:09:31.998Z</time></trkpt><trkpt lat="47.26759855174205" lon="-1.602363903076949"><ele>50.5</ele><time>2026-04-06T17:09:32.999Z</time></trkpt><trkpt lat="47.267533927268595" lon="-1.602234235034885"><ele>50.0</ele><time>2026-04-06T17:09:34.989Z</time></trkpt><trkpt lat="47.267500651113004" lon="-1.6021483205273768"><ele>49.5</ele><time>2026-04-06T17:09:35.995Z</time></trkpt><trkpt lat="47.2674723621898" lon="-1.6020556166782993"><ele>49.0</ele><time>2026-04-06T17:09:36.999Z</time></trkpt><trkpt lat="47.26744072050533" lon="-1.6019614040866512"><ele>48.5</ele><time>2026-04-06T17:09:37.995Z</time></trkpt><trkpt lat="47.26741662253371" lon="-1.6018532775357381"><ele>48.0</ele><time>2026-04-06T17:09:39.002Z</time></trkpt><trkpt lat="47.26737655703655" lon="-1.6017677821233884"><ele>47.2</ele><time>2026-04-06T17:09:39.992Z</time></trkpt><trkpt lat="47.26733640772036" lon="-1.6016758326455967"><ele>46.4</ele><time>2026-04-06T17:09:40.998Z</time></trkpt><trkpt lat="47.26724646989933" lon="-1.6015669517233981"><ele>45.6</ele><time>2026-04-06T17:09:43.001Z</time></trkpt><trkpt lat="47.26716864392838" lon="-1.6014546342208995"><ele>44.800000000000004</ele><time>2026-04-06T17:09:44.998Z</time></trkpt><trkpt lat="47.267221994742066" lon="-1.601326307283343"><ele>44.0</ele><time>2026-04-06T17:09:47.993Z</time></trkpt><trkpt lat="47.26727710575542" lon="-1.601245589555801"><ele>43.166666666666664</ele><time>2026-04-06T17:09:49.995Z</time></trkpt><trkpt lat="47.267271867065936" lon="-1.6011179331704983"><ele>42.33333333333333</ele><time>2026-04-06T17:09:51.993Z</time></trkpt><trkpt lat="47.267267131290644" lon="-1.6009768657401213"><ele>41.5</ele><time>2026-04-06T17:09:53.995Z</time></trkpt><trkpt lat="47.26724814627996" lon="-1.6008605249241001"><ele>40.666666666666664</ele><time>2026-04-06T17:09:55.991Z</time></trkpt><trkpt lat="47.26720556621185" lon="-1.6007319465294487"><ele>39.833333333333336</ele><time>2026-04-06T17:09:58.001Z</time></trkpt><trkpt lat="47.26714341439983" lon="-1.6006473731264477"><ele>39.0</ele><time>2026-04-06T17:09:59.006Z</time></trkpt><trkpt lat="47.2670537280359" lon="-1.6005654819324617"><ele>39.0</ele><time>2026-04-06T17:10:00.988Z</time></trkpt><trkpt lat="47.26698256567797" lon="-1.6005002707257872"><ele>39.0</ele><time>2026-04-06T17:10:02.985Z</time></trkpt><trkpt lat="47.26691479799083" lon="-1.600404800848663"><ele>39.0</ele><time>2026-04-06T17:10:04.984Z</time></trkpt><trkpt lat="47.26687686987898" lon="-1.60031620413214"><ele>39.0</ele><time>2026-04-06T17:10:05.985Z</time></trkpt><trkpt lat="47.266788482710034" lon="-1.6002047248199582"><ele>39.0</ele><time>2026-04-06T17:10:07.993Z</time></trkpt><trkpt lat="47.26673538335344" lon="-1.6001542657628656"><ele>39.0</ele><time>2026-04-06T17:10:08.989Z</time></trkpt><trkpt lat="47.26664863065562" lon="-1.600037505851686"><ele>39.2</ele><time>2026-04-06T17:10:10.993Z</time></trkpt><trkpt lat="47.26658614356747" lon="-1.599976234139502"><ele>39.4</ele><time>2026-04-06T17:10:11.99Z</time></trkpt><trkpt lat="47.26647135340354" lon="-1.599849835039675"><ele>39.6</ele><time>2026-04-06T17:10:13.987Z</time></trkpt><trkpt lat="47.266413015357465" lon="-1.599810943008959"><ele>39.8</ele><time>2026-04-06T17:10:14.994Z</time></trkpt><trkpt lat="47.2663515340977" lon="-1.5997503418490289"><ele>40.0</ele><time>2026-04-06T17:10:15.998Z</time></trkpt><trkpt lat="47.26628192239186" lon="-1.5996485017254944"><ele>39.8</ele><time>2026-04-06T17:10:17.002Z</time></trkpt><trkpt lat="47.266221069774836" lon="-1.5995842125281687"><ele>39.6</ele><time>2026-04-06T17:10:17.998Z</time></trkpt><trkpt lat="47.266162899366826" lon="-1.5994902513936156"><ele>39.4</ele><time>2026-04-06T17:10:18.996Z</time></trkpt><trkpt lat="47.26609123409471" lon="-1.5993966255351895"><ele>39.2</ele><time>2026-04-06T17:10:19.999Z</time></trkpt><trkpt lat="47.266009720086366" lon="-1.599302245305478"><ele>39.0</ele><time>2026-04-06T17:10:21.005Z</time></trkpt><trkpt lat="47.26591102317652" lon="-1.599255306647717"><ele>39.0</ele><time>2026-04-06T17:10:21.999Z</time></trkpt><trkpt lat="47.26582959298721" lon="-1.5991774387672535"><ele>39.0</ele><time>2026-04-06T17:10:22.999Z</time></trkpt><trkpt lat="47.26576304067603" lon="-1.5990849863752714"><ele>39.0</ele><time>2026-04-06T17:10:23.996Z</time></trkpt><trkpt lat="47.26568806455216" lon="-1.5989738423392166"><ele>39.0</ele><time>2026-04-06T17:10:25.005Z</time></trkpt><trkpt lat="47.265598042912096" lon="-1.598911564798652"><ele>39.0</ele><time>2026-04-06T17:10:25.999Z</time></trkpt><trkpt lat="47.265529059848994" lon="-1.5988103952273716"><ele>38.0</ele><time>2026-04-06T17:10:26.999Z</time></trkpt><trkpt lat="47.2654553410106" lon="-1.5987103153035032"><ele>37.0</ele><time>2026-04-06T17:10:27.999Z</time></trkpt><trkpt lat="47.265418963550836" lon="-1.5986336208894836"><ele>36.0</ele><time>2026-04-06T17:10:29.008Z</time></trkpt><trkpt lat="47.26534721445969" lon="-1.5985185373589381"><ele>35.0</ele><time>2026-04-06T17:10:29.997Z</time></trkpt><trkpt lat="47.26527835712513" lon="-1.598435807974635"><ele>34.0</ele><time>2026-04-06T17:10:30.991Z</time></trkpt><trkpt lat="47.26521545094183" lon="-1.5983232390150413"><ele>33.6</ele><time>2026-04-06T17:10:31.99Z</time></trkpt><trkpt lat="47.26514303129843" lon="-1.598248137162624"><ele>33.2</ele><time>2026-04-06T17:10:32.991Z</time></trkpt><trkpt lat="47.2650710726597" lon="-1.59814386628717"><ele>32.800000000000004</ele><time>2026-04-06T17:10:33.996Z</time></trkpt><trkpt lat="47.26498440378091" lon="-1.5980359911933522"><ele>32.4</ele><time>2026-04-06T17:10:34.99Z</time></trkpt><trkpt lat="47.264902973591596" lon="-1.5979402698591332"><ele>32.0</ele><time>2026-04-06T17:10:35.999Z</time></trkpt><trkpt lat="47.26483118259093" lon="-1.5978494100287537"><ele>31.166666666666664</ele><time>2026-04-06T17:10:36.987Z</time></trkpt><trkpt lat="47.26477502383968" lon="-1.5977483242765047"><ele>30.333333333333332</ele><time>2026-04-06T17:10:37.98Z</time></trkpt><trkpt lat="47.26470998027107" lon="-1.5976711269482948"><ele>29.5</ele><time>2026-04-06T17:10:38.979Z</time></trkpt><trkpt lat="47.264647115997285" lon="-1.5976055804654934"><ele>28.666666666666664</ele><time>2026-04-06T17:10:39.981Z</time></trkpt><trkpt lat="47.264605835124165" lon="-1.597522012890873"><ele>27.833333333333332</ele><time>2026-04-06T17:10:40.984Z</time></trkpt><trkpt lat="47.26459234026006" lon="-1.5974252857282734"><ele>27.0</ele><time>2026-04-06T17:10:41.982Z</time></trkpt><trkpt lat="47.26454485677859" lon="-1.5972745791092489"><ele>27.0</ele><time>2026-04-06T17:10:43.984Z</time></trkpt><trkpt lat="47.264527715786606" lon="-1.5971170831486556"><ele>27.000000000000004</ele><time>2026-04-06T17:10:45.998Z</time></trkpt><trkpt lat="47.26442512129179" lon="-1.597012979911265"><ele>27.000000000000004</ele><time>2026-04-06T17:10:47.994Z</time></trkpt><trkpt lat="47.26439603608778" lon="-1.5969259757563443"><ele>27.0</ele><time>2026-04-06T17:10:48.991Z</time></trkpt><trkpt lat="47.264337027489454" lon="-1.5968153346344798"><ele>27.0</ele><time>2026-04-06T17:10:50.993Z</time></trkpt><trkpt lat="47.26424398836425" lon="-1.5966802183553546"><ele>27.0</ele><time>2026-04-06T17:10:53.004Z</time></trkpt><trkpt lat="47.2641843930327" lon="-1.5966144204154578"><ele>27.0</ele><time>2026-04-06T17:10:53.998Z</time></trkpt><trkpt lat="47.26413229950449" lon="-1.596528673546013"><ele>27.0</ele><time>2026-04-06T17:10:54.992Z</time></trkpt><trkpt lat="47.264085989489466" lon="-1.596452649684247"><ele>27.0</ele><time>2026-04-06T17:10:55.996Z</time></trkpt><trkpt lat="47.26403062701902" lon="-1.5963689982905949"><ele>27.0</ele><time>2026-04-06T17:10:57.002Z</time></trkpt><trkpt lat="47.2639520885863" lon="-1.5962434373810852"><ele>27.0</ele><time>2026-04-06T17:10:58.992Z</time></trkpt><trkpt lat="47.263908251232714" lon="-1.5961577743306719"><ele>27.0</ele><time>2026-04-06T17:10:59.996Z</time></trkpt><trkpt lat="47.26371389096938" lon="-1.5961850220169906"><ele>27.000000000000004</ele><time>2026-04-06T17:11:02.003Z</time></trkpt><trkpt lat="47.26366972262785" lon="-1.5961076203223086"><ele>27.000000000000004</ele><time>2026-04-06T17:11:03.004Z</time></trkpt><trkpt lat="47.263627380550815" lon="-1.596033419020679"><ele>27.0</ele><time>2026-04-06T17:11:04.001Z</time></trkpt><trkpt lat="47.263568209203285" lon="-1.595929725689538"><ele>27.0</ele><time>2026-04-06T17:11:05.999Z</time></trkpt><trkpt lat="47.263526247516715" lon="-1.595856190993467"><ele>27.0</ele><time>2026-04-06T17:11:06.994Z</time></trkpt><trkpt lat="47.26348079079339" lon="-1.5957765315090535"><ele>27.000000000000004</ele><time>2026-04-06T17:11:07.993Z</time></trkpt><trkpt lat="47.26340368674068" lon="-1.595641412462336"><ele>27.000000000000004</ele><time>2026-04-06T17:11:09.998Z</time></trkpt><trkpt lat="47.26332834721743" lon="-1.5955092275794491"><ele>27.0</ele><time>2026-04-06T17:11:11.995Z</time></trkpt><trkpt lat="47.26327209170943" lon="-1.5954103244924986"><ele>27.0</ele><time>2026-04-06T17:11:14.004Z</time></trkpt><trkpt lat="47.26321780141648" lon="-1.5953148764581404"><ele>27.0</ele><time>2026-04-06T17:11:16Z</time></trkpt><trkpt lat="47.263151037459515" lon="-1.5951971780442098"><ele>27.000000000000004</ele><time>2026-04-06T17:11:17.998Z</time></trkpt><trkpt lat="47.26309009229916" lon="-1.5950897631432854"><ele>27.000000000000004</ele><time>2026-04-06T17:11:19.993Z</time></trkpt><trkpt lat="47.26301926066369" lon="-1.5949649235071848"><ele>27.0</ele><time>2026-04-06T17:11:21.998Z</time></trkpt><trkpt lat="47.262952406628" lon="-1.5948470943207624"><ele>27.0</ele><time>2026-04-06T17:11:23.996Z</time></trkpt><trkpt lat="47.262888600743516" lon="-1.5947347187010976"><ele>27.0</ele><time>2026-04-06T17:11:25.997Z</time></trkpt><trkpt lat="47.262834694673856" lon="-1.5946397868523332"><ele>27.0</ele><time>2026-04-06T17:11:27.997Z</time></trkpt><trkpt lat="47.26278112295632" lon="-1.594545443815839"><ele>27.0</ele><time>2026-04-06T17:11:29.993Z</time></trkpt><trkpt lat="47.262722289084316" lon="-1.594443302573502"><ele>27.0</ele><time>2026-04-06T17:11:31.999Z</time></trkpt><trkpt lat="47.26268059817468" lon="-1.5943715486351446"><ele>27.0</ele><time>2026-04-06T17:11:33.007Z</time></trkpt><trkpt lat="47.26262907070791" lon="-1.5942828124170272"><ele>27.0</ele><time>2026-04-06T17:11:34.99Z</time></trkpt><trkpt lat="47.262571170595315" lon="-1.5941829722682492"><ele>27.666666666666664</ele><time>2026-04-06T17:11:37.989Z</time></trkpt><trkpt lat="47.26273444951257" lon="-1.5938344784095826"><ele>28.333333333333332</ele><time>2026-04-06T17:11:39.99Z</time></trkpt><trkpt lat="47.26267699156633" lon="-1.5937508270159304"><ele>29.0</ele><time>2026-04-06T17:11:41.989Z</time></trkpt><trkpt lat="47.2624067359254" lon="-1.5938761016181564"><ele>29.0</ele><time>2026-04-06T17:11:43.987Z</time></trkpt><trkpt lat="47.26236631792179" lon="-1.5937928970429374"><ele>29.0</ele><time>2026-04-06T17:11:45.996Z</time></trkpt><trkpt lat="47.26247943010858" lon="-1.5936038084343016"><ele>29.0</ele><time>2026-04-06T17:11:46.99Z</time></trkpt><trkpt lat="47.262454368218094" lon="-1.5935162175461588"><ele>29.0</ele><time>2026-04-06T17:11:47.997Z</time></trkpt><trkpt lat="47.26239640735766" lon="-1.5934205800309715"><ele>29.0</ele><time>2026-04-06T17:11:49.997Z</time></trkpt><trkpt lat="47.26233966187319" lon="-1.5933050774052677"><ele>28.999999999999996</ele><time>2026-04-06T17:11:51.992Z</time></trkpt><trkpt lat="47.26230852310291" lon="-1.5931927599027689"><ele>29.0</ele><time>2026-04-06T17:11:54.994Z</time></trkpt><trkpt lat="47.262267703234464" lon="-1.5930652711555298"><ele>29.0</ele><time>2026-04-06T17:11:56.989Z</time></trkpt><trkpt lat="47.26222675763747" lon="-1.592949684710794"><ele>29.0</ele><time>2026-04-06T17:11:58.992Z</time></trkpt><trkpt lat="47.262185979678534" lon="-1.5928449947401815"><ele>28.999999999999996</ele><time>2026-04-06T17:12:00.994Z</time></trkpt><trkpt lat="47.26214553699573" lon="-1.5927461721017888"><ele>29.0</ele><time>2026-04-06T17:12:03Z</time></trkpt><trkpt lat="47.262101699642145" lon="-1.5926290769144824"><ele>28.999999999999996</ele><time>2026-04-06T17:12:04.994Z</time></trkpt><trkpt lat="47.26208007433196" lon="-1.5925305895522166"><ele>29.0</ele><time>2026-04-06T17:12:05.995Z</time></trkpt><trkpt lat="47.262078020765685" lon="-1.5924046095475484"><ele>29.0</ele><time>2026-04-06T17:12:07.986Z</time></trkpt><trkpt lat="47.26205694027921" lon="-1.5922823175802754"><ele>29.0</ele><time>2026-04-06T17:12:09.999Z</time></trkpt><trkpt lat="47.26204176903447" lon="-1.5921783819809483"><ele>28.999999999999996</ele><time>2026-04-06T17:12:11.996Z</time></trkpt><trkpt lat="47.26200874433597" lon="-1.5920788049712702"><ele>29.0</ele><time>2026-04-06T17:12:13.997Z</time></trkpt><trkpt lat="47.26198112596502" lon="-1.5919801499709412"><ele>29.4</ele><time>2026-04-06T17:12:15.997Z</time></trkpt><trkpt lat="47.261920273348" lon="-1.5918660722687763"><ele>29.799999999999997</ele><time>2026-04-06T17:12:17.997Z</time></trkpt><trkpt lat="47.26185305048456" lon="-1.5917581971749586"><ele>30.200000000000003</ele><time>2026-04-06T17:12:20Z</time></trkpt><trkpt lat="47.26177555978974" lon="-1.5916652418687862"><ele>30.6</ele><time>2026-04-06T17:12:21.999Z</time></trkpt><trkpt lat="47.26171588063916" lon="-1.591538339854769"><ele>31.0</ele><time>2026-04-06T17:12:23.988Z</time></trkpt><trkpt lat="47.26168968719175" lon="-1.5914472285672943"><ele>31.0</ele><time>2026-04-06T17:12:24.992Z</time></trkpt><trkpt lat="47.261666050224804" lon="-1.5913144592210569"><ele>31.0</ele><time>2026-04-06T17:12:26.989Z</time></trkpt><trkpt lat="47.26164283235302" lon="-1.5912115294501104"><ele>31.0</ele><time>2026-04-06T17:12:27.992Z</time></trkpt><trkpt lat="47.26158851762047" lon="-1.5910296421512877"><ele>31.0</ele><time>2026-04-06T17:12:30.001Z</time></trkpt><trkpt lat="47.26156421010127" lon="-1.5909339208170687"><ele>31.0</ele><time>2026-04-06T17:12:30.988Z</time></trkpt><trkpt lat="47.26153114349326" lon="-1.590760331602386"><ele>31.166666666666668</ele><time>2026-04-06T17:12:32.988Z</time></trkpt><trkpt lat="47.261515804610454" lon="-1.590666035191706"><ele>31.333333333333336</ele><time>2026-04-06T17:12:33.999Z</time></trkpt><trkpt lat="47.261507087431156" lon="-1.5905662067249329"><ele>31.5</ele><time>2026-04-06T17:12:34.995Z</time></trkpt><trkpt lat="47.26146362726321" lon="-1.5903634484872131"><ele>31.666666666666664</ele><time>2026-04-06T17:12:36.991Z</time></trkpt><trkpt lat="47.261466728567385" lon="-1.590263955296567"><ele>31.833333333333332</ele><time>2026-04-06T17:12:37.992Z</time></trkpt><trkpt lat="47.26147439800879" lon="-1.5901665575817134"><ele>32.0</ele><time>2026-04-06T17:12:38.994Z</time></trkpt><trkpt lat="47.26144216959109" lon="-1.5900077205166128"><ele>32.0</ele><time>2026-04-06T17:12:40.989Z</time></trkpt><trkpt lat="47.26143265613099" lon="-1.5899144299343133"><ele>32.0</ele><time>2026-04-06T17:12:41.989Z</time></trkpt><trkpt lat="47.261415431319975" lon="-1.5897449478521848"><ele>32.0</ele><time>2026-04-06T17:12:43.988Z</time></trkpt><trkpt lat="47.26138772912999" lon="-1.589580494911959"><ele>32.0</ele><time>2026-04-06T17:12:45.99Z</time></trkpt><trkpt lat="47.261340245648526" lon="-1.5895062312498591"><ele>32.0</ele><time>2026-04-06T17:12:46.99Z</time></trkpt><trkpt lat="47.26131794978609" lon="-1.589379832150032"><ele>32.5</ele><time>2026-04-06T17:12:48.99Z</time></trkpt><trkpt lat="47.261301898441516" lon="-1.5892697777613898"><ele>33.0</ele><time>2026-04-06T17:12:50.994Z</time></trkpt><trkpt lat="47.26127021484753" lon="-1.589133907110979"><ele>33.5</ele><time>2026-04-06T17:12:52.988Z</time></trkpt><trkpt lat="47.26125106219878" lon="-1.5890087652966278"><ele>34.0</ele><time>2026-04-06T17:12:54.986Z</time></trkpt><trkpt lat="47.26122302473267" lon="-1.5888658538475529"><ele>34.5</ele><time>2026-04-06T17:12:56.988Z</time></trkpt><trkpt lat="47.26117914546957" lon="-1.5887731499984756"><ele>35.0</ele><time>2026-04-06T17:12:58.992Z</time></trkpt><trkpt lat="47.26115877744486" lon="-1.588659910486628"><ele>35.666666666666664</ele><time>2026-04-06T17:13:00.992Z</time></trkpt><trkpt lat="47.26117541552266" lon="-1.5885221119984876"><ele>36.33333333333333</ele><time>2026-04-06T17:13:02.985Z</time></trkpt><trkpt lat="47.261180696121656" lon="-1.5884016640499126"><ele>37.0</ele><time>2026-04-06T17:13:04.987Z</time></trkpt><trkpt lat="47.2611377388679" lon="-1.5883133187904845"><ele>37.666666666666664</ele><time>2026-04-06T17:13:06.988Z</time></trkpt><trkpt lat="47.26110605527391" lon="-1.5882138255998381"><ele>38.333333333333336</ele><time>2026-04-06T17:13:08.983Z</time></trkpt><trkpt lat="47.261089836291276" lon="-1.5881157573327311"><ele>39.0</ele><time>2026-04-06T17:13:10.987Z</time></trkpt><trkpt lat="47.26106603168627" lon="-1.5880123246475941"><ele>39.0</ele><time>2026-04-06T17:13:13Z</time></trkpt><trkpt lat="47.26103686266323" lon="-1.5879288408920056"><ele>39.0</ele><time>2026-04-06T17:13:14.994Z</time></trkpt><trkpt lat="47.26100144912233" lon="-1.587799675764132"><ele>39.0</ele><time>2026-04-06T17:13:17.992Z</time></trkpt><trkpt lat="47.2609754652225" lon="-1.587666571141768"><ele>39.0</ele><time>2026-04-06T17:13:20.988Z</time></trkpt><trkpt lat="47.260955097197794" lon="-1.5875748731210713"><ele>39.0</ele><time>2026-04-06T17:13:22.993Z</time></trkpt><trkpt lat="47.26093112495472" lon="-1.5874380804613115"><ele>39.0</ele><time>2026-04-06T17:13:25.998Z</time></trkpt><trkpt lat="47.26091448687693" lon="-1.5873304568245887"><ele>39.0</ele><time>2026-04-06T17:13:27.994Z</time></trkpt><trkpt lat="47.26090099201282" lon="-1.5872195642456293"><ele>39.0</ele><time>2026-04-06T17:13:29.998Z</time></trkpt><trkpt lat="47.26088707805356" lon="-1.5871060732766866"><ele>39.0</ele><time>2026-04-06T17:13:32.001Z</time></trkpt><trkpt lat="47.26087613966992" lon="-1.5869989525541541"><ele>39.0</ele><time>2026-04-06T17:13:33.995Z</time></trkpt><trkpt lat="47.26086935032835" lon="-1.5868925023838756"><ele>39.0</ele><time>2026-04-06T17:13:36.002Z</time></trkpt><trkpt lat="47.2608623514392" lon="-1.5867947693928952"><ele>39.0</ele><time>2026-04-06T17:13:37.988Z</time></trkpt><trkpt lat="47.26086096842518" lon="-1.5866827871665234"><ele>39.0</ele><time>2026-04-06T17:13:39.991Z</time></trkpt><trkpt lat="47.260862099982106" lon="-1.586564434693741"><ele>39.0</ele><time>2026-04-06T17:13:41.983Z</time></trkpt><trkpt lat="47.26086884741416" lon="-1.5864436514690392"><ele>39.0</ele><time>2026-04-06T17:13:43.992Z</time></trkpt><trkpt lat="47.26088590458711" lon="-1.5863223653301468"><ele>39.0</ele><time>2026-04-06T17:13:45.983Z</time></trkpt><trkpt lat="47.260905602059566" lon="-1.5862097125515213"><ele>39.0</ele><time>2026-04-06T17:13:47.99Z</time></trkpt><trkpt lat="47.26092995148828" lon="-1.5860914438977707"><ele>39.0</ele><time>2026-04-06T17:13:49.991Z</time></trkpt><trkpt lat="47.26096431729128" lon="-1.585974432529496"><ele>39.0</ele><time>2026-04-06T17:13:51.987Z</time></trkpt><trkpt lat="47.26101414770564" lon="-1.58590427599995"><ele>39.0</ele><time>2026-04-06T17:13:52.995Z</time></trkpt><trkpt lat="47.261075084141694" lon="-1.5857989992961155"><ele>39.0</ele><time>2026-04-06T17:13:54.998Z</time></trkpt><trkpt lat="47.26114050489595" lon="-1.5856846701368557"><ele>39.0</ele><time>2026-04-06T17:13:56.985Z</time></trkpt><trkpt lat="47.26121636111965" lon="-1.5855591092273458"><ele>39.0</ele><time>2026-04-06T17:13:58.993Z</time></trkpt><trkpt lat="47.26130709522148" lon="-1.5855283476427062"><ele>39.0</ele><time>2026-04-06T17:14:01.001Z</time></trkpt><trkpt lat="47.26136296060612" lon="-1.5855781361475452"><ele>39.0</ele><time>2026-04-06T17:14:02.989Z</time></trkpt><trkpt lat="47.26141484458675" lon="-1.5854846779271825"><ele>39.0</ele><time>2026-04-06T17:14:05.993Z</time></trkpt><trkpt lat="47.26136509799143" lon="-1.5853798203185063"><ele>39.0</ele><time>2026-04-06T17:14:08.004Z</time></trkpt><trkpt lat="47.26130298808893" lon="-1.5852700173869592"><ele>39.0</ele><time>2026-04-06T17:14:09.983Z</time></trkpt><trkpt lat="47.26124163255771" lon="-1.5851594600841263"><ele>39.0</ele><time>2026-04-06T17:14:12Z</time></trkpt><trkpt lat="47.26116690789094" lon="-1.5850692708060006"><ele>39.4</ele><time>2026-04-06T17:14:13.986Z</time></trkpt><trkpt lat="47.26107370112767" lon="-1.5850049816086749"><ele>39.8</ele><time>2026-04-06T17:14:15.983Z</time></trkpt><trkpt lat="47.26098041054537" lon="-1.5849360823646046"><ele>40.199999999999996</ele><time>2026-04-06T17:14:17.982Z</time></trkpt><trkpt lat="47.260872032537364" lon="-1.5848575439318873"><ele>40.599999999999994</ele><time>2026-04-06T17:14:19.998Z</time></trkpt><trkpt lat="47.2608028818362" lon="-1.5848028939232088"><ele>41.0</ele><time>2026-04-06T17:14:21.993Z</time></trkpt><trkpt lat="47.26069685076108" lon="-1.5847686119392372"><ele>41.199999999999996</ele><time>2026-04-06T17:14:24Z</time></trkpt><trkpt lat="47.260606242387794" lon="-1.5848245192333914"><ele>41.4</ele><time>2026-04-06T17:14:25.986Z</time></trkpt><trkpt lat="47.26051018577745" lon="-1.5848000440761305"><ele>41.6</ele><time>2026-04-06T17:14:27.985Z</time></trkpt><trkpt lat="47.26044489075174" lon="-1.5847071725889896"><ele>41.8</ele><time>2026-04-06T17:14:29.984Z</time></trkpt><trkpt lat="47.260399628474616" lon="-1.5845958609148716"><ele>42.0</ele><time>2026-04-06T17:14:31.998Z</time></trkpt><trkpt lat="47.260381733111345" lon="-1.584385978059456"><ele>42.0</ele><time>2026-04-06T17:14:33.985Z</time></trkpt><trkpt lat="47.26038441532036" lon="-1.5842789411559555"><ele>42.0</ele><time>2026-04-06T17:14:34.993Z</time></trkpt><trkpt lat="47.26034707394173" lon="-1.5841009933516235"><ele>42.0</ele><time>2026-04-06T17:14:36.994Z</time></trkpt><trkpt lat="47.26033198651602" lon="-1.5840108878925294"><ele>42.0</ele><time>2026-04-06T17:14:37.985Z</time></trkpt><trkpt lat="47.26031979084691" lon="-1.5838507935419528"><ele>42.0</ele><time>2026-04-06T17:14:40.002Z</time></trkpt><trkpt lat="47.26030981638213" lon="-1.5836808085456338"><ele>41.833333333333336</ele><time>2026-04-06T17:14:41.985Z</time></trkpt><trkpt lat="47.260309984020196" lon="-1.5835858415827002"><ele>41.666666666666664</ele><time>2026-04-06T17:14:42.996Z</time></trkpt><trkpt lat="47.26028458685359" lon="-1.5834077261403048"><ele>41.5</ele><time>2026-04-06T17:14:44.989Z</time></trkpt><trkpt lat="47.260275492488645" lon="-1.583310160787388"><ele>41.33333333333333</ele><time>2026-04-06T17:14:45.998Z</time></trkpt><trkpt lat="47.2602917533808" lon="-1.5831990167513332"><ele>41.166666666666664</ele><time>2026-04-06T17:14:46.995Z</time></trkpt><trkpt lat="47.26028332956811" lon="-1.5830516628935776"><ele>41.0</ele><time>2026-04-06T17:14:48.994Z</time></trkpt><trkpt lat="47.26024804175576" lon="-1.5828693564995964"><ele>40.83333333333333</ele><time>2026-04-06T17:14:50.994Z</time></trkpt><trkpt lat="47.26022570398381" lon="-1.582780173049851"><ele>40.666666666666664</ele><time>2026-04-06T17:14:51.983Z</time></trkpt><trkpt lat="47.26019674450835" lon="-1.5826200786992746"><ele>40.5</ele><time>2026-04-06T17:14:53.995Z</time></trkpt><trkpt lat="47.26018802732905" lon="-1.5825062524542048"><ele>40.333333333333336</ele><time>2026-04-06T17:14:54.994Z</time></trkpt><trkpt lat="47.26018945225259" lon="-1.5823548752829268"><ele>40.16666666666667</ele><time>2026-04-06T17:14:56.992Z</time></trkpt><trkpt lat="47.26018153135409" lon="-1.582237528638525"><ele>40.0</ele><time>2026-04-06T17:14:58.993Z</time></trkpt><trkpt lat="47.260140543847584" lon="-1.582095874474926"><ele>39.8</ele><time>2026-04-06T17:15:00.987Z</time></trkpt><trkpt lat="47.2601138893955" lon="-1.5819318406298588"><ele>39.6</ele><time>2026-04-06T17:15:02.986Z</time></trkpt><trkpt lat="47.26009549111804" lon="-1.5817730873837896"><ele>39.4</ele><time>2026-04-06T17:15:04.991Z</time></trkpt><trkpt lat="47.26005224049767" lon="-1.5816918667420574"><ele>39.2</ele><time>2026-04-06T17:15:05.997Z</time></trkpt><trkpt lat="47.26000999570569" lon="-1.5816179383560844"><ele>39.0</ele><time>2026-04-06T17:15:06.995Z</time></trkpt><trkpt lat="47.25990618583491" lon="-1.5815430041417307"><ele>39.0</ele><time>2026-04-06T17:15:08.993Z</time></trkpt><trkpt lat="47.259857235520386" lon="-1.5814837440863079"><ele>39.0</ele><time>2026-04-06T17:15:09.985Z</time></trkpt><trkpt lat="47.25980459716847" lon="-1.5814295969918197"><ele>39.0</ele><time>2026-04-06T17:15:10.994Z</time></trkpt><trkpt lat="47.25975229409268" lon="-1.5813751146212045"><ele>39.0</ele><time>2026-04-06T17:15:11.996Z</time></trkpt><trkpt lat="47.25969835654577" lon="-1.5813218057170335"><ele>39.0</ele><time>2026-04-06T17:15:12.996Z</time></trkpt><trkpt lat="47.25964211397549" lon="-1.5812601987287227"><ele>39.0</ele><time>2026-04-06T17:15:13.997Z</time></trkpt><trkpt lat="47.259534699886345" lon="-1.5811602026238862"><ele>39.0</ele><time>2026-04-06T17:15:15.993Z</time></trkpt><trkpt lat="47.25941861052742" lon="-1.5810572728529395"><ele>39.0</ele><time>2026-04-06T17:15:17.997Z</time></trkpt><trkpt lat="47.25936211650004" lon="-1.5810096636429252"><ele>39.0</ele><time>2026-04-06T17:15:18.994Z</time></trkpt><trkpt lat="47.25925306793978" lon="-1.5809467993691386"><ele>39.0</ele><time>2026-04-06T17:15:20.987Z</time></trkpt><trkpt lat="47.259180983572506" lon="-1.5809155348703088"><ele>39.0</ele><time>2026-04-06T17:15:21.998Z</time></trkpt><trkpt lat="47.25908098746767" lon="-1.5808115992709815"><ele>39.0</ele><time>2026-04-06T17:15:23.992Z</time></trkpt><trkpt lat="47.2589888284423" lon="-1.5807280316963612"><ele>39.0</ele><time>2026-04-06T17:15:25.998Z</time></trkpt><trkpt lat="47.258896501778864" lon="-1.5806359983995375"><ele>39.0</ele><time>2026-04-06T17:15:27.985Z</time></trkpt><trkpt lat="47.25879524838855" lon="-1.5805667638793406"><ele>39.0</ele><time>2026-04-06T17:15:29.984Z</time></trkpt><trkpt lat="47.258697683035635" lon="-1.5804728865638193"><ele>39.0</ele><time>2026-04-06T17:15:31.993Z</time></trkpt><trkpt lat="47.258601877882384" lon="-1.5803731419160778"><ele>38.8</ele><time>2026-04-06T17:15:33.994Z</time></trkpt><trkpt lat="47.258502426601254" lon="-1.580278258772176"><ele>38.599999999999994</ele><time>2026-04-06T17:15:35.991Z</time></trkpt><trkpt lat="47.25839979019692" lon="-1.5801831241711788"><ele>38.4</ele><time>2026-04-06T17:15:37.997Z</time></trkpt><trkpt lat="47.25829367530277" lon="-1.580081451685708"><ele>38.199999999999996</ele><time>2026-04-06T17:15:39.989Z</time></trkpt><trkpt lat="47.258240995041334" lon="-1.580028729514759"><ele>38.0</ele><time>2026-04-06T17:15:40.991Z</time></trkpt><trkpt lat="47.258181399709784" lon="-1.5799794439241104"><ele>38.0</ele><time>2026-04-06T17:15:41.99Z</time></trkpt><trkpt lat="47.25812985100528" lon="-1.5799238719060829"><ele>38.0</ele><time>2026-04-06T17:15:42.996Z</time></trkpt><trkpt lat="47.25802654404869" lon="-1.5798228699728658"><ele>38.0</ele><time>2026-04-06T17:15:44.988Z</time></trkpt><trkpt lat="47.25796925374051" lon="-1.579777188600581"><ele>38.0</ele><time>2026-04-06T17:15:45.99Z</time></trkpt><trkpt lat="47.25792072252115" lon="-1.5797178447261264"><ele>38.0</ele><time>2026-04-06T17:15:46.994Z</time></trkpt><trkpt lat="47.25786498286506" lon="-1.5796591714039254"><ele>38.0</ele><time>2026-04-06T17:15:47.984Z</time></trkpt><trkpt lat="47.257781247652375" lon="-1.5795882605030942"><ele>38.0</ele><time>2026-04-06T17:15:49.991Z</time></trkpt><trkpt lat="47.25768389184704" lon="-1.5794863365605283"><ele>38.0</ele><time>2026-04-06T17:15:51.992Z</time></trkpt><trkpt lat="47.257620776116156" lon="-1.579446606339495"><ele>38.0</ele><time>2026-04-06T17:15:52.986Z</time></trkpt><trkpt lat="47.25756369535556" lon="-1.5793996676817343"><ele>38.0</ele><time>2026-04-06T17:15:53.987Z</time></trkpt><trkpt lat="47.25748310335656" lon="-1.5793347917511866"><ele>38.0</ele><time>2026-04-06T17:15:54.987Z</time></trkpt><trkpt lat="47.25741068371316" lon="-1.5792680718019412"><ele>38.0</ele><time>2026-04-06T17:15:55.996Z</time></trkpt><trkpt lat="47.25730972368946" lon="-1.5791856776937647"><ele>38.199999999999996</ele><time>2026-04-06T17:15:57.992Z</time></trkpt><trkpt lat="47.25724115972152" lon="-1.5791439358159705"><ele>38.4</ele><time>2026-04-06T17:15:59.986Z</time></trkpt><trkpt lat="47.257146486125194" lon="-1.579071013258378"><ele>38.599999999999994</ele><time>2026-04-06T17:16:01.986Z</time></trkpt><trkpt lat="47.25705843423238" lon="-1.5789789799615543"><ele>38.8</ele><time>2026-04-06T17:16:03.985Z</time></trkpt><trkpt lat="47.256952738433384" lon="-1.5788972564056318"><ele>39.0</ele><time>2026-04-06T17:16:05.986Z</time></trkpt><trkpt lat="47.25684888665309" lon="-1.5788125991835993"><ele>39.0</ele><time>2026-04-06T17:16:07.985Z</time></trkpt><trkpt lat="47.25675157275727" lon="-1.5787342283889452"><ele>39.0</ele><time>2026-04-06T17:16:09.989Z</time></trkpt><trkpt lat="47.2566443682157" lon="-1.5786487329765955"><ele>39.0</ele><time>2026-04-06T17:16:11.984Z</time></trkpt><trkpt lat="47.25654353392055" lon="-1.5785424504443804"><ele>39.0</ele><time>2026-04-06T17:16:13.993Z</time></trkpt><trkpt lat="47.256452925547265" lon="-1.5784796699896253"><ele>39.2</ele><time>2026-04-06T17:16:15.984Z</time></trkpt><trkpt lat="47.25635674320837" lon="-1.578379925341884"><ele>39.4</ele><time>2026-04-06T17:16:17.991Z</time></trkpt><trkpt lat="47.2562680207633" lon="-1.5782662667348777"><ele>39.6</ele><time>2026-04-06T17:16:19.982Z</time></trkpt><trkpt lat="47.256165174811386" lon="-1.5781894046827947"><ele>39.8</ele><time>2026-04-06T17:16:21.989Z</time></trkpt><trkpt lat="47.25608873185446" lon="-1.578108938412348"><ele>40.0</ele><time>2026-04-06T17:16:23.987Z</time></trkpt><trkpt lat="47.25597880319437" lon="-1.5780566353365575"><ele>40.0</ele><time>2026-04-06T17:16:25.992Z</time></trkpt><trkpt lat="47.25591007158836" lon="-1.5780192520484122"><ele>40.0</ele><time>2026-04-06T17:16:26.981Z</time></trkpt><trkpt lat="47.25580320232292" lon="-1.5779326669886502"><ele>40.0</ele><time>2026-04-06T17:16:28.986Z</time></trkpt><trkpt lat="47.25569687788119" lon="-1.577826719732562"><ele>40.0</ele><time>2026-04-06T17:16:30.981Z</time></trkpt><trkpt lat="47.25559424147686" lon="-1.5776839759215504"><ele>39.8</ele><time>2026-04-06T17:16:32.987Z</time></trkpt><trkpt lat="47.255499064966344" lon="-1.5776397194728047"><ele>39.6</ele><time>2026-04-06T17:16:34.991Z</time></trkpt><trkpt lat="47.25539030977269" lon="-1.5775944571956784"><ele>39.4</ele><time>2026-04-06T17:16:36.984Z</time></trkpt><trkpt lat="47.25532296118071" lon="-1.5775688085719735"><ele>39.2</ele><time>2026-04-06T17:16:37.991Z</time></trkpt><trkpt lat="47.25525376857003" lon="-1.5774830617025284"><ele>39.0</ele><time>2026-04-06T17:16:39.985Z</time></trkpt><trkpt lat="47.25522401281377" lon="-1.5773778688177256"><ele>39.0</ele><time>2026-04-06T17:16:41.987Z</time></trkpt><trkpt lat="47.255155365026795" lon="-1.5773255657419352"><ele>39.0</ele><time>2026-04-06T17:16:43.987Z</time></trkpt><trkpt lat="47.255058847411775" lon="-1.5772435907289173"><ele>39.0</ele><time>2026-04-06T17:16:45.986Z</time></trkpt><trkpt lat="47.254992965652846" lon="-1.57718215137867"><ele>39.0</ele><time>2026-04-06T17:16:46.981Z</time></trkpt><trkpt lat="47.25493081384083" lon="-1.5771260764464523"><ele>39.0</ele><time>2026-04-06T17:16:47.982Z</time></trkpt><trkpt lat="47.25481413774868" lon="-1.5770506393179082"><ele>38.8</ele><time>2026-04-06T17:16:49.99Z</time></trkpt><trkpt lat="47.25471912887623" lon="-1.5769671555623197"><ele>38.599999999999994</ele><time>2026-04-06T17:16:51.984Z</time></trkpt><trkpt lat="47.254611337601446" lon="-1.5768911317005538"><ele>38.4</ele><time>2026-04-06T17:16:53.985Z</time></trkpt><trkpt lat="47.25452944640745" lon="-1.576874619351306"><ele>38.199999999999996</ele><time>2026-04-06T17:16:55.98Z</time></trkpt><trkpt lat="47.25441981111397" lon="-1.5767840109780213"><ele>38.0</ele><time>2026-04-06T17:16:57.991Z</time></trkpt><trkpt lat="47.25433833901514" lon="-1.576760876925268"><ele>38.0</ele><time>2026-04-06T17:16:59.985Z</time></trkpt><trkpt lat="47.254229248545364" lon="-1.57665836624948"><ele>38.0</ele><time>2026-04-06T17:17:01.993Z</time></trkpt><trkpt lat="47.254150542474584" lon="-1.5766022913172622"><ele>38.0</ele><time>2026-04-06T17:17:03.987Z</time></trkpt><trkpt lat="47.25407280032267" lon="-1.5765815880164284"><ele>38.0</ele><time>2026-04-06T17:17:05.995Z</time></trkpt><trkpt lat="47.253995016261236" lon="-1.5765285305693526"><ele>38.0</ele><time>2026-04-06T17:17:06.983Z</time></trkpt><trkpt lat="47.25389267322351" lon="-1.576532218606748"><ele>37.83333333333333</ele><time>2026-04-06T17:17:08.988Z</time></trkpt><trkpt lat="47.25379615560849" lon="-1.5764593798681874"><ele>37.666666666666664</ele><time>2026-04-06T17:17:09.992Z</time></trkpt><trkpt lat="47.253723568327025" lon="-1.5764383412912268"><ele>37.5</ele><time>2026-04-06T17:17:10.988Z</time></trkpt><trkpt lat="47.253650017126695" lon="-1.5763934142902274"><ele>37.333333333333336</ele><time>2026-04-06T17:17:11.988Z</time></trkpt><trkpt lat="47.253535478419856" lon="-1.5763598028585093"><ele>37.16666666666667</ele><time>2026-04-06T17:17:13.995Z</time></trkpt><trkpt lat="47.25347324278881" lon="-1.5763149596765416"><ele>37.0</ele><time>2026-04-06T17:17:14.983Z</time></trkpt><trkpt lat="47.25341008514841" lon="-1.5762914065286295"><ele>37.0</ele><time>2026-04-06T17:17:15.987Z</time></trkpt><trkpt lat="47.25332136270334" lon="-1.5762717090561764"><ele>37.0</ele><time>2026-04-06T17:17:17.994Z</time></trkpt><trkpt lat="47.25323230498214" lon="-1.5762769896551745"><ele>37.0</ele><time>2026-04-06T17:17:19.982Z</time></trkpt><trkpt lat="47.25314827640285" lon="-1.5762848686441557"><ele>37.0</ele><time>2026-04-06T17:17:21.995Z</time></trkpt><trkpt lat="47.25306349345227" lon="-1.5762841142728703"><ele>37.0</ele><time>2026-04-06T17:17:23.987Z</time></trkpt><trkpt lat="47.25301663861354" lon="-1.5761894825860636"><ele>37.0</ele><time>2026-04-06T17:17:25.993Z</time></trkpt><trkpt lat="47.25301031027664" lon="-1.57605445012597"><ele>37.0</ele><time>2026-04-06T17:17:27.99Z</time></trkpt><trkpt lat="47.252991283356444" lon="-1.5759058389827385"><ele>37.0</ele><time>2026-04-06T17:17:29.994Z</time></trkpt><trkpt lat="47.25293017928232" lon="-1.5757698006942642"><ele>37.0</ele><time>2026-04-06T17:17:31.977Z</time></trkpt><trkpt lat="47.25289438855578" lon="-1.575609287248529"><ele>37.0</ele><time>2026-04-06T17:17:33.976Z</time></trkpt><trkpt lat="47.25285247903992" lon="-1.5754667948946128"><ele>37.0</ele><time>2026-04-06T17:17:35.976Z</time></trkpt><trkpt lat="47.252810359976486" lon="-1.575323548169411"><ele>37.2</ele><time>2026-04-06T17:17:37.99Z</time></trkpt><trkpt lat="47.25275742825796" lon="-1.575166219846881"><ele>37.400000000000006</ele><time>2026-04-06T17:17:39.987Z</time></trkpt><trkpt lat="47.2527239844643" lon="-1.5750792995109921"><ele>37.599999999999994</ele><time>2026-04-06T17:17:40.996Z</time></trkpt><trkpt lat="47.25266895726998" lon="-1.574940327556408"><ele>37.8</ele><time>2026-04-06T17:17:42.988Z</time></trkpt><trkpt lat="47.252633920914725" lon="-1.5748555865153435"><ele>38.0</ele><time>2026-04-06T17:17:43.979Z</time></trkpt><trkpt lat="47.25257612769236" lon="-1.5746983420118452"><ele>38.0</ele><time>2026-04-06T17:17:45.982Z</time></trkpt><trkpt lat="47.25254159425129" lon="-1.5746177919223667"><ele>38.0</ele><time>2026-04-06T17:17:46.994Z</time></trkpt><trkpt lat="47.25246892315079" lon="-1.5744664985701204"><ele>38.0</ele><time>2026-04-06T17:17:48.978Z</time></trkpt><trkpt lat="47.25240480159153" lon="-1.5743304602816461"><ele>38.0</ele><time>2026-04-06T17:17:50.988Z</time></trkpt><trkpt lat="47.2523476370119" lon="-1.5741860400900003"><ele>38.0</ele><time>2026-04-06T17:17:52.994Z</time></trkpt><trkpt lat="47.25229227454145" lon="-1.5740216709688064"><ele>38.0</ele><time>2026-04-06T17:17:54.986Z</time></trkpt><trkpt lat="47.25226046521892" lon="-1.5739327389761562"><ele>38.0</ele><time>2026-04-06T17:17:55.996Z</time></trkpt><trkpt lat="47.252233685038284" lon="-1.573847662658965"><ele>38.0</ele><time>2026-04-06T17:17:56.999Z</time></trkpt><trkpt lat="47.25219919350673" lon="-1.5737609099611396"><ele>38.0</ele><time>2026-04-06T17:17:57.999Z</time></trkpt><trkpt lat="47.25212145135482" lon="-1.5735749993487946"><ele>38.0</ele><time>2026-04-06T17:17:59.995Z</time></trkpt><trkpt lat="47.25207375832577" lon="-1.5734340995564808"><ele>38.0</ele><time>2026-04-06T17:18:01.995Z</time></trkpt><trkpt lat="47.25201759957452" lon="-1.5732839796706786"><ele>38.0</ele><time>2026-04-06T17:18:03.988Z</time></trkpt><trkpt lat="47.251957668966845" lon="-1.5731407329454767"><ele>38.0</ele><time>2026-04-06T17:18:05.984Z</time></trkpt><trkpt lat="47.251907796642975" lon="-1.572998072953497"><ele>38.0</ele><time>2026-04-06T17:18:07.985Z</time></trkpt><trkpt lat="47.251841328150824" lon="-1.5728523116573438"><ele>37.8</ele><time>2026-04-06T17:18:09.992Z</time></trkpt><trkpt lat="47.25180553742428" lon="-1.5727710910156114"><ele>37.599999999999994</ele><time>2026-04-06T17:18:10.988Z</time></trkpt><trkpt lat="47.25173776973714" lon="-1.5726135112359865"><ele>37.400000000000006</ele><time>2026-04-06T17:18:12.988Z</time></trkpt><trkpt lat="47.251668199940816" lon="-1.5724500641241412"><ele>37.2</ele><time>2026-04-06T17:18:14.98Z</time></trkpt><trkpt lat="47.25163102620025" lon="-1.5723669156446796"><ele>37.0</ele><time>2026-04-06T17:18:15.984Z</time></trkpt><trkpt lat="47.25156635981728" lon="-1.5722010377809146"><ele>37.0</ele><time>2026-04-06T17:18:17.989Z</time></trkpt><trkpt lat="47.25151162598957" lon="-1.572050917895112"><ele>37.0</ele><time>2026-04-06T17:18:19.987Z</time></trkpt><trkpt lat="47.251434596299426" lon="-1.5719012171044684"><ele>37.0</ele><time>2026-04-06T17:18:21.993Z</time></trkpt><trkpt lat="47.25138145503332" lon="-1.5717389434590672"><ele>37.0</ele><time>2026-04-06T17:18:23.992Z</time></trkpt><trkpt lat="47.25132030904968" lon="-1.571618244053397"><ele>37.0</ele><time>2026-04-06T17:18:25.99Z</time></trkpt><trkpt lat="47.251253505281404" lon="-1.5714689623579117"><ele>37.0</ele><time>2026-04-06T17:18:27.998Z</time></trkpt><trkpt lat="47.251186366237" lon="-1.5713491849615902"><ele>37.0</ele><time>2026-04-06T17:18:29.995Z</time></trkpt><trkpt lat="47.25112232849677" lon="-1.5712144877776235"><ele>37.0</ele><time>2026-04-06T17:18:31.995Z</time></trkpt><trkpt lat="47.25108184390445" lon="-1.5711220353856412"><ele>37.0</ele><time>2026-04-06T17:18:32.98Z</time></trkpt><trkpt lat="47.25102174565871" lon="-1.5709396451726285"><ele>37.0</ele><time>2026-04-06T17:18:34.985Z</time></trkpt><trkpt lat="47.2509585461088" lon="-1.5708091389402474"><ele>37.0</ele><time>2026-04-06T17:18:36.998Z</time></trkpt><trkpt lat="47.25091655277391" lon="-1.57073060050753"><ele>37.0</ele><time>2026-04-06T17:18:37.991Z</time></trkpt><trkpt lat="47.2508462286063" lon="-1.5705768764033639"><ele>37.0</ele><time>2026-04-06T17:18:39.989Z</time></trkpt><trkpt lat="47.25078168795188" lon="-1.5704420954003655"><ele>37.0</ele><time>2026-04-06T17:18:41.994Z</time></trkpt><trkpt lat="47.250713333531515" lon="-1.570316702128919"><ele>36.800000000000004</ele><time>2026-04-06T17:18:43.992Z</time></trkpt><trkpt lat="47.250668406530515" lon="-1.5702312067165693"><ele>36.6</ele><time>2026-04-06T17:18:44.99Z</time></trkpt><trkpt lat="47.250609230294124" lon="-1.5700706094518024"><ele>36.400000000000006</ele><time>2026-04-06T17:18:46.988Z</time></trkpt><trkpt lat="47.25055634048511" lon="-1.5699091739967184"><ele>36.2</ele><time>2026-04-06T17:18:48.988Z</time></trkpt><trkpt lat="47.25051656835456" lon="-1.5698142908528165"><ele>36.0</ele><time>2026-04-06T17:18:49.98Z</time></trkpt><trkpt lat="47.25044586700131" lon="-1.5696702897563293"><ele>35.833333333333336</ele><time>2026-04-06T17:18:51.985Z</time></trkpt><trkpt lat="47.250373489267425" lon="-1.5695163980140998"><ele>35.666666666666664</ele><time>2026-04-06T17:18:53.991Z</time></trkpt><trkpt lat="47.250324706590966" lon="-1.5694274660214496"><ele>35.5</ele><time>2026-04-06T17:18:54.979Z</time></trkpt><trkpt lat="47.25028082732786" lon="-1.569326044993074"><ele>35.33333333333333</ele><time>2026-04-06T17:18:55.982Z</time></trkpt><trkpt lat="47.25023875017394" lon="-1.5692335087820601"><ele>35.166666666666664</ele><time>2026-04-06T17:18:56.981Z</time></trkpt><trkpt lat="47.25020966496994" lon="-1.5691118873670409"><ele>35.0</ele><time>2026-04-06T17:18:57.977Z</time></trkpt><trkpt lat="47.250155769332544" lon="-1.5689889248475144"><ele>35.0</ele><time>2026-04-06T17:18:58.978Z</time></trkpt><trkpt lat="47.25011826031585" lon="-1.568891527132661"><ele>35.0</ele><time>2026-04-06T17:18:59.989Z</time></trkpt><trkpt lat="47.25006214347412" lon="-1.5688121505096264"><ele>35.0</ele><time>2026-04-06T17:19:00.99Z</time></trkpt><trkpt lat="47.2499896819212" lon="-1.5687714144602127"><ele>35.0</ele><time>2026-04-06T17:19:01.983Z</time></trkpt><trkpt lat="47.24992803302337" lon="-1.568705281244189"><ele>35.0</ele><time>2026-04-06T17:19:02.992Z</time></trkpt><trkpt lat="47.24983373661269" lon="-1.5686823986485308"><ele>35.0</ele><time>2026-04-06T17:19:03.994Z</time></trkpt><trkpt lat="47.249756413555936" lon="-1.568651972340018"><ele>35.166666666666664</ele><time>2026-04-06T17:19:04.988Z</time></trkpt><trkpt lat="47.24967804276128" lon="-1.5686361305430239"><ele>35.33333333333333</ele><time>2026-04-06T17:19:05.99Z</time></trkpt><trkpt lat="47.249601515985326" lon="-1.5686207078411882"><ele>35.5</ele><time>2026-04-06T17:19:06.991Z</time></trkpt><trkpt lat="47.249522013633744" lon="-1.568627245725662"><ele>35.666666666666664</ele><time>2026-04-06T17:19:07.989Z</time></trkpt><trkpt lat="47.24943505138834" lon="-1.5685975737884348"><ele>35.833333333333336</ele><time>2026-04-06T17:19:08.982Z</time></trkpt><trkpt lat="47.24935785406013" lon="-1.568552730606467"><ele>36.0</ele><time>2026-04-06T17:19:09.984Z</time></trkpt><trkpt lat="47.249277764975325" lon="-1.5685239806785887"><ele>36.0</ele><time>2026-04-06T17:19:10.983Z</time></trkpt><trkpt lat="47.24919239529152" lon="-1.5684879384949508"><ele>36.0</ele><time>2026-04-06T17:19:11.983Z</time></trkpt><trkpt lat="47.24910757043143" lon="-1.5684377308949533"><ele>36.0</ele><time>2026-04-06T17:19:12.982Z</time></trkpt><trkpt lat="47.24902521823277" lon="-1.5683970786645713"><ele>36.0</ele><time>2026-04-06T17:19:13.981Z</time></trkpt><trkpt lat="47.24894932009955" lon="-1.5683627966805997"><ele>36.0</ele><time>2026-04-06T17:19:14.977Z</time></trkpt><trkpt lat="47.24886906337668" lon="-1.5683781355634037"><ele>36.0</ele><time>2026-04-06T17:19:15.982Z</time></trkpt><trkpt lat="47.24878834564914" lon="-1.5683741122498813"><ele>35.333333333333336</ele><time>2026-04-06T17:19:16.976Z</time></trkpt><trkpt lat="47.248713411434785" lon="-1.5683735255166593"><ele>34.666666666666664</ele><time>2026-04-06T17:19:17.988Z</time></trkpt><trkpt lat="47.24861706145783" lon="-1.5683573484435382"><ele>34.0</ele><time>2026-04-06T17:19:18.983Z</time></trkpt><trkpt lat="47.24852339368989" lon="-1.5683099068715873"><ele>33.33333333333333</ele><time>2026-04-06T17:19:19.985Z</time></trkpt><trkpt lat="47.24844091576268" lon="-1.5682809893056455"><ele>32.666666666666664</ele><time>2026-04-06T17:19:20.98Z</time></trkpt><trkpt lat="47.2483561328121" lon="-1.5682669077083173"><ele>32.0</ele><time>2026-04-06T17:19:21.988Z</time></trkpt><trkpt lat="47.24827679809858" lon="-1.5682291053250135"><ele>31.999999999999996</ele><time>2026-04-06T17:19:22.979Z</time></trkpt><trkpt lat="47.2482039174505" lon="-1.5682165324702562"><ele>32.0</ele><time>2026-04-06T17:19:23.977Z</time></trkpt><trkpt lat="47.248133090368704" lon="-1.568189794199139"><ele>32.0</ele><time>2026-04-06T17:19:24.98Z</time></trkpt><trkpt lat="47.248043739280895" lon="-1.5681549254819453"><ele>32.0</ele><time>2026-04-06T17:19:25.976Z</time></trkpt><trkpt lat="47.24796851169993" lon="-1.5681116748615802"><ele>31.999999999999996</ele><time>2026-04-06T17:19:26.988Z</time></trkpt><trkpt lat="47.24790468350728" lon="-1.5680966712549032"><ele>32.0</ele><time>2026-04-06T17:19:27.993Z</time></trkpt><trkpt lat="47.247848566665546" lon="-1.5680398419514001"><ele>31.71428571428571</ele><time>2026-04-06T17:19:28.99Z</time></trkpt><trkpt lat="47.24777618893166" lon="-1.5679697692408858"><ele>31.428571428571423</ele><time>2026-04-06T17:19:29.988Z</time></trkpt><trkpt lat="47.247713701843516" lon="-1.5679150354131757"><ele>31.142857142857142</ele><time>2026-04-06T17:19:30.987Z</time></trkpt><trkpt lat="47.24764396440913" lon="-1.567883435638219"><ele>30.857142857142854</ele><time>2026-04-06T17:19:31.995Z</time></trkpt><trkpt lat="47.24758415953" lon="-1.5678220801070033"><ele>30.57142857142857</ele><time>2026-04-06T17:19:32.989Z</time></trkpt><trkpt lat="47.24751588892867" lon="-1.567785954104334"><ele>30.285714285714285</ele><time>2026-04-06T17:19:33.997Z</time></trkpt><trkpt lat="47.2474588919871" lon="-1.5677221678211983"><ele>30.0</ele><time>2026-04-06T17:19:34.986Z</time></trkpt><trkpt lat="47.24738814872433" lon="-1.5676783304676112"><ele>29.6</ele><time>2026-04-06T17:19:35.994Z</time></trkpt><trkpt lat="47.247275831221835" lon="-1.5676431264742907"><ele>29.2</ele><time>2026-04-06T17:19:37.988Z</time></trkpt><trkpt lat="47.24717805632134" lon="-1.567767933012515"><ele>28.799999999999997</ele><time>2026-04-06T17:19:39.98Z</time></trkpt><trkpt lat="47.247146121270255" lon="-1.567863989622861"><ele>28.4</ele><time>2026-04-06T17:19:40.98Z</time></trkpt><trkpt lat="47.2471066005968" lon="-1.5680349804475606"><ele>28.0</ele><time>2026-04-06T17:19:42.989Z</time></trkpt><trkpt lat="47.24707516845991" lon="-1.5681255050018132"><ele>28.0</ele><time>2026-04-06T17:19:43.981Z</time></trkpt><trkpt lat="47.24702944517811" lon="-1.5683050453677478"><ele>27.999999999999996</ele><time>2026-04-06T17:19:45.996Z</time></trkpt><trkpt lat="47.24702060227026" lon="-1.5684582665577236"><ele>27.999999999999996</ele><time>2026-04-06T17:19:47.981Z</time></trkpt><trkpt lat="47.24698841576208" lon="-1.5685928799226587"><ele>28.0</ele><time>2026-04-06T17:19:49.981Z</time></trkpt><trkpt lat="47.24697559145023" lon="-1.568721206860215"><ele>28.0</ele><time>2026-04-06T17:19:51.982Z</time></trkpt><trkpt lat="47.246971190951065" lon="-1.5688354522004433"><ele>28.142857142857142</ele><time>2026-04-06T17:19:54.995Z</time></trkpt><trkpt lat="47.24692446184088" lon="-1.568903597073228"><ele>28.285714285714285</ele><time>2026-04-06T17:19:59.987Z</time></trkpt><trkpt lat="47.246853550940045" lon="-1.5688924491420098"><ele>28.42857142857143</ele><time>2026-04-06T17:20:02.978Z</time></trkpt><trkpt lat="47.24678519651968" lon="-1.5688571613296576"><ele>28.571428571428573</ele><time>2026-04-06T17:20:04.981Z</time></trkpt><trkpt lat="47.246703305325696" lon="-1.5688339434578724"><ele>28.714285714285715</ele><time>2026-04-06T17:20:07.993Z</time></trkpt><trkpt lat="47.24663616628129" lon="-1.568839978428156"><ele>28.85714285714286</ele><time>2026-04-06T17:20:09.988Z</time></trkpt><trkpt lat="47.246567434675285" lon="-1.5688603464528628"><ele>29.000000000000004</ele><time>2026-04-06T17:20:12.993Z</time></trkpt><trkpt lat="47.24653340414841" lon="-1.5687766950592108"><ele>29.0</ele><time>2026-04-06T17:20:32.99Z</time></trkpt></trkseg></trk></gpx>